<?xml version="1.0" encoding="UTF-8" standalone="no" ?>
<gpx xmlns="http://www.topografix.com/GPX/1/1" xmlns:xsi="http://www.w3.org/2001/XMLSchema-instance" xsi:schemaLocation="http://www.topografix.com/GPX/1/1 http://www.topografix.com/GPX/1/1/gpx.xsd" version="1.1" creator="VisuGPX - https://www.visugpx.com">
  <metadata>
    <name>Enduro navette</name>
  </metadata>
  <trk>
    <name><![CDATA[Enduro navette]]></name>
    <trkseg>
      <trkpt lat="43.21899" lon="6.60961">
        <ele>162.5</ele>
        <time>1970-01-01T00:00:26.000Z</time>
      </trkpt>
      <trkpt lat="43.21898" lon="6.60966">
        <ele>162.1</ele>
        <time>1970-01-01T00:00:27.000Z</time>
      </trkpt>
      <trkpt lat="43.21898" lon="6.60973">
        <ele>161.6</ele>
        <time>1970-01-01T00:00:28.000Z</time>
      </trkpt>
      <trkpt lat="43.21895" lon="6.60979">
        <ele>160.9</ele>
        <time>1970-01-01T00:00:29.000Z</time>
      </trkpt>
      <trkpt lat="43.21893" lon="6.60986">
        <ele>160.2</ele>
        <time>1970-01-01T00:00:30.000Z</time>
      </trkpt>
      <trkpt lat="43.2189" lon="6.60993">
        <ele>159.6</ele>
        <time>1970-01-01T00:00:31.000Z</time>
      </trkpt>
      <trkpt lat="43.21887" lon="6.61002">
        <ele>159</ele>
        <time>1970-01-01T00:00:32.000Z</time>
      </trkpt>
      <trkpt lat="43.21883" lon="6.61012">
        <ele>158.4</ele>
        <time>1970-01-01T00:00:33.000Z</time>
      </trkpt>
      <trkpt lat="43.21876" lon="6.61021">
        <ele>157.6</ele>
        <time>1970-01-01T00:00:34.000Z</time>
      </trkpt>
      <trkpt lat="43.21868" lon="6.61029">
        <ele>156.7</ele>
        <time>1970-01-01T00:00:35.000Z</time>
      </trkpt>
      <trkpt lat="43.21861" lon="6.61034">
        <ele>156.1</ele>
        <time>1970-01-01T00:00:36.000Z</time>
      </trkpt>
      <trkpt lat="43.21852" lon="6.61038">
        <ele>155.5</ele>
        <time>1970-01-01T00:00:37.000Z</time>
      </trkpt>
      <trkpt lat="43.21844" lon="6.61042">
        <ele>155.3</ele>
        <time>1970-01-01T00:00:38.000Z</time>
      </trkpt>
      <trkpt lat="43.21836" lon="6.61047">
        <ele>155.1</ele>
        <time>1970-01-01T00:00:39.000Z</time>
      </trkpt>
      <trkpt lat="43.21827" lon="6.6105">
        <ele>154.9</ele>
        <time>1970-01-01T00:00:40.000Z</time>
      </trkpt>
      <trkpt lat="43.21819" lon="6.61053">
        <ele>154.7</ele>
        <time>1970-01-01T00:00:41.000Z</time>
      </trkpt>
      <trkpt lat="43.21811" lon="6.61055">
        <ele>154.7</ele>
        <time>1970-01-01T00:00:42.000Z</time>
      </trkpt>
      <trkpt lat="43.21802" lon="6.61056">
        <ele>156.8</ele>
        <time>1970-01-01T00:00:43.000Z</time>
      </trkpt>
      <trkpt lat="43.21792" lon="6.61055">
        <ele>156.8</ele>
        <time>1970-01-01T00:00:44.000Z</time>
      </trkpt>
      <trkpt lat="43.21784" lon="6.61053">
        <ele>156.8</ele>
        <time>1970-01-01T00:00:45.000Z</time>
      </trkpt>
      <trkpt lat="43.21776" lon="6.61048">
        <ele>156.5</ele>
        <time>1970-01-01T00:00:46.000Z</time>
      </trkpt>
      <trkpt lat="43.2177" lon="6.6104">
        <ele>155.6</ele>
        <time>1970-01-01T00:00:47.000Z</time>
      </trkpt>
      <trkpt lat="43.21765" lon="6.61027">
        <ele>154.4</ele>
        <time>1970-01-01T00:00:48.000Z</time>
      </trkpt>
      <trkpt lat="43.21759" lon="6.61016">
        <ele>153.2</ele>
        <time>1970-01-01T00:00:49.000Z</time>
      </trkpt>
      <trkpt lat="43.21753" lon="6.61006">
        <ele>152</ele>
        <time>1970-01-01T00:00:50.000Z</time>
      </trkpt>
      <trkpt lat="43.21749" lon="6.60994">
        <ele>150.7</ele>
        <time>1970-01-01T00:00:51.000Z</time>
      </trkpt>
      <trkpt lat="43.21747" lon="6.6098">
        <ele>149.3</ele>
        <time>1970-01-01T00:00:52.000Z</time>
      </trkpt>
      <trkpt lat="43.21742" lon="6.60969">
        <ele>148.1</ele>
        <time>1970-01-01T00:00:53.000Z</time>
      </trkpt>
      <trkpt lat="43.21735" lon="6.60963">
        <ele>147</ele>
        <time>1970-01-01T00:00:54.000Z</time>
      </trkpt>
      <trkpt lat="43.21726" lon="6.60966">
        <ele>145.8</ele>
        <time>1970-01-01T00:00:55.000Z</time>
      </trkpt>
      <trkpt lat="43.21718" lon="6.60975">
        <ele>144.5</ele>
        <time>1970-01-01T00:00:56.000Z</time>
      </trkpt>
      <trkpt lat="43.21713" lon="6.60986">
        <ele>142.1</ele>
        <time>1970-01-01T00:00:57.000Z</time>
      </trkpt>
      <trkpt lat="43.2171" lon="6.60995">
        <ele>142.5</ele>
        <time>1970-01-01T00:00:59.000Z</time>
      </trkpt>
      <trkpt lat="43.21707" lon="6.61004">
        <ele>142.9</ele>
        <time>1970-01-01T00:01:00.000Z</time>
      </trkpt>
      <trkpt lat="43.21705" lon="6.61012">
        <ele>143.2</ele>
        <time>1970-01-01T00:01:01.000Z</time>
      </trkpt>
      <trkpt lat="43.21704" lon="6.61019">
        <ele>143.4</ele>
        <time>1970-01-01T00:01:02.000Z</time>
      </trkpt>
      <trkpt lat="43.21702" lon="6.61023">
        <ele>143.6</ele>
        <time>1970-01-01T00:01:03.000Z</time>
      </trkpt>
      <trkpt lat="43.21701" lon="6.61029">
        <ele>143.8</ele>
        <time>1970-01-01T00:01:04.000Z</time>
      </trkpt>
      <trkpt lat="43.21699" lon="6.61036">
        <ele>143.9</ele>
        <time>1970-01-01T00:01:05.000Z</time>
      </trkpt>
      <trkpt lat="43.21698" lon="6.61042">
        <ele>144.1</ele>
        <time>1970-01-01T00:01:06.000Z</time>
      </trkpt>
      <trkpt lat="43.21697" lon="6.61047">
        <ele>144.3</ele>
        <time>1970-01-01T00:01:07.000Z</time>
      </trkpt>
      <trkpt lat="43.21695" lon="6.61053">
        <ele>144.5</ele>
        <time>1970-01-01T00:01:08.000Z</time>
      </trkpt>
      <trkpt lat="43.21694" lon="6.61057">
        <ele>144.6</ele>
        <time>1970-01-01T00:01:09.000Z</time>
      </trkpt>
      <trkpt lat="43.21692" lon="6.61063">
        <ele>144.7</ele>
        <time>1970-01-01T00:01:10.000Z</time>
      </trkpt>
      <trkpt lat="43.21689" lon="6.61068">
        <ele>144.9</ele>
        <time>1970-01-01T00:01:11.000Z</time>
      </trkpt>
      <trkpt lat="43.21684" lon="6.61073">
        <ele>145.1</ele>
        <time>1970-01-01T00:01:12.000Z</time>
      </trkpt>
      <trkpt lat="43.21678" lon="6.61076">
        <ele>145.3</ele>
        <time>1970-01-01T00:01:13.000Z</time>
      </trkpt>
      <trkpt lat="43.21673" lon="6.61079">
        <ele>145.4</ele>
        <time>1970-01-01T00:01:14.000Z</time>
      </trkpt>
      <trkpt lat="43.21668" lon="6.61083">
        <ele>145.5</ele>
        <time>1970-01-01T00:01:15.000Z</time>
      </trkpt>
      <trkpt lat="43.21663" lon="6.61086">
        <ele>145.5</ele>
        <time>1970-01-01T00:01:16.000Z</time>
      </trkpt>
      <trkpt lat="43.2166" lon="6.61092">
        <ele>145.6</ele>
        <time>1970-01-01T00:01:17.000Z</time>
      </trkpt>
      <trkpt lat="43.21654" lon="6.61095">
        <ele>145.7</ele>
        <time>1970-01-01T00:01:18.000Z</time>
      </trkpt>
      <trkpt lat="43.2165" lon="6.61097">
        <ele>145.7</ele>
        <time>1970-01-01T00:01:19.000Z</time>
      </trkpt>
      <trkpt lat="43.21644" lon="6.61098">
        <ele>145.7</ele>
        <time>1970-01-01T00:01:20.000Z</time>
      </trkpt>
      <trkpt lat="43.21638" lon="6.611">
        <ele>145.8</ele>
        <time>1970-01-01T00:01:21.000Z</time>
      </trkpt>
      <trkpt lat="43.21633" lon="6.61101">
        <ele>145.8</ele>
        <time>1970-01-01T00:01:22.000Z</time>
      </trkpt>
      <trkpt lat="43.21627" lon="6.61101">
        <ele>145.8</ele>
        <time>1970-01-01T00:01:23.000Z</time>
      </trkpt>
      <trkpt lat="43.21621" lon="6.61102">
        <ele>145.8</ele>
        <time>1970-01-01T00:01:24.000Z</time>
      </trkpt>
      <trkpt lat="43.21616" lon="6.61102">
        <ele>145.8</ele>
        <time>1970-01-01T00:01:25.000Z</time>
      </trkpt>
      <trkpt lat="43.2161" lon="6.61102">
        <ele>145.8</ele>
        <time>1970-01-01T00:01:26.000Z</time>
      </trkpt>
      <trkpt lat="43.21605" lon="6.61103">
        <ele>145.8</ele>
        <time>1970-01-01T00:01:27.000Z</time>
      </trkpt>
      <trkpt lat="43.21601" lon="6.61102">
        <ele>145.8</ele>
        <time>1970-01-01T00:01:28.000Z</time>
      </trkpt>
      <trkpt lat="43.21595" lon="6.61102">
        <ele>145.8</ele>
        <time>1970-01-01T00:01:29.000Z</time>
      </trkpt>
      <trkpt lat="43.2159" lon="6.61103">
        <ele>145.7</ele>
        <time>1970-01-01T00:01:30.000Z</time>
      </trkpt>
      <trkpt lat="43.21584" lon="6.61103">
        <ele>145.7</ele>
        <time>1970-01-01T00:01:31.000Z</time>
      </trkpt>
      <trkpt lat="43.21578" lon="6.61103">
        <ele>145.6</ele>
        <time>1970-01-01T00:01:32.000Z</time>
      </trkpt>
      <trkpt lat="43.21572" lon="6.61103">
        <ele>145.5</ele>
        <time>1970-01-01T00:01:33.000Z</time>
      </trkpt>
      <trkpt lat="43.21566" lon="6.61104">
        <ele>145.4</ele>
        <time>1970-01-01T00:01:34.000Z</time>
      </trkpt>
      <trkpt lat="43.2156" lon="6.61104">
        <ele>145.3</ele>
        <time>1970-01-01T00:01:35.000Z</time>
      </trkpt>
      <trkpt lat="43.21554" lon="6.61104">
        <ele>145.3</ele>
        <time>1970-01-01T00:01:36.000Z</time>
      </trkpt>
      <trkpt lat="43.21548" lon="6.61105">
        <ele>145.2</ele>
        <time>1970-01-01T00:01:37.000Z</time>
      </trkpt>
      <trkpt lat="43.21542" lon="6.61104">
        <ele>145.1</ele>
        <time>1970-01-01T00:01:38.000Z</time>
      </trkpt>
      <trkpt lat="43.21536" lon="6.61105">
        <ele>145</ele>
        <time>1970-01-01T00:01:39.000Z</time>
      </trkpt>
      <trkpt lat="43.21529" lon="6.61105">
        <ele>145</ele>
        <time>1970-01-01T00:01:40.000Z</time>
      </trkpt>
      <trkpt lat="43.21523" lon="6.61107">
        <ele>145</ele>
        <time>1970-01-01T00:01:41.000Z</time>
      </trkpt>
      <trkpt lat="43.21518" lon="6.61108">
        <ele>145</ele>
        <time>1970-01-01T00:01:42.000Z</time>
      </trkpt>
      <trkpt lat="43.21513" lon="6.6111">
        <ele>145</ele>
        <time>1970-01-01T00:01:43.000Z</time>
      </trkpt>
      <trkpt lat="43.21507" lon="6.61109">
        <ele>145.1</ele>
        <time>1970-01-01T00:01:44.000Z</time>
      </trkpt>
      <trkpt lat="43.21502" lon="6.61109">
        <ele>145.2</ele>
        <time>1970-01-01T00:01:45.000Z</time>
      </trkpt>
      <trkpt lat="43.21497" lon="6.61109">
        <ele>145.2</ele>
        <time>1970-01-01T00:01:46.000Z</time>
      </trkpt>
      <trkpt lat="43.21491" lon="6.61109">
        <ele>145.3</ele>
        <time>1970-01-01T00:01:47.000Z</time>
      </trkpt>
      <trkpt lat="43.21485" lon="6.6111">
        <ele>145.5</ele>
        <time>1970-01-01T00:01:48.000Z</time>
      </trkpt>
      <trkpt lat="43.21482" lon="6.61111">
        <ele>145.6</ele>
        <time>1970-01-01T00:01:49.000Z</time>
      </trkpt>
      <trkpt lat="43.21481" lon="6.61104">
        <ele>146.9</ele>
        <time>1970-01-01T00:01:50.000Z</time>
      </trkpt>
      <trkpt lat="43.21481" lon="6.61099">
        <ele>147.4</ele>
        <time>1970-01-01T00:01:51.000Z</time>
      </trkpt>
      <trkpt lat="43.21479" lon="6.61099">
        <ele>147.6</ele>
        <time>1970-01-01T00:01:52.000Z</time>
      </trkpt>
      <trkpt lat="43.21478" lon="6.61097">
        <ele>147.9</ele>
        <time>1970-01-01T00:01:53.000Z</time>
      </trkpt>
      <trkpt lat="43.21477" lon="6.61095">
        <ele>148.1</ele>
        <time>1970-01-01T00:01:54.000Z</time>
      </trkpt>
      <trkpt lat="43.21476" lon="6.61094">
        <ele>148.2</ele>
        <time>1970-01-01T00:01:55.000Z</time>
      </trkpt>
      <trkpt lat="43.21475" lon="6.61091">
        <ele>148.6</ele>
        <time>1970-01-01T00:01:56.000Z</time>
      </trkpt>
      <trkpt lat="43.21473" lon="6.61087">
        <ele>149</ele>
        <time>1970-01-01T00:01:57.000Z</time>
      </trkpt>
      <trkpt lat="43.21473" lon="6.61085">
        <ele>149.2</ele>
        <time>1970-01-01T00:01:58.000Z</time>
      </trkpt>
      <trkpt lat="43.21471" lon="6.61082">
        <ele>149.6</ele>
        <time>1970-01-01T00:01:59.000Z</time>
      </trkpt>
      <trkpt lat="43.2147" lon="6.6108">
        <ele>149.8</ele>
        <time>1970-01-01T00:02:00.000Z</time>
      </trkpt>
      <trkpt lat="43.2147" lon="6.61076">
        <ele>150</ele>
        <time>1970-01-01T00:02:01.000Z</time>
      </trkpt>
      <trkpt lat="43.21469" lon="6.61072">
        <ele>150.4</ele>
        <time>1970-01-01T00:02:02.000Z</time>
      </trkpt>
      <trkpt lat="43.21469" lon="6.61071">
        <ele>150.5</ele>
        <time>1970-01-01T00:02:03.000Z</time>
      </trkpt>
      <trkpt lat="43.21469" lon="6.61067">
        <ele>150.9</ele>
        <time>1970-01-01T00:02:04.000Z</time>
      </trkpt>
      <trkpt lat="43.21469" lon="6.61066">
        <ele>151.1</ele>
        <time>1970-01-01T00:02:05.000Z</time>
      </trkpt>
      <trkpt lat="43.21469" lon="6.61062">
        <ele>151.5</ele>
        <time>1970-01-01T00:02:06.000Z</time>
      </trkpt>
      <trkpt lat="43.21469" lon="6.61061">
        <ele>151.6</ele>
        <time>1970-01-01T00:02:07.000Z</time>
      </trkpt>
      <trkpt lat="43.21468" lon="6.61056">
        <ele>152.1</ele>
        <time>1970-01-01T00:02:08.000Z</time>
      </trkpt>
      <trkpt lat="43.21468" lon="6.61054">
        <ele>152.3</ele>
        <time>1970-01-01T00:02:09.000Z</time>
      </trkpt>
      <trkpt lat="43.21468" lon="6.6105">
        <ele>152.7</ele>
        <time>1970-01-01T00:02:10.000Z</time>
      </trkpt>
      <trkpt lat="43.21468" lon="6.61048">
        <ele>152.9</ele>
        <time>1970-01-01T00:02:11.000Z</time>
      </trkpt>
      <trkpt lat="43.21468" lon="6.61044">
        <ele>153.3</ele>
        <time>1970-01-01T00:02:12.000Z</time>
      </trkpt>
      <trkpt lat="43.21468" lon="6.61042">
        <ele>153.5</ele>
        <time>1970-01-01T00:02:13.000Z</time>
      </trkpt>
      <trkpt lat="43.21469" lon="6.61038">
        <ele>154</ele>
        <time>1970-01-01T00:02:14.000Z</time>
      </trkpt>
      <trkpt lat="43.21469" lon="6.61036">
        <ele>154.1</ele>
        <time>1970-01-01T00:02:15.000Z</time>
      </trkpt>
      <trkpt lat="43.21469" lon="6.61033">
        <ele>154.4</ele>
        <time>1970-01-01T00:02:16.000Z</time>
      </trkpt>
      <trkpt lat="43.21468" lon="6.61031">
        <ele>154.7</ele>
        <time>1970-01-01T00:02:17.000Z</time>
      </trkpt>
      <trkpt lat="43.21469" lon="6.61026">
        <ele>155.2</ele>
        <time>1970-01-01T00:02:18.000Z</time>
      </trkpt>
      <trkpt lat="43.21469" lon="6.61024">
        <ele>155.3</ele>
        <time>1970-01-01T00:02:19.000Z</time>
      </trkpt>
      <trkpt lat="43.21467" lon="6.61019">
        <ele>155.9</ele>
        <time>1970-01-01T00:02:20.000Z</time>
      </trkpt>
      <trkpt lat="43.21467" lon="6.61017">
        <ele>156.2</ele>
        <time>1970-01-01T00:02:21.000Z</time>
      </trkpt>
      <trkpt lat="43.21465" lon="6.61013">
        <ele>156.7</ele>
        <time>1970-01-01T00:02:22.000Z</time>
      </trkpt>
      <trkpt lat="43.21464" lon="6.61011">
        <ele>156.8</ele>
        <time>1970-01-01T00:02:23.000Z</time>
      </trkpt>
      <trkpt lat="43.21463" lon="6.61007">
        <ele>157.3</ele>
        <time>1970-01-01T00:02:24.000Z</time>
      </trkpt>
      <trkpt lat="43.21462" lon="6.61005">
        <ele>157.5</ele>
        <time>1970-01-01T00:02:25.000Z</time>
      </trkpt>
      <trkpt lat="43.21461" lon="6.61004">
        <ele>157.7</ele>
        <time>1970-01-01T00:02:26.000Z</time>
      </trkpt>
      <trkpt lat="43.21459" lon="6.61">
        <ele>158.1</ele>
        <time>1970-01-01T00:02:27.000Z</time>
      </trkpt>
      <trkpt lat="43.21458" lon="6.60999">
        <ele>158.2</ele>
        <time>1970-01-01T00:02:28.000Z</time>
      </trkpt>
      <trkpt lat="43.21455" lon="6.60998">
        <ele>158.6</ele>
        <time>1970-01-01T00:02:29.000Z</time>
      </trkpt>
      <trkpt lat="43.21453" lon="6.60998">
        <ele>158.8</ele>
        <time>1970-01-01T00:02:30.000Z</time>
      </trkpt>
      <trkpt lat="43.21449" lon="6.60998">
        <ele>159.3</ele>
        <time>1970-01-01T00:02:31.000Z</time>
      </trkpt>
      <trkpt lat="43.21448" lon="6.60999">
        <ele>159.4</ele>
        <time>1970-01-01T00:02:32.000Z</time>
      </trkpt>
      <trkpt lat="43.21444" lon="6.61">
        <ele>159.9</ele>
        <time>1970-01-01T00:02:33.000Z</time>
      </trkpt>
      <trkpt lat="43.21443" lon="6.61001">
        <ele>160.1</ele>
        <time>1970-01-01T00:02:34.000Z</time>
      </trkpt>
      <trkpt lat="43.2144" lon="6.61002">
        <ele>160.4</ele>
        <time>1970-01-01T00:02:35.000Z</time>
      </trkpt>
      <trkpt lat="43.21436" lon="6.61005">
        <ele>160.8</ele>
        <time>1970-01-01T00:02:36.000Z</time>
      </trkpt>
      <trkpt lat="43.21435" lon="6.61005">
        <ele>161.1</ele>
        <time>1970-01-01T00:02:37.000Z</time>
      </trkpt>
      <trkpt lat="43.21432" lon="6.61006">
        <ele>161.4</ele>
        <time>1970-01-01T00:02:38.000Z</time>
      </trkpt>
      <trkpt lat="43.21428" lon="6.61008">
        <ele>161.9</ele>
        <time>1970-01-01T00:02:39.000Z</time>
      </trkpt>
      <trkpt lat="43.21426" lon="6.61009">
        <ele>162.1</ele>
        <time>1970-01-01T00:02:40.000Z</time>
      </trkpt>
      <trkpt lat="43.21424" lon="6.61011">
        <ele>162.5</ele>
        <time>1970-01-01T00:02:41.000Z</time>
      </trkpt>
      <trkpt lat="43.2142" lon="6.61011">
        <ele>162.9</ele>
        <time>1970-01-01T00:02:42.000Z</time>
      </trkpt>
      <trkpt lat="43.21419" lon="6.61012">
        <ele>163.1</ele>
        <time>1970-01-01T00:02:43.000Z</time>
      </trkpt>
      <trkpt lat="43.21416" lon="6.61012">
        <ele>163.5</ele>
        <time>1970-01-01T00:02:44.000Z</time>
      </trkpt>
      <trkpt lat="43.21413" lon="6.61012">
        <ele>163.8</ele>
        <time>1970-01-01T00:02:45.000Z</time>
      </trkpt>
      <trkpt lat="43.21409" lon="6.61012">
        <ele>164.3</ele>
        <time>1970-01-01T00:02:46.000Z</time>
      </trkpt>
      <trkpt lat="43.21408" lon="6.61012">
        <ele>164.5</ele>
        <time>1970-01-01T00:02:47.000Z</time>
      </trkpt>
      <trkpt lat="43.21404" lon="6.61013">
        <ele>164.9</ele>
        <time>1970-01-01T00:02:48.000Z</time>
      </trkpt>
      <trkpt lat="43.21403" lon="6.61013">
        <ele>165.1</ele>
        <time>1970-01-01T00:02:49.000Z</time>
      </trkpt>
      <trkpt lat="43.21401" lon="6.61012">
        <ele>165.5</ele>
        <time>1970-01-01T00:02:50.000Z</time>
      </trkpt>
      <trkpt lat="43.21397" lon="6.61011">
        <ele>166</ele>
        <time>1970-01-01T00:02:51.000Z</time>
      </trkpt>
      <trkpt lat="43.21396" lon="6.61011">
        <ele>166.1</ele>
        <time>1970-01-01T00:02:52.000Z</time>
      </trkpt>
      <trkpt lat="43.21395" lon="6.6101">
        <ele>166.3</ele>
        <time>1970-01-01T00:02:53.000Z</time>
      </trkpt>
      <trkpt lat="43.21395" lon="6.61008">
        <ele>166.6</ele>
        <time>1970-01-01T00:02:54.000Z</time>
      </trkpt>
      <trkpt lat="43.21393" lon="6.61008">
        <ele>166.9</ele>
        <time>1970-01-01T00:02:55.000Z</time>
      </trkpt>
      <trkpt lat="43.21392" lon="6.61007">
        <ele>167</ele>
        <time>1970-01-01T00:02:56.000Z</time>
      </trkpt>
      <trkpt lat="43.21391" lon="6.61006">
        <ele>167.1</ele>
        <time>1970-01-01T00:02:57.000Z</time>
      </trkpt>
      <trkpt lat="43.2139" lon="6.61002">
        <ele>167.6</ele>
        <time>1970-01-01T00:02:58.000Z</time>
      </trkpt>
      <trkpt lat="43.2139" lon="6.61001">
        <ele>167.7</ele>
        <time>1970-01-01T00:02:59.000Z</time>
      </trkpt>
      <trkpt lat="43.21388" lon="6.61">
        <ele>168</ele>
        <time>1970-01-01T00:03:00.000Z</time>
      </trkpt>
      <trkpt lat="43.21388" lon="6.60999">
        <ele>168.1</ele>
        <time>1970-01-01T00:03:01.000Z</time>
      </trkpt>
      <trkpt lat="43.21387" lon="6.60999">
        <ele>168.2</ele>
        <time>1970-01-01T00:03:02.000Z</time>
      </trkpt>
      <trkpt lat="43.21386" lon="6.60999">
        <ele>168.4</ele>
        <time>1970-01-01T00:03:03.000Z</time>
      </trkpt>
      <trkpt lat="43.21385" lon="6.60998">
        <ele>168.5</ele>
        <time>1970-01-01T00:03:04.000Z</time>
      </trkpt>
      <trkpt lat="43.21384" lon="6.60998">
        <ele>168.6</ele>
        <time>1970-01-01T00:03:05.000Z</time>
      </trkpt>
      <trkpt lat="43.21383" lon="6.60997">
        <ele>168.8</ele>
        <time>1970-01-01T00:03:06.000Z</time>
      </trkpt>
      <trkpt lat="43.21382" lon="6.60997">
        <ele>168.9</ele>
        <time>1970-01-01T00:03:07.000Z</time>
      </trkpt>
      <trkpt lat="43.21381" lon="6.60997">
        <ele>169</ele>
        <time>1970-01-01T00:03:08.000Z</time>
      </trkpt>
      <trkpt lat="43.2138" lon="6.60996">
        <ele>169.1</ele>
        <time>1970-01-01T00:03:09.000Z</time>
      </trkpt>
      <trkpt lat="43.21379" lon="6.60996">
        <ele>169.2</ele>
        <time>1970-01-01T00:03:10.000Z</time>
      </trkpt>
      <trkpt lat="43.21378" lon="6.60996">
        <ele>169.3</ele>
        <time>1970-01-01T00:03:21.000Z</time>
      </trkpt>
      <trkpt lat="43.21377" lon="6.60995">
        <ele>169.5</ele>
        <time>1970-01-01T00:03:22.000Z</time>
      </trkpt>
      <trkpt lat="43.21376" lon="6.60995">
        <ele>169.6</ele>
        <time>1970-01-01T00:03:23.000Z</time>
      </trkpt>
      <trkpt lat="43.21374" lon="6.60995">
        <ele>169.8</ele>
        <time>1970-01-01T00:03:24.000Z</time>
      </trkpt>
      <trkpt lat="43.21373" lon="6.60995">
        <ele>169.9</ele>
        <time>1970-01-01T00:03:25.000Z</time>
      </trkpt>
      <trkpt lat="43.21372" lon="6.60995">
        <ele>170</ele>
        <time>1970-01-01T00:03:26.000Z</time>
      </trkpt>
      <trkpt lat="43.2137" lon="6.60995">
        <ele>170.1</ele>
        <time>1970-01-01T00:03:27.000Z</time>
      </trkpt>
      <trkpt lat="43.21369" lon="6.60996">
        <ele>170.2</ele>
        <time>1970-01-01T00:03:28.000Z</time>
      </trkpt>
      <trkpt lat="43.21365" lon="6.60998">
        <ele>170.6</ele>
        <time>1970-01-01T00:03:29.000Z</time>
      </trkpt>
      <trkpt lat="43.21363" lon="6.60998">
        <ele>170.7</ele>
        <time>1970-01-01T00:03:30.000Z</time>
      </trkpt>
      <trkpt lat="43.2136" lon="6.60999">
        <ele>170.9</ele>
        <time>1970-01-01T00:03:31.000Z</time>
      </trkpt>
      <trkpt lat="43.21357" lon="6.61">
        <ele>171.1</ele>
        <time>1970-01-01T00:03:32.000Z</time>
      </trkpt>
      <trkpt lat="43.21355" lon="6.61002">
        <ele>171.3</ele>
        <time>1970-01-01T00:03:33.000Z</time>
      </trkpt>
      <trkpt lat="43.21353" lon="6.61004">
        <ele>171.5</ele>
        <time>1970-01-01T00:03:34.000Z</time>
      </trkpt>
      <trkpt lat="43.21348" lon="6.61006">
        <ele>171.9</ele>
        <time>1970-01-01T00:03:35.000Z</time>
      </trkpt>
      <trkpt lat="43.21346" lon="6.61007">
        <ele>172</ele>
        <time>1970-01-01T00:03:36.000Z</time>
      </trkpt>
      <trkpt lat="43.21344" lon="6.61009">
        <ele>172.3</ele>
        <time>1970-01-01T00:03:37.000Z</time>
      </trkpt>
      <trkpt lat="43.2134" lon="6.6101">
        <ele>172.5</ele>
        <time>1970-01-01T00:03:38.000Z</time>
      </trkpt>
      <trkpt lat="43.21336" lon="6.61011">
        <ele>172.8</ele>
        <time>1970-01-01T00:03:39.000Z</time>
      </trkpt>
      <trkpt lat="43.21335" lon="6.61012">
        <ele>172.9</ele>
        <time>1970-01-01T00:03:40.000Z</time>
      </trkpt>
      <trkpt lat="43.21332" lon="6.61015">
        <ele>173.2</ele>
        <time>1970-01-01T00:03:41.000Z</time>
      </trkpt>
      <trkpt lat="43.21329" lon="6.61017">
        <ele>173.4</ele>
        <time>1970-01-01T00:03:42.000Z</time>
      </trkpt>
      <trkpt lat="43.21326" lon="6.61019">
        <ele>173.6</ele>
        <time>1970-01-01T00:03:43.000Z</time>
      </trkpt>
      <trkpt lat="43.21323" lon="6.61021">
        <ele>173.8</ele>
        <time>1970-01-01T00:03:44.000Z</time>
      </trkpt>
      <trkpt lat="43.2132" lon="6.61024">
        <ele>174.1</ele>
        <time>1970-01-01T00:03:45.000Z</time>
      </trkpt>
      <trkpt lat="43.21319" lon="6.61025">
        <ele>174.2</ele>
        <time>1970-01-01T00:03:46.000Z</time>
      </trkpt>
      <trkpt lat="43.21316" lon="6.61026">
        <ele>174.3</ele>
        <time>1970-01-01T00:03:47.000Z</time>
      </trkpt>
      <trkpt lat="43.21315" lon="6.61026">
        <ele>174.4</ele>
        <time>1970-01-01T00:03:48.000Z</time>
      </trkpt>
      <trkpt lat="43.21311" lon="6.61028">
        <ele>174.7</ele>
        <time>1970-01-01T00:03:49.000Z</time>
      </trkpt>
      <trkpt lat="43.2131" lon="6.61029">
        <ele>174.8</ele>
        <time>1970-01-01T00:03:50.000Z</time>
      </trkpt>
      <trkpt lat="43.21307" lon="6.61029">
        <ele>175</ele>
        <time>1970-01-01T00:03:51.000Z</time>
      </trkpt>
      <trkpt lat="43.21303" lon="6.61028">
        <ele>175.3</ele>
        <time>1970-01-01T00:03:52.000Z</time>
      </trkpt>
      <trkpt lat="43.21302" lon="6.61028">
        <ele>175.4</ele>
        <time>1970-01-01T00:03:53.000Z</time>
      </trkpt>
      <trkpt lat="43.21299" lon="6.61028">
        <ele>175.5</ele>
        <time>1970-01-01T00:03:54.000Z</time>
      </trkpt>
      <trkpt lat="43.21295" lon="6.61025">
        <ele>175.8</ele>
        <time>1970-01-01T00:03:55.000Z</time>
      </trkpt>
      <trkpt lat="43.21294" lon="6.61024">
        <ele>175.9</ele>
        <time>1970-01-01T00:03:56.000Z</time>
      </trkpt>
      <trkpt lat="43.21292" lon="6.61022">
        <ele>176.1</ele>
        <time>1970-01-01T00:03:57.000Z</time>
      </trkpt>
      <trkpt lat="43.2129" lon="6.61021">
        <ele>176.2</ele>
        <time>1970-01-01T00:03:58.000Z</time>
      </trkpt>
      <trkpt lat="43.21289" lon="6.61022">
        <ele>176.3</ele>
        <time>1970-01-01T00:03:59.000Z</time>
      </trkpt>
      <trkpt lat="43.21288" lon="6.61021">
        <ele>176.4</ele>
        <time>1970-01-01T00:04:00.000Z</time>
      </trkpt>
      <trkpt lat="43.21285" lon="6.61018">
        <ele>176.7</ele>
        <time>1970-01-01T00:04:01.000Z</time>
      </trkpt>
      <trkpt lat="43.21284" lon="6.61017">
        <ele>176.8</ele>
        <time>1970-01-01T00:04:02.000Z</time>
      </trkpt>
      <trkpt lat="43.21281" lon="6.61014">
        <ele>177</ele>
        <time>1970-01-01T00:04:03.000Z</time>
      </trkpt>
      <trkpt lat="43.2128" lon="6.61014">
        <ele>177.1</ele>
        <time>1970-01-01T00:04:04.000Z</time>
      </trkpt>
      <trkpt lat="43.21277" lon="6.61011">
        <ele>177.4</ele>
        <time>1970-01-01T00:04:05.000Z</time>
      </trkpt>
      <trkpt lat="43.21276" lon="6.6101">
        <ele>177.5</ele>
        <time>1970-01-01T00:04:06.000Z</time>
      </trkpt>
      <trkpt lat="43.21273" lon="6.61008">
        <ele>177.8</ele>
        <time>1970-01-01T00:04:07.000Z</time>
      </trkpt>
      <trkpt lat="43.21272" lon="6.61007">
        <ele>177.9</ele>
        <time>1970-01-01T00:04:08.000Z</time>
      </trkpt>
      <trkpt lat="43.21268" lon="6.61007">
        <ele>178.2</ele>
        <time>1970-01-01T00:04:09.000Z</time>
      </trkpt>
      <trkpt lat="43.21266" lon="6.61006">
        <ele>178.3</ele>
        <time>1970-01-01T00:04:10.000Z</time>
      </trkpt>
      <trkpt lat="43.21263" lon="6.61006">
        <ele>178.5</ele>
        <time>1970-01-01T00:04:11.000Z</time>
      </trkpt>
      <trkpt lat="43.2126" lon="6.61006">
        <ele>178.8</ele>
        <time>1970-01-01T00:04:12.000Z</time>
      </trkpt>
      <trkpt lat="43.21256" lon="6.61006">
        <ele>179</ele>
        <time>1970-01-01T00:04:13.000Z</time>
      </trkpt>
      <trkpt lat="43.21252" lon="6.61006">
        <ele>179.3</ele>
        <time>1970-01-01T00:04:14.000Z</time>
      </trkpt>
      <trkpt lat="43.2125" lon="6.61006">
        <ele>179.5</ele>
        <time>1970-01-01T00:04:15.000Z</time>
      </trkpt>
      <trkpt lat="43.21247" lon="6.61007">
        <ele>179.7</ele>
        <time>1970-01-01T00:04:16.000Z</time>
      </trkpt>
      <trkpt lat="43.21244" lon="6.61008">
        <ele>179.9</ele>
        <time>1970-01-01T00:04:17.000Z</time>
      </trkpt>
      <trkpt lat="43.21241" lon="6.61009">
        <ele>180.1</ele>
        <time>1970-01-01T00:04:18.000Z</time>
      </trkpt>
      <trkpt lat="43.2124" lon="6.6101">
        <ele>180.2</ele>
        <time>1970-01-01T00:04:19.000Z</time>
      </trkpt>
      <trkpt lat="43.21238" lon="6.61011">
        <ele>180.4</ele>
        <time>1970-01-01T00:04:20.000Z</time>
      </trkpt>
      <trkpt lat="43.21235" lon="6.61011">
        <ele>180.6</ele>
        <time>1970-01-01T00:04:21.000Z</time>
      </trkpt>
      <trkpt lat="43.21232" lon="6.61012">
        <ele>180.8</ele>
        <time>1970-01-01T00:04:22.000Z</time>
      </trkpt>
      <trkpt lat="43.21231" lon="6.61012">
        <ele>180.9</ele>
        <time>1970-01-01T00:04:23.000Z</time>
      </trkpt>
      <trkpt lat="43.21228" lon="6.61013">
        <ele>181.1</ele>
        <time>1970-01-01T00:04:24.000Z</time>
      </trkpt>
      <trkpt lat="43.21225" lon="6.61015">
        <ele>181.4</ele>
        <time>1970-01-01T00:04:25.000Z</time>
      </trkpt>
      <trkpt lat="43.21222" lon="6.61016">
        <ele>181.6</ele>
        <time>1970-01-01T00:04:26.000Z</time>
      </trkpt>
      <trkpt lat="43.2122" lon="6.61016">
        <ele>181.7</ele>
        <time>1970-01-01T00:04:27.000Z</time>
      </trkpt>
      <trkpt lat="43.21218" lon="6.61018">
        <ele>182</ele>
        <time>1970-01-01T00:04:28.000Z</time>
      </trkpt>
      <trkpt lat="43.21214" lon="6.61018">
        <ele>182.2</ele>
        <time>1970-01-01T00:04:29.000Z</time>
      </trkpt>
      <trkpt lat="43.21211" lon="6.61019">
        <ele>182.5</ele>
        <time>1970-01-01T00:04:30.000Z</time>
      </trkpt>
      <trkpt lat="43.21209" lon="6.61019">
        <ele>182.7</ele>
        <time>1970-01-01T00:04:31.000Z</time>
      </trkpt>
      <trkpt lat="43.21206" lon="6.6102">
        <ele>182.9</ele>
        <time>1970-01-01T00:04:32.000Z</time>
      </trkpt>
      <trkpt lat="43.21203" lon="6.6102">
        <ele>183.2</ele>
        <time>1970-01-01T00:04:33.000Z</time>
      </trkpt>
      <trkpt lat="43.212" lon="6.61021">
        <ele>183.4</ele>
        <time>1970-01-01T00:04:34.000Z</time>
      </trkpt>
      <trkpt lat="43.21197" lon="6.61022">
        <ele>183.7</ele>
        <time>1970-01-01T00:04:35.000Z</time>
      </trkpt>
      <trkpt lat="43.21194" lon="6.61021">
        <ele>184</ele>
        <time>1970-01-01T00:04:36.000Z</time>
      </trkpt>
      <trkpt lat="43.21189" lon="6.61022">
        <ele>184.4</ele>
        <time>1970-01-01T00:04:37.000Z</time>
      </trkpt>
      <trkpt lat="43.21188" lon="6.61022">
        <ele>184.6</ele>
        <time>1970-01-01T00:04:38.000Z</time>
      </trkpt>
      <trkpt lat="43.21185" lon="6.61023">
        <ele>184.8</ele>
        <time>1970-01-01T00:04:39.000Z</time>
      </trkpt>
      <trkpt lat="43.21182" lon="6.61025">
        <ele>185.1</ele>
        <time>1970-01-01T00:04:40.000Z</time>
      </trkpt>
      <trkpt lat="43.21179" lon="6.61025">
        <ele>185.5</ele>
        <time>1970-01-01T00:04:41.000Z</time>
      </trkpt>
      <trkpt lat="43.21178" lon="6.61026">
        <ele>185.6</ele>
        <time>1970-01-01T00:04:42.000Z</time>
      </trkpt>
      <trkpt lat="43.21175" lon="6.61027">
        <ele>185.8</ele>
        <time>1970-01-01T00:04:43.000Z</time>
      </trkpt>
      <trkpt lat="43.21173" lon="6.61028">
        <ele>186.1</ele>
        <time>1970-01-01T00:04:44.000Z</time>
      </trkpt>
      <trkpt lat="43.21169" lon="6.61028">
        <ele>186.5</ele>
        <time>1970-01-01T00:04:45.000Z</time>
      </trkpt>
      <trkpt lat="43.21168" lon="6.61029">
        <ele>186.6</ele>
        <time>1970-01-01T00:04:46.000Z</time>
      </trkpt>
      <trkpt lat="43.21165" lon="6.61031">
        <ele>186.9</ele>
        <time>1970-01-01T00:04:47.000Z</time>
      </trkpt>
      <trkpt lat="43.21162" lon="6.61032">
        <ele>187.2</ele>
        <time>1970-01-01T00:04:48.000Z</time>
      </trkpt>
      <trkpt lat="43.21159" lon="6.61032">
        <ele>187.5</ele>
        <time>1970-01-01T00:04:49.000Z</time>
      </trkpt>
      <trkpt lat="43.21156" lon="6.61032">
        <ele>187.9</ele>
        <time>1970-01-01T00:04:50.000Z</time>
      </trkpt>
      <trkpt lat="43.21153" lon="6.61033">
        <ele>188.1</ele>
        <time>1970-01-01T00:04:51.000Z</time>
      </trkpt>
      <trkpt lat="43.21151" lon="6.61033">
        <ele>188.4</ele>
        <time>1970-01-01T00:04:52.000Z</time>
      </trkpt>
      <trkpt lat="43.21148" lon="6.61034">
        <ele>188.7</ele>
        <time>1970-01-01T00:04:53.000Z</time>
      </trkpt>
      <trkpt lat="43.21144" lon="6.61033">
        <ele>189.2</ele>
        <time>1970-01-01T00:04:54.000Z</time>
      </trkpt>
      <trkpt lat="43.21142" lon="6.61033">
        <ele>189.3</ele>
        <time>1970-01-01T00:04:55.000Z</time>
      </trkpt>
      <trkpt lat="43.21139" lon="6.61032">
        <ele>189.6</ele>
        <time>1970-01-01T00:04:56.000Z</time>
      </trkpt>
      <trkpt lat="43.21138" lon="6.61032">
        <ele>189.7</ele>
        <time>1970-01-01T00:04:57.000Z</time>
      </trkpt>
      <trkpt lat="43.21135" lon="6.61031">
        <ele>190</ele>
        <time>1970-01-01T00:04:58.000Z</time>
      </trkpt>
      <trkpt lat="43.21134" lon="6.6103">
        <ele>190.2</ele>
        <time>1970-01-01T00:04:59.000Z</time>
      </trkpt>
      <trkpt lat="43.21132" lon="6.61026">
        <ele>190.5</ele>
        <time>1970-01-01T00:05:00.000Z</time>
      </trkpt>
      <trkpt lat="43.21131" lon="6.61024">
        <ele>190.7</ele>
        <time>1970-01-01T00:05:01.000Z</time>
      </trkpt>
      <trkpt lat="43.21129" lon="6.6102">
        <ele>191</ele>
        <time>1970-01-01T00:05:02.000Z</time>
      </trkpt>
      <trkpt lat="43.21129" lon="6.61019">
        <ele>191.1</ele>
        <time>1970-01-01T00:05:03.000Z</time>
      </trkpt>
      <trkpt lat="43.21128" lon="6.61014">
        <ele>191.4</ele>
        <time>1970-01-01T00:05:04.000Z</time>
      </trkpt>
      <trkpt lat="43.21127" lon="6.61012">
        <ele>191.5</ele>
        <time>1970-01-01T00:05:05.000Z</time>
      </trkpt>
      <trkpt lat="43.21127" lon="6.61008">
        <ele>191.8</ele>
        <time>1970-01-01T00:05:06.000Z</time>
      </trkpt>
      <trkpt lat="43.21127" lon="6.61007">
        <ele>191.9</ele>
        <time>1970-01-01T00:05:07.000Z</time>
      </trkpt>
      <trkpt lat="43.21125" lon="6.61003">
        <ele>192.2</ele>
        <time>1970-01-01T00:05:08.000Z</time>
      </trkpt>
      <trkpt lat="43.21126" lon="6.60998">
        <ele>192.5</ele>
        <time>1970-01-01T00:05:09.000Z</time>
      </trkpt>
      <trkpt lat="43.21126" lon="6.60996">
        <ele>192.7</ele>
        <time>1970-01-01T00:05:10.000Z</time>
      </trkpt>
      <trkpt lat="43.21126" lon="6.60991">
        <ele>192.9</ele>
        <time>1970-01-01T00:05:11.000Z</time>
      </trkpt>
      <trkpt lat="43.21125" lon="6.60987">
        <ele>193.2</ele>
        <time>1970-01-01T00:05:12.000Z</time>
      </trkpt>
      <trkpt lat="43.21125" lon="6.60986">
        <ele>193.3</ele>
        <time>1970-01-01T00:05:13.000Z</time>
      </trkpt>
      <trkpt lat="43.21125" lon="6.60981">
        <ele>193.6</ele>
        <time>1970-01-01T00:05:14.000Z</time>
      </trkpt>
      <trkpt lat="43.21125" lon="6.6098">
        <ele>193.7</ele>
        <time>1970-01-01T00:05:15.000Z</time>
      </trkpt>
      <trkpt lat="43.21125" lon="6.60976">
        <ele>193.9</ele>
        <time>1970-01-01T00:05:16.000Z</time>
      </trkpt>
      <trkpt lat="43.21125" lon="6.60975">
        <ele>194</ele>
        <time>1970-01-01T00:05:17.000Z</time>
      </trkpt>
      <trkpt lat="43.21125" lon="6.60971">
        <ele>194.3</ele>
        <time>1970-01-01T00:05:18.000Z</time>
      </trkpt>
      <trkpt lat="43.21125" lon="6.6097">
        <ele>194.4</ele>
        <time>1970-01-01T00:05:19.000Z</time>
      </trkpt>
      <trkpt lat="43.21125" lon="6.60966">
        <ele>194.7</ele>
        <time>1970-01-01T00:05:20.000Z</time>
      </trkpt>
      <trkpt lat="43.21124" lon="6.60962">
        <ele>194.9</ele>
        <time>1970-01-01T00:05:21.000Z</time>
      </trkpt>
      <trkpt lat="43.21124" lon="6.60957">
        <ele>195.3</ele>
        <time>1970-01-01T00:05:22.000Z</time>
      </trkpt>
      <trkpt lat="43.21124" lon="6.60955">
        <ele>195.4</ele>
        <time>1970-01-01T00:05:23.000Z</time>
      </trkpt>
      <trkpt lat="43.21124" lon="6.60951">
        <ele>195.7</ele>
        <time>1970-01-01T00:05:24.000Z</time>
      </trkpt>
      <trkpt lat="43.21123" lon="6.60945">
        <ele>196.1</ele>
        <time>1970-01-01T00:05:25.000Z</time>
      </trkpt>
      <trkpt lat="43.21123" lon="6.60944">
        <ele>196.2</ele>
        <time>1970-01-01T00:05:26.000Z</time>
      </trkpt>
      <trkpt lat="43.21122" lon="6.60939">
        <ele>196.5</ele>
        <time>1970-01-01T00:05:27.000Z</time>
      </trkpt>
      <trkpt lat="43.21122" lon="6.60937">
        <ele>196.6</ele>
        <time>1970-01-01T00:05:28.000Z</time>
      </trkpt>
      <trkpt lat="43.21121" lon="6.60932">
        <ele>197</ele>
        <time>1970-01-01T00:05:29.000Z</time>
      </trkpt>
      <trkpt lat="43.21121" lon="6.6093">
        <ele>197.2</ele>
        <time>1970-01-01T00:05:30.000Z</time>
      </trkpt>
      <trkpt lat="43.2112" lon="6.60925">
        <ele>197.5</ele>
        <time>1970-01-01T00:05:31.000Z</time>
      </trkpt>
      <trkpt lat="43.2112" lon="6.60921">
        <ele>197.8</ele>
        <time>1970-01-01T00:05:32.000Z</time>
      </trkpt>
      <trkpt lat="43.2112" lon="6.6092">
        <ele>197.9</ele>
        <time>1970-01-01T00:05:33.000Z</time>
      </trkpt>
      <trkpt lat="43.2112" lon="6.60916">
        <ele>198.2</ele>
        <time>1970-01-01T00:05:34.000Z</time>
      </trkpt>
      <trkpt lat="43.2112" lon="6.60914">
        <ele>198.4</ele>
        <time>1970-01-01T00:05:35.000Z</time>
      </trkpt>
      <trkpt lat="43.2112" lon="6.60909">
        <ele>198.7</ele>
        <time>1970-01-01T00:05:36.000Z</time>
      </trkpt>
      <trkpt lat="43.21119" lon="6.60907">
        <ele>198.9</ele>
        <time>1970-01-01T00:05:37.000Z</time>
      </trkpt>
      <trkpt lat="43.21119" lon="6.60902">
        <ele>199.2</ele>
        <time>1970-01-01T00:05:38.000Z</time>
      </trkpt>
      <trkpt lat="43.21119" lon="6.60901">
        <ele>199.3</ele>
        <time>1970-01-01T00:05:39.000Z</time>
      </trkpt>
      <trkpt lat="43.2112" lon="6.60896">
        <ele>199.7</ele>
        <time>1970-01-01T00:05:40.000Z</time>
      </trkpt>
      <trkpt lat="43.2112" lon="6.60895">
        <ele>199.8</ele>
        <time>1970-01-01T00:05:41.000Z</time>
      </trkpt>
      <trkpt lat="43.21119" lon="6.6089">
        <ele>200.1</ele>
        <time>1970-01-01T00:05:42.000Z</time>
      </trkpt>
      <trkpt lat="43.21119" lon="6.60888">
        <ele>200.3</ele>
        <time>1970-01-01T00:05:43.000Z</time>
      </trkpt>
      <trkpt lat="43.21118" lon="6.60884">
        <ele>200.6</ele>
        <time>1970-01-01T00:05:44.000Z</time>
      </trkpt>
      <trkpt lat="43.21116" lon="6.6088">
        <ele>200.9</ele>
        <time>1970-01-01T00:05:45.000Z</time>
      </trkpt>
      <trkpt lat="43.21115" lon="6.60875">
        <ele>201.3</ele>
        <time>1970-01-01T00:05:46.000Z</time>
      </trkpt>
      <trkpt lat="43.21114" lon="6.60873">
        <ele>201.4</ele>
        <time>1970-01-01T00:05:47.000Z</time>
      </trkpt>
      <trkpt lat="43.21112" lon="6.6087">
        <ele>201.7</ele>
        <time>1970-01-01T00:05:48.000Z</time>
      </trkpt>
      <trkpt lat="43.2111" lon="6.60867">
        <ele>202</ele>
        <time>1970-01-01T00:05:49.000Z</time>
      </trkpt>
      <trkpt lat="43.21109" lon="6.60867">
        <ele>202</ele>
        <time>1970-01-01T00:05:50.000Z</time>
      </trkpt>
      <trkpt lat="43.21106" lon="6.60865">
        <ele>202.3</ele>
        <time>1970-01-01T00:05:51.000Z</time>
      </trkpt>
      <trkpt lat="43.21105" lon="6.60864">
        <ele>202.4</ele>
        <time>1970-01-01T00:05:52.000Z</time>
      </trkpt>
      <trkpt lat="43.21102" lon="6.60864">
        <ele>202.7</ele>
        <time>1970-01-01T00:05:53.000Z</time>
      </trkpt>
      <trkpt lat="43.21101" lon="6.60864">
        <ele>202.8</ele>
        <time>1970-01-01T00:05:54.000Z</time>
      </trkpt>
      <trkpt lat="43.21097" lon="6.60864">
        <ele>203.2</ele>
        <time>1970-01-01T00:05:55.000Z</time>
      </trkpt>
      <trkpt lat="43.21095" lon="6.60864">
        <ele>203.3</ele>
        <time>1970-01-01T00:05:56.000Z</time>
      </trkpt>
      <trkpt lat="43.21092" lon="6.60863">
        <ele>203.6</ele>
        <time>1970-01-01T00:05:57.000Z</time>
      </trkpt>
      <trkpt lat="43.21089" lon="6.60863">
        <ele>203.8</ele>
        <time>1970-01-01T00:05:58.000Z</time>
      </trkpt>
      <trkpt lat="43.21088" lon="6.60863">
        <ele>203.9</ele>
        <time>1970-01-01T00:05:59.000Z</time>
      </trkpt>
      <trkpt lat="43.21085" lon="6.60864">
        <ele>204.2</ele>
        <time>1970-01-01T00:06:00.000Z</time>
      </trkpt>
      <trkpt lat="43.21084" lon="6.60865">
        <ele>204.2</ele>
        <time>1970-01-01T00:06:01.000Z</time>
      </trkpt>
      <trkpt lat="43.21081" lon="6.60867">
        <ele>204.5</ele>
        <time>1970-01-01T00:06:02.000Z</time>
      </trkpt>
      <trkpt lat="43.2108" lon="6.60868">
        <ele>204.6</ele>
        <time>1970-01-01T00:06:03.000Z</time>
      </trkpt>
      <trkpt lat="43.21077" lon="6.60872">
        <ele>205</ele>
        <time>1970-01-01T00:06:04.000Z</time>
      </trkpt>
      <trkpt lat="43.21075" lon="6.60873">
        <ele>205.1</ele>
        <time>1970-01-01T00:06:05.000Z</time>
      </trkpt>
      <trkpt lat="43.21073" lon="6.60874">
        <ele>205.3</ele>
        <time>1970-01-01T00:06:06.000Z</time>
      </trkpt>
      <trkpt lat="43.21069" lon="6.60875">
        <ele>205.6</ele>
        <time>1970-01-01T00:06:07.000Z</time>
      </trkpt>
      <trkpt lat="43.21066" lon="6.60876">
        <ele>205.8</ele>
        <time>1970-01-01T00:06:08.000Z</time>
      </trkpt>
      <trkpt lat="43.21063" lon="6.60878">
        <ele>206.1</ele>
        <time>1970-01-01T00:06:09.000Z</time>
      </trkpt>
      <trkpt lat="43.21059" lon="6.6088">
        <ele>206.3</ele>
        <time>1970-01-01T00:06:10.000Z</time>
      </trkpt>
      <trkpt lat="43.21057" lon="6.60882">
        <ele>206.5</ele>
        <time>1970-01-01T00:06:11.000Z</time>
      </trkpt>
      <trkpt lat="43.21054" lon="6.60883">
        <ele>206.7</ele>
        <time>1970-01-01T00:06:12.000Z</time>
      </trkpt>
      <trkpt lat="43.21051" lon="6.60885">
        <ele>206.9</ele>
        <time>1970-01-01T00:06:13.000Z</time>
      </trkpt>
      <trkpt lat="43.21048" lon="6.60887">
        <ele>207.2</ele>
        <time>1970-01-01T00:06:14.000Z</time>
      </trkpt>
      <trkpt lat="43.21047" lon="6.60887">
        <ele>207.3</ele>
        <time>1970-01-01T00:06:15.000Z</time>
      </trkpt>
      <trkpt lat="43.21043" lon="6.60887">
        <ele>207.5</ele>
        <time>1970-01-01T00:06:16.000Z</time>
      </trkpt>
      <trkpt lat="43.2104" lon="6.60887">
        <ele>207.7</ele>
        <time>1970-01-01T00:06:17.000Z</time>
      </trkpt>
      <trkpt lat="43.21036" lon="6.60888">
        <ele>208</ele>
        <time>1970-01-01T00:06:18.000Z</time>
      </trkpt>
      <trkpt lat="43.21033" lon="6.60888">
        <ele>208.2</ele>
        <time>1970-01-01T00:06:19.000Z</time>
      </trkpt>
      <trkpt lat="43.2103" lon="6.60887">
        <ele>208.4</ele>
        <time>1970-01-01T00:06:20.000Z</time>
      </trkpt>
      <trkpt lat="43.21027" lon="6.60887">
        <ele>208.6</ele>
        <time>1970-01-01T00:06:21.000Z</time>
      </trkpt>
      <trkpt lat="43.21024" lon="6.60888">
        <ele>208.8</ele>
        <time>1970-01-01T00:06:22.000Z</time>
      </trkpt>
      <trkpt lat="43.21021" lon="6.60887">
        <ele>209</ele>
        <time>1970-01-01T00:06:23.000Z</time>
      </trkpt>
      <trkpt lat="43.21018" lon="6.60887">
        <ele>209.3</ele>
        <time>1970-01-01T00:06:24.000Z</time>
      </trkpt>
      <trkpt lat="43.21017" lon="6.60887">
        <ele>209.3</ele>
        <time>1970-01-01T00:06:25.000Z</time>
      </trkpt>
      <trkpt lat="43.21014" lon="6.60888">
        <ele>209.5</ele>
        <time>1970-01-01T00:06:26.000Z</time>
      </trkpt>
      <trkpt lat="43.21011" lon="6.6089">
        <ele>209.8</ele>
        <time>1970-01-01T00:06:27.000Z</time>
      </trkpt>
      <trkpt lat="43.21009" lon="6.6089">
        <ele>209.9</ele>
        <time>1970-01-01T00:06:28.000Z</time>
      </trkpt>
      <trkpt lat="43.21006" lon="6.6089">
        <ele>210.1</ele>
        <time>1970-01-01T00:06:29.000Z</time>
      </trkpt>
      <trkpt lat="43.21003" lon="6.60892">
        <ele>210.3</ele>
        <time>1970-01-01T00:06:30.000Z</time>
      </trkpt>
      <trkpt lat="43.21002" lon="6.60893">
        <ele>210.4</ele>
        <time>1970-01-01T00:06:31.000Z</time>
      </trkpt>
      <trkpt lat="43.20999" lon="6.60893">
        <ele>210.6</ele>
        <time>1970-01-01T00:06:32.000Z</time>
      </trkpt>
      <trkpt lat="43.20995" lon="6.60894">
        <ele>210.9</ele>
        <time>1970-01-01T00:06:33.000Z</time>
      </trkpt>
      <trkpt lat="43.20994" lon="6.60894">
        <ele>211</ele>
        <time>1970-01-01T00:06:34.000Z</time>
      </trkpt>
      <trkpt lat="43.20991" lon="6.60894">
        <ele>211.2</ele>
        <time>1970-01-01T00:06:35.000Z</time>
      </trkpt>
      <trkpt lat="43.20987" lon="6.60895">
        <ele>211.5</ele>
        <time>1970-01-01T00:06:36.000Z</time>
      </trkpt>
      <trkpt lat="43.20984" lon="6.60897">
        <ele>211.7</ele>
        <time>1970-01-01T00:06:37.000Z</time>
      </trkpt>
      <trkpt lat="43.20981" lon="6.60896">
        <ele>211.9</ele>
        <time>1970-01-01T00:06:38.000Z</time>
      </trkpt>
      <trkpt lat="43.20978" lon="6.60897">
        <ele>212.2</ele>
        <time>1970-01-01T00:06:39.000Z</time>
      </trkpt>
      <trkpt lat="43.20974" lon="6.60898">
        <ele>212.5</ele>
        <time>1970-01-01T00:06:40.000Z</time>
      </trkpt>
      <trkpt lat="43.20973" lon="6.60898">
        <ele>212.6</ele>
        <time>1970-01-01T00:06:41.000Z</time>
      </trkpt>
      <trkpt lat="43.2097" lon="6.60898">
        <ele>212.8</ele>
        <time>1970-01-01T00:06:42.000Z</time>
      </trkpt>
      <trkpt lat="43.20968" lon="6.60898">
        <ele>213</ele>
        <time>1970-01-01T00:06:43.000Z</time>
      </trkpt>
      <trkpt lat="43.20964" lon="6.60897">
        <ele>213.3</ele>
        <time>1970-01-01T00:06:44.000Z</time>
      </trkpt>
      <trkpt lat="43.20963" lon="6.60897">
        <ele>213.5</ele>
        <time>1970-01-01T00:06:45.000Z</time>
      </trkpt>
      <trkpt lat="43.2096" lon="6.60897">
        <ele>213.8</ele>
        <time>1970-01-01T00:06:46.000Z</time>
      </trkpt>
      <trkpt lat="43.20959" lon="6.60896">
        <ele>213.9</ele>
        <time>1970-01-01T00:06:47.000Z</time>
      </trkpt>
      <trkpt lat="43.20956" lon="6.60895">
        <ele>214.1</ele>
        <time>1970-01-01T00:06:48.000Z</time>
      </trkpt>
      <trkpt lat="43.20952" lon="6.60894">
        <ele>214.5</ele>
        <time>1970-01-01T00:06:49.000Z</time>
      </trkpt>
      <trkpt lat="43.20951" lon="6.60894">
        <ele>214.7</ele>
        <time>1970-01-01T00:06:50.000Z</time>
      </trkpt>
      <trkpt lat="43.20948" lon="6.60893">
        <ele>215</ele>
        <time>1970-01-01T00:06:51.000Z</time>
      </trkpt>
      <trkpt lat="43.20945" lon="6.60893">
        <ele>215.3</ele>
        <time>1970-01-01T00:06:52.000Z</time>
      </trkpt>
      <trkpt lat="43.20942" lon="6.6089">
        <ele>215.7</ele>
        <time>1970-01-01T00:06:53.000Z</time>
      </trkpt>
      <trkpt lat="43.20941" lon="6.6089">
        <ele>215.8</ele>
        <time>1970-01-01T00:06:54.000Z</time>
      </trkpt>
      <trkpt lat="43.20938" lon="6.60887">
        <ele>216.4</ele>
        <time>1970-01-01T00:06:55.000Z</time>
      </trkpt>
      <trkpt lat="43.20937" lon="6.60886">
        <ele>216.5</ele>
        <time>1970-01-01T00:06:56.000Z</time>
      </trkpt>
      <trkpt lat="43.20935" lon="6.60882">
        <ele>216.7</ele>
        <time>1970-01-01T00:06:57.000Z</time>
      </trkpt>
      <trkpt lat="43.20933" lon="6.60878">
        <ele>217</ele>
        <time>1970-01-01T00:06:58.000Z</time>
      </trkpt>
      <trkpt lat="43.20932" lon="6.60877">
        <ele>217.1</ele>
        <time>1970-01-01T00:06:59.000Z</time>
      </trkpt>
      <trkpt lat="43.2093" lon="6.60874">
        <ele>217.3</ele>
        <time>1970-01-01T00:07:00.000Z</time>
      </trkpt>
      <trkpt lat="43.20929" lon="6.60872">
        <ele>217.4</ele>
        <time>1970-01-01T00:07:01.000Z</time>
      </trkpt>
      <trkpt lat="43.20928" lon="6.60868">
        <ele>217.6</ele>
        <time>1970-01-01T00:07:02.000Z</time>
      </trkpt>
      <trkpt lat="43.20927" lon="6.60867">
        <ele>217.7</ele>
        <time>1970-01-01T00:07:03.000Z</time>
      </trkpt>
      <trkpt lat="43.20925" lon="6.60862">
        <ele>218</ele>
        <time>1970-01-01T00:07:04.000Z</time>
      </trkpt>
      <trkpt lat="43.20924" lon="6.60861">
        <ele>218</ele>
        <time>1970-01-01T00:07:05.000Z</time>
      </trkpt>
      <trkpt lat="43.20923" lon="6.60857">
        <ele>218.3</ele>
        <time>1970-01-01T00:07:06.000Z</time>
      </trkpt>
      <trkpt lat="43.20922" lon="6.60856">
        <ele>218.3</ele>
        <time>1970-01-01T00:07:07.000Z</time>
      </trkpt>
      <trkpt lat="43.20921" lon="6.60854">
        <ele>218.5</ele>
        <time>1970-01-01T00:07:08.000Z</time>
      </trkpt>
      <trkpt lat="43.2092" lon="6.60853">
        <ele>218.6</ele>
        <time>1970-01-01T00:07:09.000Z</time>
      </trkpt>
      <trkpt lat="43.20919" lon="6.60851">
        <ele>218.7</ele>
        <time>1970-01-01T00:07:10.000Z</time>
      </trkpt>
      <trkpt lat="43.20918" lon="6.6085">
        <ele>218.8</ele>
        <time>1970-01-01T00:07:11.000Z</time>
      </trkpt>
      <trkpt lat="43.20918" lon="6.60849">
        <ele>218.8</ele>
        <time>1970-01-01T00:07:12.000Z</time>
      </trkpt>
      <trkpt lat="43.20917" lon="6.60847">
        <ele>218.9</ele>
        <time>1970-01-01T00:07:13.000Z</time>
      </trkpt>
      <trkpt lat="43.20916" lon="6.60845">
        <ele>219</ele>
        <time>1970-01-01T00:07:14.000Z</time>
      </trkpt>
      <trkpt lat="43.20913" lon="6.60843">
        <ele>219.3</ele>
        <time>1970-01-01T00:07:15.000Z</time>
      </trkpt>
      <trkpt lat="43.20912" lon="6.60841">
        <ele>219.4</ele>
        <time>1970-01-01T00:07:16.000Z</time>
      </trkpt>
      <trkpt lat="43.20909" lon="6.60839">
        <ele>219.6</ele>
        <time>1970-01-01T00:07:17.000Z</time>
      </trkpt>
      <trkpt lat="43.20909" lon="6.60838">
        <ele>219.7</ele>
        <time>1970-01-01T00:07:18.000Z</time>
      </trkpt>
      <trkpt lat="43.20906" lon="6.60834">
        <ele>219.9</ele>
        <time>1970-01-01T00:07:19.000Z</time>
      </trkpt>
      <trkpt lat="43.20905" lon="6.60834">
        <ele>220</ele>
        <time>1970-01-01T00:07:20.000Z</time>
      </trkpt>
      <trkpt lat="43.20903" lon="6.60831">
        <ele>220.3</ele>
        <time>1970-01-01T00:07:21.000Z</time>
      </trkpt>
      <trkpt lat="43.20901" lon="6.60829">
        <ele>220.4</ele>
        <time>1970-01-01T00:07:22.000Z</time>
      </trkpt>
      <trkpt lat="43.209" lon="6.60826">
        <ele>220.6</ele>
        <time>1970-01-01T00:07:23.000Z</time>
      </trkpt>
      <trkpt lat="43.20898" lon="6.60824">
        <ele>220.8</ele>
        <time>1970-01-01T00:07:24.000Z</time>
      </trkpt>
      <trkpt lat="43.20895" lon="6.60821">
        <ele>221</ele>
        <time>1970-01-01T00:07:25.000Z</time>
      </trkpt>
      <trkpt lat="43.20893" lon="6.60819">
        <ele>221.2</ele>
        <time>1970-01-01T00:07:26.000Z</time>
      </trkpt>
      <trkpt lat="43.20891" lon="6.60814">
        <ele>221.5</ele>
        <time>1970-01-01T00:07:27.000Z</time>
      </trkpt>
      <trkpt lat="43.20891" lon="6.60813">
        <ele>221.6</ele>
        <time>1970-01-01T00:07:28.000Z</time>
      </trkpt>
      <trkpt lat="43.20889" lon="6.60809">
        <ele>221.8</ele>
        <time>1970-01-01T00:07:29.000Z</time>
      </trkpt>
      <trkpt lat="43.20888" lon="6.60805">
        <ele>222.1</ele>
        <time>1970-01-01T00:07:30.000Z</time>
      </trkpt>
      <trkpt lat="43.20887" lon="6.60803">
        <ele>222.2</ele>
        <time>1970-01-01T00:07:31.000Z</time>
      </trkpt>
      <trkpt lat="43.20887" lon="6.60798">
        <ele>222.4</ele>
        <time>1970-01-01T00:07:32.000Z</time>
      </trkpt>
      <trkpt lat="43.20887" lon="6.60796">
        <ele>222.5</ele>
        <time>1970-01-01T00:07:33.000Z</time>
      </trkpt>
      <trkpt lat="43.20887" lon="6.60792">
        <ele>222.7</ele>
        <time>1970-01-01T00:07:34.000Z</time>
      </trkpt>
      <trkpt lat="43.20888" lon="6.60788">
        <ele>222.9</ele>
        <time>1970-01-01T00:07:35.000Z</time>
      </trkpt>
      <trkpt lat="43.20888" lon="6.60787">
        <ele>223</ele>
        <time>1970-01-01T00:07:36.000Z</time>
      </trkpt>
      <trkpt lat="43.20889" lon="6.60782">
        <ele>223.2</ele>
        <time>1970-01-01T00:07:37.000Z</time>
      </trkpt>
      <trkpt lat="43.2089" lon="6.60781">
        <ele>223.3</ele>
        <time>1970-01-01T00:07:38.000Z</time>
      </trkpt>
      <trkpt lat="43.20891" lon="6.60777">
        <ele>223.5</ele>
        <time>1970-01-01T00:07:39.000Z</time>
      </trkpt>
      <trkpt lat="43.20891" lon="6.60776">
        <ele>223.5</ele>
        <time>1970-01-01T00:07:40.000Z</time>
      </trkpt>
      <trkpt lat="43.20892" lon="6.60773">
        <ele>223.7</ele>
        <time>1970-01-01T00:07:41.000Z</time>
      </trkpt>
      <trkpt lat="43.20893" lon="6.60772">
        <ele>223.8</ele>
        <time>1970-01-01T00:07:42.000Z</time>
      </trkpt>
      <trkpt lat="43.20894" lon="6.60768">
        <ele>224</ele>
        <time>1970-01-01T00:07:43.000Z</time>
      </trkpt>
      <trkpt lat="43.20895" lon="6.60766">
        <ele>224.1</ele>
        <time>1970-01-01T00:07:44.000Z</time>
      </trkpt>
      <trkpt lat="43.20896" lon="6.60763">
        <ele>224.3</ele>
        <time>1970-01-01T00:07:45.000Z</time>
      </trkpt>
      <trkpt lat="43.20897" lon="6.60761">
        <ele>224.4</ele>
        <time>1970-01-01T00:07:46.000Z</time>
      </trkpt>
      <trkpt lat="43.20898" lon="6.60757">
        <ele>224.6</ele>
        <time>1970-01-01T00:07:47.000Z</time>
      </trkpt>
      <trkpt lat="43.20899" lon="6.60754">
        <ele>224.7</ele>
        <time>1970-01-01T00:07:48.000Z</time>
      </trkpt>
      <trkpt lat="43.20901" lon="6.60749">
        <ele>225</ele>
        <time>1970-01-01T00:07:49.000Z</time>
      </trkpt>
      <trkpt lat="43.20902" lon="6.60748">
        <ele>225.1</ele>
        <time>1970-01-01T00:07:50.000Z</time>
      </trkpt>
      <trkpt lat="43.20902" lon="6.60744">
        <ele>225.3</ele>
        <time>1970-01-01T00:07:51.000Z</time>
      </trkpt>
      <trkpt lat="43.20903" lon="6.6074">
        <ele>225.5</ele>
        <time>1970-01-01T00:07:52.000Z</time>
      </trkpt>
      <trkpt lat="43.20903" lon="6.60738">
        <ele>225.5</ele>
        <time>1970-01-01T00:07:53.000Z</time>
      </trkpt>
      <trkpt lat="43.20903" lon="6.60734">
        <ele>225.8</ele>
        <time>1970-01-01T00:07:54.000Z</time>
      </trkpt>
      <trkpt lat="43.20904" lon="6.6073">
        <ele>226</ele>
        <time>1970-01-01T00:07:55.000Z</time>
      </trkpt>
      <trkpt lat="43.20905" lon="6.60726">
        <ele>226.2</ele>
        <time>1970-01-01T00:07:56.000Z</time>
      </trkpt>
      <trkpt lat="43.20905" lon="6.60724">
        <ele>226.3</ele>
        <time>1970-01-01T00:07:57.000Z</time>
      </trkpt>
      <trkpt lat="43.20906" lon="6.6072">
        <ele>226.5</ele>
        <time>1970-01-01T00:07:58.000Z</time>
      </trkpt>
      <trkpt lat="43.20907" lon="6.60715">
        <ele>226.7</ele>
        <time>1970-01-01T00:07:59.000Z</time>
      </trkpt>
      <trkpt lat="43.20907" lon="6.60714">
        <ele>226.8</ele>
        <time>1970-01-01T00:08:00.000Z</time>
      </trkpt>
      <trkpt lat="43.20907" lon="6.60711">
        <ele>226.9</ele>
        <time>1970-01-01T00:08:01.000Z</time>
      </trkpt>
      <trkpt lat="43.20907" lon="6.60709">
        <ele>227</ele>
        <time>1970-01-01T00:08:02.000Z</time>
      </trkpt>
      <trkpt lat="43.20908" lon="6.60708">
        <ele>227.1</ele>
        <time>1970-01-01T00:08:03.000Z</time>
      </trkpt>
      <trkpt lat="43.20908" lon="6.60708">
        <ele>227.1</ele>
        <time>1970-01-01T00:08:04.000Z</time>
      </trkpt>
      <trkpt lat="43.20909" lon="6.60706">
        <ele>227.2</ele>
        <time>1970-01-01T00:08:05.000Z</time>
      </trkpt>
      <trkpt lat="43.20909" lon="6.60705">
        <ele>227.3</ele>
        <time>1970-01-01T00:08:06.000Z</time>
      </trkpt>
      <trkpt lat="43.20909" lon="6.60702">
        <ele>227.4</ele>
        <time>1970-01-01T00:08:07.000Z</time>
      </trkpt>
      <trkpt lat="43.20909" lon="6.60698">
        <ele>227.6</ele>
        <time>1970-01-01T00:08:08.000Z</time>
      </trkpt>
      <trkpt lat="43.20909" lon="6.60696">
        <ele>227.7</ele>
        <time>1970-01-01T00:08:09.000Z</time>
      </trkpt>
      <trkpt lat="43.20907" lon="6.60693">
        <ele>227.9</ele>
        <time>1970-01-01T00:08:10.000Z</time>
      </trkpt>
      <trkpt lat="43.20904" lon="6.60692">
        <ele>228.1</ele>
        <time>1970-01-01T00:08:11.000Z</time>
      </trkpt>
      <trkpt lat="43.20903" lon="6.60693">
        <ele>228.2</ele>
        <time>1970-01-01T00:08:12.000Z</time>
      </trkpt>
      <trkpt lat="43.209" lon="6.60695">
        <ele>228.5</ele>
        <time>1970-01-01T00:08:13.000Z</time>
      </trkpt>
      <trkpt lat="43.20896" lon="6.60696">
        <ele>228.7</ele>
        <time>1970-01-01T00:08:14.000Z</time>
      </trkpt>
      <trkpt lat="43.20895" lon="6.60697">
        <ele>228.9</ele>
        <time>1970-01-01T00:08:15.000Z</time>
      </trkpt>
      <trkpt lat="43.20894" lon="6.60697">
        <ele>228.9</ele>
        <time>1970-01-01T00:08:16.000Z</time>
      </trkpt>
      <trkpt lat="43.20893" lon="6.60696">
        <ele>229</ele>
        <time>1970-01-01T00:08:17.000Z</time>
      </trkpt>
      <trkpt lat="43.20893" lon="6.60696">
        <ele>229</ele>
        <time>1970-01-01T00:08:18.000Z</time>
      </trkpt>
      <trkpt lat="43.20893" lon="6.60697">
        <ele>229</ele>
        <time>1970-01-01T00:08:19.000Z</time>
      </trkpt>
      <trkpt lat="43.20894" lon="6.60696">
        <ele>229</ele>
        <time>1970-01-01T00:08:20.000Z</time>
      </trkpt>
      <trkpt lat="43.20894" lon="6.60697">
        <ele>229.1</ele>
        <time>1970-01-01T00:08:21.000Z</time>
      </trkpt>
      <trkpt lat="43.20894" lon="6.60698">
        <ele>229.1</ele>
        <time>1970-01-01T00:08:22.000Z</time>
      </trkpt>
      <trkpt lat="43.20894" lon="6.60698">
        <ele>229.2</ele>
        <time>1970-01-01T00:08:23.000Z</time>
      </trkpt>
      <trkpt lat="43.20894" lon="6.60698">
        <ele>229.2</ele>
        <time>1970-01-01T00:08:24.000Z</time>
      </trkpt>
      <trkpt lat="43.20894" lon="6.60699">
        <ele>229.2</ele>
        <time>1970-01-01T00:08:25.000Z</time>
      </trkpt>
      <trkpt lat="43.20894" lon="6.60699">
        <ele>229.3</ele>
        <time>1970-01-01T00:08:26.000Z</time>
      </trkpt>
      <trkpt lat="43.20894" lon="6.60699">
        <ele>229.3</ele>
        <time>1970-01-01T00:08:27.000Z</time>
      </trkpt>
      <trkpt lat="43.20894" lon="6.60698">
        <ele>229.3</ele>
        <time>1970-01-01T00:08:28.000Z</time>
      </trkpt>
      <trkpt lat="43.20894" lon="6.60698">
        <ele>229.3</ele>
        <time>1970-01-01T00:08:29.000Z</time>
      </trkpt>
      <trkpt lat="43.20895" lon="6.60697">
        <ele>229.4</ele>
        <time>1970-01-01T00:08:30.000Z</time>
      </trkpt>
      <trkpt lat="43.20895" lon="6.60697">
        <ele>229.4</ele>
        <time>1970-01-01T00:08:31.000Z</time>
      </trkpt>
      <trkpt lat="43.20895" lon="6.60698">
        <ele>229.5</ele>
        <time>1970-01-01T00:08:32.000Z</time>
      </trkpt>
      <trkpt lat="43.20895" lon="6.60698">
        <ele>229.5</ele>
        <time>1970-01-01T00:08:33.000Z</time>
      </trkpt>
      <trkpt lat="43.20895" lon="6.60698">
        <ele>229.5</ele>
        <time>1970-01-01T00:08:34.000Z</time>
      </trkpt>
      <trkpt lat="43.20895" lon="6.60698">
        <ele>229.5</ele>
        <time>1970-01-01T00:08:35.000Z</time>
      </trkpt>
      <trkpt lat="43.20896" lon="6.60701">
        <ele>229.7</ele>
        <time>1970-01-01T00:08:56.000Z</time>
      </trkpt>
      <trkpt lat="43.20896" lon="6.607">
        <ele>229.7</ele>
        <time>1970-01-01T00:08:57.000Z</time>
      </trkpt>
      <trkpt lat="43.20896" lon="6.607">
        <ele>229.8</ele>
        <time>1970-01-01T00:08:58.000Z</time>
      </trkpt>
      <trkpt lat="43.20896" lon="6.60699">
        <ele>229.8</ele>
        <time>1970-01-01T00:08:59.000Z</time>
      </trkpt>
      <trkpt lat="43.20896" lon="6.60698">
        <ele>229.8</ele>
        <time>1970-01-01T00:09:00.000Z</time>
      </trkpt>
      <trkpt lat="43.20896" lon="6.60698">
        <ele>229.9</ele>
        <time>1970-01-01T00:09:01.000Z</time>
      </trkpt>
      <trkpt lat="43.20896" lon="6.60698">
        <ele>229.9</ele>
        <time>1970-01-01T00:09:02.000Z</time>
      </trkpt>
      <trkpt lat="43.20897" lon="6.60699">
        <ele>230</ele>
        <time>1970-01-01T00:09:03.000Z</time>
      </trkpt>
      <trkpt lat="43.20897" lon="6.60699">
        <ele>230.1</ele>
        <time>1970-01-01T00:09:04.000Z</time>
      </trkpt>
      <trkpt lat="43.20898" lon="6.60698">
        <ele>230.2</ele>
        <time>1970-01-01T00:09:05.000Z</time>
      </trkpt>
      <trkpt lat="43.20899" lon="6.60696">
        <ele>230.3</ele>
        <time>1970-01-01T00:09:06.000Z</time>
      </trkpt>
      <trkpt lat="43.20899" lon="6.60696">
        <ele>230.3</ele>
        <time>1970-01-01T00:09:07.000Z</time>
      </trkpt>
      <trkpt lat="43.20899" lon="6.60696">
        <ele>230.3</ele>
        <time>1970-01-01T00:09:08.000Z</time>
      </trkpt>
      <trkpt lat="43.209" lon="6.60695">
        <ele>230.4</ele>
        <time>1970-01-01T00:09:09.000Z</time>
      </trkpt>
      <trkpt lat="43.209" lon="6.60695">
        <ele>230.4</ele>
        <time>1970-01-01T00:09:10.000Z</time>
      </trkpt>
      <trkpt lat="43.209" lon="6.60694">
        <ele>230.4</ele>
        <time>1970-01-01T00:09:11.000Z</time>
      </trkpt>
      <trkpt lat="43.20901" lon="6.60694">
        <ele>230.5</ele>
        <time>1970-01-01T00:09:12.000Z</time>
      </trkpt>
      <trkpt lat="43.20901" lon="6.60694">
        <ele>230.5</ele>
        <time>1970-01-01T00:09:13.000Z</time>
      </trkpt>
      <trkpt lat="43.20901" lon="6.60693">
        <ele>230.5</ele>
        <time>1970-01-01T00:09:14.000Z</time>
      </trkpt>
      <trkpt lat="43.20901" lon="6.60693">
        <ele>230.5</ele>
        <time>1970-01-01T00:09:15.000Z</time>
      </trkpt>
      <trkpt lat="43.20902" lon="6.60692">
        <ele>230.6</ele>
        <time>1970-01-01T00:09:21.000Z</time>
      </trkpt>
      <trkpt lat="43.20902" lon="6.60692">
        <ele>230.6</ele>
        <time>1970-01-01T00:09:22.000Z</time>
      </trkpt>
      <trkpt lat="43.20902" lon="6.60691">
        <ele>230.6</ele>
        <time>1970-01-01T00:09:23.000Z</time>
      </trkpt>
      <trkpt lat="43.20902" lon="6.60691">
        <ele>230.7</ele>
        <time>1970-01-01T00:09:24.000Z</time>
      </trkpt>
      <trkpt lat="43.20903" lon="6.6069">
        <ele>230.8</ele>
        <time>1970-01-01T00:09:25.000Z</time>
      </trkpt>
      <trkpt lat="43.20903" lon="6.60689">
        <ele>230.8</ele>
        <time>1970-01-01T00:09:26.000Z</time>
      </trkpt>
      <trkpt lat="43.20904" lon="6.60687">
        <ele>231</ele>
        <time>1970-01-01T00:09:27.000Z</time>
      </trkpt>
      <trkpt lat="43.20907" lon="6.60684">
        <ele>231.2</ele>
        <time>1970-01-01T00:09:28.000Z</time>
      </trkpt>
      <trkpt lat="43.20908" lon="6.60682">
        <ele>231.3</ele>
        <time>1970-01-01T00:09:29.000Z</time>
      </trkpt>
      <trkpt lat="43.2091" lon="6.6068">
        <ele>231.6</ele>
        <time>1970-01-01T00:09:30.000Z</time>
      </trkpt>
      <trkpt lat="43.20914" lon="6.60679">
        <ele>231.9</ele>
        <time>1970-01-01T00:09:31.000Z</time>
      </trkpt>
      <trkpt lat="43.20917" lon="6.60678">
        <ele>232.3</ele>
        <time>1970-01-01T00:09:32.000Z</time>
      </trkpt>
      <trkpt lat="43.20921" lon="6.60676">
        <ele>232.6</ele>
        <time>1970-01-01T00:09:33.000Z</time>
      </trkpt>
      <trkpt lat="43.20924" lon="6.60673">
        <ele>233</ele>
        <time>1970-01-01T00:09:34.000Z</time>
      </trkpt>
      <trkpt lat="43.20928" lon="6.60675">
        <ele>233.4</ele>
        <time>1970-01-01T00:09:35.000Z</time>
      </trkpt>
      <trkpt lat="43.20933" lon="6.60673">
        <ele>234</ele>
        <time>1970-01-01T00:09:36.000Z</time>
      </trkpt>
      <trkpt lat="43.20939" lon="6.6067">
        <ele>234.6</ele>
        <time>1970-01-01T00:09:37.000Z</time>
      </trkpt>
      <trkpt lat="43.20945" lon="6.60666">
        <ele>235.2</ele>
        <time>1970-01-01T00:09:38.000Z</time>
      </trkpt>
      <trkpt lat="43.20951" lon="6.60662">
        <ele>235.9</ele>
        <time>1970-01-01T00:09:39.000Z</time>
      </trkpt>
      <trkpt lat="43.20956" lon="6.60657">
        <ele>236.5</ele>
        <time>1970-01-01T00:09:40.000Z</time>
      </trkpt>
      <trkpt lat="43.20964" lon="6.60653">
        <ele>237.3</ele>
        <time>1970-01-01T00:09:41.000Z</time>
      </trkpt>
      <trkpt lat="43.20974" lon="6.60653">
        <ele>238.2</ele>
        <time>1970-01-01T00:09:42.000Z</time>
      </trkpt>
      <trkpt lat="43.20981" lon="6.60648">
        <ele>238.9</ele>
        <time>1970-01-01T00:09:43.000Z</time>
      </trkpt>
      <trkpt lat="43.20987" lon="6.60643">
        <ele>239.6</ele>
        <time>1970-01-01T00:09:44.000Z</time>
      </trkpt>
      <trkpt lat="43.20994" lon="6.60637">
        <ele>240.3</ele>
        <time>1970-01-01T00:09:45.000Z</time>
      </trkpt>
      <trkpt lat="43.21001" lon="6.60632">
        <ele>241</ele>
        <time>1970-01-01T00:09:46.000Z</time>
      </trkpt>
      <trkpt lat="43.21007" lon="6.60626">
        <ele>241.6</ele>
        <time>1970-01-01T00:09:47.000Z</time>
      </trkpt>
      <trkpt lat="43.21013" lon="6.6062">
        <ele>242.3</ele>
        <time>1970-01-01T00:09:48.000Z</time>
      </trkpt>
      <trkpt lat="43.21018" lon="6.60615">
        <ele>242.8</ele>
        <time>1970-01-01T00:09:49.000Z</time>
      </trkpt>
      <trkpt lat="43.21024" lon="6.6061">
        <ele>243.4</ele>
        <time>1970-01-01T00:09:50.000Z</time>
      </trkpt>
      <trkpt lat="43.2103" lon="6.60604">
        <ele>244.1</ele>
        <time>1970-01-01T00:09:51.000Z</time>
      </trkpt>
      <trkpt lat="43.21037" lon="6.60597">
        <ele>244.7</ele>
        <time>1970-01-01T00:09:52.000Z</time>
      </trkpt>
      <trkpt lat="43.21043" lon="6.60591">
        <ele>245.3</ele>
        <time>1970-01-01T00:09:53.000Z</time>
      </trkpt>
      <trkpt lat="43.21048" lon="6.60586">
        <ele>245.8</ele>
        <time>1970-01-01T00:09:54.000Z</time>
      </trkpt>
      <trkpt lat="43.21055" lon="6.60581">
        <ele>246.4</ele>
        <time>1970-01-01T00:09:55.000Z</time>
      </trkpt>
      <trkpt lat="43.2106" lon="6.60576">
        <ele>246.9</ele>
        <time>1970-01-01T00:09:56.000Z</time>
      </trkpt>
      <trkpt lat="43.21065" lon="6.60569">
        <ele>247.4</ele>
        <time>1970-01-01T00:09:57.000Z</time>
      </trkpt>
      <trkpt lat="43.21071" lon="6.60563">
        <ele>247.9</ele>
        <time>1970-01-01T00:09:58.000Z</time>
      </trkpt>
      <trkpt lat="43.21078" lon="6.60558">
        <ele>248.4</ele>
        <time>1970-01-01T00:09:59.000Z</time>
      </trkpt>
      <trkpt lat="43.21083" lon="6.60555">
        <ele>248.7</ele>
        <time>1970-01-01T00:10:00.000Z</time>
      </trkpt>
      <trkpt lat="43.21089" lon="6.60555">
        <ele>248.9</ele>
        <time>1970-01-01T00:10:01.000Z</time>
      </trkpt>
      <trkpt lat="43.21094" lon="6.60558">
        <ele>249.1</ele>
        <time>1970-01-01T00:10:02.000Z</time>
      </trkpt>
      <trkpt lat="43.21097" lon="6.60566">
        <ele>249.2</ele>
        <time>1970-01-01T00:10:03.000Z</time>
      </trkpt>
      <trkpt lat="43.21101" lon="6.60574">
        <ele>249.2</ele>
        <time>1970-01-01T00:10:04.000Z</time>
      </trkpt>
      <trkpt lat="43.21105" lon="6.60582">
        <ele>249.2</ele>
        <time>1970-01-01T00:10:05.000Z</time>
      </trkpt>
      <trkpt lat="43.21105" lon="6.60594">
        <ele>249.1</ele>
        <time>1970-01-01T00:10:06.000Z</time>
      </trkpt>
      <trkpt lat="43.21111" lon="6.60603">
        <ele>248.9</ele>
        <time>1970-01-01T00:10:07.000Z</time>
      </trkpt>
      <trkpt lat="43.21117" lon="6.60611">
        <ele>248.7</ele>
        <time>1970-01-01T00:10:08.000Z</time>
      </trkpt>
      <trkpt lat="43.21123" lon="6.60619">
        <ele>248.4</ele>
        <time>1970-01-01T00:10:09.000Z</time>
      </trkpt>
      <trkpt lat="43.21129" lon="6.60627">
        <ele>248.2</ele>
        <time>1970-01-01T00:10:10.000Z</time>
      </trkpt>
      <trkpt lat="43.21135" lon="6.60634">
        <ele>247.9</ele>
        <time>1970-01-01T00:10:11.000Z</time>
      </trkpt>
      <trkpt lat="43.21141" lon="6.60639">
        <ele>247.7</ele>
        <time>1970-01-01T00:10:12.000Z</time>
      </trkpt>
      <trkpt lat="43.21146" lon="6.60645">
        <ele>247.4</ele>
        <time>1970-01-01T00:10:13.000Z</time>
      </trkpt>
      <trkpt lat="43.21155" lon="6.60648">
        <ele>247.1</ele>
        <time>1970-01-01T00:10:14.000Z</time>
      </trkpt>
      <trkpt lat="43.21166" lon="6.60648">
        <ele>246.9</ele>
        <time>1970-01-01T00:10:15.000Z</time>
      </trkpt>
      <trkpt lat="43.21175" lon="6.60645">
        <ele>246.9</ele>
        <time>1970-01-01T00:10:16.000Z</time>
      </trkpt>
      <trkpt lat="43.21184" lon="6.60641">
        <ele>246.8</ele>
        <time>1970-01-01T00:10:17.000Z</time>
      </trkpt>
      <trkpt lat="43.21193" lon="6.60637">
        <ele>247</ele>
        <time>1970-01-01T00:10:18.000Z</time>
      </trkpt>
      <trkpt lat="43.212" lon="6.60633">
        <ele>247.2</ele>
        <time>1970-01-01T00:10:19.000Z</time>
      </trkpt>
      <trkpt lat="43.21207" lon="6.60631">
        <ele>247.5</ele>
        <time>1970-01-01T00:10:20.000Z</time>
      </trkpt>
      <trkpt lat="43.21213" lon="6.60628">
        <ele>247.7</ele>
        <time>1970-01-01T00:10:21.000Z</time>
      </trkpt>
      <trkpt lat="43.2122" lon="6.60622">
        <ele>247.9</ele>
        <time>1970-01-01T00:10:22.000Z</time>
      </trkpt>
      <trkpt lat="43.21225" lon="6.60613">
        <ele>248.2</ele>
        <time>1970-01-01T00:10:23.000Z</time>
      </trkpt>
      <trkpt lat="43.21228" lon="6.60601">
        <ele>248.6</ele>
        <time>1970-01-01T00:10:24.000Z</time>
      </trkpt>
      <trkpt lat="43.21231" lon="6.6059">
        <ele>249.2</ele>
        <time>1970-01-01T00:10:25.000Z</time>
      </trkpt>
      <trkpt lat="43.21235" lon="6.60578">
        <ele>250.1</ele>
        <time>1970-01-01T00:10:26.000Z</time>
      </trkpt>
      <trkpt lat="43.21237" lon="6.60567">
        <ele>250.8</ele>
        <time>1970-01-01T00:10:27.000Z</time>
      </trkpt>
      <trkpt lat="43.2124" lon="6.60556">
        <ele>251.5</ele>
        <time>1970-01-01T00:10:28.000Z</time>
      </trkpt>
      <trkpt lat="43.21241" lon="6.60548">
        <ele>252</ele>
        <time>1970-01-01T00:10:29.000Z</time>
      </trkpt>
      <trkpt lat="43.21245" lon="6.60538">
        <ele>252.7</ele>
        <time>1970-01-01T00:10:30.000Z</time>
      </trkpt>
      <trkpt lat="43.2125" lon="6.60531">
        <ele>253.4</ele>
        <time>1970-01-01T00:10:31.000Z</time>
      </trkpt>
      <trkpt lat="43.21256" lon="6.60525">
        <ele>253.9</ele>
        <time>1970-01-01T00:10:32.000Z</time>
      </trkpt>
      <trkpt lat="43.21262" lon="6.60523">
        <ele>254.4</ele>
        <time>1970-01-01T00:10:33.000Z</time>
      </trkpt>
      <trkpt lat="43.21269" lon="6.60525">
        <ele>254.9</ele>
        <time>1970-01-01T00:10:34.000Z</time>
      </trkpt>
      <trkpt lat="43.21277" lon="6.60529">
        <ele>255.5</ele>
        <time>1970-01-01T00:10:35.000Z</time>
      </trkpt>
      <trkpt lat="43.21285" lon="6.60539">
        <ele>256.3</ele>
        <time>1970-01-01T00:10:36.000Z</time>
      </trkpt>
      <trkpt lat="43.213" lon="6.60544">
        <ele>257.5</ele>
        <time>1970-01-01T00:10:37.000Z</time>
      </trkpt>
      <trkpt lat="43.21308" lon="6.60546">
        <ele>257.9</ele>
        <time>1970-01-01T00:10:38.000Z</time>
      </trkpt>
      <trkpt lat="43.21316" lon="6.60545">
        <ele>258.4</ele>
        <time>1970-01-01T00:10:39.000Z</time>
      </trkpt>
      <trkpt lat="43.21323" lon="6.60544">
        <ele>259</ele>
        <time>1970-01-01T00:10:40.000Z</time>
      </trkpt>
      <trkpt lat="43.21331" lon="6.6054">
        <ele>259.7</ele>
        <time>1970-01-01T00:10:41.000Z</time>
      </trkpt>
      <trkpt lat="43.21338" lon="6.60537">
        <ele>260.4</ele>
        <time>1970-01-01T00:10:42.000Z</time>
      </trkpt>
      <trkpt lat="43.21346" lon="6.60531">
        <ele>261.2</ele>
        <time>1970-01-01T00:10:43.000Z</time>
      </trkpt>
      <trkpt lat="43.21355" lon="6.60526">
        <ele>262.1</ele>
        <time>1970-01-01T00:10:44.000Z</time>
      </trkpt>
      <trkpt lat="43.21359" lon="6.60524">
        <ele>262.5</ele>
        <time>1970-01-01T00:10:45.000Z</time>
      </trkpt>
      <trkpt lat="43.21364" lon="6.60524">
        <ele>262.7</ele>
        <time>1970-01-01T00:10:46.000Z</time>
      </trkpt>
      <trkpt lat="43.21369" lon="6.60529">
        <ele>263.7</ele>
        <time>1970-01-01T00:10:47.000Z</time>
      </trkpt>
      <trkpt lat="43.21371" lon="6.60534">
        <ele>264.1</ele>
        <time>1970-01-01T00:10:48.000Z</time>
      </trkpt>
      <trkpt lat="43.21371" lon="6.6054">
        <ele>264.3</ele>
        <time>1970-01-01T00:10:49.000Z</time>
      </trkpt>
      <trkpt lat="43.21371" lon="6.60546">
        <ele>264.5</ele>
        <time>1970-01-01T00:10:50.000Z</time>
      </trkpt>
      <trkpt lat="43.21371" lon="6.60548">
        <ele>264.6</ele>
        <time>1970-01-01T00:10:51.000Z</time>
      </trkpt>
      <trkpt lat="43.21372" lon="6.6055">
        <ele>264.6</ele>
        <time>1970-01-01T00:10:52.000Z</time>
      </trkpt>
      <trkpt lat="43.21373" lon="6.60552">
        <ele>264.7</ele>
        <time>1970-01-01T00:10:53.000Z</time>
      </trkpt>
      <trkpt lat="43.21377" lon="6.60553">
        <ele>264.8</ele>
        <time>1970-01-01T00:10:54.000Z</time>
      </trkpt>
      <trkpt lat="43.21381" lon="6.60554">
        <ele>264.9</ele>
        <time>1970-01-01T00:10:55.000Z</time>
      </trkpt>
      <trkpt lat="43.21385" lon="6.60555">
        <ele>265</ele>
        <time>1970-01-01T00:10:56.000Z</time>
      </trkpt>
      <trkpt lat="43.2139" lon="6.60556">
        <ele>265</ele>
        <time>1970-01-01T00:10:57.000Z</time>
      </trkpt>
      <trkpt lat="43.21395" lon="6.60553">
        <ele>265</ele>
        <time>1970-01-01T00:10:58.000Z</time>
      </trkpt>
      <trkpt lat="43.214" lon="6.6055">
        <ele>265</ele>
        <time>1970-01-01T00:10:59.000Z</time>
      </trkpt>
      <trkpt lat="43.21411" lon="6.60551">
        <ele>265</ele>
        <time>1970-01-01T00:11:00.000Z</time>
      </trkpt>
      <trkpt lat="43.21418" lon="6.60548">
        <ele>265.1</ele>
        <time>1970-01-01T00:11:01.000Z</time>
      </trkpt>
      <trkpt lat="43.21427" lon="6.60545">
        <ele>265.2</ele>
        <time>1970-01-01T00:11:02.000Z</time>
      </trkpt>
      <trkpt lat="43.21435" lon="6.60541">
        <ele>265.5</ele>
        <time>1970-01-01T00:11:03.000Z</time>
      </trkpt>
      <trkpt lat="43.21444" lon="6.60536">
        <ele>265.8</ele>
        <time>1970-01-01T00:11:04.000Z</time>
      </trkpt>
      <trkpt lat="43.21453" lon="6.60531">
        <ele>266.4</ele>
        <time>1970-01-01T00:11:05.000Z</time>
      </trkpt>
      <trkpt lat="43.21463" lon="6.60525">
        <ele>267.3</ele>
        <time>1970-01-01T00:11:06.000Z</time>
      </trkpt>
      <trkpt lat="43.2147" lon="6.60518">
        <ele>268.1</ele>
        <time>1970-01-01T00:11:07.000Z</time>
      </trkpt>
      <trkpt lat="43.21478" lon="6.60511">
        <ele>269</ele>
        <time>1970-01-01T00:11:08.000Z</time>
      </trkpt>
      <trkpt lat="43.21486" lon="6.60507">
        <ele>270.2</ele>
        <time>1970-01-01T00:11:09.000Z</time>
      </trkpt>
      <trkpt lat="43.21494" lon="6.60502">
        <ele>271.4</ele>
        <time>1970-01-01T00:11:10.000Z</time>
      </trkpt>
      <trkpt lat="43.215" lon="6.605">
        <ele>272.5</ele>
        <time>1970-01-01T00:11:11.000Z</time>
      </trkpt>
      <trkpt lat="43.21505" lon="6.605">
        <ele>273.3</ele>
        <time>1970-01-01T00:11:13.000Z</time>
      </trkpt>
      <trkpt lat="43.21512" lon="6.60503">
        <ele>274.3</ele>
        <time>1970-01-01T00:11:14.000Z</time>
      </trkpt>
      <trkpt lat="43.21518" lon="6.60506">
        <ele>275.1</ele>
        <time>1970-01-01T00:11:15.000Z</time>
      </trkpt>
      <trkpt lat="43.21524" lon="6.60509">
        <ele>275.9</ele>
        <time>1970-01-01T00:11:16.000Z</time>
      </trkpt>
      <trkpt lat="43.21531" lon="6.60512">
        <ele>276.8</ele>
        <time>1970-01-01T00:11:17.000Z</time>
      </trkpt>
      <trkpt lat="43.21538" lon="6.60512">
        <ele>277.6</ele>
        <time>1970-01-01T00:11:18.000Z</time>
      </trkpt>
      <trkpt lat="43.21545" lon="6.60513">
        <ele>278.4</ele>
        <time>1970-01-01T00:11:19.000Z</time>
      </trkpt>
      <trkpt lat="43.21552" lon="6.60514">
        <ele>279.1</ele>
        <time>1970-01-01T00:11:20.000Z</time>
      </trkpt>
      <trkpt lat="43.21558" lon="6.60512">
        <ele>279.7</ele>
        <time>1970-01-01T00:11:21.000Z</time>
      </trkpt>
      <trkpt lat="43.21562" lon="6.60507">
        <ele>280.3</ele>
        <time>1970-01-01T00:11:22.000Z</time>
      </trkpt>
      <trkpt lat="43.21568" lon="6.60499">
        <ele>281.1</ele>
        <time>1970-01-01T00:11:23.000Z</time>
      </trkpt>
      <trkpt lat="43.21573" lon="6.60492">
        <ele>281.8</ele>
        <time>1970-01-01T00:11:24.000Z</time>
      </trkpt>
      <trkpt lat="43.21579" lon="6.60486">
        <ele>282.5</ele>
        <time>1970-01-01T00:11:25.000Z</time>
      </trkpt>
      <trkpt lat="43.21584" lon="6.60477">
        <ele>283.3</ele>
        <time>1970-01-01T00:11:26.000Z</time>
      </trkpt>
      <trkpt lat="43.21592" lon="6.60472">
        <ele>284.1</ele>
        <time>1970-01-01T00:11:27.000Z</time>
      </trkpt>
      <trkpt lat="43.21596" lon="6.60466">
        <ele>284.5</ele>
        <time>1970-01-01T00:11:28.000Z</time>
      </trkpt>
      <trkpt lat="43.21599" lon="6.6046">
        <ele>284.9</ele>
        <time>1970-01-01T00:11:29.000Z</time>
      </trkpt>
      <trkpt lat="43.21603" lon="6.60453">
        <ele>285.4</ele>
        <time>1970-01-01T00:11:30.000Z</time>
      </trkpt>
      <trkpt lat="43.21609" lon="6.60444">
        <ele>285.9</ele>
        <time>1970-01-01T00:11:31.000Z</time>
      </trkpt>
      <trkpt lat="43.21615" lon="6.60437">
        <ele>286.3</ele>
        <time>1970-01-01T00:11:32.000Z</time>
      </trkpt>
      <trkpt lat="43.21621" lon="6.60431">
        <ele>286.6</ele>
        <time>1970-01-01T00:11:33.000Z</time>
      </trkpt>
      <trkpt lat="43.21628" lon="6.60426">
        <ele>286.9</ele>
        <time>1970-01-01T00:11:34.000Z</time>
      </trkpt>
      <trkpt lat="43.21635" lon="6.6042">
        <ele>287.1</ele>
        <time>1970-01-01T00:11:35.000Z</time>
      </trkpt>
      <trkpt lat="43.21644" lon="6.60415">
        <ele>287.3</ele>
        <time>1970-01-01T00:11:36.000Z</time>
      </trkpt>
      <trkpt lat="43.21651" lon="6.6041">
        <ele>287.5</ele>
        <time>1970-01-01T00:11:37.000Z</time>
      </trkpt>
      <trkpt lat="43.21658" lon="6.60405">
        <ele>287.5</ele>
        <time>1970-01-01T00:11:38.000Z</time>
      </trkpt>
      <trkpt lat="43.21666" lon="6.60399">
        <ele>287.6</ele>
        <time>1970-01-01T00:11:39.000Z</time>
      </trkpt>
      <trkpt lat="43.21672" lon="6.60394">
        <ele>287.7</ele>
        <time>1970-01-01T00:11:40.000Z</time>
      </trkpt>
      <trkpt lat="43.21678" lon="6.60389">
        <ele>287.9</ele>
        <time>1970-01-01T00:11:41.000Z</time>
      </trkpt>
      <trkpt lat="43.21685" lon="6.60387">
        <ele>288.1</ele>
        <time>1970-01-01T00:11:42.000Z</time>
      </trkpt>
      <trkpt lat="43.21693" lon="6.6038">
        <ele>288.7</ele>
        <time>1970-01-01T00:11:43.000Z</time>
      </trkpt>
      <trkpt lat="43.21701" lon="6.60374">
        <ele>289.5</ele>
        <time>1970-01-01T00:11:44.000Z</time>
      </trkpt>
      <trkpt lat="43.21708" lon="6.60368">
        <ele>290.6</ele>
        <time>1970-01-01T00:11:45.000Z</time>
      </trkpt>
      <trkpt lat="43.21713" lon="6.60363">
        <ele>291.6</ele>
        <time>1970-01-01T00:11:46.000Z</time>
      </trkpt>
      <trkpt lat="43.21719" lon="6.60359">
        <ele>292.5</ele>
        <time>1970-01-01T00:11:47.000Z</time>
      </trkpt>
      <trkpt lat="43.21722" lon="6.60355">
        <ele>293.3</ele>
        <time>1970-01-01T00:11:48.000Z</time>
      </trkpt>
      <trkpt lat="43.21727" lon="6.60352">
        <ele>294.1</ele>
        <time>1970-01-01T00:11:49.000Z</time>
      </trkpt>
      <trkpt lat="43.21732" lon="6.6035">
        <ele>294.8</ele>
        <time>1970-01-01T00:11:50.000Z</time>
      </trkpt>
      <trkpt lat="43.21737" lon="6.60349">
        <ele>295.4</ele>
        <time>1970-01-01T00:11:51.000Z</time>
      </trkpt>
      <trkpt lat="43.21741" lon="6.6035">
        <ele>295.8</ele>
        <time>1970-01-01T00:11:52.000Z</time>
      </trkpt>
      <trkpt lat="43.21744" lon="6.6035">
        <ele>296.1</ele>
        <time>1970-01-01T00:11:53.000Z</time>
      </trkpt>
      <trkpt lat="43.21747" lon="6.60348">
        <ele>296.4</ele>
        <time>1970-01-01T00:11:54.000Z</time>
      </trkpt>
      <trkpt lat="43.2175" lon="6.60348">
        <ele>296.6</ele>
        <time>1970-01-01T00:11:55.000Z</time>
      </trkpt>
      <trkpt lat="43.21757" lon="6.60347">
        <ele>297.1</ele>
        <time>1970-01-01T00:11:56.000Z</time>
      </trkpt>
      <trkpt lat="43.21764" lon="6.60345">
        <ele>297.5</ele>
        <time>1970-01-01T00:11:57.000Z</time>
      </trkpt>
      <trkpt lat="43.21772" lon="6.60341">
        <ele>297.8</ele>
        <time>1970-01-01T00:11:58.000Z</time>
      </trkpt>
      <trkpt lat="43.21778" lon="6.60336">
        <ele>298</ele>
        <time>1970-01-01T00:11:59.000Z</time>
      </trkpt>
      <trkpt lat="43.21787" lon="6.60334">
        <ele>298.2</ele>
        <time>1970-01-01T00:12:00.000Z</time>
      </trkpt>
      <trkpt lat="43.21795" lon="6.60331">
        <ele>298.4</ele>
        <time>1970-01-01T00:12:01.000Z</time>
      </trkpt>
      <trkpt lat="43.21805" lon="6.60328">
        <ele>298.8</ele>
        <time>1970-01-01T00:12:02.000Z</time>
      </trkpt>
      <trkpt lat="43.21814" lon="6.60324">
        <ele>299.2</ele>
        <time>1970-01-01T00:12:03.000Z</time>
      </trkpt>
      <trkpt lat="43.21824" lon="6.60321">
        <ele>299.8</ele>
        <time>1970-01-01T00:12:04.000Z</time>
      </trkpt>
      <trkpt lat="43.21832" lon="6.60318">
        <ele>300.3</ele>
        <time>1970-01-01T00:12:05.000Z</time>
      </trkpt>
      <trkpt lat="43.21841" lon="6.60316">
        <ele>300.9</ele>
        <time>1970-01-01T00:12:06.000Z</time>
      </trkpt>
      <trkpt lat="43.21848" lon="6.60312">
        <ele>301.1</ele>
        <time>1970-01-01T00:12:07.000Z</time>
      </trkpt>
      <trkpt lat="43.21856" lon="6.60309">
        <ele>301.4</ele>
        <time>1970-01-01T00:12:08.000Z</time>
      </trkpt>
      <trkpt lat="43.21863" lon="6.60306">
        <ele>301.7</ele>
        <time>1970-01-01T00:12:09.000Z</time>
      </trkpt>
      <trkpt lat="43.21872" lon="6.60302">
        <ele>301.9</ele>
        <time>1970-01-01T00:12:10.000Z</time>
      </trkpt>
      <trkpt lat="43.2188" lon="6.603">
        <ele>302.1</ele>
        <time>1970-01-01T00:12:11.000Z</time>
      </trkpt>
      <trkpt lat="43.21888" lon="6.603">
        <ele>302.3</ele>
        <time>1970-01-01T00:12:12.000Z</time>
      </trkpt>
      <trkpt lat="43.21896" lon="6.60297">
        <ele>302.4</ele>
        <time>1970-01-01T00:12:13.000Z</time>
      </trkpt>
      <trkpt lat="43.21904" lon="6.60292">
        <ele>302.6</ele>
        <time>1970-01-01T00:12:14.000Z</time>
      </trkpt>
      <trkpt lat="43.21912" lon="6.60289">
        <ele>302.9</ele>
        <time>1970-01-01T00:12:15.000Z</time>
      </trkpt>
      <trkpt lat="43.21919" lon="6.60286">
        <ele>303.2</ele>
        <time>1970-01-01T00:12:16.000Z</time>
      </trkpt>
      <trkpt lat="43.21925" lon="6.60281">
        <ele>303.7</ele>
        <time>1970-01-01T00:12:17.000Z</time>
      </trkpt>
      <trkpt lat="43.21932" lon="6.60278">
        <ele>304.3</ele>
        <time>1970-01-01T00:12:18.000Z</time>
      </trkpt>
      <trkpt lat="43.21939" lon="6.60274">
        <ele>305.1</ele>
        <time>1970-01-01T00:12:19.000Z</time>
      </trkpt>
      <trkpt lat="43.21947" lon="6.6027">
        <ele>306.1</ele>
        <time>1970-01-01T00:12:20.000Z</time>
      </trkpt>
      <trkpt lat="43.21954" lon="6.60264">
        <ele>307.1</ele>
        <time>1970-01-01T00:12:21.000Z</time>
      </trkpt>
      <trkpt lat="43.2196" lon="6.60263">
        <ele>307.9</ele>
        <time>1970-01-01T00:12:22.000Z</time>
      </trkpt>
      <trkpt lat="43.21967" lon="6.60255">
        <ele>309</ele>
        <time>1970-01-01T00:12:23.000Z</time>
      </trkpt>
      <trkpt lat="43.21973" lon="6.60249">
        <ele>309.9</ele>
        <time>1970-01-01T00:12:24.000Z</time>
      </trkpt>
      <trkpt lat="43.21978" lon="6.60245">
        <ele>310.5</ele>
        <time>1970-01-01T00:12:25.000Z</time>
      </trkpt>
      <trkpt lat="43.21983" lon="6.60241">
        <ele>311</ele>
        <time>1970-01-01T00:12:26.000Z</time>
      </trkpt>
      <trkpt lat="43.21985" lon="6.60237">
        <ele>311.4</ele>
        <time>1970-01-01T00:12:27.000Z</time>
      </trkpt>
      <trkpt lat="43.21989" lon="6.60236">
        <ele>311.9</ele>
        <time>1970-01-01T00:12:28.000Z</time>
      </trkpt>
      <trkpt lat="43.21992" lon="6.60238">
        <ele>311.9</ele>
        <time>1970-01-01T00:12:29.000Z</time>
      </trkpt>
      <trkpt lat="43.21996" lon="6.60238">
        <ele>311.9</ele>
        <time>1970-01-01T00:12:30.000Z</time>
      </trkpt>
      <trkpt lat="43.21997" lon="6.60238">
        <ele>311.9</ele>
        <time>1970-01-01T00:12:31.000Z</time>
      </trkpt>
      <trkpt lat="43.22" lon="6.60236">
        <ele>311.9</ele>
        <time>1970-01-01T00:12:32.000Z</time>
      </trkpt>
      <trkpt lat="43.22" lon="6.60235">
        <ele>311.9</ele>
        <time>1970-01-01T00:12:33.000Z</time>
      </trkpt>
      <trkpt lat="43.22001" lon="6.60233">
        <ele>311.9</ele>
        <time>1970-01-01T00:12:34.000Z</time>
      </trkpt>
      <trkpt lat="43.22001" lon="6.60231">
        <ele>311.9</ele>
        <time>1970-01-01T00:12:35.000Z</time>
      </trkpt>
      <trkpt lat="43.22001" lon="6.60229">
        <ele>311.9</ele>
        <time>1970-01-01T00:12:36.000Z</time>
      </trkpt>
      <trkpt lat="43.22" lon="6.60227">
        <ele>311.9</ele>
        <time>1970-01-01T00:12:37.000Z</time>
      </trkpt>
      <trkpt lat="43.22" lon="6.60231">
        <ele>311.9</ele>
        <time>1970-01-01T00:12:38.000Z</time>
      </trkpt>
      <trkpt lat="43.21999" lon="6.60232">
        <ele>311.9</ele>
        <time>1970-01-01T00:12:39.000Z</time>
      </trkpt>
      <trkpt lat="43.21998" lon="6.60234">
        <ele>311.9</ele>
        <time>1970-01-01T00:12:40.000Z</time>
      </trkpt>
      <trkpt lat="43.21996" lon="6.60235">
        <ele>311.9</ele>
        <time>1970-01-01T00:12:41.000Z</time>
      </trkpt>
      <trkpt lat="43.21996" lon="6.60234">
        <ele>311.9</ele>
        <time>1970-01-01T00:12:42.000Z</time>
      </trkpt>
      <trkpt lat="43.21994" lon="6.60236">
        <ele>311.9</ele>
        <time>1970-01-01T00:12:43.000Z</time>
      </trkpt>
      <trkpt lat="43.21994" lon="6.60236">
        <ele>311.9</ele>
        <time>1970-01-01T00:12:44.000Z</time>
      </trkpt>
      <trkpt lat="43.21994" lon="6.60236">
        <ele>311.9</ele>
        <time>1970-01-01T00:12:45.000Z</time>
      </trkpt>
      <trkpt lat="43.21994" lon="6.60236">
        <ele>311.8</ele>
        <time>1970-01-01T00:12:46.000Z</time>
      </trkpt>
      <trkpt lat="43.21994" lon="6.60236">
        <ele>311.8</ele>
        <time>1970-01-01T00:12:47.000Z</time>
      </trkpt>
      <trkpt lat="43.21995" lon="6.60236">
        <ele>311.8</ele>
        <time>1970-01-01T00:12:48.000Z</time>
      </trkpt>
      <trkpt lat="43.21996" lon="6.60236">
        <ele>311.8</ele>
        <time>1970-01-01T00:12:49.000Z</time>
      </trkpt>
      <trkpt lat="43.21996" lon="6.60236">
        <ele>311.8</ele>
        <time>1970-01-01T00:12:50.000Z</time>
      </trkpt>
      <trkpt lat="43.21997" lon="6.60236">
        <ele>311.8</ele>
        <time>1970-01-01T00:12:51.000Z</time>
      </trkpt>
      <trkpt lat="43.21996" lon="6.60233">
        <ele>311.8</ele>
        <time>1970-01-01T00:14:01.000Z</time>
      </trkpt>
      <trkpt lat="43.21997" lon="6.60231">
        <ele>311.7</ele>
        <time>1970-01-01T00:14:02.000Z</time>
      </trkpt>
      <trkpt lat="43.21998" lon="6.6023">
        <ele>311.7</ele>
        <time>1970-01-01T00:14:03.000Z</time>
      </trkpt>
      <trkpt lat="43.22" lon="6.60227">
        <ele>311.7</ele>
        <time>1970-01-01T00:14:04.000Z</time>
      </trkpt>
      <trkpt lat="43.22002" lon="6.60225">
        <ele>311.6</ele>
        <time>1970-01-01T00:14:05.000Z</time>
      </trkpt>
      <trkpt lat="43.22005" lon="6.60222">
        <ele>311.5</ele>
        <time>1970-01-01T00:14:06.000Z</time>
      </trkpt>
      <trkpt lat="43.22007" lon="6.6022">
        <ele>311.5</ele>
        <time>1970-01-01T00:14:07.000Z</time>
      </trkpt>
      <trkpt lat="43.22009" lon="6.60217">
        <ele>311.4</ele>
        <time>1970-01-01T00:14:08.000Z</time>
      </trkpt>
      <trkpt lat="43.22011" lon="6.60214">
        <ele>311.3</ele>
        <time>1970-01-01T00:14:09.000Z</time>
      </trkpt>
      <trkpt lat="43.22013" lon="6.6021">
        <ele>311.2</ele>
        <time>1970-01-01T00:14:10.000Z</time>
      </trkpt>
      <trkpt lat="43.22015" lon="6.60207">
        <ele>311.1</ele>
        <time>1970-01-01T00:14:11.000Z</time>
      </trkpt>
      <trkpt lat="43.22017" lon="6.60203">
        <ele>311</ele>
        <time>1970-01-01T00:14:12.000Z</time>
      </trkpt>
      <trkpt lat="43.2202" lon="6.60199">
        <ele>310.9</ele>
        <time>1970-01-01T00:14:13.000Z</time>
      </trkpt>
      <trkpt lat="43.22023" lon="6.60197">
        <ele>310.5</ele>
        <time>1970-01-01T00:14:14.000Z</time>
      </trkpt>
      <trkpt lat="43.22026" lon="6.60196">
        <ele>310.5</ele>
        <time>1970-01-01T00:14:15.000Z</time>
      </trkpt>
      <trkpt lat="43.22027" lon="6.60195">
        <ele>310.4</ele>
        <time>1970-01-01T00:14:16.000Z</time>
      </trkpt>
      <trkpt lat="43.22029" lon="6.60194">
        <ele>310.3</ele>
        <time>1970-01-01T00:14:17.000Z</time>
      </trkpt>
      <trkpt lat="43.2203" lon="6.60193">
        <ele>310.3</ele>
        <time>1970-01-01T00:14:18.000Z</time>
      </trkpt>
      <trkpt lat="43.22031" lon="6.60193">
        <ele>310.3</ele>
        <time>1970-01-01T00:14:19.000Z</time>
      </trkpt>
      <trkpt lat="43.22031" lon="6.60193">
        <ele>310.2</ele>
        <time>1970-01-01T00:14:20.000Z</time>
      </trkpt>
      <trkpt lat="43.22032" lon="6.60192">
        <ele>310.2</ele>
        <time>1970-01-01T00:14:21.000Z</time>
      </trkpt>
      <trkpt lat="43.22032" lon="6.60192">
        <ele>310.2</ele>
        <time>1970-01-01T00:14:22.000Z</time>
      </trkpt>
      <trkpt lat="43.22033" lon="6.60192">
        <ele>310.1</ele>
        <time>1970-01-01T00:14:23.000Z</time>
      </trkpt>
      <trkpt lat="43.22033" lon="6.60191">
        <ele>310.1</ele>
        <time>1970-01-01T00:14:24.000Z</time>
      </trkpt>
      <trkpt lat="43.22034" lon="6.60191">
        <ele>310</ele>
        <time>1970-01-01T00:14:25.000Z</time>
      </trkpt>
      <trkpt lat="43.22034" lon="6.60191">
        <ele>310</ele>
        <time>1970-01-01T00:14:26.000Z</time>
      </trkpt>
      <trkpt lat="43.22035" lon="6.60191">
        <ele>310</ele>
        <time>1970-01-01T00:14:27.000Z</time>
      </trkpt>
      <trkpt lat="43.22035" lon="6.6019">
        <ele>309.9</ele>
        <time>1970-01-01T00:14:28.000Z</time>
      </trkpt>
      <trkpt lat="43.22036" lon="6.6019">
        <ele>309.9</ele>
        <time>1970-01-01T00:14:29.000Z</time>
      </trkpt>
      <trkpt lat="43.22036" lon="6.6019">
        <ele>309.9</ele>
        <time>1970-01-01T00:14:30.000Z</time>
      </trkpt>
      <trkpt lat="43.22037" lon="6.60189">
        <ele>309.8</ele>
        <time>1970-01-01T00:14:31.000Z</time>
      </trkpt>
      <trkpt lat="43.22038" lon="6.60189">
        <ele>309.8</ele>
        <time>1970-01-01T00:14:32.000Z</time>
      </trkpt>
      <trkpt lat="43.22038" lon="6.60189">
        <ele>309.7</ele>
        <time>1970-01-01T00:14:56.000Z</time>
      </trkpt>
      <trkpt lat="43.22039" lon="6.60189">
        <ele>309.7</ele>
        <time>1970-01-01T00:14:57.000Z</time>
      </trkpt>
      <trkpt lat="43.22045" lon="6.60191">
        <ele>309.1</ele>
        <time>1970-01-01T00:14:58.000Z</time>
      </trkpt>
      <trkpt lat="43.22052" lon="6.60196">
        <ele>308.1</ele>
        <time>1970-01-01T00:14:59.000Z</time>
      </trkpt>
      <trkpt lat="43.22062" lon="6.60197">
        <ele>306.9</ele>
        <time>1970-01-01T00:15:00.000Z</time>
      </trkpt>
      <trkpt lat="43.22072" lon="6.60198">
        <ele>305.8</ele>
        <time>1970-01-01T00:15:01.000Z</time>
      </trkpt>
      <trkpt lat="43.2208" lon="6.602">
        <ele>305.1</ele>
        <time>1970-01-01T00:15:02.000Z</time>
      </trkpt>
      <trkpt lat="43.22089" lon="6.60207">
        <ele>304.5</ele>
        <time>1970-01-01T00:15:03.000Z</time>
      </trkpt>
      <trkpt lat="43.22098" lon="6.60213">
        <ele>304.2</ele>
        <time>1970-01-01T00:15:04.000Z</time>
      </trkpt>
      <trkpt lat="43.22105" lon="6.60219">
        <ele>304.2</ele>
        <time>1970-01-01T00:15:05.000Z</time>
      </trkpt>
      <trkpt lat="43.22109" lon="6.60224">
        <ele>304.3</ele>
        <time>1970-01-01T00:15:06.000Z</time>
      </trkpt>
      <trkpt lat="43.22114" lon="6.60226">
        <ele>304.4</ele>
        <time>1970-01-01T00:15:07.000Z</time>
      </trkpt>
      <trkpt lat="43.22118" lon="6.60227">
        <ele>304.6</ele>
        <time>1970-01-01T00:15:08.000Z</time>
      </trkpt>
      <trkpt lat="43.22122" lon="6.60229">
        <ele>304.8</ele>
        <time>1970-01-01T00:15:09.000Z</time>
      </trkpt>
      <trkpt lat="43.22125" lon="6.6023">
        <ele>305</ele>
        <time>1970-01-01T00:15:10.000Z</time>
      </trkpt>
      <trkpt lat="43.22128" lon="6.6023">
        <ele>305.2</ele>
        <time>1970-01-01T00:15:11.000Z</time>
      </trkpt>
      <trkpt lat="43.22131" lon="6.6023">
        <ele>305.5</ele>
        <time>1970-01-01T00:15:12.000Z</time>
      </trkpt>
      <trkpt lat="43.22134" lon="6.60232">
        <ele>305.7</ele>
        <time>1970-01-01T00:15:13.000Z</time>
      </trkpt>
      <trkpt lat="43.22136" lon="6.60237">
        <ele>306.1</ele>
        <time>1970-01-01T00:15:14.000Z</time>
      </trkpt>
      <trkpt lat="43.22136" lon="6.6024">
        <ele>306.3</ele>
        <time>1970-01-01T00:15:15.000Z</time>
      </trkpt>
      <trkpt lat="43.22135" lon="6.60245">
        <ele>306.7</ele>
        <time>1970-01-01T00:15:16.000Z</time>
      </trkpt>
      <trkpt lat="43.22137" lon="6.60253">
        <ele>307.1</ele>
        <time>1970-01-01T00:15:17.000Z</time>
      </trkpt>
      <trkpt lat="43.22146" lon="6.60261">
        <ele>307.4</ele>
        <time>1970-01-01T00:15:18.000Z</time>
      </trkpt>
      <trkpt lat="43.22155" lon="6.60263">
        <ele>307.1</ele>
        <time>1970-01-01T00:15:19.000Z</time>
      </trkpt>
      <trkpt lat="43.22163" lon="6.60264">
        <ele>305.8</ele>
        <time>1970-01-01T00:15:20.000Z</time>
      </trkpt>
      <trkpt lat="43.22167" lon="6.60266">
        <ele>304.2</ele>
        <time>1970-01-01T00:15:21.000Z</time>
      </trkpt>
      <trkpt lat="43.22169" lon="6.6027">
        <ele>303.7</ele>
        <time>1970-01-01T00:15:22.000Z</time>
      </trkpt>
      <trkpt lat="43.22165" lon="6.60272">
        <ele>303.9</ele>
        <time>1970-01-01T00:15:23.000Z</time>
      </trkpt>
      <trkpt lat="43.22164" lon="6.60273">
        <ele>303.5</ele>
        <time>1970-01-01T00:15:24.000Z</time>
      </trkpt>
      <trkpt lat="43.22165" lon="6.6028">
        <ele>302.4</ele>
        <time>1970-01-01T00:15:25.000Z</time>
      </trkpt>
      <trkpt lat="43.22169" lon="6.60286">
        <ele>300.7</ele>
        <time>1970-01-01T00:15:26.000Z</time>
      </trkpt>
      <trkpt lat="43.2217" lon="6.60291">
        <ele>300</ele>
        <time>1970-01-01T00:15:27.000Z</time>
      </trkpt>
      <trkpt lat="43.22177" lon="6.60291">
        <ele>298.7</ele>
        <time>1970-01-01T00:15:28.000Z</time>
      </trkpt>
      <trkpt lat="43.22185" lon="6.6029">
        <ele>296.9</ele>
        <time>1970-01-01T00:15:29.000Z</time>
      </trkpt>
      <trkpt lat="43.22194" lon="6.60292">
        <ele>294.1</ele>
        <time>1970-01-01T00:15:30.000Z</time>
      </trkpt>
      <trkpt lat="43.22202" lon="6.6029">
        <ele>292.8</ele>
        <time>1970-01-01T00:15:31.000Z</time>
      </trkpt>
      <trkpt lat="43.22208" lon="6.60282">
        <ele>291.8</ele>
        <time>1970-01-01T00:15:32.000Z</time>
      </trkpt>
      <trkpt lat="43.22212" lon="6.60278">
        <ele>291.2</ele>
        <time>1970-01-01T00:15:33.000Z</time>
      </trkpt>
      <trkpt lat="43.22213" lon="6.60282">
        <ele>289.8</ele>
        <time>1970-01-01T00:15:34.000Z</time>
      </trkpt>
      <trkpt lat="43.22211" lon="6.60286">
        <ele>289.9</ele>
        <time>1970-01-01T00:15:35.000Z</time>
      </trkpt>
      <trkpt lat="43.22213" lon="6.60291">
        <ele>288.6</ele>
        <time>1970-01-01T00:15:36.000Z</time>
      </trkpt>
      <trkpt lat="43.22219" lon="6.60292">
        <ele>287.3</ele>
        <time>1970-01-01T00:15:37.000Z</time>
      </trkpt>
      <trkpt lat="43.22221" lon="6.60297">
        <ele>285.9</ele>
        <time>1970-01-01T00:15:38.000Z</time>
      </trkpt>
      <trkpt lat="43.22222" lon="6.60301">
        <ele>285.3</ele>
        <time>1970-01-01T00:15:39.000Z</time>
      </trkpt>
      <trkpt lat="43.22226" lon="6.60307">
        <ele>283.1</ele>
        <time>1970-01-01T00:15:40.000Z</time>
      </trkpt>
      <trkpt lat="43.22232" lon="6.60316">
        <ele>280.5</ele>
        <time>1970-01-01T00:15:41.000Z</time>
      </trkpt>
      <trkpt lat="43.22238" lon="6.60323">
        <ele>277.7</ele>
        <time>1970-01-01T00:15:42.000Z</time>
      </trkpt>
      <trkpt lat="43.22244" lon="6.6033">
        <ele>276</ele>
        <time>1970-01-01T00:15:43.000Z</time>
      </trkpt>
      <trkpt lat="43.22247" lon="6.60336">
        <ele>273</ele>
        <time>1970-01-01T00:15:44.000Z</time>
      </trkpt>
      <trkpt lat="43.22249" lon="6.60339">
        <ele>272.3</ele>
        <time>1970-01-01T00:15:45.000Z</time>
      </trkpt>
      <trkpt lat="43.22249" lon="6.60342">
        <ele>271.9</ele>
        <time>1970-01-01T00:15:46.000Z</time>
      </trkpt>
      <trkpt lat="43.22249" lon="6.60344">
        <ele>271.2</ele>
        <time>1970-01-01T00:15:47.000Z</time>
      </trkpt>
      <trkpt lat="43.22249" lon="6.60346">
        <ele>270.8</ele>
        <time>1970-01-01T00:15:48.000Z</time>
      </trkpt>
      <trkpt lat="43.22252" lon="6.60348">
        <ele>269.4</ele>
        <time>1970-01-01T00:15:49.000Z</time>
      </trkpt>
      <trkpt lat="43.22253" lon="6.60348">
        <ele>269.2</ele>
        <time>1970-01-01T00:15:50.000Z</time>
      </trkpt>
      <trkpt lat="43.22254" lon="6.60348">
        <ele>269.2</ele>
        <time>1970-01-01T00:15:51.000Z</time>
      </trkpt>
      <trkpt lat="43.22255" lon="6.60348">
        <ele>269.1</ele>
        <time>1970-01-01T00:15:52.000Z</time>
      </trkpt>
      <trkpt lat="43.22256" lon="6.60348">
        <ele>269</ele>
        <time>1970-01-01T00:15:53.000Z</time>
      </trkpt>
      <trkpt lat="43.22256" lon="6.60348">
        <ele>268.9</ele>
        <time>1970-01-01T00:15:54.000Z</time>
      </trkpt>
      <trkpt lat="43.22257" lon="6.60348">
        <ele>268.8</ele>
        <time>1970-01-01T00:15:55.000Z</time>
      </trkpt>
      <trkpt lat="43.22258" lon="6.60351">
        <ele>268.6</ele>
        <time>1970-01-01T00:15:56.000Z</time>
      </trkpt>
      <trkpt lat="43.22258" lon="6.60352">
        <ele>268.6</ele>
        <time>1970-01-01T00:15:57.000Z</time>
      </trkpt>
      <trkpt lat="43.22258" lon="6.60352">
        <ele>268.5</ele>
        <time>1970-01-01T00:15:58.000Z</time>
      </trkpt>
      <trkpt lat="43.22258" lon="6.60353">
        <ele>268.4</ele>
        <time>1970-01-01T00:15:59.000Z</time>
      </trkpt>
      <trkpt lat="43.22258" lon="6.60354">
        <ele>268.4</ele>
        <time>1970-01-01T00:16:00.000Z</time>
      </trkpt>
      <trkpt lat="43.2226" lon="6.60355">
        <ele>268.2</ele>
        <time>1970-01-01T00:16:01.000Z</time>
      </trkpt>
      <trkpt lat="43.22261" lon="6.60357">
        <ele>268</ele>
        <time>1970-01-01T00:16:02.000Z</time>
      </trkpt>
      <trkpt lat="43.22263" lon="6.60362">
        <ele>267.6</ele>
        <time>1970-01-01T00:16:03.000Z</time>
      </trkpt>
      <trkpt lat="43.22263" lon="6.60365">
        <ele>267.3</ele>
        <time>1970-01-01T00:16:04.000Z</time>
      </trkpt>
      <trkpt lat="43.22268" lon="6.60374">
        <ele>266.5</ele>
        <time>1970-01-01T00:16:05.000Z</time>
      </trkpt>
      <trkpt lat="43.22272" lon="6.60379">
        <ele>266</ele>
        <time>1970-01-01T00:16:06.000Z</time>
      </trkpt>
      <trkpt lat="43.22276" lon="6.60385">
        <ele>265.4</ele>
        <time>1970-01-01T00:16:07.000Z</time>
      </trkpt>
      <trkpt lat="43.2228" lon="6.60393">
        <ele>264.9</ele>
        <time>1970-01-01T00:16:08.000Z</time>
      </trkpt>
      <trkpt lat="43.22284" lon="6.60402">
        <ele>264.3</ele>
        <time>1970-01-01T00:16:09.000Z</time>
      </trkpt>
      <trkpt lat="43.22292" lon="6.60408">
        <ele>263.6</ele>
        <time>1970-01-01T00:16:10.000Z</time>
      </trkpt>
      <trkpt lat="43.223" lon="6.60411">
        <ele>263</ele>
        <time>1970-01-01T00:16:11.000Z</time>
      </trkpt>
      <trkpt lat="43.22306" lon="6.60415">
        <ele>262.5</ele>
        <time>1970-01-01T00:16:12.000Z</time>
      </trkpt>
      <trkpt lat="43.22312" lon="6.60419">
        <ele>262</ele>
        <time>1970-01-01T00:16:13.000Z</time>
      </trkpt>
      <trkpt lat="43.22318" lon="6.60424">
        <ele>261.6</ele>
        <time>1970-01-01T00:16:14.000Z</time>
      </trkpt>
      <trkpt lat="43.22324" lon="6.60427">
        <ele>261.2</ele>
        <time>1970-01-01T00:16:15.000Z</time>
      </trkpt>
      <trkpt lat="43.22333" lon="6.60427">
        <ele>260.7</ele>
        <time>1970-01-01T00:16:16.000Z</time>
      </trkpt>
      <trkpt lat="43.2234" lon="6.60425">
        <ele>260.3</ele>
        <time>1970-01-01T00:16:17.000Z</time>
      </trkpt>
      <trkpt lat="43.22347" lon="6.60424">
        <ele>259.9</ele>
        <time>1970-01-01T00:16:18.000Z</time>
      </trkpt>
      <trkpt lat="43.22353" lon="6.60422">
        <ele>259.5</ele>
        <time>1970-01-01T00:16:19.000Z</time>
      </trkpt>
      <trkpt lat="43.22361" lon="6.6042">
        <ele>259.2</ele>
        <time>1970-01-01T00:16:20.000Z</time>
      </trkpt>
      <trkpt lat="43.22367" lon="6.60418">
        <ele>258.9</ele>
        <time>1970-01-01T00:16:21.000Z</time>
      </trkpt>
      <trkpt lat="43.22374" lon="6.60417">
        <ele>258.6</ele>
        <time>1970-01-01T00:16:22.000Z</time>
      </trkpt>
      <trkpt lat="43.22381" lon="6.6042">
        <ele>258.4</ele>
        <time>1970-01-01T00:16:23.000Z</time>
      </trkpt>
      <trkpt lat="43.22386" lon="6.60426">
        <ele>258.3</ele>
        <time>1970-01-01T00:16:24.000Z</time>
      </trkpt>
      <trkpt lat="43.22391" lon="6.60431">
        <ele>258.1</ele>
        <time>1970-01-01T00:16:25.000Z</time>
      </trkpt>
      <trkpt lat="43.22394" lon="6.60436">
        <ele>257.9</ele>
        <time>1970-01-01T00:16:26.000Z</time>
      </trkpt>
      <trkpt lat="43.22393" lon="6.60444">
        <ele>257.7</ele>
        <time>1970-01-01T00:16:27.000Z</time>
      </trkpt>
      <trkpt lat="43.22395" lon="6.60452">
        <ele>257.3</ele>
        <time>1970-01-01T00:16:28.000Z</time>
      </trkpt>
      <trkpt lat="43.22402" lon="6.60456">
        <ele>256.7</ele>
        <time>1970-01-01T00:16:29.000Z</time>
      </trkpt>
      <trkpt lat="43.22411" lon="6.60451">
        <ele>255.7</ele>
        <time>1970-01-01T00:16:30.000Z</time>
      </trkpt>
      <trkpt lat="43.22417" lon="6.6045">
        <ele>255.1</ele>
        <time>1970-01-01T00:16:31.000Z</time>
      </trkpt>
      <trkpt lat="43.22422" lon="6.60457">
        <ele>254.4</ele>
        <time>1970-01-01T00:16:32.000Z</time>
      </trkpt>
      <trkpt lat="43.22428" lon="6.60462">
        <ele>253.6</ele>
        <time>1970-01-01T00:16:33.000Z</time>
      </trkpt>
      <trkpt lat="43.22431" lon="6.6047">
        <ele>253.1</ele>
        <time>1970-01-01T00:16:34.000Z</time>
      </trkpt>
      <trkpt lat="43.22436" lon="6.60477">
        <ele>252.6</ele>
        <time>1970-01-01T00:16:35.000Z</time>
      </trkpt>
      <trkpt lat="43.22443" lon="6.60477">
        <ele>252.2</ele>
        <time>1970-01-01T00:16:37.000Z</time>
      </trkpt>
      <trkpt lat="43.22449" lon="6.60474">
        <ele>251.8</ele>
        <time>1970-01-01T00:16:38.000Z</time>
      </trkpt>
      <trkpt lat="43.22453" lon="6.60469">
        <ele>251.4</ele>
        <time>1970-01-01T00:16:39.000Z</time>
      </trkpt>
      <trkpt lat="43.22457" lon="6.60463">
        <ele>250.9</ele>
        <time>1970-01-01T00:16:40.000Z</time>
      </trkpt>
      <trkpt lat="43.22462" lon="6.6046">
        <ele>250.4</ele>
        <time>1970-01-01T00:16:41.000Z</time>
      </trkpt>
      <trkpt lat="43.22466" lon="6.60459">
        <ele>250</ele>
        <time>1970-01-01T00:16:42.000Z</time>
      </trkpt>
      <trkpt lat="43.22469" lon="6.60465">
        <ele>249.5</ele>
        <time>1970-01-01T00:16:43.000Z</time>
      </trkpt>
      <trkpt lat="43.22474" lon="6.60468">
        <ele>248.8</ele>
        <time>1970-01-01T00:16:44.000Z</time>
      </trkpt>
      <trkpt lat="43.2248" lon="6.60473">
        <ele>247.9</ele>
        <time>1970-01-01T00:16:45.000Z</time>
      </trkpt>
      <trkpt lat="43.22488" lon="6.60474">
        <ele>246.7</ele>
        <time>1970-01-01T00:16:46.000Z</time>
      </trkpt>
      <trkpt lat="43.22493" lon="6.60469">
        <ele>245.9</ele>
        <time>1970-01-01T00:16:47.000Z</time>
      </trkpt>
      <trkpt lat="43.22495" lon="6.60475">
        <ele>245.2</ele>
        <time>1970-01-01T00:16:48.000Z</time>
      </trkpt>
      <trkpt lat="43.22495" lon="6.60478">
        <ele>244.8</ele>
        <time>1970-01-01T00:16:49.000Z</time>
      </trkpt>
      <trkpt lat="43.22498" lon="6.60487">
        <ele>243.8</ele>
        <time>1970-01-01T00:16:50.000Z</time>
      </trkpt>
      <trkpt lat="43.22497" lon="6.60495">
        <ele>242.9</ele>
        <time>1970-01-01T00:16:51.000Z</time>
      </trkpt>
      <trkpt lat="43.22503" lon="6.60513">
        <ele>241.1</ele>
        <time>1970-01-01T00:16:52.000Z</time>
      </trkpt>
      <trkpt lat="43.22508" lon="6.60516">
        <ele>240.4</ele>
        <time>1970-01-01T00:16:53.000Z</time>
      </trkpt>
      <trkpt lat="43.22514" lon="6.60512">
        <ele>239.6</ele>
        <time>1970-01-01T00:16:54.000Z</time>
      </trkpt>
      <trkpt lat="43.22517" lon="6.60513">
        <ele>239.2</ele>
        <time>1970-01-01T00:16:55.000Z</time>
      </trkpt>
      <trkpt lat="43.22517" lon="6.60517">
        <ele>238.7</ele>
        <time>1970-01-01T00:16:56.000Z</time>
      </trkpt>
      <trkpt lat="43.22518" lon="6.60521">
        <ele>238.3</ele>
        <time>1970-01-01T00:16:57.000Z</time>
      </trkpt>
      <trkpt lat="43.2252" lon="6.60527">
        <ele>237.5</ele>
        <time>1970-01-01T00:16:58.000Z</time>
      </trkpt>
      <trkpt lat="43.22526" lon="6.60528">
        <ele>236.4</ele>
        <time>1970-01-01T00:16:59.000Z</time>
      </trkpt>
      <trkpt lat="43.22532" lon="6.60524">
        <ele>235.2</ele>
        <time>1970-01-01T00:17:00.000Z</time>
      </trkpt>
      <trkpt lat="43.22538" lon="6.60525">
        <ele>234</ele>
        <time>1970-01-01T00:17:01.000Z</time>
      </trkpt>
      <trkpt lat="43.22538" lon="6.60533">
        <ele>232.9</ele>
        <time>1970-01-01T00:17:02.000Z</time>
      </trkpt>
      <trkpt lat="43.22545" lon="6.60535">
        <ele>231.5</ele>
        <time>1970-01-01T00:17:03.000Z</time>
      </trkpt>
      <trkpt lat="43.22551" lon="6.60532">
        <ele>230.2</ele>
        <time>1970-01-01T00:17:04.000Z</time>
      </trkpt>
      <trkpt lat="43.2256" lon="6.6053">
        <ele>228.5</ele>
        <time>1970-01-01T00:17:05.000Z</time>
      </trkpt>
      <trkpt lat="43.22568" lon="6.60523">
        <ele>227.1</ele>
        <time>1970-01-01T00:17:06.000Z</time>
      </trkpt>
      <trkpt lat="43.22574" lon="6.60521">
        <ele>226.1</ele>
        <time>1970-01-01T00:17:07.000Z</time>
      </trkpt>
      <trkpt lat="43.22581" lon="6.60522">
        <ele>225.3</ele>
        <time>1970-01-01T00:17:08.000Z</time>
      </trkpt>
      <trkpt lat="43.22588" lon="6.60514">
        <ele>224.1</ele>
        <time>1970-01-01T00:17:09.000Z</time>
      </trkpt>
      <trkpt lat="43.22592" lon="6.60508">
        <ele>223.3</ele>
        <time>1970-01-01T00:17:10.000Z</time>
      </trkpt>
      <trkpt lat="43.22599" lon="6.60509">
        <ele>222.5</ele>
        <time>1970-01-01T00:17:11.000Z</time>
      </trkpt>
      <trkpt lat="43.22603" lon="6.60513">
        <ele>221.7</ele>
        <time>1970-01-01T00:17:12.000Z</time>
      </trkpt>
      <trkpt lat="43.22605" lon="6.60505">
        <ele>220.9</ele>
        <time>1970-01-01T00:17:13.000Z</time>
      </trkpt>
      <trkpt lat="43.22605" lon="6.60496">
        <ele>219.9</ele>
        <time>1970-01-01T00:17:14.000Z</time>
      </trkpt>
      <trkpt lat="43.22607" lon="6.60489">
        <ele>219.2</ele>
        <time>1970-01-01T00:17:15.000Z</time>
      </trkpt>
      <trkpt lat="43.22612" lon="6.60481">
        <ele>218.2</ele>
        <time>1970-01-01T00:17:16.000Z</time>
      </trkpt>
      <trkpt lat="43.22614" lon="6.60473">
        <ele>217.5</ele>
        <time>1970-01-01T00:17:17.000Z</time>
      </trkpt>
      <trkpt lat="43.22614" lon="6.60462">
        <ele>216.5</ele>
        <time>1970-01-01T00:17:18.000Z</time>
      </trkpt>
      <trkpt lat="43.22618" lon="6.60461">
        <ele>215.9</ele>
        <time>1970-01-01T00:17:19.000Z</time>
      </trkpt>
      <trkpt lat="43.22625" lon="6.6046">
        <ele>215</ele>
        <time>1970-01-01T00:17:20.000Z</time>
      </trkpt>
      <trkpt lat="43.2263" lon="6.60451">
        <ele>214</ele>
        <time>1970-01-01T00:17:21.000Z</time>
      </trkpt>
      <trkpt lat="43.22636" lon="6.60452">
        <ele>213.2</ele>
        <time>1970-01-01T00:17:22.000Z</time>
      </trkpt>
      <trkpt lat="43.22642" lon="6.60451">
        <ele>212.5</ele>
        <time>1970-01-01T00:17:23.000Z</time>
      </trkpt>
      <trkpt lat="43.22645" lon="6.60444">
        <ele>211.9</ele>
        <time>1970-01-01T00:17:24.000Z</time>
      </trkpt>
      <trkpt lat="43.22645" lon="6.60438">
        <ele>211.4</ele>
        <time>1970-01-01T00:17:25.000Z</time>
      </trkpt>
      <trkpt lat="43.22651" lon="6.60432">
        <ele>210.6</ele>
        <time>1970-01-01T00:17:26.000Z</time>
      </trkpt>
      <trkpt lat="43.22658" lon="6.60429">
        <ele>209.7</ele>
        <time>1970-01-01T00:17:27.000Z</time>
      </trkpt>
      <trkpt lat="43.22658" lon="6.6042">
        <ele>209</ele>
        <time>1970-01-01T00:17:28.000Z</time>
      </trkpt>
      <trkpt lat="43.22658" lon="6.60409">
        <ele>208</ele>
        <time>1970-01-01T00:17:29.000Z</time>
      </trkpt>
      <trkpt lat="43.2266" lon="6.60398">
        <ele>207</ele>
        <time>1970-01-01T00:17:30.000Z</time>
      </trkpt>
      <trkpt lat="43.2266" lon="6.60387">
        <ele>206.1</ele>
        <time>1970-01-01T00:17:31.000Z</time>
      </trkpt>
      <trkpt lat="43.22661" lon="6.60381">
        <ele>205.5</ele>
        <time>1970-01-01T00:17:32.000Z</time>
      </trkpt>
      <trkpt lat="43.22667" lon="6.6038">
        <ele>204.8</ele>
        <time>1970-01-01T00:17:33.000Z</time>
      </trkpt>
      <trkpt lat="43.22673" lon="6.60383">
        <ele>204</ele>
        <time>1970-01-01T00:17:34.000Z</time>
      </trkpt>
      <trkpt lat="43.2268" lon="6.60384">
        <ele>202.8</ele>
        <time>1970-01-01T00:17:35.000Z</time>
      </trkpt>
      <trkpt lat="43.22685" lon="6.60383">
        <ele>202</ele>
        <time>1970-01-01T00:17:36.000Z</time>
      </trkpt>
      <trkpt lat="43.22685" lon="6.60375">
        <ele>201</ele>
        <time>1970-01-01T00:17:37.000Z</time>
      </trkpt>
      <trkpt lat="43.22687" lon="6.6037">
        <ele>200.2</ele>
        <time>1970-01-01T00:17:38.000Z</time>
      </trkpt>
      <trkpt lat="43.22693" lon="6.60366">
        <ele>199.1</ele>
        <time>1970-01-01T00:17:39.000Z</time>
      </trkpt>
      <trkpt lat="43.22691" lon="6.60359">
        <ele>198.1</ele>
        <time>1970-01-01T00:17:40.000Z</time>
      </trkpt>
      <trkpt lat="43.22687" lon="6.60352">
        <ele>196.9</ele>
        <time>1970-01-01T00:17:41.000Z</time>
      </trkpt>
      <trkpt lat="43.22685" lon="6.60344">
        <ele>195.8</ele>
        <time>1970-01-01T00:17:42.000Z</time>
      </trkpt>
      <trkpt lat="43.22683" lon="6.60335">
        <ele>194.8</ele>
        <time>1970-01-01T00:17:43.000Z</time>
      </trkpt>
      <trkpt lat="43.22678" lon="6.60328">
        <ele>193.7</ele>
        <time>1970-01-01T00:17:44.000Z</time>
      </trkpt>
      <trkpt lat="43.22674" lon="6.60324">
        <ele>192.8</ele>
        <time>1970-01-01T00:17:45.000Z</time>
      </trkpt>
      <trkpt lat="43.22678" lon="6.60322">
        <ele>192</ele>
        <time>1970-01-01T00:17:46.000Z</time>
      </trkpt>
      <trkpt lat="43.22681" lon="6.60322">
        <ele>191.4</ele>
        <time>1970-01-01T00:17:47.000Z</time>
      </trkpt>
      <trkpt lat="43.22685" lon="6.60321">
        <ele>190.5</ele>
        <time>1970-01-01T00:17:48.000Z</time>
      </trkpt>
      <trkpt lat="43.22687" lon="6.60317">
        <ele>189.6</ele>
        <time>1970-01-01T00:17:49.000Z</time>
      </trkpt>
      <trkpt lat="43.22689" lon="6.60313">
        <ele>188.8</ele>
        <time>1970-01-01T00:17:50.000Z</time>
      </trkpt>
      <trkpt lat="43.22693" lon="6.60311">
        <ele>187.9</ele>
        <time>1970-01-01T00:17:51.000Z</time>
      </trkpt>
      <trkpt lat="43.22697" lon="6.6031">
        <ele>186.9</ele>
        <time>1970-01-01T00:17:52.000Z</time>
      </trkpt>
      <trkpt lat="43.22701" lon="6.60307">
        <ele>185.8</ele>
        <time>1970-01-01T00:17:53.000Z</time>
      </trkpt>
      <trkpt lat="43.22707" lon="6.60308">
        <ele>184.4</ele>
        <time>1970-01-01T00:17:54.000Z</time>
      </trkpt>
      <trkpt lat="43.22714" lon="6.60307">
        <ele>183</ele>
        <time>1970-01-01T00:17:55.000Z</time>
      </trkpt>
      <trkpt lat="43.2272" lon="6.60303">
        <ele>181.9</ele>
        <time>1970-01-01T00:17:56.000Z</time>
      </trkpt>
      <trkpt lat="43.22725" lon="6.603">
        <ele>180.9</ele>
        <time>1970-01-01T00:17:57.000Z</time>
      </trkpt>
      <trkpt lat="43.22729" lon="6.60297">
        <ele>180.3</ele>
        <time>1970-01-01T00:17:58.000Z</time>
      </trkpt>
      <trkpt lat="43.22734" lon="6.60295">
        <ele>179.6</ele>
        <time>1970-01-01T00:17:59.000Z</time>
      </trkpt>
      <trkpt lat="43.2274" lon="6.60292">
        <ele>178.7</ele>
        <time>1970-01-01T00:18:00.000Z</time>
      </trkpt>
      <trkpt lat="43.22745" lon="6.60289">
        <ele>177.9</ele>
        <time>1970-01-01T00:18:01.000Z</time>
      </trkpt>
      <trkpt lat="43.22746" lon="6.60282">
        <ele>177.1</ele>
        <time>1970-01-01T00:18:02.000Z</time>
      </trkpt>
      <trkpt lat="43.22742" lon="6.60279">
        <ele>176.3</ele>
        <time>1970-01-01T00:18:03.000Z</time>
      </trkpt>
      <trkpt lat="43.22736" lon="6.60276">
        <ele>175.2</ele>
        <time>1970-01-01T00:18:04.000Z</time>
      </trkpt>
      <trkpt lat="43.22734" lon="6.60272">
        <ele>174.6</ele>
        <time>1970-01-01T00:18:05.000Z</time>
      </trkpt>
      <trkpt lat="43.22739" lon="6.60271">
        <ele>173.6</ele>
        <time>1970-01-01T00:18:06.000Z</time>
      </trkpt>
      <trkpt lat="43.22742" lon="6.60271">
        <ele>172.9</ele>
        <time>1970-01-01T00:18:07.000Z</time>
      </trkpt>
      <trkpt lat="43.22745" lon="6.60266">
        <ele>171.8</ele>
        <time>1970-01-01T00:18:08.000Z</time>
      </trkpt>
      <trkpt lat="43.22743" lon="6.60256">
        <ele>169.9</ele>
        <time>1970-01-01T00:18:09.000Z</time>
      </trkpt>
      <trkpt lat="43.22738" lon="6.6025">
        <ele>168.2</ele>
        <time>1970-01-01T00:18:10.000Z</time>
      </trkpt>
      <trkpt lat="43.22735" lon="6.60246">
        <ele>166.9</ele>
        <time>1970-01-01T00:18:11.000Z</time>
      </trkpt>
      <trkpt lat="43.22735" lon="6.6024">
        <ele>165.8</ele>
        <time>1970-01-01T00:18:12.000Z</time>
      </trkpt>
      <trkpt lat="43.22735" lon="6.60238">
        <ele>165.4</ele>
        <time>1970-01-01T00:18:13.000Z</time>
      </trkpt>
      <trkpt lat="43.22738" lon="6.6023">
        <ele>163.6</ele>
        <time>1970-01-01T00:18:14.000Z</time>
      </trkpt>
      <trkpt lat="43.22742" lon="6.60222">
        <ele>161.6</ele>
        <time>1970-01-01T00:18:15.000Z</time>
      </trkpt>
      <trkpt lat="43.2274" lon="6.60203">
        <ele>157.9</ele>
        <time>1970-01-01T00:18:17.000Z</time>
      </trkpt>
      <trkpt lat="43.22738" lon="6.60197">
        <ele>156.8</ele>
        <time>1970-01-01T00:18:18.000Z</time>
      </trkpt>
      <trkpt lat="43.2274" lon="6.60194">
        <ele>156</ele>
        <time>1970-01-01T00:18:19.000Z</time>
      </trkpt>
      <trkpt lat="43.22745" lon="6.60193">
        <ele>155.1</ele>
        <time>1970-01-01T00:18:21.000Z</time>
      </trkpt>
      <trkpt lat="43.22748" lon="6.60195">
        <ele>154.3</ele>
        <time>1970-01-01T00:18:22.000Z</time>
      </trkpt>
      <trkpt lat="43.22753" lon="6.60199">
        <ele>153.2</ele>
        <time>1970-01-01T00:18:23.000Z</time>
      </trkpt>
      <trkpt lat="43.22757" lon="6.602">
        <ele>152.5</ele>
        <time>1970-01-01T00:18:24.000Z</time>
      </trkpt>
      <trkpt lat="43.22762" lon="6.60204">
        <ele>151.6</ele>
        <time>1970-01-01T00:18:25.000Z</time>
      </trkpt>
      <trkpt lat="43.22768" lon="6.60208">
        <ele>149.6</ele>
        <time>1970-01-01T00:18:26.000Z</time>
      </trkpt>
      <trkpt lat="43.22777" lon="6.60212">
        <ele>148.9</ele>
        <time>1970-01-01T00:18:27.000Z</time>
      </trkpt>
      <trkpt lat="43.22791" lon="6.60212">
        <ele>148</ele>
        <time>1970-01-01T00:18:28.000Z</time>
      </trkpt>
      <trkpt lat="43.22802" lon="6.6021">
        <ele>147.2</ele>
        <time>1970-01-01T00:18:29.000Z</time>
      </trkpt>
      <trkpt lat="43.22811" lon="6.60207">
        <ele>146.6</ele>
        <time>1970-01-01T00:18:30.000Z</time>
      </trkpt>
      <trkpt lat="43.22821" lon="6.60205">
        <ele>146.1</ele>
        <time>1970-01-01T00:18:31.000Z</time>
      </trkpt>
      <trkpt lat="43.2283" lon="6.60205">
        <ele>145.5</ele>
        <time>1970-01-01T00:18:32.000Z</time>
      </trkpt>
      <trkpt lat="43.22838" lon="6.60205">
        <ele>145</ele>
        <time>1970-01-01T00:18:33.000Z</time>
      </trkpt>
      <trkpt lat="43.2285" lon="6.60204">
        <ele>144.2</ele>
        <time>1970-01-01T00:18:34.000Z</time>
      </trkpt>
      <trkpt lat="43.22859" lon="6.60206">
        <ele>143.6</ele>
        <time>1970-01-01T00:18:35.000Z</time>
      </trkpt>
      <trkpt lat="43.2287" lon="6.60203">
        <ele>142.9</ele>
        <time>1970-01-01T00:18:36.000Z</time>
      </trkpt>
      <trkpt lat="43.22878" lon="6.60202">
        <ele>142.4</ele>
        <time>1970-01-01T00:18:37.000Z</time>
      </trkpt>
      <trkpt lat="43.22886" lon="6.60206">
        <ele>142</ele>
        <time>1970-01-01T00:18:38.000Z</time>
      </trkpt>
      <trkpt lat="43.22897" lon="6.60206">
        <ele>141.6</ele>
        <time>1970-01-01T00:18:39.000Z</time>
      </trkpt>
      <trkpt lat="43.22909" lon="6.60201">
        <ele>140.9</ele>
        <time>1970-01-01T00:18:40.000Z</time>
      </trkpt>
      <trkpt lat="43.22917" lon="6.60197">
        <ele>140.3</ele>
        <time>1970-01-01T00:18:41.000Z</time>
      </trkpt>
      <trkpt lat="43.22926" lon="6.60198">
        <ele>139.7</ele>
        <time>1970-01-01T00:18:42.000Z</time>
      </trkpt>
      <trkpt lat="43.22935" lon="6.60199">
        <ele>139</ele>
        <time>1970-01-01T00:18:43.000Z</time>
      </trkpt>
      <trkpt lat="43.22944" lon="6.60203">
        <ele>138.4</ele>
        <time>1970-01-01T00:18:44.000Z</time>
      </trkpt>
      <trkpt lat="43.22954" lon="6.60206">
        <ele>137.8</ele>
        <time>1970-01-01T00:18:45.000Z</time>
      </trkpt>
      <trkpt lat="43.22963" lon="6.60205">
        <ele>137.2</ele>
        <time>1970-01-01T00:18:46.000Z</time>
      </trkpt>
      <trkpt lat="43.22973" lon="6.60199">
        <ele>136.6</ele>
        <time>1970-01-01T00:18:47.000Z</time>
      </trkpt>
      <trkpt lat="43.22982" lon="6.60197">
        <ele>136.1</ele>
        <time>1970-01-01T00:18:48.000Z</time>
      </trkpt>
      <trkpt lat="43.22991" lon="6.60197">
        <ele>135.7</ele>
        <time>1970-01-01T00:18:49.000Z</time>
      </trkpt>
      <trkpt lat="43.22998" lon="6.60196">
        <ele>135.5</ele>
        <time>1970-01-01T00:18:50.000Z</time>
      </trkpt>
      <trkpt lat="43.23007" lon="6.60192">
        <ele>135.2</ele>
        <time>1970-01-01T00:18:51.000Z</time>
      </trkpt>
      <trkpt lat="43.23015" lon="6.60186">
        <ele>135.1</ele>
        <time>1970-01-01T00:18:52.000Z</time>
      </trkpt>
      <trkpt lat="43.23022" lon="6.60178">
        <ele>135.1</ele>
        <time>1970-01-01T00:18:53.000Z</time>
      </trkpt>
      <trkpt lat="43.23029" lon="6.60171">
        <ele>135.2</ele>
        <time>1970-01-01T00:18:54.000Z</time>
      </trkpt>
      <trkpt lat="43.23035" lon="6.60166">
        <ele>135.3</ele>
        <time>1970-01-01T00:18:55.000Z</time>
      </trkpt>
      <trkpt lat="43.23041" lon="6.60163">
        <ele>135.3</ele>
        <time>1970-01-01T00:18:56.000Z</time>
      </trkpt>
      <trkpt lat="43.23048" lon="6.60156">
        <ele>135.3</ele>
        <time>1970-01-01T00:18:57.000Z</time>
      </trkpt>
      <trkpt lat="43.23063" lon="6.60147">
        <ele>135.1</ele>
        <time>1970-01-01T00:18:58.000Z</time>
      </trkpt>
      <trkpt lat="43.23073" lon="6.60142">
        <ele>134.6</ele>
        <time>1970-01-01T00:18:59.000Z</time>
      </trkpt>
      <trkpt lat="43.23082" lon="6.60133">
        <ele>133.8</ele>
        <time>1970-01-01T00:19:00.000Z</time>
      </trkpt>
      <trkpt lat="43.2309" lon="6.60126">
        <ele>132.8</ele>
        <time>1970-01-01T00:19:01.000Z</time>
      </trkpt>
      <trkpt lat="43.23098" lon="6.60122">
        <ele>131.8</ele>
        <time>1970-01-01T00:19:02.000Z</time>
      </trkpt>
      <trkpt lat="43.23105" lon="6.60124">
        <ele>130.9</ele>
        <time>1970-01-01T00:19:03.000Z</time>
      </trkpt>
      <trkpt lat="43.23112" lon="6.60132">
        <ele>129.5</ele>
        <time>1970-01-01T00:19:04.000Z</time>
      </trkpt>
      <trkpt lat="43.23121" lon="6.60136">
        <ele>128.2</ele>
        <time>1970-01-01T00:19:05.000Z</time>
      </trkpt>
      <trkpt lat="43.2313" lon="6.6013">
        <ele>126.9</ele>
        <time>1970-01-01T00:19:06.000Z</time>
      </trkpt>
      <trkpt lat="43.23134" lon="6.60119">
        <ele>125.6</ele>
        <time>1970-01-01T00:19:07.000Z</time>
      </trkpt>
      <trkpt lat="43.23138" lon="6.6011">
        <ele>124.7</ele>
        <time>1970-01-01T00:19:08.000Z</time>
      </trkpt>
      <trkpt lat="43.23146" lon="6.60106">
        <ele>123.7</ele>
        <time>1970-01-01T00:19:09.000Z</time>
      </trkpt>
      <trkpt lat="43.23151" lon="6.60103">
        <ele>123.1</ele>
        <time>1970-01-01T00:19:10.000Z</time>
      </trkpt>
      <trkpt lat="43.23154" lon="6.60097">
        <ele>122.5</ele>
        <time>1970-01-01T00:19:11.000Z</time>
      </trkpt>
      <trkpt lat="43.23158" lon="6.60091">
        <ele>122</ele>
        <time>1970-01-01T00:19:12.000Z</time>
      </trkpt>
      <trkpt lat="43.23163" lon="6.60083">
        <ele>121.4</ele>
        <time>1970-01-01T00:19:13.000Z</time>
      </trkpt>
      <trkpt lat="43.23164" lon="6.60071">
        <ele>120.7</ele>
        <time>1970-01-01T00:19:14.000Z</time>
      </trkpt>
      <trkpt lat="43.23167" lon="6.60067">
        <ele>120.3</ele>
        <time>1970-01-01T00:19:15.000Z</time>
      </trkpt>
      <trkpt lat="43.23171" lon="6.60069">
        <ele>119.8</ele>
        <time>1970-01-01T00:19:16.000Z</time>
      </trkpt>
      <trkpt lat="43.23176" lon="6.60074">
        <ele>119.1</ele>
        <time>1970-01-01T00:19:17.000Z</time>
      </trkpt>
      <trkpt lat="43.23182" lon="6.60069">
        <ele>118.4</ele>
        <time>1970-01-01T00:19:18.000Z</time>
      </trkpt>
      <trkpt lat="43.23184" lon="6.60061">
        <ele>117.7</ele>
        <time>1970-01-01T00:19:19.000Z</time>
      </trkpt>
      <trkpt lat="43.23185" lon="6.60056">
        <ele>117.3</ele>
        <time>1970-01-01T00:19:20.000Z</time>
      </trkpt>
      <trkpt lat="43.23188" lon="6.6005">
        <ele>116.7</ele>
        <time>1970-01-01T00:19:21.000Z</time>
      </trkpt>
      <trkpt lat="43.23193" lon="6.60047">
        <ele>116.1</ele>
        <time>1970-01-01T00:19:22.000Z</time>
      </trkpt>
      <trkpt lat="43.23201" lon="6.60051">
        <ele>115</ele>
        <time>1970-01-01T00:19:23.000Z</time>
      </trkpt>
      <trkpt lat="43.23209" lon="6.60051">
        <ele>113.9</ele>
        <time>1970-01-01T00:19:24.000Z</time>
      </trkpt>
      <trkpt lat="43.23218" lon="6.60048">
        <ele>112.5</ele>
        <time>1970-01-01T00:19:25.000Z</time>
      </trkpt>
      <trkpt lat="43.23222" lon="6.60035">
        <ele>111</ele>
        <time>1970-01-01T00:19:26.000Z</time>
      </trkpt>
      <trkpt lat="43.23226" lon="6.60023">
        <ele>109.9</ele>
        <time>1970-01-01T00:19:27.000Z</time>
      </trkpt>
      <trkpt lat="43.23231" lon="6.60016">
        <ele>108.9</ele>
        <time>1970-01-01T00:19:28.000Z</time>
      </trkpt>
      <trkpt lat="43.23238" lon="6.60008">
        <ele>107.8</ele>
        <time>1970-01-01T00:19:29.000Z</time>
      </trkpt>
      <trkpt lat="43.23244" lon="6.59999">
        <ele>106.9</ele>
        <time>1970-01-01T00:19:30.000Z</time>
      </trkpt>
      <trkpt lat="43.23253" lon="6.59994">
        <ele>105.7</ele>
        <time>1970-01-01T00:19:31.000Z</time>
      </trkpt>
      <trkpt lat="43.23262" lon="6.59989">
        <ele>104.5</ele>
        <time>1970-01-01T00:19:32.000Z</time>
      </trkpt>
      <trkpt lat="43.23269" lon="6.59982">
        <ele>103.5</ele>
        <time>1970-01-01T00:19:33.000Z</time>
      </trkpt>
      <trkpt lat="43.23273" lon="6.5997">
        <ele>102.4</ele>
        <time>1970-01-01T00:19:34.000Z</time>
      </trkpt>
      <trkpt lat="43.23277" lon="6.59965">
        <ele>101.7</ele>
        <time>1970-01-01T00:19:35.000Z</time>
      </trkpt>
      <trkpt lat="43.23285" lon="6.59955">
        <ele>100.5</ele>
        <time>1970-01-01T00:19:36.000Z</time>
      </trkpt>
      <trkpt lat="43.23289" lon="6.59945">
        <ele>99.4</ele>
        <time>1970-01-01T00:19:37.000Z</time>
      </trkpt>
      <trkpt lat="43.23293" lon="6.59937">
        <ele>98.5</ele>
        <time>1970-01-01T00:19:38.000Z</time>
      </trkpt>
      <trkpt lat="43.23297" lon="6.59929">
        <ele>97.5</ele>
        <time>1970-01-01T00:19:39.000Z</time>
      </trkpt>
      <trkpt lat="43.23301" lon="6.59923">
        <ele>96.7</ele>
        <time>1970-01-01T00:19:40.000Z</time>
      </trkpt>
      <trkpt lat="43.23303" lon="6.5992">
        <ele>96.3</ele>
        <time>1970-01-01T00:19:41.000Z</time>
      </trkpt>
      <trkpt lat="43.23305" lon="6.59916">
        <ele>95.7</ele>
        <time>1970-01-01T00:19:42.000Z</time>
      </trkpt>
      <trkpt lat="43.23308" lon="6.59909">
        <ele>94.8</ele>
        <time>1970-01-01T00:19:43.000Z</time>
      </trkpt>
      <trkpt lat="43.23314" lon="6.59902">
        <ele>93.7</ele>
        <time>1970-01-01T00:19:44.000Z</time>
      </trkpt>
      <trkpt lat="43.2332" lon="6.59893">
        <ele>92.3</ele>
        <time>1970-01-01T00:19:45.000Z</time>
      </trkpt>
      <trkpt lat="43.23326" lon="6.59886">
        <ele>90.9</ele>
        <time>1970-01-01T00:19:46.000Z</time>
      </trkpt>
      <trkpt lat="43.23333" lon="6.59874">
        <ele>89.2</ele>
        <time>1970-01-01T00:19:47.000Z</time>
      </trkpt>
      <trkpt lat="43.23341" lon="6.59866">
        <ele>87.7</ele>
        <time>1970-01-01T00:19:48.000Z</time>
      </trkpt>
      <trkpt lat="43.23349" lon="6.59859">
        <ele>86.2</ele>
        <time>1970-01-01T00:19:49.000Z</time>
      </trkpt>
      <trkpt lat="43.23354" lon="6.59847">
        <ele>84.7</ele>
        <time>1970-01-01T00:19:50.000Z</time>
      </trkpt>
      <trkpt lat="43.23364" lon="6.5984">
        <ele>83</ele>
        <time>1970-01-01T00:19:51.000Z</time>
      </trkpt>
      <trkpt lat="43.23372" lon="6.59831">
        <ele>81.5</ele>
        <time>1970-01-01T00:19:53.000Z</time>
      </trkpt>
      <trkpt lat="43.23381" lon="6.59824">
        <ele>80.2</ele>
        <time>1970-01-01T00:19:54.000Z</time>
      </trkpt>
      <trkpt lat="43.23389" lon="6.59817">
        <ele>79</ele>
        <time>1970-01-01T00:19:55.000Z</time>
      </trkpt>
      <trkpt lat="43.23395" lon="6.59816">
        <ele>78.3</ele>
        <time>1970-01-01T00:19:56.000Z</time>
      </trkpt>
      <trkpt lat="43.23394" lon="6.59806">
        <ele>77.3</ele>
        <time>1970-01-01T00:19:57.000Z</time>
      </trkpt>
      <trkpt lat="43.23395" lon="6.59797">
        <ele>76.4</ele>
        <time>1970-01-01T00:19:58.000Z</time>
      </trkpt>
      <trkpt lat="43.23401" lon="6.59792">
        <ele>75.3</ele>
        <time>1970-01-01T00:19:59.000Z</time>
      </trkpt>
      <trkpt lat="43.23408" lon="6.59786">
        <ele>73.9</ele>
        <time>1970-01-01T00:20:00.000Z</time>
      </trkpt>
      <trkpt lat="43.23413" lon="6.59778">
        <ele>72.5</ele>
        <time>1970-01-01T00:20:01.000Z</time>
      </trkpt>
      <trkpt lat="43.23419" lon="6.59768">
        <ele>70.8</ele>
        <time>1970-01-01T00:20:02.000Z</time>
      </trkpt>
      <trkpt lat="43.23426" lon="6.59761">
        <ele>69.3</ele>
        <time>1970-01-01T00:20:03.000Z</time>
      </trkpt>
      <trkpt lat="43.23434" lon="6.59752">
        <ele>67.8</ele>
        <time>1970-01-01T00:20:04.000Z</time>
      </trkpt>
      <trkpt lat="43.2344" lon="6.59742">
        <ele>66.5</ele>
        <time>1970-01-01T00:20:05.000Z</time>
      </trkpt>
      <trkpt lat="43.23448" lon="6.59738">
        <ele>65.4</ele>
        <time>1970-01-01T00:20:06.000Z</time>
      </trkpt>
      <trkpt lat="43.23455" lon="6.59733">
        <ele>64.2</ele>
        <time>1970-01-01T00:20:07.000Z</time>
      </trkpt>
      <trkpt lat="43.23456" lon="6.59719">
        <ele>62.7</ele>
        <time>1970-01-01T00:20:08.000Z</time>
      </trkpt>
      <trkpt lat="43.23453" lon="6.59706">
        <ele>61.3</ele>
        <time>1970-01-01T00:20:09.000Z</time>
      </trkpt>
      <trkpt lat="43.23448" lon="6.59695">
        <ele>60.1</ele>
        <time>1970-01-01T00:20:10.000Z</time>
      </trkpt>
      <trkpt lat="43.23446" lon="6.59683">
        <ele>59</ele>
        <time>1970-01-01T00:20:11.000Z</time>
      </trkpt>
      <trkpt lat="43.23447" lon="6.59671">
        <ele>58</ele>
        <time>1970-01-01T00:20:12.000Z</time>
      </trkpt>
      <trkpt lat="43.23452" lon="6.5966">
        <ele>57</ele>
        <time>1970-01-01T00:20:13.000Z</time>
      </trkpt>
      <trkpt lat="43.23457" lon="6.59649">
        <ele>55.9</ele>
        <time>1970-01-01T00:20:14.000Z</time>
      </trkpt>
      <trkpt lat="43.23464" lon="6.59641">
        <ele>54.7</ele>
        <time>1970-01-01T00:20:15.000Z</time>
      </trkpt>
      <trkpt lat="43.23469" lon="6.59636">
        <ele>53.8</ele>
        <time>1970-01-01T00:20:16.000Z</time>
      </trkpt>
      <trkpt lat="43.23473" lon="6.59626">
        <ele>52.8</ele>
        <time>1970-01-01T00:20:17.000Z</time>
      </trkpt>
      <trkpt lat="43.23479" lon="6.59616">
        <ele>51.6</ele>
        <time>1970-01-01T00:20:18.000Z</time>
      </trkpt>
      <trkpt lat="43.23479" lon="6.59606">
        <ele>50.6</ele>
        <time>1970-01-01T00:20:19.000Z</time>
      </trkpt>
      <trkpt lat="43.23474" lon="6.59597">
        <ele>49.4</ele>
        <time>1970-01-01T00:20:20.000Z</time>
      </trkpt>
      <trkpt lat="43.23465" lon="6.59593">
        <ele>48.1</ele>
        <time>1970-01-01T00:20:21.000Z</time>
      </trkpt>
      <trkpt lat="43.23457" lon="6.59596">
        <ele>47</ele>
        <time>1970-01-01T00:20:22.000Z</time>
      </trkpt>
      <trkpt lat="43.2345" lon="6.59598">
        <ele>46</ele>
        <time>1970-01-01T00:20:23.000Z</time>
      </trkpt>
      <trkpt lat="43.23443" lon="6.59598">
        <ele>45.1</ele>
        <time>1970-01-01T00:20:24.000Z</time>
      </trkpt>
      <trkpt lat="43.23438" lon="6.59595">
        <ele>44.4</ele>
        <time>1970-01-01T00:20:25.000Z</time>
      </trkpt>
      <trkpt lat="43.23437" lon="6.59591">
        <ele>44.4</ele>
        <time>1970-01-01T00:20:26.000Z</time>
      </trkpt>
      <trkpt lat="43.23437" lon="6.59589">
        <ele>44.4</ele>
        <time>1970-01-01T00:20:27.000Z</time>
      </trkpt>
      <trkpt lat="43.23436" lon="6.59587">
        <ele>44.4</ele>
        <time>1970-01-01T00:20:28.000Z</time>
      </trkpt>
      <trkpt lat="43.23435" lon="6.59588">
        <ele>44.4</ele>
        <time>1970-01-01T00:20:29.000Z</time>
      </trkpt>
      <trkpt lat="43.23436" lon="6.59588">
        <ele>44.4</ele>
        <time>1970-01-01T00:20:30.000Z</time>
      </trkpt>
      <trkpt lat="43.23436" lon="6.59588">
        <ele>44.4</ele>
        <time>1970-01-01T00:20:31.000Z</time>
      </trkpt>
      <trkpt lat="43.23436" lon="6.59588">
        <ele>44.4</ele>
        <time>1970-01-01T00:20:32.000Z</time>
      </trkpt>
      <trkpt lat="43.23436" lon="6.59589">
        <ele>44.4</ele>
        <time>1970-01-01T00:20:33.000Z</time>
      </trkpt>
      <trkpt lat="43.23436" lon="6.59589">
        <ele>44.4</ele>
        <time>1970-01-01T00:20:34.000Z</time>
      </trkpt>
      <trkpt lat="43.23436" lon="6.59589">
        <ele>44.4</ele>
        <time>1970-01-01T00:20:35.000Z</time>
      </trkpt>
      <trkpt lat="43.23436" lon="6.5959">
        <ele>44.4</ele>
        <time>1970-01-01T00:20:36.000Z</time>
      </trkpt>
      <trkpt lat="43.23436" lon="6.5959">
        <ele>44.4</ele>
        <time>1970-01-01T00:20:37.000Z</time>
      </trkpt>
      <trkpt lat="43.23436" lon="6.5959">
        <ele>44.4</ele>
        <time>1970-01-01T00:20:38.000Z</time>
      </trkpt>
      <trkpt lat="43.23436" lon="6.59591">
        <ele>44.4</ele>
        <time>1970-01-01T00:21:51.000Z</time>
      </trkpt>
      <trkpt lat="43.23436" lon="6.59591">
        <ele>44.4</ele>
        <time>1970-01-01T00:21:52.000Z</time>
      </trkpt>
      <trkpt lat="43.23436" lon="6.59591">
        <ele>44.4</ele>
        <time>1970-01-01T00:21:53.000Z</time>
      </trkpt>
      <trkpt lat="43.23437" lon="6.59591">
        <ele>44.4</ele>
        <time>1970-01-01T00:21:54.000Z</time>
      </trkpt>
      <trkpt lat="43.23437" lon="6.59592">
        <ele>44.4</ele>
        <time>1970-01-01T00:21:55.000Z</time>
      </trkpt>
      <trkpt lat="43.23437" lon="6.59592">
        <ele>44.4</ele>
        <time>1970-01-01T00:21:56.000Z</time>
      </trkpt>
      <trkpt lat="43.23437" lon="6.59592">
        <ele>44.4</ele>
        <time>1970-01-01T00:21:57.000Z</time>
      </trkpt>
      <trkpt lat="43.23437" lon="6.59593">
        <ele>44.4</ele>
        <time>1970-01-01T00:21:58.000Z</time>
      </trkpt>
      <trkpt lat="43.23437" lon="6.59593">
        <ele>44.4</ele>
        <time>1970-01-01T00:21:59.000Z</time>
      </trkpt>
      <trkpt lat="43.23437" lon="6.59593">
        <ele>44.4</ele>
        <time>1970-01-01T00:22:00.000Z</time>
      </trkpt>
      <trkpt lat="43.23437" lon="6.59594">
        <ele>44.4</ele>
        <time>1970-01-01T00:22:08.000Z</time>
      </trkpt>
      <trkpt lat="43.23437" lon="6.59594">
        <ele>44.4</ele>
        <time>1970-01-01T00:22:09.000Z</time>
      </trkpt>
      <trkpt lat="43.23437" lon="6.59594">
        <ele>44.4</ele>
        <time>1970-01-01T00:22:10.000Z</time>
      </trkpt>
      <trkpt lat="43.23437" lon="6.59595">
        <ele>44.4</ele>
        <time>1970-01-01T00:22:11.000Z</time>
      </trkpt>
      <trkpt lat="43.23437" lon="6.59595">
        <ele>44.4</ele>
        <time>1970-01-01T00:22:12.000Z</time>
      </trkpt>
      <trkpt lat="43.23438" lon="6.59595">
        <ele>44.4</ele>
        <time>1970-01-01T00:22:13.000Z</time>
      </trkpt>
      <trkpt lat="43.23438" lon="6.59595">
        <ele>44.4</ele>
        <time>1970-01-01T00:22:14.000Z</time>
      </trkpt>
      <trkpt lat="43.23438" lon="6.59596">
        <ele>44.4</ele>
        <time>1970-01-01T00:22:15.000Z</time>
      </trkpt>
      <trkpt lat="43.23438" lon="6.59596">
        <ele>44.4</ele>
        <time>1970-01-01T00:22:16.000Z</time>
      </trkpt>
      <trkpt lat="43.23438" lon="6.59596">
        <ele>44.4</ele>
        <time>1970-01-01T00:22:17.000Z</time>
      </trkpt>
      <trkpt lat="43.2344" lon="6.59598">
        <ele>44.4</ele>
        <time>1970-01-01T00:22:18.000Z</time>
      </trkpt>
      <trkpt lat="43.23441" lon="6.59599">
        <ele>44.4</ele>
        <time>1970-01-01T00:22:19.000Z</time>
      </trkpt>
      <trkpt lat="43.23442" lon="6.596">
        <ele>44.4</ele>
        <time>1970-01-01T00:22:20.000Z</time>
      </trkpt>
      <trkpt lat="43.23442" lon="6.596">
        <ele>44.4</ele>
        <time>1970-01-01T00:22:21.000Z</time>
      </trkpt>
      <trkpt lat="43.23443" lon="6.59602">
        <ele>44.4</ele>
        <time>1970-01-01T00:22:22.000Z</time>
      </trkpt>
      <trkpt lat="43.23443" lon="6.59602">
        <ele>44.4</ele>
        <time>1970-01-01T00:22:23.000Z</time>
      </trkpt>
      <trkpt lat="43.23443" lon="6.59602">
        <ele>44.4</ele>
        <time>1970-01-01T00:22:24.000Z</time>
      </trkpt>
      <trkpt lat="43.23444" lon="6.596">
        <ele>44.4</ele>
        <time>1970-01-01T00:22:25.000Z</time>
      </trkpt>
      <trkpt lat="43.23444" lon="6.596">
        <ele>44.4</ele>
        <time>1970-01-01T00:22:26.000Z</time>
      </trkpt>
      <trkpt lat="43.23444" lon="6.596">
        <ele>44.4</ele>
        <time>1970-01-01T00:22:27.000Z</time>
      </trkpt>
      <trkpt lat="43.23443" lon="6.59599">
        <ele>44.4</ele>
        <time>1970-01-01T00:22:28.000Z</time>
      </trkpt>
      <trkpt lat="43.23443" lon="6.59598">
        <ele>44.4</ele>
        <time>1970-01-01T00:22:29.000Z</time>
      </trkpt>
      <trkpt lat="43.23443" lon="6.59598">
        <ele>44.4</ele>
        <time>1970-01-01T00:22:30.000Z</time>
      </trkpt>
      <trkpt lat="43.23443" lon="6.59598">
        <ele>44.4</ele>
        <time>1970-01-01T00:22:31.000Z</time>
      </trkpt>
      <trkpt lat="43.23443" lon="6.59598">
        <ele>44.4</ele>
        <time>1970-01-01T00:22:32.000Z</time>
      </trkpt>
      <trkpt lat="43.23441" lon="6.59603">
        <ele>44.4</ele>
        <time>1970-01-01T00:27:26.000Z</time>
      </trkpt>
      <trkpt lat="43.23441" lon="6.59602">
        <ele>44.4</ele>
        <time>1970-01-01T00:27:27.000Z</time>
      </trkpt>
      <trkpt lat="43.2344" lon="6.59601">
        <ele>44.3</ele>
        <time>1970-01-01T00:27:28.000Z</time>
      </trkpt>
      <trkpt lat="43.23442" lon="6.596">
        <ele>44.3</ele>
        <time>1970-01-01T00:27:29.000Z</time>
      </trkpt>
      <trkpt lat="43.23442" lon="6.596">
        <ele>44.3</ele>
        <time>1970-01-01T00:27:30.000Z</time>
      </trkpt>
      <trkpt lat="43.23442" lon="6.59599">
        <ele>44.3</ele>
        <time>1970-01-01T00:27:31.000Z</time>
      </trkpt>
      <trkpt lat="43.23442" lon="6.59598">
        <ele>44.3</ele>
        <time>1970-01-01T00:27:32.000Z</time>
      </trkpt>
      <trkpt lat="43.23443" lon="6.59597">
        <ele>44.3</ele>
        <time>1970-01-01T00:27:33.000Z</time>
      </trkpt>
      <trkpt lat="43.23443" lon="6.59596">
        <ele>44.3</ele>
        <time>1970-01-01T00:27:34.000Z</time>
      </trkpt>
      <trkpt lat="43.23443" lon="6.59595">
        <ele>44.3</ele>
        <time>1970-01-01T00:27:35.000Z</time>
      </trkpt>
      <trkpt lat="43.23444" lon="6.59595">
        <ele>44.3</ele>
        <time>1970-01-01T00:27:36.000Z</time>
      </trkpt>
      <trkpt lat="43.2344" lon="6.59606">
        <ele>44.3</ele>
        <time>1970-01-01T00:28:28.000Z</time>
      </trkpt>
      <trkpt lat="43.2344" lon="6.59607">
        <ele>44.3</ele>
        <time>1970-01-01T00:28:29.000Z</time>
      </trkpt>
      <trkpt lat="43.2344" lon="6.59607">
        <ele>44.3</ele>
        <time>1970-01-01T00:28:30.000Z</time>
      </trkpt>
      <trkpt lat="43.2344" lon="6.59606">
        <ele>44.3</ele>
        <time>1970-01-01T00:28:31.000Z</time>
      </trkpt>
      <trkpt lat="43.2344" lon="6.59606">
        <ele>44.3</ele>
        <time>1970-01-01T00:28:32.000Z</time>
      </trkpt>
      <trkpt lat="43.23441" lon="6.59605">
        <ele>44.3</ele>
        <time>1970-01-01T00:28:33.000Z</time>
      </trkpt>
      <trkpt lat="43.23441" lon="6.59604">
        <ele>44.3</ele>
        <time>1970-01-01T00:28:34.000Z</time>
      </trkpt>
      <trkpt lat="43.23441" lon="6.59605">
        <ele>44.3</ele>
        <time>1970-01-01T00:28:35.000Z</time>
      </trkpt>
      <trkpt lat="43.23441" lon="6.59604">
        <ele>44.3</ele>
        <time>1970-01-01T00:28:36.000Z</time>
      </trkpt>
      <trkpt lat="43.23441" lon="6.59603">
        <ele>44.3</ele>
        <time>1970-01-01T00:28:37.000Z</time>
      </trkpt>
      <trkpt lat="43.23442" lon="6.59599">
        <ele>44.3</ele>
        <time>1970-01-01T00:28:43.000Z</time>
      </trkpt>
      <trkpt lat="43.23443" lon="6.59596">
        <ele>44.3</ele>
        <time>1970-01-01T00:28:44.000Z</time>
      </trkpt>
      <trkpt lat="43.23442" lon="6.59597">
        <ele>44.3</ele>
        <time>1970-01-01T00:28:45.000Z</time>
      </trkpt>
      <trkpt lat="43.23443" lon="6.59596">
        <ele>44.3</ele>
        <time>1970-01-01T00:28:46.000Z</time>
      </trkpt>
      <trkpt lat="43.23442" lon="6.59594">
        <ele>44.3</ele>
        <time>1970-01-01T00:28:47.000Z</time>
      </trkpt>
      <trkpt lat="43.23442" lon="6.59595">
        <ele>44.3</ele>
        <time>1970-01-01T00:28:48.000Z</time>
      </trkpt>
      <trkpt lat="43.23441" lon="6.59595">
        <ele>44.3</ele>
        <time>1970-01-01T00:28:49.000Z</time>
      </trkpt>
      <trkpt lat="43.23441" lon="6.59594">
        <ele>44.3</ele>
        <time>1970-01-01T00:28:50.000Z</time>
      </trkpt>
      <trkpt lat="43.2344" lon="6.59594">
        <ele>44.3</ele>
        <time>1970-01-01T00:28:51.000Z</time>
      </trkpt>
      <trkpt lat="43.23439" lon="6.59594">
        <ele>44.3</ele>
        <time>1970-01-01T00:28:52.000Z</time>
      </trkpt>
      <trkpt lat="43.23439" lon="6.59594">
        <ele>44.3</ele>
        <time>1970-01-01T00:28:53.000Z</time>
      </trkpt>
      <trkpt lat="43.23435" lon="6.59592">
        <ele>44.3</ele>
        <time>1970-01-01T00:28:54.000Z</time>
      </trkpt>
      <trkpt lat="43.23432" lon="6.59591">
        <ele>44.3</ele>
        <time>1970-01-01T00:28:55.000Z</time>
      </trkpt>
      <trkpt lat="43.2343" lon="6.5959">
        <ele>44.3</ele>
        <time>1970-01-01T00:28:56.000Z</time>
      </trkpt>
      <trkpt lat="43.23425" lon="6.59587">
        <ele>44.3</ele>
        <time>1970-01-01T00:28:57.000Z</time>
      </trkpt>
      <trkpt lat="43.2342" lon="6.59587">
        <ele>44.3</ele>
        <time>1970-01-01T00:28:58.000Z</time>
      </trkpt>
      <trkpt lat="43.23416" lon="6.59586">
        <ele>44.3</ele>
        <time>1970-01-01T00:28:59.000Z</time>
      </trkpt>
      <trkpt lat="43.23411" lon="6.59583">
        <ele>44.2</ele>
        <time>1970-01-01T00:29:00.000Z</time>
      </trkpt>
      <trkpt lat="43.23405" lon="6.59581">
        <ele>44.2</ele>
        <time>1970-01-01T00:29:01.000Z</time>
      </trkpt>
      <trkpt lat="43.23396" lon="6.59579">
        <ele>44.2</ele>
        <time>1970-01-01T00:29:02.000Z</time>
      </trkpt>
      <trkpt lat="43.23389" lon="6.59579">
        <ele>44.2</ele>
        <time>1970-01-01T00:29:03.000Z</time>
      </trkpt>
      <trkpt lat="43.23382" lon="6.59577">
        <ele>44.2</ele>
        <time>1970-01-01T00:29:04.000Z</time>
      </trkpt>
      <trkpt lat="43.23375" lon="6.59575">
        <ele>44.3</ele>
        <time>1970-01-01T00:29:05.000Z</time>
      </trkpt>
      <trkpt lat="43.23368" lon="6.59569">
        <ele>44.3</ele>
        <time>1970-01-01T00:29:06.000Z</time>
      </trkpt>
      <trkpt lat="43.23365" lon="6.59551">
        <ele>44.4</ele>
        <time>1970-01-01T00:29:07.000Z</time>
      </trkpt>
      <trkpt lat="43.23358" lon="6.59544">
        <ele>44.6</ele>
        <time>1970-01-01T00:29:08.000Z</time>
      </trkpt>
      <trkpt lat="43.23351" lon="6.59536">
        <ele>44.8</ele>
        <time>1970-01-01T00:29:09.000Z</time>
      </trkpt>
      <trkpt lat="43.23342" lon="6.59529">
        <ele>45.2</ele>
        <time>1970-01-01T00:29:10.000Z</time>
      </trkpt>
      <trkpt lat="43.23331" lon="6.59523">
        <ele>45.9</ele>
        <time>1970-01-01T00:29:11.000Z</time>
      </trkpt>
      <trkpt lat="43.23323" lon="6.59519">
        <ele>46.5</ele>
        <time>1970-01-01T00:29:12.000Z</time>
      </trkpt>
      <trkpt lat="43.23313" lon="6.59514">
        <ele>47.6</ele>
        <time>1970-01-01T00:29:13.000Z</time>
      </trkpt>
      <trkpt lat="43.23304" lon="6.59509">
        <ele>48.8</ele>
        <time>1970-01-01T00:29:14.000Z</time>
      </trkpt>
      <trkpt lat="43.23295" lon="6.59504">
        <ele>50.1</ele>
        <time>1970-01-01T00:29:15.000Z</time>
      </trkpt>
      <trkpt lat="43.23288" lon="6.59501">
        <ele>51.5</ele>
        <time>1970-01-01T00:29:16.000Z</time>
      </trkpt>
      <trkpt lat="43.23279" lon="6.59498">
        <ele>52.8</ele>
        <time>1970-01-01T00:29:17.000Z</time>
      </trkpt>
      <trkpt lat="43.23269" lon="6.59492">
        <ele>54.3</ele>
        <time>1970-01-01T00:29:18.000Z</time>
      </trkpt>
      <trkpt lat="43.23261" lon="6.59483">
        <ele>55.5</ele>
        <time>1970-01-01T00:29:19.000Z</time>
      </trkpt>
      <trkpt lat="43.23254" lon="6.59476">
        <ele>56.5</ele>
        <time>1970-01-01T00:29:20.000Z</time>
      </trkpt>
      <trkpt lat="43.23248" lon="6.59469">
        <ele>57.3</ele>
        <time>1970-01-01T00:29:21.000Z</time>
      </trkpt>
      <trkpt lat="43.23243" lon="6.59464">
        <ele>57.8</ele>
        <time>1970-01-01T00:29:22.000Z</time>
      </trkpt>
      <trkpt lat="43.23238" lon="6.59454">
        <ele>58.2</ele>
        <time>1970-01-01T00:29:23.000Z</time>
      </trkpt>
      <trkpt lat="43.23235" lon="6.59443">
        <ele>58.6</ele>
        <time>1970-01-01T00:29:24.000Z</time>
      </trkpt>
      <trkpt lat="43.23232" lon="6.59433">
        <ele>58.7</ele>
        <time>1970-01-01T00:29:25.000Z</time>
      </trkpt>
      <trkpt lat="43.23228" lon="6.59423">
        <ele>58.8</ele>
        <time>1970-01-01T00:29:26.000Z</time>
      </trkpt>
      <trkpt lat="43.23222" lon="6.59415">
        <ele>58.9</ele>
        <time>1970-01-01T00:29:27.000Z</time>
      </trkpt>
      <trkpt lat="43.23209" lon="6.59404">
        <ele>59</ele>
        <time>1970-01-01T00:29:28.000Z</time>
      </trkpt>
      <trkpt lat="43.23198" lon="6.59405">
        <ele>59.2</ele>
        <time>1970-01-01T00:29:29.000Z</time>
      </trkpt>
      <trkpt lat="43.23188" lon="6.59408">
        <ele>59.3</ele>
        <time>1970-01-01T00:29:30.000Z</time>
      </trkpt>
      <trkpt lat="43.23176" lon="6.59409">
        <ele>59.4</ele>
        <time>1970-01-01T00:29:31.000Z</time>
      </trkpt>
      <trkpt lat="43.23164" lon="6.59408">
        <ele>59.5</ele>
        <time>1970-01-01T00:29:32.000Z</time>
      </trkpt>
      <trkpt lat="43.23153" lon="6.59407">
        <ele>59.6</ele>
        <time>1970-01-01T00:29:33.000Z</time>
      </trkpt>
      <trkpt lat="43.23143" lon="6.59407">
        <ele>59.6</ele>
        <time>1970-01-01T00:29:34.000Z</time>
      </trkpt>
      <trkpt lat="43.23134" lon="6.59407">
        <ele>59.5</ele>
        <time>1970-01-01T00:29:35.000Z</time>
      </trkpt>
      <trkpt lat="43.23125" lon="6.59407">
        <ele>59.4</ele>
        <time>1970-01-01T00:29:36.000Z</time>
      </trkpt>
      <trkpt lat="43.23115" lon="6.59407">
        <ele>59.2</ele>
        <time>1970-01-01T00:29:37.000Z</time>
      </trkpt>
      <trkpt lat="43.23108" lon="6.59406">
        <ele>59</ele>
        <time>1970-01-01T00:29:38.000Z</time>
      </trkpt>
      <trkpt lat="43.23099" lon="6.59406">
        <ele>58.7</ele>
        <time>1970-01-01T00:29:39.000Z</time>
      </trkpt>
      <trkpt lat="43.23091" lon="6.59406">
        <ele>58.4</ele>
        <time>1970-01-01T00:29:40.000Z</time>
      </trkpt>
      <trkpt lat="43.23082" lon="6.59406">
        <ele>58.1</ele>
        <time>1970-01-01T00:29:41.000Z</time>
      </trkpt>
      <trkpt lat="43.23075" lon="6.59405">
        <ele>57.8</ele>
        <time>1970-01-01T00:29:42.000Z</time>
      </trkpt>
      <trkpt lat="43.23067" lon="6.59405">
        <ele>57.7</ele>
        <time>1970-01-01T00:29:43.000Z</time>
      </trkpt>
      <trkpt lat="43.23059" lon="6.59406">
        <ele>57.5</ele>
        <time>1970-01-01T00:29:44.000Z</time>
      </trkpt>
      <trkpt lat="43.2305" lon="6.59408">
        <ele>57.4</ele>
        <time>1970-01-01T00:29:45.000Z</time>
      </trkpt>
      <trkpt lat="43.23043" lon="6.59409">
        <ele>57.3</ele>
        <time>1970-01-01T00:29:46.000Z</time>
      </trkpt>
      <trkpt lat="43.23038" lon="6.59413">
        <ele>57.2</ele>
        <time>1970-01-01T00:29:47.000Z</time>
      </trkpt>
      <trkpt lat="43.23028" lon="6.59419">
        <ele>57.3</ele>
        <time>1970-01-01T00:29:48.000Z</time>
      </trkpt>
      <trkpt lat="43.23019" lon="6.59417">
        <ele>58.1</ele>
        <time>1970-01-01T00:29:49.000Z</time>
      </trkpt>
      <trkpt lat="43.23009" lon="6.59411">
        <ele>59</ele>
        <time>1970-01-01T00:29:50.000Z</time>
      </trkpt>
      <trkpt lat="43.23002" lon="6.59405">
        <ele>59.8</ele>
        <time>1970-01-01T00:29:51.000Z</time>
      </trkpt>
      <trkpt lat="43.22995" lon="6.594">
        <ele>60.6</ele>
        <time>1970-01-01T00:29:52.000Z</time>
      </trkpt>
      <trkpt lat="43.22989" lon="6.59393">
        <ele>61.3</ele>
        <time>1970-01-01T00:29:53.000Z</time>
      </trkpt>
      <trkpt lat="43.22982" lon="6.5939">
        <ele>61.9</ele>
        <time>1970-01-01T00:29:54.000Z</time>
      </trkpt>
      <trkpt lat="43.22976" lon="6.59385">
        <ele>62.4</ele>
        <time>1970-01-01T00:29:55.000Z</time>
      </trkpt>
      <trkpt lat="43.22967" lon="6.59383">
        <ele>62.9</ele>
        <time>1970-01-01T00:29:56.000Z</time>
      </trkpt>
      <trkpt lat="43.22959" lon="6.59382">
        <ele>63.1</ele>
        <time>1970-01-01T00:29:57.000Z</time>
      </trkpt>
      <trkpt lat="43.2295" lon="6.59381">
        <ele>63.4</ele>
        <time>1970-01-01T00:29:58.000Z</time>
      </trkpt>
      <trkpt lat="43.2294" lon="6.5938">
        <ele>63.6</ele>
        <time>1970-01-01T00:29:59.000Z</time>
      </trkpt>
      <trkpt lat="43.2293" lon="6.59379">
        <ele>63.9</ele>
        <time>1970-01-01T00:30:00.000Z</time>
      </trkpt>
      <trkpt lat="43.22918" lon="6.59376">
        <ele>64.2</ele>
        <time>1970-01-01T00:30:01.000Z</time>
      </trkpt>
      <trkpt lat="43.22908" lon="6.59371">
        <ele>64.6</ele>
        <time>1970-01-01T00:30:02.000Z</time>
      </trkpt>
      <trkpt lat="43.229" lon="6.59362">
        <ele>65</ele>
        <time>1970-01-01T00:30:03.000Z</time>
      </trkpt>
      <trkpt lat="43.2289" lon="6.59355">
        <ele>65.5</ele>
        <time>1970-01-01T00:30:04.000Z</time>
      </trkpt>
      <trkpt lat="43.2288" lon="6.59349">
        <ele>66.2</ele>
        <time>1970-01-01T00:30:05.000Z</time>
      </trkpt>
      <trkpt lat="43.22871" lon="6.59343">
        <ele>67</ele>
        <time>1970-01-01T00:30:06.000Z</time>
      </trkpt>
      <trkpt lat="43.22862" lon="6.59337">
        <ele>68</ele>
        <time>1970-01-01T00:30:07.000Z</time>
      </trkpt>
      <trkpt lat="43.22851" lon="6.59333">
        <ele>69.2</ele>
        <time>1970-01-01T00:30:08.000Z</time>
      </trkpt>
      <trkpt lat="43.22842" lon="6.59329">
        <ele>70.4</ele>
        <time>1970-01-01T00:30:09.000Z</time>
      </trkpt>
      <trkpt lat="43.22832" lon="6.59327">
        <ele>71.6</ele>
        <time>1970-01-01T00:30:10.000Z</time>
      </trkpt>
      <trkpt lat="43.22823" lon="6.59323">
        <ele>72.8</ele>
        <time>1970-01-01T00:30:11.000Z</time>
      </trkpt>
      <trkpt lat="43.22816" lon="6.59317">
        <ele>73.9</ele>
        <time>1970-01-01T00:30:12.000Z</time>
      </trkpt>
      <trkpt lat="43.2281" lon="6.59308">
        <ele>75</ele>
        <time>1970-01-01T00:30:13.000Z</time>
      </trkpt>
      <trkpt lat="43.22805" lon="6.59301">
        <ele>75.4</ele>
        <time>1970-01-01T00:30:14.000Z</time>
      </trkpt>
      <trkpt lat="43.22796" lon="6.59294">
        <ele>75.7</ele>
        <time>1970-01-01T00:30:15.000Z</time>
      </trkpt>
      <trkpt lat="43.22786" lon="6.59288">
        <ele>76.4</ele>
        <time>1970-01-01T00:30:16.000Z</time>
      </trkpt>
      <trkpt lat="43.22774" lon="6.59286">
        <ele>77.4</ele>
        <time>1970-01-01T00:30:17.000Z</time>
      </trkpt>
      <trkpt lat="43.22763" lon="6.59283">
        <ele>78.3</ele>
        <time>1970-01-01T00:30:18.000Z</time>
      </trkpt>
      <trkpt lat="43.22752" lon="6.59281">
        <ele>79.2</ele>
        <time>1970-01-01T00:30:19.000Z</time>
      </trkpt>
      <trkpt lat="43.2274" lon="6.59283">
        <ele>80.3</ele>
        <time>1970-01-01T00:30:20.000Z</time>
      </trkpt>
      <trkpt lat="43.22728" lon="6.59281">
        <ele>81.4</ele>
        <time>1970-01-01T00:30:21.000Z</time>
      </trkpt>
      <trkpt lat="43.22715" lon="6.59279">
        <ele>82.7</ele>
        <time>1970-01-01T00:30:22.000Z</time>
      </trkpt>
      <trkpt lat="43.22703" lon="6.59277">
        <ele>83.8</ele>
        <time>1970-01-01T00:30:23.000Z</time>
      </trkpt>
      <trkpt lat="43.22691" lon="6.59275">
        <ele>84.9</ele>
        <time>1970-01-01T00:30:24.000Z</time>
      </trkpt>
      <trkpt lat="43.2268" lon="6.59274">
        <ele>86</ele>
        <time>1970-01-01T00:30:25.000Z</time>
      </trkpt>
      <trkpt lat="43.22669" lon="6.59272">
        <ele>86.9</ele>
        <time>1970-01-01T00:30:26.000Z</time>
      </trkpt>
      <trkpt lat="43.22658" lon="6.59268">
        <ele>87.8</ele>
        <time>1970-01-01T00:30:27.000Z</time>
      </trkpt>
      <trkpt lat="43.22651" lon="6.59265">
        <ele>88.3</ele>
        <time>1970-01-01T00:30:28.000Z</time>
      </trkpt>
      <trkpt lat="43.22644" lon="6.59258">
        <ele>88.8</ele>
        <time>1970-01-01T00:30:29.000Z</time>
      </trkpt>
      <trkpt lat="43.22639" lon="6.59251">
        <ele>89.3</ele>
        <time>1970-01-01T00:30:30.000Z</time>
      </trkpt>
      <trkpt lat="43.22637" lon="6.59239">
        <ele>89.8</ele>
        <time>1970-01-01T00:30:31.000Z</time>
      </trkpt>
      <trkpt lat="43.22637" lon="6.59227">
        <ele>90.4</ele>
        <time>1970-01-01T00:30:32.000Z</time>
      </trkpt>
      <trkpt lat="43.22639" lon="6.59214">
        <ele>91.1</ele>
        <time>1970-01-01T00:30:33.000Z</time>
      </trkpt>
      <trkpt lat="43.22642" lon="6.59205">
        <ele>91.6</ele>
        <time>1970-01-01T00:30:34.000Z</time>
      </trkpt>
      <trkpt lat="43.22641" lon="6.59197">
        <ele>92.2</ele>
        <time>1970-01-01T00:30:35.000Z</time>
      </trkpt>
      <trkpt lat="43.22638" lon="6.59188">
        <ele>93.1</ele>
        <time>1970-01-01T00:30:36.000Z</time>
      </trkpt>
      <trkpt lat="43.22631" lon="6.59181">
        <ele>94.2</ele>
        <time>1970-01-01T00:30:38.000Z</time>
      </trkpt>
      <trkpt lat="43.22626" lon="6.59175">
        <ele>95.1</ele>
        <time>1970-01-01T00:30:39.000Z</time>
      </trkpt>
      <trkpt lat="43.22617" lon="6.59168">
        <ele>96.7</ele>
        <time>1970-01-01T00:30:40.000Z</time>
      </trkpt>
      <trkpt lat="43.22607" lon="6.59163">
        <ele>98.3</ele>
        <time>1970-01-01T00:30:41.000Z</time>
      </trkpt>
      <trkpt lat="43.22597" lon="6.59157">
        <ele>99.9</ele>
        <time>1970-01-01T00:30:42.000Z</time>
      </trkpt>
      <trkpt lat="43.2259" lon="6.59152">
        <ele>101</ele>
        <time>1970-01-01T00:30:43.000Z</time>
      </trkpt>
      <trkpt lat="43.22582" lon="6.59144">
        <ele>102.3</ele>
        <time>1970-01-01T00:30:44.000Z</time>
      </trkpt>
      <trkpt lat="43.22573" lon="6.59136">
        <ele>103.7</ele>
        <time>1970-01-01T00:30:45.000Z</time>
      </trkpt>
      <trkpt lat="43.22565" lon="6.59128">
        <ele>105</ele>
        <time>1970-01-01T00:30:46.000Z</time>
      </trkpt>
      <trkpt lat="43.22555" lon="6.59121">
        <ele>106.6</ele>
        <time>1970-01-01T00:30:47.000Z</time>
      </trkpt>
      <trkpt lat="43.22546" lon="6.59115">
        <ele>108.3</ele>
        <time>1970-01-01T00:30:48.000Z</time>
      </trkpt>
      <trkpt lat="43.22537" lon="6.59113">
        <ele>109.8</ele>
        <time>1970-01-01T00:30:49.000Z</time>
      </trkpt>
      <trkpt lat="43.22528" lon="6.59115">
        <ele>111.3</ele>
        <time>1970-01-01T00:30:50.000Z</time>
      </trkpt>
      <trkpt lat="43.2252" lon="6.59118">
        <ele>112.8</ele>
        <time>1970-01-01T00:30:51.000Z</time>
      </trkpt>
      <trkpt lat="43.22517" lon="6.5912">
        <ele>113.3</ele>
        <time>1970-01-01T00:30:52.000Z</time>
      </trkpt>
      <trkpt lat="43.22514" lon="6.59121">
        <ele>113.9</ele>
        <time>1970-01-01T00:30:53.000Z</time>
      </trkpt>
      <trkpt lat="43.22511" lon="6.59118">
        <ele>114.6</ele>
        <time>1970-01-01T00:30:54.000Z</time>
      </trkpt>
      <trkpt lat="43.22509" lon="6.59116">
        <ele>114.9</ele>
        <time>1970-01-01T00:30:55.000Z</time>
      </trkpt>
      <trkpt lat="43.2251" lon="6.59108">
        <ele>115.7</ele>
        <time>1970-01-01T00:30:56.000Z</time>
      </trkpt>
      <trkpt lat="43.22513" lon="6.59101">
        <ele>116.5</ele>
        <time>1970-01-01T00:30:57.000Z</time>
      </trkpt>
      <trkpt lat="43.22518" lon="6.59097">
        <ele>117.2</ele>
        <time>1970-01-01T00:30:58.000Z</time>
      </trkpt>
      <trkpt lat="43.22525" lon="6.59094">
        <ele>118</ele>
        <time>1970-01-01T00:30:59.000Z</time>
      </trkpt>
      <trkpt lat="43.22532" lon="6.59092">
        <ele>118.7</ele>
        <time>1970-01-01T00:31:00.000Z</time>
      </trkpt>
      <trkpt lat="43.22537" lon="6.59092">
        <ele>119.3</ele>
        <time>1970-01-01T00:31:01.000Z</time>
      </trkpt>
      <trkpt lat="43.22541" lon="6.59094">
        <ele>119.8</ele>
        <time>1970-01-01T00:31:02.000Z</time>
      </trkpt>
      <trkpt lat="43.22546" lon="6.59093">
        <ele>120.3</ele>
        <time>1970-01-01T00:31:03.000Z</time>
      </trkpt>
      <trkpt lat="43.22549" lon="6.5909">
        <ele>120.8</ele>
        <time>1970-01-01T00:31:04.000Z</time>
      </trkpt>
      <trkpt lat="43.22544" lon="6.59082">
        <ele>121.8</ele>
        <time>1970-01-01T00:31:05.000Z</time>
      </trkpt>
      <trkpt lat="43.22545" lon="6.59077">
        <ele>122.3</ele>
        <time>1970-01-01T00:31:06.000Z</time>
      </trkpt>
      <trkpt lat="43.22534" lon="6.59072">
        <ele>124</ele>
        <time>1970-01-01T00:31:07.000Z</time>
      </trkpt>
      <trkpt lat="43.22525" lon="6.59064">
        <ele>125.6</ele>
        <time>1970-01-01T00:31:08.000Z</time>
      </trkpt>
      <trkpt lat="43.22522" lon="6.59057">
        <ele>126.4</ele>
        <time>1970-01-01T00:31:09.000Z</time>
      </trkpt>
      <trkpt lat="43.22518" lon="6.59051">
        <ele>127.3</ele>
        <time>1970-01-01T00:31:10.000Z</time>
      </trkpt>
      <trkpt lat="43.22514" lon="6.59041">
        <ele>128.4</ele>
        <time>1970-01-01T00:31:11.000Z</time>
      </trkpt>
      <trkpt lat="43.22512" lon="6.59032">
        <ele>129.4</ele>
        <time>1970-01-01T00:31:12.000Z</time>
      </trkpt>
      <trkpt lat="43.22509" lon="6.5902">
        <ele>130.6</ele>
        <time>1970-01-01T00:31:13.000Z</time>
      </trkpt>
      <trkpt lat="43.22506" lon="6.59009">
        <ele>131.8</ele>
        <time>1970-01-01T00:31:14.000Z</time>
      </trkpt>
      <trkpt lat="43.22505" lon="6.58996">
        <ele>133.1</ele>
        <time>1970-01-01T00:31:15.000Z</time>
      </trkpt>
      <trkpt lat="43.22506" lon="6.58982">
        <ele>134.4</ele>
        <time>1970-01-01T00:31:16.000Z</time>
      </trkpt>
      <trkpt lat="43.22508" lon="6.5897">
        <ele>135.9</ele>
        <time>1970-01-01T00:31:17.000Z</time>
      </trkpt>
      <trkpt lat="43.22512" lon="6.58957">
        <ele>137.3</ele>
        <time>1970-01-01T00:31:18.000Z</time>
      </trkpt>
      <trkpt lat="43.22514" lon="6.58946">
        <ele>138.2</ele>
        <time>1970-01-01T00:31:19.000Z</time>
      </trkpt>
      <trkpt lat="43.22517" lon="6.58936">
        <ele>138.5</ele>
        <time>1970-01-01T00:31:20.000Z</time>
      </trkpt>
      <trkpt lat="43.2252" lon="6.58928">
        <ele>139.1</ele>
        <time>1970-01-01T00:31:21.000Z</time>
      </trkpt>
      <trkpt lat="43.2252" lon="6.5892">
        <ele>139.7</ele>
        <time>1970-01-01T00:31:22.000Z</time>
      </trkpt>
      <trkpt lat="43.2252" lon="6.58907">
        <ele>140.4</ele>
        <time>1970-01-01T00:31:23.000Z</time>
      </trkpt>
      <trkpt lat="43.2252" lon="6.58894">
        <ele>141.1</ele>
        <time>1970-01-01T00:31:24.000Z</time>
      </trkpt>
      <trkpt lat="43.2252" lon="6.58883">
        <ele>141.7</ele>
        <time>1970-01-01T00:31:25.000Z</time>
      </trkpt>
      <trkpt lat="43.22519" lon="6.58872">
        <ele>142.4</ele>
        <time>1970-01-01T00:31:26.000Z</time>
      </trkpt>
      <trkpt lat="43.2252" lon="6.58859">
        <ele>143.3</ele>
        <time>1970-01-01T00:31:27.000Z</time>
      </trkpt>
      <trkpt lat="43.22521" lon="6.58848">
        <ele>144.2</ele>
        <time>1970-01-01T00:31:28.000Z</time>
      </trkpt>
      <trkpt lat="43.22524" lon="6.58835">
        <ele>145.4</ele>
        <time>1970-01-01T00:31:29.000Z</time>
      </trkpt>
      <trkpt lat="43.2253" lon="6.58826">
        <ele>146.5</ele>
        <time>1970-01-01T00:31:30.000Z</time>
      </trkpt>
      <trkpt lat="43.22536" lon="6.58818">
        <ele>147.5</ele>
        <time>1970-01-01T00:31:31.000Z</time>
      </trkpt>
      <trkpt lat="43.22543" lon="6.58808">
        <ele>148.4</ele>
        <time>1970-01-01T00:31:32.000Z</time>
      </trkpt>
      <trkpt lat="43.22547" lon="6.58796">
        <ele>149.1</ele>
        <time>1970-01-01T00:31:33.000Z</time>
      </trkpt>
      <trkpt lat="43.22556" lon="6.58773">
        <ele>150.2</ele>
        <time>1970-01-01T00:31:34.000Z</time>
      </trkpt>
      <trkpt lat="43.22552" lon="6.5876">
        <ele>150.8</ele>
        <time>1970-01-01T00:31:35.000Z</time>
      </trkpt>
      <trkpt lat="43.22554" lon="6.58748">
        <ele>151.3</ele>
        <time>1970-01-01T00:31:36.000Z</time>
      </trkpt>
      <trkpt lat="43.22556" lon="6.58736">
        <ele>151.5</ele>
        <time>1970-01-01T00:31:37.000Z</time>
      </trkpt>
      <trkpt lat="43.2256" lon="6.58724">
        <ele>152.1</ele>
        <time>1970-01-01T00:31:38.000Z</time>
      </trkpt>
      <trkpt lat="43.22563" lon="6.58716">
        <ele>152.5</ele>
        <time>1970-01-01T00:31:39.000Z</time>
      </trkpt>
      <trkpt lat="43.2257" lon="6.58707">
        <ele>153.3</ele>
        <time>1970-01-01T00:31:40.000Z</time>
      </trkpt>
      <trkpt lat="43.22578" lon="6.58697">
        <ele>154.4</ele>
        <time>1970-01-01T00:31:41.000Z</time>
      </trkpt>
      <trkpt lat="43.22584" lon="6.58691">
        <ele>155.3</ele>
        <time>1970-01-01T00:31:42.000Z</time>
      </trkpt>
      <trkpt lat="43.2259" lon="6.58687">
        <ele>156.1</ele>
        <time>1970-01-01T00:31:43.000Z</time>
      </trkpt>
      <trkpt lat="43.22595" lon="6.58685">
        <ele>156.7</ele>
        <time>1970-01-01T00:31:44.000Z</time>
      </trkpt>
      <trkpt lat="43.22599" lon="6.58684">
        <ele>157.3</ele>
        <time>1970-01-01T00:31:45.000Z</time>
      </trkpt>
      <trkpt lat="43.22604" lon="6.58682">
        <ele>157.9</ele>
        <time>1970-01-01T00:31:46.000Z</time>
      </trkpt>
      <trkpt lat="43.22607" lon="6.58681">
        <ele>158.2</ele>
        <time>1970-01-01T00:31:47.000Z</time>
      </trkpt>
      <trkpt lat="43.22608" lon="6.58679">
        <ele>158.4</ele>
        <time>1970-01-01T00:31:48.000Z</time>
      </trkpt>
      <trkpt lat="43.22607" lon="6.58678">
        <ele>159</ele>
        <time>1970-01-01T00:31:49.000Z</time>
      </trkpt>
      <trkpt lat="43.22606" lon="6.58677">
        <ele>159</ele>
        <time>1970-01-01T00:31:50.000Z</time>
      </trkpt>
      <trkpt lat="43.22603" lon="6.58674">
        <ele>158.8</ele>
        <time>1970-01-01T00:31:51.000Z</time>
      </trkpt>
      <trkpt lat="43.226" lon="6.58672">
        <ele>158.8</ele>
        <time>1970-01-01T00:31:52.000Z</time>
      </trkpt>
      <trkpt lat="43.22593" lon="6.58673">
        <ele>158.7</ele>
        <time>1970-01-01T00:31:53.000Z</time>
      </trkpt>
      <trkpt lat="43.22588" lon="6.58678">
        <ele>158.6</ele>
        <time>1970-01-01T00:31:54.000Z</time>
      </trkpt>
      <trkpt lat="43.22581" lon="6.58681">
        <ele>158.7</ele>
        <time>1970-01-01T00:31:55.000Z</time>
      </trkpt>
      <trkpt lat="43.22575" lon="6.58684">
        <ele>158.7</ele>
        <time>1970-01-01T00:31:56.000Z</time>
      </trkpt>
      <trkpt lat="43.2257" lon="6.58687">
        <ele>158.7</ele>
        <time>1970-01-01T00:31:57.000Z</time>
      </trkpt>
      <trkpt lat="43.22565" lon="6.5869">
        <ele>158.8</ele>
        <time>1970-01-01T00:31:58.000Z</time>
      </trkpt>
      <trkpt lat="43.2256" lon="6.58693">
        <ele>158.8</ele>
        <time>1970-01-01T00:31:59.000Z</time>
      </trkpt>
      <trkpt lat="43.22553" lon="6.58697">
        <ele>158.8</ele>
        <time>1970-01-01T00:32:00.000Z</time>
      </trkpt>
      <trkpt lat="43.22546" lon="6.58702">
        <ele>158.7</ele>
        <time>1970-01-01T00:32:01.000Z</time>
      </trkpt>
      <trkpt lat="43.22541" lon="6.58706">
        <ele>158.5</ele>
        <time>1970-01-01T00:32:02.000Z</time>
      </trkpt>
      <trkpt lat="43.22534" lon="6.58713">
        <ele>158</ele>
        <time>1970-01-01T00:32:03.000Z</time>
      </trkpt>
      <trkpt lat="43.22527" lon="6.58721">
        <ele>157.5</ele>
        <time>1970-01-01T00:32:04.000Z</time>
      </trkpt>
      <trkpt lat="43.22519" lon="6.58731">
        <ele>156.9</ele>
        <time>1970-01-01T00:32:05.000Z</time>
      </trkpt>
      <trkpt lat="43.22512" lon="6.58743">
        <ele>156.1</ele>
        <time>1970-01-01T00:32:06.000Z</time>
      </trkpt>
      <trkpt lat="43.22505" lon="6.58756">
        <ele>155.3</ele>
        <time>1970-01-01T00:32:07.000Z</time>
      </trkpt>
      <trkpt lat="43.22496" lon="6.58766">
        <ele>154.5</ele>
        <time>1970-01-01T00:32:08.000Z</time>
      </trkpt>
      <trkpt lat="43.22488" lon="6.58779">
        <ele>153.8</ele>
        <time>1970-01-01T00:32:09.000Z</time>
      </trkpt>
      <trkpt lat="43.22479" lon="6.58792">
        <ele>153.3</ele>
        <time>1970-01-01T00:32:10.000Z</time>
      </trkpt>
      <trkpt lat="43.2247" lon="6.58804">
        <ele>153.1</ele>
        <time>1970-01-01T00:32:11.000Z</time>
      </trkpt>
      <trkpt lat="43.22459" lon="6.58813">
        <ele>153.2</ele>
        <time>1970-01-01T00:32:12.000Z</time>
      </trkpt>
      <trkpt lat="43.22452" lon="6.58823">
        <ele>153.4</ele>
        <time>1970-01-01T00:32:13.000Z</time>
      </trkpt>
      <trkpt lat="43.22444" lon="6.58833">
        <ele>153.7</ele>
        <time>1970-01-01T00:32:14.000Z</time>
      </trkpt>
      <trkpt lat="43.22436" lon="6.58841">
        <ele>154.2</ele>
        <time>1970-01-01T00:32:15.000Z</time>
      </trkpt>
      <trkpt lat="43.22429" lon="6.58849">
        <ele>155.2</ele>
        <time>1970-01-01T00:32:16.000Z</time>
      </trkpt>
      <trkpt lat="43.2242" lon="6.58856">
        <ele>156.5</ele>
        <time>1970-01-01T00:32:17.000Z</time>
      </trkpt>
      <trkpt lat="43.22411" lon="6.58861">
        <ele>157.7</ele>
        <time>1970-01-01T00:32:18.000Z</time>
      </trkpt>
      <trkpt lat="43.22402" lon="6.58865">
        <ele>159.1</ele>
        <time>1970-01-01T00:32:19.000Z</time>
      </trkpt>
      <trkpt lat="43.22393" lon="6.5887">
        <ele>160.3</ele>
        <time>1970-01-01T00:32:20.000Z</time>
      </trkpt>
      <trkpt lat="43.22384" lon="6.58875">
        <ele>161.5</ele>
        <time>1970-01-01T00:32:21.000Z</time>
      </trkpt>
      <trkpt lat="43.22377" lon="6.58883">
        <ele>162.5</ele>
        <time>1970-01-01T00:32:22.000Z</time>
      </trkpt>
      <trkpt lat="43.22369" lon="6.58891">
        <ele>163.5</ele>
        <time>1970-01-01T00:32:23.000Z</time>
      </trkpt>
      <trkpt lat="43.22361" lon="6.589">
        <ele>164.5</ele>
        <time>1970-01-01T00:32:24.000Z</time>
      </trkpt>
      <trkpt lat="43.22353" lon="6.58911">
        <ele>165.4</ele>
        <time>1970-01-01T00:32:25.000Z</time>
      </trkpt>
      <trkpt lat="43.22348" lon="6.58922">
        <ele>166</ele>
        <time>1970-01-01T00:32:26.000Z</time>
      </trkpt>
      <trkpt lat="43.22345" lon="6.58932">
        <ele>166.2</ele>
        <time>1970-01-01T00:32:27.000Z</time>
      </trkpt>
      <trkpt lat="43.22341" lon="6.5894">
        <ele>166.1</ele>
        <time>1970-01-01T00:32:28.000Z</time>
      </trkpt>
      <trkpt lat="43.22336" lon="6.58948">
        <ele>165.8</ele>
        <time>1970-01-01T00:32:29.000Z</time>
      </trkpt>
      <trkpt lat="43.22327" lon="6.58955">
        <ele>165.1</ele>
        <time>1970-01-01T00:32:30.000Z</time>
      </trkpt>
      <trkpt lat="43.22317" lon="6.58962">
        <ele>164.1</ele>
        <time>1970-01-01T00:32:31.000Z</time>
      </trkpt>
      <trkpt lat="43.22307" lon="6.58967">
        <ele>163.3</ele>
        <time>1970-01-01T00:32:32.000Z</time>
      </trkpt>
      <trkpt lat="43.22297" lon="6.58972">
        <ele>162.6</ele>
        <time>1970-01-01T00:32:33.000Z</time>
      </trkpt>
      <trkpt lat="43.22286" lon="6.58977">
        <ele>161.8</ele>
        <time>1970-01-01T00:32:34.000Z</time>
      </trkpt>
      <trkpt lat="43.22275" lon="6.5898">
        <ele>161.2</ele>
        <time>1970-01-01T00:32:35.000Z</time>
      </trkpt>
      <trkpt lat="43.22265" lon="6.58979">
        <ele>160.6</ele>
        <time>1970-01-01T00:32:36.000Z</time>
      </trkpt>
      <trkpt lat="43.22254" lon="6.58976">
        <ele>160</ele>
        <time>1970-01-01T00:32:37.000Z</time>
      </trkpt>
      <trkpt lat="43.22243" lon="6.58974">
        <ele>159.5</ele>
        <time>1970-01-01T00:32:38.000Z</time>
      </trkpt>
      <trkpt lat="43.22233" lon="6.58974">
        <ele>159.2</ele>
        <time>1970-01-01T00:32:39.000Z</time>
      </trkpt>
      <trkpt lat="43.22224" lon="6.58978">
        <ele>159</ele>
        <time>1970-01-01T00:32:40.000Z</time>
      </trkpt>
      <trkpt lat="43.22217" lon="6.58985">
        <ele>158.9</ele>
        <time>1970-01-01T00:32:41.000Z</time>
      </trkpt>
      <trkpt lat="43.22211" lon="6.58994">
        <ele>158.8</ele>
        <time>1970-01-01T00:32:42.000Z</time>
      </trkpt>
      <trkpt lat="43.22206" lon="6.59005">
        <ele>158.9</ele>
        <time>1970-01-01T00:32:43.000Z</time>
      </trkpt>
      <trkpt lat="43.22203" lon="6.59018">
        <ele>158.9</ele>
        <time>1970-01-01T00:32:44.000Z</time>
      </trkpt>
      <trkpt lat="43.22202" lon="6.5903">
        <ele>159.1</ele>
        <time>1970-01-01T00:32:45.000Z</time>
      </trkpt>
      <trkpt lat="43.22205" lon="6.59044">
        <ele>159.4</ele>
        <time>1970-01-01T00:32:46.000Z</time>
      </trkpt>
      <trkpt lat="43.22209" lon="6.59056">
        <ele>159.9</ele>
        <time>1970-01-01T00:32:47.000Z</time>
      </trkpt>
      <trkpt lat="43.22214" lon="6.59066">
        <ele>160.5</ele>
        <time>1970-01-01T00:32:48.000Z</time>
      </trkpt>
      <trkpt lat="43.2222" lon="6.59078">
        <ele>161.3</ele>
        <time>1970-01-01T00:32:49.000Z</time>
      </trkpt>
      <trkpt lat="43.22224" lon="6.5909">
        <ele>162.3</ele>
        <time>1970-01-01T00:32:50.000Z</time>
      </trkpt>
      <trkpt lat="43.22226" lon="6.59103">
        <ele>163.4</ele>
        <time>1970-01-01T00:32:51.000Z</time>
      </trkpt>
      <trkpt lat="43.22227" lon="6.59114">
        <ele>164.6</ele>
        <time>1970-01-01T00:32:52.000Z</time>
      </trkpt>
      <trkpt lat="43.22225" lon="6.59124">
        <ele>165.7</ele>
        <time>1970-01-01T00:32:53.000Z</time>
      </trkpt>
      <trkpt lat="43.22221" lon="6.59132">
        <ele>166.9</ele>
        <time>1970-01-01T00:32:54.000Z</time>
      </trkpt>
      <trkpt lat="43.22214" lon="6.5914">
        <ele>168.2</ele>
        <time>1970-01-01T00:32:55.000Z</time>
      </trkpt>
      <trkpt lat="43.22208" lon="6.59148">
        <ele>169.5</ele>
        <time>1970-01-01T00:32:56.000Z</time>
      </trkpt>
      <trkpt lat="43.22201" lon="6.59155">
        <ele>170.5</ele>
        <time>1970-01-01T00:32:57.000Z</time>
      </trkpt>
      <trkpt lat="43.22191" lon="6.59161">
        <ele>171.6</ele>
        <time>1970-01-01T00:32:58.000Z</time>
      </trkpt>
      <trkpt lat="43.22179" lon="6.59162">
        <ele>172.9</ele>
        <time>1970-01-01T00:32:59.000Z</time>
      </trkpt>
      <trkpt lat="43.2217" lon="6.59167">
        <ele>173.9</ele>
        <time>1970-01-01T00:33:00.000Z</time>
      </trkpt>
      <trkpt lat="43.2216" lon="6.59173">
        <ele>175</ele>
        <time>1970-01-01T00:33:01.000Z</time>
      </trkpt>
      <trkpt lat="43.22152" lon="6.59179">
        <ele>175.9</ele>
        <time>1970-01-01T00:33:02.000Z</time>
      </trkpt>
      <trkpt lat="43.22144" lon="6.59185">
        <ele>176.7</ele>
        <time>1970-01-01T00:33:03.000Z</time>
      </trkpt>
      <trkpt lat="43.22137" lon="6.59191">
        <ele>177.6</ele>
        <time>1970-01-01T00:33:04.000Z</time>
      </trkpt>
      <trkpt lat="43.22127" lon="6.592">
        <ele>178.6</ele>
        <time>1970-01-01T00:33:05.000Z</time>
      </trkpt>
      <trkpt lat="43.22119" lon="6.59208">
        <ele>179.6</ele>
        <time>1970-01-01T00:33:06.000Z</time>
      </trkpt>
      <trkpt lat="43.22111" lon="6.59217">
        <ele>180.6</ele>
        <time>1970-01-01T00:33:07.000Z</time>
      </trkpt>
      <trkpt lat="43.22104" lon="6.59225">
        <ele>181.7</ele>
        <time>1970-01-01T00:33:08.000Z</time>
      </trkpt>
      <trkpt lat="43.22096" lon="6.59235">
        <ele>183.1</ele>
        <time>1970-01-01T00:33:09.000Z</time>
      </trkpt>
      <trkpt lat="43.2209" lon="6.59242">
        <ele>184.2</ele>
        <time>1970-01-01T00:33:10.000Z</time>
      </trkpt>
      <trkpt lat="43.22082" lon="6.59247">
        <ele>185.5</ele>
        <time>1970-01-01T00:33:11.000Z</time>
      </trkpt>
      <trkpt lat="43.22073" lon="6.59253">
        <ele>186.8</ele>
        <time>1970-01-01T00:33:12.000Z</time>
      </trkpt>
      <trkpt lat="43.22066" lon="6.59259">
        <ele>187.8</ele>
        <time>1970-01-01T00:33:13.000Z</time>
      </trkpt>
      <trkpt lat="43.22058" lon="6.59266">
        <ele>188.6</ele>
        <time>1970-01-01T00:33:14.000Z</time>
      </trkpt>
      <trkpt lat="43.22048" lon="6.59274">
        <ele>189</ele>
        <time>1970-01-01T00:33:15.000Z</time>
      </trkpt>
      <trkpt lat="43.22038" lon="6.59284">
        <ele>189</ele>
        <time>1970-01-01T00:33:16.000Z</time>
      </trkpt>
      <trkpt lat="43.22031" lon="6.59295">
        <ele>188.9</ele>
        <time>1970-01-01T00:33:17.000Z</time>
      </trkpt>
      <trkpt lat="43.22026" lon="6.59306">
        <ele>188.8</ele>
        <time>1970-01-01T00:33:18.000Z</time>
      </trkpt>
      <trkpt lat="43.22022" lon="6.59317">
        <ele>188.8</ele>
        <time>1970-01-01T00:33:19.000Z</time>
      </trkpt>
      <trkpt lat="43.22019" lon="6.5933">
        <ele>188.8</ele>
        <time>1970-01-01T00:33:20.000Z</time>
      </trkpt>
      <trkpt lat="43.22019" lon="6.59343">
        <ele>188.7</ele>
        <time>1970-01-01T00:33:21.000Z</time>
      </trkpt>
      <trkpt lat="43.22022" lon="6.59356">
        <ele>188.6</ele>
        <time>1970-01-01T00:33:22.000Z</time>
      </trkpt>
      <trkpt lat="43.22026" lon="6.59368">
        <ele>188.4</ele>
        <time>1970-01-01T00:33:23.000Z</time>
      </trkpt>
      <trkpt lat="43.22028" lon="6.59385">
        <ele>188.1</ele>
        <time>1970-01-01T00:33:24.000Z</time>
      </trkpt>
      <trkpt lat="43.22031" lon="6.59402">
        <ele>187.7</ele>
        <time>1970-01-01T00:33:25.000Z</time>
      </trkpt>
      <trkpt lat="43.22034" lon="6.59418">
        <ele>187.4</ele>
        <time>1970-01-01T00:33:26.000Z</time>
      </trkpt>
      <trkpt lat="43.22037" lon="6.59435">
        <ele>187.3</ele>
        <time>1970-01-01T00:33:27.000Z</time>
      </trkpt>
      <trkpt lat="43.2204" lon="6.59447">
        <ele>187.3</ele>
        <time>1970-01-01T00:33:28.000Z</time>
      </trkpt>
      <trkpt lat="43.2204" lon="6.59458">
        <ele>187.3</ele>
        <time>1970-01-01T00:33:29.000Z</time>
      </trkpt>
      <trkpt lat="43.22037" lon="6.59465">
        <ele>187.2</ele>
        <time>1970-01-01T00:33:30.000Z</time>
      </trkpt>
      <trkpt lat="43.22032" lon="6.59472">
        <ele>187.2</ele>
        <time>1970-01-01T00:33:31.000Z</time>
      </trkpt>
      <trkpt lat="43.22026" lon="6.59475">
        <ele>187.3</ele>
        <time>1970-01-01T00:33:32.000Z</time>
      </trkpt>
      <trkpt lat="43.22019" lon="6.59476">
        <ele>187.6</ele>
        <time>1970-01-01T00:33:33.000Z</time>
      </trkpt>
      <trkpt lat="43.2201" lon="6.59475">
        <ele>188.1</ele>
        <time>1970-01-01T00:33:34.000Z</time>
      </trkpt>
      <trkpt lat="43.22002" lon="6.59472">
        <ele>188.7</ele>
        <time>1970-01-01T00:33:35.000Z</time>
      </trkpt>
      <trkpt lat="43.21994" lon="6.5947">
        <ele>189.4</ele>
        <time>1970-01-01T00:33:36.000Z</time>
      </trkpt>
      <trkpt lat="43.21985" lon="6.59466">
        <ele>190.3</ele>
        <time>1970-01-01T00:33:37.000Z</time>
      </trkpt>
      <trkpt lat="43.21975" lon="6.59465">
        <ele>191.2</ele>
        <time>1970-01-01T00:33:38.000Z</time>
      </trkpt>
      <trkpt lat="43.21956" lon="6.5947">
        <ele>192.9</ele>
        <time>1970-01-01T00:33:40.000Z</time>
      </trkpt>
      <trkpt lat="43.21948" lon="6.59479">
        <ele>193.6</ele>
        <time>1970-01-01T00:33:41.000Z</time>
      </trkpt>
      <trkpt lat="43.21941" lon="6.59491">
        <ele>194.3</ele>
        <time>1970-01-01T00:33:42.000Z</time>
      </trkpt>
      <trkpt lat="43.21933" lon="6.59502">
        <ele>195.2</ele>
        <time>1970-01-01T00:33:43.000Z</time>
      </trkpt>
      <trkpt lat="43.21925" lon="6.59512">
        <ele>196.3</ele>
        <time>1970-01-01T00:33:44.000Z</time>
      </trkpt>
      <trkpt lat="43.21916" lon="6.59521">
        <ele>197.5</ele>
        <time>1970-01-01T00:33:45.000Z</time>
      </trkpt>
      <trkpt lat="43.21906" lon="6.5953">
        <ele>198.8</ele>
        <time>1970-01-01T00:33:46.000Z</time>
      </trkpt>
      <trkpt lat="43.21892" lon="6.5953">
        <ele>200.3</ele>
        <time>1970-01-01T00:33:47.000Z</time>
      </trkpt>
      <trkpt lat="43.21883" lon="6.59538">
        <ele>201.3</ele>
        <time>1970-01-01T00:33:48.000Z</time>
      </trkpt>
      <trkpt lat="43.21874" lon="6.59546">
        <ele>202.4</ele>
        <time>1970-01-01T00:33:49.000Z</time>
      </trkpt>
      <trkpt lat="43.21866" lon="6.59554">
        <ele>203.3</ele>
        <time>1970-01-01T00:33:50.000Z</time>
      </trkpt>
      <trkpt lat="43.2186" lon="6.59561">
        <ele>204.1</ele>
        <time>1970-01-01T00:33:51.000Z</time>
      </trkpt>
      <trkpt lat="43.21854" lon="6.59566">
        <ele>204.8</ele>
        <time>1970-01-01T00:33:52.000Z</time>
      </trkpt>
      <trkpt lat="43.21847" lon="6.59575">
        <ele>205.8</ele>
        <time>1970-01-01T00:33:53.000Z</time>
      </trkpt>
      <trkpt lat="43.2184" lon="6.59585">
        <ele>206.6</ele>
        <time>1970-01-01T00:33:54.000Z</time>
      </trkpt>
      <trkpt lat="43.21835" lon="6.59597">
        <ele>207.4</ele>
        <time>1970-01-01T00:33:55.000Z</time>
      </trkpt>
      <trkpt lat="43.21833" lon="6.5961">
        <ele>208</ele>
        <time>1970-01-01T00:33:56.000Z</time>
      </trkpt>
      <trkpt lat="43.21834" lon="6.59624">
        <ele>208.4</ele>
        <time>1970-01-01T00:33:57.000Z</time>
      </trkpt>
      <trkpt lat="43.21833" lon="6.59639">
        <ele>208.6</ele>
        <time>1970-01-01T00:33:58.000Z</time>
      </trkpt>
      <trkpt lat="43.21831" lon="6.59657">
        <ele>208.7</ele>
        <time>1970-01-01T00:33:59.000Z</time>
      </trkpt>
      <trkpt lat="43.21829" lon="6.59674">
        <ele>208.9</ele>
        <time>1970-01-01T00:34:00.000Z</time>
      </trkpt>
      <trkpt lat="43.21826" lon="6.5969">
        <ele>209.2</ele>
        <time>1970-01-01T00:34:01.000Z</time>
      </trkpt>
      <trkpt lat="43.21822" lon="6.59706">
        <ele>209.9</ele>
        <time>1970-01-01T00:34:02.000Z</time>
      </trkpt>
      <trkpt lat="43.21819" lon="6.5972">
        <ele>210.9</ele>
        <time>1970-01-01T00:34:03.000Z</time>
      </trkpt>
      <trkpt lat="43.21814" lon="6.59732">
        <ele>212</ele>
        <time>1970-01-01T00:34:04.000Z</time>
      </trkpt>
      <trkpt lat="43.21807" lon="6.59743">
        <ele>213.4</ele>
        <time>1970-01-01T00:34:05.000Z</time>
      </trkpt>
      <trkpt lat="43.21798" lon="6.59751">
        <ele>214.7</ele>
        <time>1970-01-01T00:34:06.000Z</time>
      </trkpt>
      <trkpt lat="43.21789" lon="6.59757">
        <ele>215.8</ele>
        <time>1970-01-01T00:34:07.000Z</time>
      </trkpt>
      <trkpt lat="43.21779" lon="6.59761">
        <ele>217</ele>
        <time>1970-01-01T00:34:08.000Z</time>
      </trkpt>
      <trkpt lat="43.21769" lon="6.59767">
        <ele>218.3</ele>
        <time>1970-01-01T00:34:09.000Z</time>
      </trkpt>
      <trkpt lat="43.21759" lon="6.59775">
        <ele>219.6</ele>
        <time>1970-01-01T00:34:10.000Z</time>
      </trkpt>
      <trkpt lat="43.21752" lon="6.59786">
        <ele>221</ele>
        <time>1970-01-01T00:34:11.000Z</time>
      </trkpt>
      <trkpt lat="43.21746" lon="6.59798">
        <ele>222.5</ele>
        <time>1970-01-01T00:34:12.000Z</time>
      </trkpt>
      <trkpt lat="43.21742" lon="6.59812">
        <ele>224</ele>
        <time>1970-01-01T00:34:13.000Z</time>
      </trkpt>
      <trkpt lat="43.21742" lon="6.59826">
        <ele>225.3</ele>
        <time>1970-01-01T00:34:14.000Z</time>
      </trkpt>
      <trkpt lat="43.21743" lon="6.59837">
        <ele>226.3</ele>
        <time>1970-01-01T00:34:15.000Z</time>
      </trkpt>
      <trkpt lat="43.21743" lon="6.59848">
        <ele>227.2</ele>
        <time>1970-01-01T00:34:16.000Z</time>
      </trkpt>
      <trkpt lat="43.21744" lon="6.5986">
        <ele>227.9</ele>
        <time>1970-01-01T00:34:17.000Z</time>
      </trkpt>
      <trkpt lat="43.21746" lon="6.59871">
        <ele>228.6</ele>
        <time>1970-01-01T00:34:18.000Z</time>
      </trkpt>
      <trkpt lat="43.21754" lon="6.59873">
        <ele>229</ele>
        <time>1970-01-01T00:34:19.000Z</time>
      </trkpt>
      <trkpt lat="43.21762" lon="6.59877">
        <ele>229.4</ele>
        <time>1970-01-01T00:34:20.000Z</time>
      </trkpt>
      <trkpt lat="43.21771" lon="6.59882">
        <ele>229.7</ele>
        <time>1970-01-01T00:34:21.000Z</time>
      </trkpt>
      <trkpt lat="43.21778" lon="6.59889">
        <ele>229.9</ele>
        <time>1970-01-01T00:34:22.000Z</time>
      </trkpt>
      <trkpt lat="43.21785" lon="6.59894">
        <ele>230</ele>
        <time>1970-01-01T00:34:23.000Z</time>
      </trkpt>
      <trkpt lat="43.21789" lon="6.59903">
        <ele>230</ele>
        <time>1970-01-01T00:34:24.000Z</time>
      </trkpt>
      <trkpt lat="43.21791" lon="6.59911">
        <ele>230</ele>
        <time>1970-01-01T00:34:25.000Z</time>
      </trkpt>
      <trkpt lat="43.21789" lon="6.59924">
        <ele>230.2</ele>
        <time>1970-01-01T00:34:26.000Z</time>
      </trkpt>
      <trkpt lat="43.21785" lon="6.59937">
        <ele>230.4</ele>
        <time>1970-01-01T00:34:27.000Z</time>
      </trkpt>
      <trkpt lat="43.21778" lon="6.59947">
        <ele>230.8</ele>
        <time>1970-01-01T00:34:28.000Z</time>
      </trkpt>
      <trkpt lat="43.21771" lon="6.59957">
        <ele>231.2</ele>
        <time>1970-01-01T00:34:29.000Z</time>
      </trkpt>
      <trkpt lat="43.21763" lon="6.59968">
        <ele>231.8</ele>
        <time>1970-01-01T00:34:30.000Z</time>
      </trkpt>
      <trkpt lat="43.21753" lon="6.59972">
        <ele>232.4</ele>
        <time>1970-01-01T00:34:31.000Z</time>
      </trkpt>
      <trkpt lat="43.21744" lon="6.59981">
        <ele>233</ele>
        <time>1970-01-01T00:34:32.000Z</time>
      </trkpt>
      <trkpt lat="43.21736" lon="6.59992">
        <ele>233.6</ele>
        <time>1970-01-01T00:34:33.000Z</time>
      </trkpt>
      <trkpt lat="43.21727" lon="6.60004">
        <ele>234.4</ele>
        <time>1970-01-01T00:34:34.000Z</time>
      </trkpt>
      <trkpt lat="43.21719" lon="6.60014">
        <ele>235</ele>
        <time>1970-01-01T00:34:35.000Z</time>
      </trkpt>
      <trkpt lat="43.21712" lon="6.60023">
        <ele>235.6</ele>
        <time>1970-01-01T00:34:36.000Z</time>
      </trkpt>
      <trkpt lat="43.21706" lon="6.60031">
        <ele>236</ele>
        <time>1970-01-01T00:34:37.000Z</time>
      </trkpt>
      <trkpt lat="43.217" lon="6.60039">
        <ele>236.5</ele>
        <time>1970-01-01T00:34:38.000Z</time>
      </trkpt>
      <trkpt lat="43.21693" lon="6.60049">
        <ele>236.8</ele>
        <time>1970-01-01T00:34:39.000Z</time>
      </trkpt>
      <trkpt lat="43.21686" lon="6.60061">
        <ele>237</ele>
        <time>1970-01-01T00:34:40.000Z</time>
      </trkpt>
      <trkpt lat="43.21681" lon="6.60071">
        <ele>237</ele>
        <time>1970-01-01T00:34:41.000Z</time>
      </trkpt>
      <trkpt lat="43.21675" lon="6.60081">
        <ele>236.9</ele>
        <time>1970-01-01T00:34:42.000Z</time>
      </trkpt>
      <trkpt lat="43.21665" lon="6.60091">
        <ele>236.7</ele>
        <time>1970-01-01T00:34:43.000Z</time>
      </trkpt>
      <trkpt lat="43.21654" lon="6.60101">
        <ele>236.5</ele>
        <time>1970-01-01T00:34:44.000Z</time>
      </trkpt>
      <trkpt lat="43.21644" lon="6.60109">
        <ele>236.2</ele>
        <time>1970-01-01T00:34:45.000Z</time>
      </trkpt>
      <trkpt lat="43.21634" lon="6.60118">
        <ele>235.9</ele>
        <time>1970-01-01T00:34:47.000Z</time>
      </trkpt>
      <trkpt lat="43.21626" lon="6.60126">
        <ele>235.6</ele>
        <time>1970-01-01T00:34:48.000Z</time>
      </trkpt>
      <trkpt lat="43.21619" lon="6.60134">
        <ele>235.3</ele>
        <time>1970-01-01T00:34:49.000Z</time>
      </trkpt>
      <trkpt lat="43.21612" lon="6.60142">
        <ele>235.1</ele>
        <time>1970-01-01T00:34:50.000Z</time>
      </trkpt>
      <trkpt lat="43.21605" lon="6.6015">
        <ele>235</ele>
        <time>1970-01-01T00:34:51.000Z</time>
      </trkpt>
      <trkpt lat="43.21598" lon="6.60158">
        <ele>235</ele>
        <time>1970-01-01T00:34:52.000Z</time>
      </trkpt>
      <trkpt lat="43.21589" lon="6.60165">
        <ele>235.3</ele>
        <time>1970-01-01T00:34:53.000Z</time>
      </trkpt>
      <trkpt lat="43.2158" lon="6.60172">
        <ele>235.8</ele>
        <time>1970-01-01T00:34:54.000Z</time>
      </trkpt>
      <trkpt lat="43.21572" lon="6.6018">
        <ele>236.6</ele>
        <time>1970-01-01T00:34:55.000Z</time>
      </trkpt>
      <trkpt lat="43.21564" lon="6.6019">
        <ele>237.6</ele>
        <time>1970-01-01T00:34:56.000Z</time>
      </trkpt>
      <trkpt lat="43.21558" lon="6.60203">
        <ele>238.9</ele>
        <time>1970-01-01T00:34:57.000Z</time>
      </trkpt>
      <trkpt lat="43.21555" lon="6.60217">
        <ele>240.5</ele>
        <time>1970-01-01T00:34:58.000Z</time>
      </trkpt>
      <trkpt lat="43.21556" lon="6.60232">
        <ele>242.2</ele>
        <time>1970-01-01T00:34:59.000Z</time>
      </trkpt>
      <trkpt lat="43.2156" lon="6.60248">
        <ele>244.1</ele>
        <time>1970-01-01T00:35:00.000Z</time>
      </trkpt>
      <trkpt lat="43.21559" lon="6.60264">
        <ele>245.7</ele>
        <time>1970-01-01T00:35:01.000Z</time>
      </trkpt>
      <trkpt lat="43.21558" lon="6.60281">
        <ele>247.3</ele>
        <time>1970-01-01T00:35:02.000Z</time>
      </trkpt>
      <trkpt lat="43.21556" lon="6.60296">
        <ele>248.6</ele>
        <time>1970-01-01T00:35:03.000Z</time>
      </trkpt>
      <trkpt lat="43.21553" lon="6.60311">
        <ele>249.9</ele>
        <time>1970-01-01T00:35:04.000Z</time>
      </trkpt>
      <trkpt lat="43.21547" lon="6.60326">
        <ele>251.4</ele>
        <time>1970-01-01T00:35:05.000Z</time>
      </trkpt>
      <trkpt lat="43.21542" lon="6.6034">
        <ele>252.7</ele>
        <time>1970-01-01T00:35:06.000Z</time>
      </trkpt>
      <trkpt lat="43.21537" lon="6.60354">
        <ele>253.8</ele>
        <time>1970-01-01T00:35:07.000Z</time>
      </trkpt>
      <trkpt lat="43.21533" lon="6.60368">
        <ele>254.6</ele>
        <time>1970-01-01T00:35:08.000Z</time>
      </trkpt>
      <trkpt lat="43.21527" lon="6.60381">
        <ele>255.3</ele>
        <time>1970-01-01T00:35:09.000Z</time>
      </trkpt>
      <trkpt lat="43.21521" lon="6.60391">
        <ele>255.8</ele>
        <time>1970-01-01T00:35:10.000Z</time>
      </trkpt>
      <trkpt lat="43.21512" lon="6.60399">
        <ele>256.2</ele>
        <time>1970-01-01T00:35:11.000Z</time>
      </trkpt>
      <trkpt lat="43.21502" lon="6.60403">
        <ele>256.7</ele>
        <time>1970-01-01T00:35:12.000Z</time>
      </trkpt>
      <trkpt lat="43.21494" lon="6.60411">
        <ele>257.3</ele>
        <time>1970-01-01T00:35:13.000Z</time>
      </trkpt>
      <trkpt lat="43.21484" lon="6.60422">
        <ele>257.9</ele>
        <time>1970-01-01T00:35:14.000Z</time>
      </trkpt>
      <trkpt lat="43.21474" lon="6.60434">
        <ele>258.4</ele>
        <time>1970-01-01T00:35:15.000Z</time>
      </trkpt>
      <trkpt lat="43.21467" lon="6.60446">
        <ele>259</ele>
        <time>1970-01-01T00:35:16.000Z</time>
      </trkpt>
      <trkpt lat="43.21459" lon="6.60458">
        <ele>259.5</ele>
        <time>1970-01-01T00:35:17.000Z</time>
      </trkpt>
      <trkpt lat="43.21451" lon="6.60468">
        <ele>260.1</ele>
        <time>1970-01-01T00:35:18.000Z</time>
      </trkpt>
      <trkpt lat="43.21443" lon="6.60474">
        <ele>260.7</ele>
        <time>1970-01-01T00:35:19.000Z</time>
      </trkpt>
      <trkpt lat="43.21434" lon="6.60479">
        <ele>261.3</ele>
        <time>1970-01-01T00:35:20.000Z</time>
      </trkpt>
      <trkpt lat="43.21424" lon="6.6048">
        <ele>261.7</ele>
        <time>1970-01-01T00:35:21.000Z</time>
      </trkpt>
      <trkpt lat="43.21414" lon="6.60485">
        <ele>262.1</ele>
        <time>1970-01-01T00:35:22.000Z</time>
      </trkpt>
      <trkpt lat="43.21403" lon="6.6049">
        <ele>262.3</ele>
        <time>1970-01-01T00:35:23.000Z</time>
      </trkpt>
      <trkpt lat="43.21393" lon="6.60495">
        <ele>262.5</ele>
        <time>1970-01-01T00:35:24.000Z</time>
      </trkpt>
      <trkpt lat="43.21383" lon="6.605">
        <ele>262.6</ele>
        <time>1970-01-01T00:35:25.000Z</time>
      </trkpt>
      <trkpt lat="43.21374" lon="6.60505">
        <ele>262.7</ele>
        <time>1970-01-01T00:35:26.000Z</time>
      </trkpt>
      <trkpt lat="43.21367" lon="6.60509">
        <ele>262.7</ele>
        <time>1970-01-01T00:35:27.000Z</time>
      </trkpt>
      <trkpt lat="43.21362" lon="6.60513">
        <ele>262.7</ele>
        <time>1970-01-01T00:35:28.000Z</time>
      </trkpt>
      <trkpt lat="43.21358" lon="6.60519">
        <ele>262.8</ele>
        <time>1970-01-01T00:35:29.000Z</time>
      </trkpt>
      <trkpt lat="43.21357" lon="6.60525">
        <ele>263.2</ele>
        <time>1970-01-01T00:35:30.000Z</time>
      </trkpt>
      <trkpt lat="43.2136" lon="6.60533">
        <ele>263.6</ele>
        <time>1970-01-01T00:35:31.000Z</time>
      </trkpt>
      <trkpt lat="43.21362" lon="6.60539">
        <ele>264.1</ele>
        <time>1970-01-01T00:35:32.000Z</time>
      </trkpt>
      <trkpt lat="43.21365" lon="6.60547">
        <ele>264.3</ele>
        <time>1970-01-01T00:35:33.000Z</time>
      </trkpt>
      <trkpt lat="43.2137" lon="6.60552">
        <ele>264.6</ele>
        <time>1970-01-01T00:35:34.000Z</time>
      </trkpt>
      <trkpt lat="43.21377" lon="6.60555">
        <ele>264.8</ele>
        <time>1970-01-01T00:35:35.000Z</time>
      </trkpt>
      <trkpt lat="43.21383" lon="6.60556">
        <ele>265</ele>
        <time>1970-01-01T00:35:36.000Z</time>
      </trkpt>
      <trkpt lat="43.21391" lon="6.60553">
        <ele>265</ele>
        <time>1970-01-01T00:35:37.000Z</time>
      </trkpt>
      <trkpt lat="43.214" lon="6.60551">
        <ele>265</ele>
        <time>1970-01-01T00:35:38.000Z</time>
      </trkpt>
      <trkpt lat="43.21408" lon="6.60548">
        <ele>265</ele>
        <time>1970-01-01T00:35:39.000Z</time>
      </trkpt>
      <trkpt lat="43.21418" lon="6.60548">
        <ele>265.1</ele>
        <time>1970-01-01T00:35:40.000Z</time>
      </trkpt>
      <trkpt lat="43.21426" lon="6.60545">
        <ele>265.2</ele>
        <time>1970-01-01T00:35:41.000Z</time>
      </trkpt>
      <trkpt lat="43.21435" lon="6.60541">
        <ele>265.5</ele>
        <time>1970-01-01T00:35:42.000Z</time>
      </trkpt>
      <trkpt lat="43.21444" lon="6.60536">
        <ele>265.8</ele>
        <time>1970-01-01T00:35:43.000Z</time>
      </trkpt>
      <trkpt lat="43.21453" lon="6.60531">
        <ele>266.4</ele>
        <time>1970-01-01T00:35:44.000Z</time>
      </trkpt>
      <trkpt lat="43.2146" lon="6.60524">
        <ele>267</ele>
        <time>1970-01-01T00:35:45.000Z</time>
      </trkpt>
      <trkpt lat="43.21477" lon="6.6051">
        <ele>269</ele>
        <time>1970-01-01T00:35:46.000Z</time>
      </trkpt>
      <trkpt lat="43.21485" lon="6.60504">
        <ele>270.2</ele>
        <time>1970-01-01T00:35:47.000Z</time>
      </trkpt>
      <trkpt lat="43.21493" lon="6.605">
        <ele>271.4</ele>
        <time>1970-01-01T00:35:48.000Z</time>
      </trkpt>
      <trkpt lat="43.215" lon="6.60498">
        <ele>272.6</ele>
        <time>1970-01-01T00:35:49.000Z</time>
      </trkpt>
      <trkpt lat="43.21507" lon="6.60498">
        <ele>273.6</ele>
        <time>1970-01-01T00:35:50.000Z</time>
      </trkpt>
      <trkpt lat="43.21513" lon="6.605">
        <ele>274.5</ele>
        <time>1970-01-01T00:35:51.000Z</time>
      </trkpt>
      <trkpt lat="43.21518" lon="6.60505">
        <ele>275.3</ele>
        <time>1970-01-01T00:35:52.000Z</time>
      </trkpt>
      <trkpt lat="43.21524" lon="6.6051">
        <ele>276.2</ele>
        <time>1970-01-01T00:35:53.000Z</time>
      </trkpt>
      <trkpt lat="43.21532" lon="6.60512">
        <ele>277.1</ele>
        <time>1970-01-01T00:35:54.000Z</time>
      </trkpt>
      <trkpt lat="43.21539" lon="6.60513">
        <ele>277.9</ele>
        <time>1970-01-01T00:35:55.000Z</time>
      </trkpt>
      <trkpt lat="43.21545" lon="6.60512">
        <ele>278.6</ele>
        <time>1970-01-01T00:35:56.000Z</time>
      </trkpt>
      <trkpt lat="43.21553" lon="6.60509">
        <ele>279.4</ele>
        <time>1970-01-01T00:35:57.000Z</time>
      </trkpt>
      <trkpt lat="43.2156" lon="6.60504">
        <ele>280.2</ele>
        <time>1970-01-01T00:35:58.000Z</time>
      </trkpt>
      <trkpt lat="43.21567" lon="6.60498">
        <ele>281</ele>
        <time>1970-01-01T00:35:59.000Z</time>
      </trkpt>
      <trkpt lat="43.21573" lon="6.6049">
        <ele>281.7</ele>
        <time>1970-01-01T00:36:00.000Z</time>
      </trkpt>
      <trkpt lat="43.21577" lon="6.60482">
        <ele>282.5</ele>
        <time>1970-01-01T00:36:01.000Z</time>
      </trkpt>
      <trkpt lat="43.21582" lon="6.60475">
        <ele>283.1</ele>
        <time>1970-01-01T00:36:02.000Z</time>
      </trkpt>
      <trkpt lat="43.21594" lon="6.60468">
        <ele>284.2</ele>
        <time>1970-01-01T00:36:03.000Z</time>
      </trkpt>
      <trkpt lat="43.21599" lon="6.6046">
        <ele>284.9</ele>
        <time>1970-01-01T00:36:04.000Z</time>
      </trkpt>
      <trkpt lat="43.21604" lon="6.60452">
        <ele>285.4</ele>
        <time>1970-01-01T00:36:05.000Z</time>
      </trkpt>
      <trkpt lat="43.2161" lon="6.60443">
        <ele>286</ele>
        <time>1970-01-01T00:36:06.000Z</time>
      </trkpt>
      <trkpt lat="43.21618" lon="6.60434">
        <ele>286.5</ele>
        <time>1970-01-01T00:36:07.000Z</time>
      </trkpt>
      <trkpt lat="43.21626" lon="6.60426">
        <ele>286.8</ele>
        <time>1970-01-01T00:36:08.000Z</time>
      </trkpt>
      <trkpt lat="43.21633" lon="6.6042">
        <ele>287.1</ele>
        <time>1970-01-01T00:36:09.000Z</time>
      </trkpt>
      <trkpt lat="43.21641" lon="6.60413">
        <ele>287.3</ele>
        <time>1970-01-01T00:36:10.000Z</time>
      </trkpt>
      <trkpt lat="43.21648" lon="6.60407">
        <ele>287.4</ele>
        <time>1970-01-01T00:36:11.000Z</time>
      </trkpt>
      <trkpt lat="43.21658" lon="6.60405">
        <ele>287.5</ele>
        <time>1970-01-01T00:36:12.000Z</time>
      </trkpt>
      <trkpt lat="43.21665" lon="6.60399">
        <ele>287.6</ele>
        <time>1970-01-01T00:36:13.000Z</time>
      </trkpt>
      <trkpt lat="43.21672" lon="6.60394">
        <ele>287.7</ele>
        <time>1970-01-01T00:36:14.000Z</time>
      </trkpt>
      <trkpt lat="43.21682" lon="6.60389">
        <ele>288</ele>
        <time>1970-01-01T00:36:15.000Z</time>
      </trkpt>
      <trkpt lat="43.2169" lon="6.60383">
        <ele>288.5</ele>
        <time>1970-01-01T00:36:16.000Z</time>
      </trkpt>
      <trkpt lat="43.21703" lon="6.60377">
        <ele>289.7</ele>
        <time>1970-01-01T00:36:17.000Z</time>
      </trkpt>
      <trkpt lat="43.21711" lon="6.60371">
        <ele>291</ele>
        <time>1970-01-01T00:36:18.000Z</time>
      </trkpt>
      <trkpt lat="43.21719" lon="6.60363">
        <ele>292.5</ele>
        <time>1970-01-01T00:36:19.000Z</time>
      </trkpt>
      <trkpt lat="43.21726" lon="6.60357">
        <ele>293.8</ele>
        <time>1970-01-01T00:36:20.000Z</time>
      </trkpt>
      <trkpt lat="43.21732" lon="6.60353">
        <ele>294.7</ele>
        <time>1970-01-01T00:36:21.000Z</time>
      </trkpt>
      <trkpt lat="43.21738" lon="6.60351">
        <ele>295.5</ele>
        <time>1970-01-01T00:36:22.000Z</time>
      </trkpt>
      <trkpt lat="43.21745" lon="6.6035">
        <ele>296.1</ele>
        <time>1970-01-01T00:36:23.000Z</time>
      </trkpt>
      <trkpt lat="43.21752" lon="6.60347">
        <ele>296.7</ele>
        <time>1970-01-01T00:36:24.000Z</time>
      </trkpt>
      <trkpt lat="43.2176" lon="6.60343">
        <ele>297.3</ele>
        <time>1970-01-01T00:36:25.000Z</time>
      </trkpt>
      <trkpt lat="43.21767" lon="6.60337">
        <ele>297.7</ele>
        <time>1970-01-01T00:36:26.000Z</time>
      </trkpt>
      <trkpt lat="43.21775" lon="6.60333">
        <ele>297.9</ele>
        <time>1970-01-01T00:36:27.000Z</time>
      </trkpt>
      <trkpt lat="43.21783" lon="6.6033">
        <ele>298.1</ele>
        <time>1970-01-01T00:36:28.000Z</time>
      </trkpt>
      <trkpt lat="43.21792" lon="6.60326">
        <ele>298.4</ele>
        <time>1970-01-01T00:36:29.000Z</time>
      </trkpt>
      <trkpt lat="43.21801" lon="6.60322">
        <ele>298.7</ele>
        <time>1970-01-01T00:36:31.000Z</time>
      </trkpt>
      <trkpt lat="43.21811" lon="6.60319">
        <ele>299.1</ele>
        <time>1970-01-01T00:36:32.000Z</time>
      </trkpt>
      <trkpt lat="43.21822" lon="6.60315">
        <ele>299.7</ele>
        <time>1970-01-01T00:36:33.000Z</time>
      </trkpt>
      <trkpt lat="43.21831" lon="6.60312">
        <ele>300.3</ele>
        <time>1970-01-01T00:36:34.000Z</time>
      </trkpt>
      <trkpt lat="43.21841" lon="6.6031">
        <ele>300.9</ele>
        <time>1970-01-01T00:36:35.000Z</time>
      </trkpt>
      <trkpt lat="43.21851" lon="6.60308">
        <ele>301.2</ele>
        <time>1970-01-01T00:36:36.000Z</time>
      </trkpt>
      <trkpt lat="43.2186" lon="6.60306">
        <ele>301.6</ele>
        <time>1970-01-01T00:36:37.000Z</time>
      </trkpt>
      <trkpt lat="43.2187" lon="6.60302">
        <ele>301.9</ele>
        <time>1970-01-01T00:36:38.000Z</time>
      </trkpt>
      <trkpt lat="43.21879" lon="6.60299">
        <ele>302.1</ele>
        <time>1970-01-01T00:36:39.000Z</time>
      </trkpt>
      <trkpt lat="43.21888" lon="6.60294">
        <ele>302.3</ele>
        <time>1970-01-01T00:36:40.000Z</time>
      </trkpt>
      <trkpt lat="43.219" lon="6.6029">
        <ele>302.5</ele>
        <time>1970-01-01T00:36:41.000Z</time>
      </trkpt>
      <trkpt lat="43.2191" lon="6.60284">
        <ele>302.8</ele>
        <time>1970-01-01T00:36:42.000Z</time>
      </trkpt>
      <trkpt lat="43.21919" lon="6.6028">
        <ele>303.3</ele>
        <time>1970-01-01T00:36:43.000Z</time>
      </trkpt>
      <trkpt lat="43.2193" lon="6.60275">
        <ele>304.2</ele>
        <time>1970-01-01T00:36:44.000Z</time>
      </trkpt>
      <trkpt lat="43.2194" lon="6.60269">
        <ele>305.4</ele>
        <time>1970-01-01T00:36:45.000Z</time>
      </trkpt>
      <trkpt lat="43.21948" lon="6.60263">
        <ele>306.5</ele>
        <time>1970-01-01T00:36:46.000Z</time>
      </trkpt>
      <trkpt lat="43.21956" lon="6.60257">
        <ele>307.7</ele>
        <time>1970-01-01T00:36:47.000Z</time>
      </trkpt>
      <trkpt lat="43.21963" lon="6.60252">
        <ele>308.7</ele>
        <time>1970-01-01T00:36:48.000Z</time>
      </trkpt>
      <trkpt lat="43.21969" lon="6.60246">
        <ele>309.6</ele>
        <time>1970-01-01T00:36:49.000Z</time>
      </trkpt>
      <trkpt lat="43.21975" lon="6.60239">
        <ele>310.5</ele>
        <time>1970-01-01T00:36:50.000Z</time>
      </trkpt>
      <trkpt lat="43.21981" lon="6.60235">
        <ele>311.1</ele>
        <time>1970-01-01T00:36:51.000Z</time>
      </trkpt>
      <trkpt lat="43.21985" lon="6.60233">
        <ele>311.4</ele>
        <time>1970-01-01T00:36:52.000Z</time>
      </trkpt>
      <trkpt lat="43.21987" lon="6.60233">
        <ele>311.8</ele>
        <time>1970-01-01T00:36:53.000Z</time>
      </trkpt>
      <trkpt lat="43.21988" lon="6.60235">
        <ele>311.9</ele>
        <time>1970-01-01T00:36:54.000Z</time>
      </trkpt>
      <trkpt lat="43.21991" lon="6.60236">
        <ele>311.9</ele>
        <time>1970-01-01T00:36:55.000Z</time>
      </trkpt>
      <trkpt lat="43.21993" lon="6.60236">
        <ele>312</ele>
        <time>1970-01-01T00:36:56.000Z</time>
      </trkpt>
      <trkpt lat="43.21996" lon="6.60233">
        <ele>312</ele>
        <time>1970-01-01T00:36:57.000Z</time>
      </trkpt>
      <trkpt lat="43.21997" lon="6.60231">
        <ele>312</ele>
        <time>1970-01-01T00:36:58.000Z</time>
      </trkpt>
      <trkpt lat="43.21996" lon="6.60228">
        <ele>312</ele>
        <time>1970-01-01T00:36:59.000Z</time>
      </trkpt>
      <trkpt lat="43.21997" lon="6.60226">
        <ele>312</ele>
        <time>1970-01-01T00:37:00.000Z</time>
      </trkpt>
      <trkpt lat="43.21997" lon="6.60228">
        <ele>312.1</ele>
        <time>1970-01-01T00:37:01.000Z</time>
      </trkpt>
      <trkpt lat="43.21997" lon="6.60229">
        <ele>312.1</ele>
        <time>1970-01-01T00:37:02.000Z</time>
      </trkpt>
      <trkpt lat="43.21997" lon="6.6023">
        <ele>312.1</ele>
        <time>1970-01-01T00:37:03.000Z</time>
      </trkpt>
      <trkpt lat="43.21997" lon="6.60231">
        <ele>312.1</ele>
        <time>1970-01-01T00:37:04.000Z</time>
      </trkpt>
      <trkpt lat="43.21997" lon="6.60232">
        <ele>312.1</ele>
        <time>1970-01-01T00:37:05.000Z</time>
      </trkpt>
      <trkpt lat="43.21996" lon="6.60233">
        <ele>312.1</ele>
        <time>1970-01-01T00:37:06.000Z</time>
      </trkpt>
      <trkpt lat="43.21996" lon="6.60233">
        <ele>312.1</ele>
        <time>1970-01-01T00:37:07.000Z</time>
      </trkpt>
      <trkpt lat="43.21996" lon="6.60233">
        <ele>312.1</ele>
        <time>1970-01-01T00:37:08.000Z</time>
      </trkpt>
      <trkpt lat="43.21996" lon="6.60234">
        <ele>312.1</ele>
        <time>1970-01-01T00:37:09.000Z</time>
      </trkpt>
      <trkpt lat="43.21996" lon="6.60234">
        <ele>312.1</ele>
        <time>1970-01-01T00:37:10.000Z</time>
      </trkpt>
      <trkpt lat="43.21996" lon="6.60234">
        <ele>312.1</ele>
        <time>1970-01-01T00:37:11.000Z</time>
      </trkpt>
      <trkpt lat="43.21996" lon="6.60234">
        <ele>312.1</ele>
        <time>1970-01-01T00:37:12.000Z</time>
      </trkpt>
      <trkpt lat="43.21996" lon="6.60234">
        <ele>312.1</ele>
        <time>1970-01-01T00:37:13.000Z</time>
      </trkpt>
      <trkpt lat="43.21996" lon="6.60234">
        <ele>312.1</ele>
        <time>1970-01-01T00:37:14.000Z</time>
      </trkpt>
      <trkpt lat="43.21996" lon="6.60234">
        <ele>312.1</ele>
        <time>1970-01-01T00:37:15.000Z</time>
      </trkpt>
      <trkpt lat="43.21996" lon="6.60234">
        <ele>312.1</ele>
        <time>1970-01-01T00:37:26.000Z</time>
      </trkpt>
      <trkpt lat="43.21996" lon="6.60234">
        <ele>312.1</ele>
        <time>1970-01-01T00:37:27.000Z</time>
      </trkpt>
      <trkpt lat="43.21996" lon="6.60235">
        <ele>312.1</ele>
        <time>1970-01-01T00:37:28.000Z</time>
      </trkpt>
      <trkpt lat="43.21996" lon="6.60235">
        <ele>312.1</ele>
        <time>1970-01-01T00:37:29.000Z</time>
      </trkpt>
      <trkpt lat="43.21996" lon="6.60235">
        <ele>312.1</ele>
        <time>1970-01-01T00:37:30.000Z</time>
      </trkpt>
      <trkpt lat="43.21996" lon="6.60235">
        <ele>312.1</ele>
        <time>1970-01-01T00:37:31.000Z</time>
      </trkpt>
      <trkpt lat="43.21996" lon="6.60235">
        <ele>312.1</ele>
        <time>1970-01-01T00:37:32.000Z</time>
      </trkpt>
      <trkpt lat="43.21997" lon="6.60235">
        <ele>312.1</ele>
        <time>1970-01-01T00:37:33.000Z</time>
      </trkpt>
      <trkpt lat="43.21996" lon="6.60235">
        <ele>312.1</ele>
        <time>1970-01-01T00:37:34.000Z</time>
      </trkpt>
      <trkpt lat="43.21996" lon="6.60235">
        <ele>312.1</ele>
        <time>1970-01-01T00:37:35.000Z</time>
      </trkpt>
      <trkpt lat="43.21998" lon="6.6024">
        <ele>312.1</ele>
        <time>1970-01-01T00:38:04.000Z</time>
      </trkpt>
      <trkpt lat="43.21999" lon="6.60241">
        <ele>312.2</ele>
        <time>1970-01-01T00:38:05.000Z</time>
      </trkpt>
      <trkpt lat="43.22" lon="6.60241">
        <ele>312.2</ele>
        <time>1970-01-01T00:38:06.000Z</time>
      </trkpt>
      <trkpt lat="43.22" lon="6.60241">
        <ele>312.2</ele>
        <time>1970-01-01T00:38:07.000Z</time>
      </trkpt>
      <trkpt lat="43.22" lon="6.60241">
        <ele>312.2</ele>
        <time>1970-01-01T00:38:08.000Z</time>
      </trkpt>
      <trkpt lat="43.22001" lon="6.60242">
        <ele>312.2</ele>
        <time>1970-01-01T00:38:09.000Z</time>
      </trkpt>
      <trkpt lat="43.22002" lon="6.60242">
        <ele>312.2</ele>
        <time>1970-01-01T00:38:10.000Z</time>
      </trkpt>
      <trkpt lat="43.22002" lon="6.60243">
        <ele>312.2</ele>
        <time>1970-01-01T00:38:11.000Z</time>
      </trkpt>
      <trkpt lat="43.22003" lon="6.60244">
        <ele>312.2</ele>
        <time>1970-01-01T00:38:12.000Z</time>
      </trkpt>
      <trkpt lat="43.22004" lon="6.60244">
        <ele>312.2</ele>
        <time>1970-01-01T00:38:13.000Z</time>
      </trkpt>
      <trkpt lat="43.22005" lon="6.60245">
        <ele>312.2</ele>
        <time>1970-01-01T00:38:14.000Z</time>
      </trkpt>
      <trkpt lat="43.22005" lon="6.60245">
        <ele>312.2</ele>
        <time>1970-01-01T00:38:15.000Z</time>
      </trkpt>
      <trkpt lat="43.22006" lon="6.60246">
        <ele>312.2</ele>
        <time>1970-01-01T00:38:16.000Z</time>
      </trkpt>
      <trkpt lat="43.22007" lon="6.60246">
        <ele>312.2</ele>
        <time>1970-01-01T00:38:18.000Z</time>
      </trkpt>
      <trkpt lat="43.22007" lon="6.60247">
        <ele>312.2</ele>
        <time>1970-01-01T00:38:57.000Z</time>
      </trkpt>
      <trkpt lat="43.22008" lon="6.60247">
        <ele>312.2</ele>
        <time>1970-01-01T00:38:58.000Z</time>
      </trkpt>
      <trkpt lat="43.22011" lon="6.60253">
        <ele>312.3</ele>
        <time>1970-01-01T00:38:59.000Z</time>
      </trkpt>
      <trkpt lat="43.22015" lon="6.6026">
        <ele>312.3</ele>
        <time>1970-01-01T00:39:00.000Z</time>
      </trkpt>
      <trkpt lat="43.22018" lon="6.60266">
        <ele>312.3</ele>
        <time>1970-01-01T00:39:01.000Z</time>
      </trkpt>
      <trkpt lat="43.22018" lon="6.60274">
        <ele>312.4</ele>
        <time>1970-01-01T00:39:02.000Z</time>
      </trkpt>
      <trkpt lat="43.22014" lon="6.60281">
        <ele>312.4</ele>
        <time>1970-01-01T00:39:03.000Z</time>
      </trkpt>
      <trkpt lat="43.2201" lon="6.60287">
        <ele>311.6</ele>
        <time>1970-01-01T00:39:04.000Z</time>
      </trkpt>
      <trkpt lat="43.22004" lon="6.60292">
        <ele>310.8</ele>
        <time>1970-01-01T00:39:05.000Z</time>
      </trkpt>
      <trkpt lat="43.21997" lon="6.60294">
        <ele>309.8</ele>
        <time>1970-01-01T00:39:06.000Z</time>
      </trkpt>
      <trkpt lat="43.2199" lon="6.60296">
        <ele>309</ele>
        <time>1970-01-01T00:39:07.000Z</time>
      </trkpt>
      <trkpt lat="43.21986" lon="6.60293">
        <ele>308.4</ele>
        <time>1970-01-01T00:39:08.000Z</time>
      </trkpt>
      <trkpt lat="43.2198" lon="6.60291">
        <ele>307.6</ele>
        <time>1970-01-01T00:39:09.000Z</time>
      </trkpt>
      <trkpt lat="43.2197" lon="6.6029">
        <ele>306.5</ele>
        <time>1970-01-01T00:39:10.000Z</time>
      </trkpt>
      <trkpt lat="43.2196" lon="6.60289">
        <ele>305.4</ele>
        <time>1970-01-01T00:39:11.000Z</time>
      </trkpt>
      <trkpt lat="43.21951" lon="6.60288">
        <ele>304.5</ele>
        <time>1970-01-01T00:39:12.000Z</time>
      </trkpt>
      <trkpt lat="43.21942" lon="6.60289">
        <ele>303.7</ele>
        <time>1970-01-01T00:39:13.000Z</time>
      </trkpt>
      <trkpt lat="43.21933" lon="6.60293">
        <ele>303</ele>
        <time>1970-01-01T00:39:14.000Z</time>
      </trkpt>
      <trkpt lat="43.21926" lon="6.60297">
        <ele>302.6</ele>
        <time>1970-01-01T00:39:15.000Z</time>
      </trkpt>
      <trkpt lat="43.21915" lon="6.60297">
        <ele>302</ele>
        <time>1970-01-01T00:39:16.000Z</time>
      </trkpt>
      <trkpt lat="43.21908" lon="6.60301">
        <ele>301.6</ele>
        <time>1970-01-01T00:39:17.000Z</time>
      </trkpt>
      <trkpt lat="43.21901" lon="6.60305">
        <ele>300.9</ele>
        <time>1970-01-01T00:39:18.000Z</time>
      </trkpt>
      <trkpt lat="43.21892" lon="6.6031">
        <ele>300.2</ele>
        <time>1970-01-01T00:39:19.000Z</time>
      </trkpt>
      <trkpt lat="43.21886" lon="6.60317">
        <ele>299.6</ele>
        <time>1970-01-01T00:39:20.000Z</time>
      </trkpt>
      <trkpt lat="43.21878" lon="6.60326">
        <ele>298.9</ele>
        <time>1970-01-01T00:39:21.000Z</time>
      </trkpt>
      <trkpt lat="43.21871" lon="6.60334">
        <ele>298.4</ele>
        <time>1970-01-01T00:39:22.000Z</time>
      </trkpt>
      <trkpt lat="43.21865" lon="6.60341">
        <ele>297.9</ele>
        <time>1970-01-01T00:39:23.000Z</time>
      </trkpt>
      <trkpt lat="43.21863" lon="6.60345">
        <ele>297.6</ele>
        <time>1970-01-01T00:39:24.000Z</time>
      </trkpt>
      <trkpt lat="43.21864" lon="6.60351">
        <ele>297.1</ele>
        <time>1970-01-01T00:39:25.000Z</time>
      </trkpt>
      <trkpt lat="43.21869" lon="6.60353">
        <ele>296.6</ele>
        <time>1970-01-01T00:39:26.000Z</time>
      </trkpt>
      <trkpt lat="43.21874" lon="6.60355">
        <ele>295.7</ele>
        <time>1970-01-01T00:39:27.000Z</time>
      </trkpt>
      <trkpt lat="43.21881" lon="6.60354">
        <ele>294.6</ele>
        <time>1970-01-01T00:39:28.000Z</time>
      </trkpt>
      <trkpt lat="43.21885" lon="6.60353">
        <ele>293.7</ele>
        <time>1970-01-01T00:39:29.000Z</time>
      </trkpt>
      <trkpt lat="43.2189" lon="6.6036">
        <ele>292.4</ele>
        <time>1970-01-01T00:39:30.000Z</time>
      </trkpt>
      <trkpt lat="43.21897" lon="6.60357">
        <ele>290.7</ele>
        <time>1970-01-01T00:39:31.000Z</time>
      </trkpt>
      <trkpt lat="43.21905" lon="6.60354">
        <ele>289</ele>
        <time>1970-01-01T00:39:32.000Z</time>
      </trkpt>
      <trkpt lat="43.21909" lon="6.60357">
        <ele>288</ele>
        <time>1970-01-01T00:39:33.000Z</time>
      </trkpt>
      <trkpt lat="43.21915" lon="6.60361">
        <ele>286.3</ele>
        <time>1970-01-01T00:39:34.000Z</time>
      </trkpt>
      <trkpt lat="43.2192" lon="6.60358">
        <ele>284.8</ele>
        <time>1970-01-01T00:39:35.000Z</time>
      </trkpt>
      <trkpt lat="43.2192" lon="6.60362">
        <ele>283.9</ele>
        <time>1970-01-01T00:39:36.000Z</time>
      </trkpt>
      <trkpt lat="43.21919" lon="6.60363">
        <ele>283.5</ele>
        <time>1970-01-01T00:39:37.000Z</time>
      </trkpt>
      <trkpt lat="43.21916" lon="6.6037">
        <ele>281.4</ele>
        <time>1970-01-01T00:39:38.000Z</time>
      </trkpt>
      <trkpt lat="43.21913" lon="6.60375">
        <ele>279.7</ele>
        <time>1970-01-01T00:39:39.000Z</time>
      </trkpt>
      <trkpt lat="43.21917" lon="6.6038">
        <ele>277.8</ele>
        <time>1970-01-01T00:39:40.000Z</time>
      </trkpt>
      <trkpt lat="43.21921" lon="6.60386">
        <ele>275.8</ele>
        <time>1970-01-01T00:39:41.000Z</time>
      </trkpt>
      <trkpt lat="43.2193" lon="6.60394">
        <ele>272.5</ele>
        <time>1970-01-01T00:39:42.000Z</time>
      </trkpt>
      <trkpt lat="43.21939" lon="6.60402">
        <ele>269.6</ele>
        <time>1970-01-01T00:39:43.000Z</time>
      </trkpt>
      <trkpt lat="43.21945" lon="6.60408">
        <ele>268.6</ele>
        <time>1970-01-01T00:39:44.000Z</time>
      </trkpt>
      <trkpt lat="43.21949" lon="6.60414">
        <ele>267.9</ele>
        <time>1970-01-01T00:39:45.000Z</time>
      </trkpt>
      <trkpt lat="43.21951" lon="6.60417">
        <ele>267.7</ele>
        <time>1970-01-01T00:39:46.000Z</time>
      </trkpt>
      <trkpt lat="43.21949" lon="6.6042">
        <ele>267.6</ele>
        <time>1970-01-01T00:39:47.000Z</time>
      </trkpt>
      <trkpt lat="43.2195" lon="6.6043">
        <ele>267.3</ele>
        <time>1970-01-01T00:39:48.000Z</time>
      </trkpt>
      <trkpt lat="43.21951" lon="6.6044">
        <ele>267.3</ele>
        <time>1970-01-01T00:39:49.000Z</time>
      </trkpt>
      <trkpt lat="43.21953" lon="6.60448">
        <ele>267.5</ele>
        <time>1970-01-01T00:39:50.000Z</time>
      </trkpt>
      <trkpt lat="43.21952" lon="6.60451">
        <ele>266.6</ele>
        <time>1970-01-01T00:39:51.000Z</time>
      </trkpt>
      <trkpt lat="43.21946" lon="6.60453">
        <ele>266.2</ele>
        <time>1970-01-01T00:39:52.000Z</time>
      </trkpt>
      <trkpt lat="43.21941" lon="6.60456">
        <ele>265</ele>
        <time>1970-01-01T00:39:53.000Z</time>
      </trkpt>
      <trkpt lat="43.21938" lon="6.60463">
        <ele>262.9</ele>
        <time>1970-01-01T00:39:54.000Z</time>
      </trkpt>
      <trkpt lat="43.21939" lon="6.60469">
        <ele>262</ele>
        <time>1970-01-01T00:39:55.000Z</time>
      </trkpt>
      <trkpt lat="43.21939" lon="6.60471">
        <ele>262</ele>
        <time>1970-01-01T00:39:56.000Z</time>
      </trkpt>
      <trkpt lat="43.21938" lon="6.60472">
        <ele>261.1</ele>
        <time>1970-01-01T00:39:57.000Z</time>
      </trkpt>
      <trkpt lat="43.21938" lon="6.60471">
        <ele>262.1</ele>
        <time>1970-01-01T00:39:58.000Z</time>
      </trkpt>
      <trkpt lat="43.21939" lon="6.60471">
        <ele>262.1</ele>
        <time>1970-01-01T00:39:59.000Z</time>
      </trkpt>
      <trkpt lat="43.21939" lon="6.60471">
        <ele>262.2</ele>
        <time>1970-01-01T00:40:00.000Z</time>
      </trkpt>
      <trkpt lat="43.21939" lon="6.6047">
        <ele>262.2</ele>
        <time>1970-01-01T00:40:01.000Z</time>
      </trkpt>
      <trkpt lat="43.21939" lon="6.60471">
        <ele>262.2</ele>
        <time>1970-01-01T00:40:02.000Z</time>
      </trkpt>
      <trkpt lat="43.21938" lon="6.60472">
        <ele>261.2</ele>
        <time>1970-01-01T00:40:03.000Z</time>
      </trkpt>
      <trkpt lat="43.21936" lon="6.60472">
        <ele>261.2</ele>
        <time>1970-01-01T00:40:04.000Z</time>
      </trkpt>
      <trkpt lat="43.21935" lon="6.6047">
        <ele>262.2</ele>
        <time>1970-01-01T00:40:05.000Z</time>
      </trkpt>
      <trkpt lat="43.21936" lon="6.60471">
        <ele>262.2</ele>
        <time>1970-01-01T00:40:06.000Z</time>
      </trkpt>
      <trkpt lat="43.21936" lon="6.60471">
        <ele>262.3</ele>
        <time>1970-01-01T00:40:07.000Z</time>
      </trkpt>
      <trkpt lat="43.21936" lon="6.60471">
        <ele>262.3</ele>
        <time>1970-01-01T00:40:08.000Z</time>
      </trkpt>
      <trkpt lat="43.21936" lon="6.60471">
        <ele>262.4</ele>
        <time>1970-01-01T00:40:09.000Z</time>
      </trkpt>
      <trkpt lat="43.21936" lon="6.60471">
        <ele>262.4</ele>
        <time>1970-01-01T00:40:10.000Z</time>
      </trkpt>
      <trkpt lat="43.21936" lon="6.6047">
        <ele>262.4</ele>
        <time>1970-01-01T00:40:11.000Z</time>
      </trkpt>
      <trkpt lat="43.21936" lon="6.6047">
        <ele>262.5</ele>
        <time>1970-01-01T00:40:12.000Z</time>
      </trkpt>
      <trkpt lat="43.21936" lon="6.6047">
        <ele>262.5</ele>
        <time>1970-01-01T00:40:13.000Z</time>
      </trkpt>
      <trkpt lat="43.21936" lon="6.6047">
        <ele>262.6</ele>
        <time>1970-01-01T00:40:14.000Z</time>
      </trkpt>
      <trkpt lat="43.21932" lon="6.6047">
        <ele>262.5</ele>
        <time>1970-01-01T00:40:29.000Z</time>
      </trkpt>
      <trkpt lat="43.21929" lon="6.60469">
        <ele>262.4</ele>
        <time>1970-01-01T00:40:30.000Z</time>
      </trkpt>
      <trkpt lat="43.21926" lon="6.6047">
        <ele>262.3</ele>
        <time>1970-01-01T00:40:31.000Z</time>
      </trkpt>
      <trkpt lat="43.21924" lon="6.60474">
        <ele>261.3</ele>
        <time>1970-01-01T00:40:32.000Z</time>
      </trkpt>
      <trkpt lat="43.21923" lon="6.60478">
        <ele>260.5</ele>
        <time>1970-01-01T00:40:33.000Z</time>
      </trkpt>
      <trkpt lat="43.21922" lon="6.6048">
        <ele>260.5</ele>
        <time>1970-01-01T00:40:34.000Z</time>
      </trkpt>
      <trkpt lat="43.21922" lon="6.60481">
        <ele>259.6</ele>
        <time>1970-01-01T00:40:35.000Z</time>
      </trkpt>
      <trkpt lat="43.21922" lon="6.60481">
        <ele>259.7</ele>
        <time>1970-01-01T00:40:36.000Z</time>
      </trkpt>
      <trkpt lat="43.21923" lon="6.60482">
        <ele>259.8</ele>
        <time>1970-01-01T00:40:37.000Z</time>
      </trkpt>
      <trkpt lat="43.21923" lon="6.60482">
        <ele>259.8</ele>
        <time>1970-01-01T00:40:38.000Z</time>
      </trkpt>
      <trkpt lat="43.21923" lon="6.60483">
        <ele>259.9</ele>
        <time>1970-01-01T00:40:39.000Z</time>
      </trkpt>
      <trkpt lat="43.21922" lon="6.60483">
        <ele>259.9</ele>
        <time>1970-01-01T00:40:40.000Z</time>
      </trkpt>
      <trkpt lat="43.21922" lon="6.60483">
        <ele>259.8</ele>
        <time>1970-01-01T00:40:41.000Z</time>
      </trkpt>
      <trkpt lat="43.21922" lon="6.60484">
        <ele>259.9</ele>
        <time>1970-01-01T00:40:42.000Z</time>
      </trkpt>
      <trkpt lat="43.21922" lon="6.60484">
        <ele>259.9</ele>
        <time>1970-01-01T00:40:43.000Z</time>
      </trkpt>
      <trkpt lat="43.21922" lon="6.60485">
        <ele>259.2</ele>
        <time>1970-01-01T00:40:44.000Z</time>
      </trkpt>
      <trkpt lat="43.21922" lon="6.6049">
        <ele>258.3</ele>
        <time>1970-01-01T00:40:55.000Z</time>
      </trkpt>
      <trkpt lat="43.21922" lon="6.60492">
        <ele>258.2</ele>
        <time>1970-01-01T00:40:56.000Z</time>
      </trkpt>
      <trkpt lat="43.21919" lon="6.60492">
        <ele>258.3</ele>
        <time>1970-01-01T00:40:57.000Z</time>
      </trkpt>
      <trkpt lat="43.21916" lon="6.60497">
        <ele>257.2</ele>
        <time>1970-01-01T00:40:58.000Z</time>
      </trkpt>
      <trkpt lat="43.21912" lon="6.60501">
        <ele>256</ele>
        <time>1970-01-01T00:40:59.000Z</time>
      </trkpt>
      <trkpt lat="43.21907" lon="6.60508">
        <ele>253.8</ele>
        <time>1970-01-01T00:41:00.000Z</time>
      </trkpt>
      <trkpt lat="43.219" lon="6.60515">
        <ele>251.5</ele>
        <time>1970-01-01T00:41:01.000Z</time>
      </trkpt>
      <trkpt lat="43.21897" lon="6.60524">
        <ele>249.2</ele>
        <time>1970-01-01T00:41:02.000Z</time>
      </trkpt>
      <trkpt lat="43.21893" lon="6.60534">
        <ele>247</ele>
        <time>1970-01-01T00:41:03.000Z</time>
      </trkpt>
      <trkpt lat="43.21888" lon="6.60541">
        <ele>244.7</ele>
        <time>1970-01-01T00:41:04.000Z</time>
      </trkpt>
      <trkpt lat="43.21883" lon="6.60548">
        <ele>243.5</ele>
        <time>1970-01-01T00:41:05.000Z</time>
      </trkpt>
      <trkpt lat="43.21876" lon="6.60553">
        <ele>241</ele>
        <time>1970-01-01T00:41:06.000Z</time>
      </trkpt>
      <trkpt lat="43.21875" lon="6.60559">
        <ele>239.8</ele>
        <time>1970-01-01T00:41:07.000Z</time>
      </trkpt>
      <trkpt lat="43.21873" lon="6.60567">
        <ele>237.7</ele>
        <time>1970-01-01T00:41:08.000Z</time>
      </trkpt>
      <trkpt lat="43.21873" lon="6.60574">
        <ele>236.7</ele>
        <time>1970-01-01T00:41:09.000Z</time>
      </trkpt>
      <trkpt lat="43.21871" lon="6.60579">
        <ele>234.5</ele>
        <time>1970-01-01T00:41:10.000Z</time>
      </trkpt>
      <trkpt lat="43.21874" lon="6.60589">
        <ele>232.3</ele>
        <time>1970-01-01T00:41:11.000Z</time>
      </trkpt>
      <trkpt lat="43.21878" lon="6.60598">
        <ele>230</ele>
        <time>1970-01-01T00:41:12.000Z</time>
      </trkpt>
      <trkpt lat="43.21881" lon="6.60604">
        <ele>228.9</ele>
        <time>1970-01-01T00:41:13.000Z</time>
      </trkpt>
      <trkpt lat="43.21883" lon="6.60609">
        <ele>226.6</ele>
        <time>1970-01-01T00:41:14.000Z</time>
      </trkpt>
      <trkpt lat="43.21886" lon="6.60616">
        <ele>225.5</ele>
        <time>1970-01-01T00:41:15.000Z</time>
      </trkpt>
      <trkpt lat="43.2189" lon="6.60618">
        <ele>224.4</ele>
        <time>1970-01-01T00:41:16.000Z</time>
      </trkpt>
      <trkpt lat="43.21894" lon="6.6062">
        <ele>224.5</ele>
        <time>1970-01-01T00:41:17.000Z</time>
      </trkpt>
      <trkpt lat="43.21897" lon="6.60623">
        <ele>223.5</ele>
        <time>1970-01-01T00:41:18.000Z</time>
      </trkpt>
      <trkpt lat="43.21903" lon="6.60628">
        <ele>222.5</ele>
        <time>1970-01-01T00:41:19.000Z</time>
      </trkpt>
      <trkpt lat="43.2191" lon="6.6063">
        <ele>222.8</ele>
        <time>1970-01-01T00:41:20.000Z</time>
      </trkpt>
      <trkpt lat="43.21917" lon="6.60629">
        <ele>223</ele>
        <time>1970-01-01T00:41:21.000Z</time>
      </trkpt>
      <trkpt lat="43.21924" lon="6.60627">
        <ele>223.3</ele>
        <time>1970-01-01T00:41:22.000Z</time>
      </trkpt>
      <trkpt lat="43.21929" lon="6.60624">
        <ele>224.7</ele>
        <time>1970-01-01T00:41:23.000Z</time>
      </trkpt>
      <trkpt lat="43.21934" lon="6.60622">
        <ele>224.9</ele>
        <time>1970-01-01T00:41:24.000Z</time>
      </trkpt>
      <trkpt lat="43.21938" lon="6.60619">
        <ele>226.2</ele>
        <time>1970-01-01T00:41:25.000Z</time>
      </trkpt>
      <trkpt lat="43.21942" lon="6.60617">
        <ele>227.7</ele>
        <time>1970-01-01T00:41:26.000Z</time>
      </trkpt>
      <trkpt lat="43.21946" lon="6.60611">
        <ele>229.1</ele>
        <time>1970-01-01T00:41:27.000Z</time>
      </trkpt>
      <trkpt lat="43.21951" lon="6.60607">
        <ele>230.8</ele>
        <time>1970-01-01T00:41:28.000Z</time>
      </trkpt>
      <trkpt lat="43.21955" lon="6.60604">
        <ele>232.3</ele>
        <time>1970-01-01T00:41:29.000Z</time>
      </trkpt>
      <trkpt lat="43.21962" lon="6.60601">
        <ele>232.6</ele>
        <time>1970-01-01T00:41:30.000Z</time>
      </trkpt>
      <trkpt lat="43.21967" lon="6.60602">
        <ele>232.9</ele>
        <time>1970-01-01T00:41:31.000Z</time>
      </trkpt>
      <trkpt lat="43.21972" lon="6.60603">
        <ele>233.1</ele>
        <time>1970-01-01T00:41:32.000Z</time>
      </trkpt>
      <trkpt lat="43.21973" lon="6.60607">
        <ele>231.9</ele>
        <time>1970-01-01T00:41:33.000Z</time>
      </trkpt>
      <trkpt lat="43.21974" lon="6.6061">
        <ele>230.8</ele>
        <time>1970-01-01T00:41:34.000Z</time>
      </trkpt>
      <trkpt lat="43.21975" lon="6.60612">
        <ele>230.8</ele>
        <time>1970-01-01T00:41:35.000Z</time>
      </trkpt>
      <trkpt lat="43.21979" lon="6.60615">
        <ele>229.9</ele>
        <time>1970-01-01T00:41:36.000Z</time>
      </trkpt>
      <trkpt lat="43.21983" lon="6.60616">
        <ele>230.1</ele>
        <time>1970-01-01T00:41:37.000Z</time>
      </trkpt>
      <trkpt lat="43.21988" lon="6.60614">
        <ele>230.4</ele>
        <time>1970-01-01T00:41:38.000Z</time>
      </trkpt>
      <trkpt lat="43.21993" lon="6.6061">
        <ele>231.7</ele>
        <time>1970-01-01T00:41:39.000Z</time>
      </trkpt>
      <trkpt lat="43.21996" lon="6.60608">
        <ele>233.1</ele>
        <time>1970-01-01T00:41:40.000Z</time>
      </trkpt>
      <trkpt lat="43.22" lon="6.60608">
        <ele>233.3</ele>
        <time>1970-01-01T00:41:41.000Z</time>
      </trkpt>
      <trkpt lat="43.22004" lon="6.60606">
        <ele>233.8</ele>
        <time>1970-01-01T00:41:42.000Z</time>
      </trkpt>
      <trkpt lat="43.22007" lon="6.60603">
        <ele>235.3</ele>
        <time>1970-01-01T00:41:43.000Z</time>
      </trkpt>
      <trkpt lat="43.2201" lon="6.606">
        <ele>236.6</ele>
        <time>1970-01-01T00:41:44.000Z</time>
      </trkpt>
      <trkpt lat="43.22013" lon="6.60598">
        <ele>237</ele>
        <time>1970-01-01T00:41:45.000Z</time>
      </trkpt>
      <trkpt lat="43.22019" lon="6.60598">
        <ele>237.3</ele>
        <time>1970-01-01T00:41:46.000Z</time>
      </trkpt>
      <trkpt lat="43.22024" lon="6.60595">
        <ele>238.9</ele>
        <time>1970-01-01T00:41:47.000Z</time>
      </trkpt>
      <trkpt lat="43.22029" lon="6.60592">
        <ele>239.2</ele>
        <time>1970-01-01T00:41:48.000Z</time>
      </trkpt>
      <trkpt lat="43.22032" lon="6.6059">
        <ele>240.7</ele>
        <time>1970-01-01T00:41:49.000Z</time>
      </trkpt>
      <trkpt lat="43.22035" lon="6.60589">
        <ele>240.8</ele>
        <time>1970-01-01T00:41:50.000Z</time>
      </trkpt>
      <trkpt lat="43.22038" lon="6.60587">
        <ele>242.2</ele>
        <time>1970-01-01T00:41:51.000Z</time>
      </trkpt>
      <trkpt lat="43.22042" lon="6.60585">
        <ele>242.4</ele>
        <time>1970-01-01T00:41:52.000Z</time>
      </trkpt>
      <trkpt lat="43.22045" lon="6.60584">
        <ele>242.5</ele>
        <time>1970-01-01T00:41:53.000Z</time>
      </trkpt>
      <trkpt lat="43.2205" lon="6.60583">
        <ele>243.9</ele>
        <time>1970-01-01T00:41:54.000Z</time>
      </trkpt>
      <trkpt lat="43.22054" lon="6.60579">
        <ele>244</ele>
        <time>1970-01-01T00:41:55.000Z</time>
      </trkpt>
      <trkpt lat="43.22057" lon="6.60576">
        <ele>245.2</ele>
        <time>1970-01-01T00:41:56.000Z</time>
      </trkpt>
      <trkpt lat="43.22059" lon="6.60581">
        <ele>244.2</ele>
        <time>1970-01-01T00:41:57.000Z</time>
      </trkpt>
      <trkpt lat="43.2206" lon="6.60584">
        <ele>243.2</ele>
        <time>1970-01-01T00:41:58.000Z</time>
      </trkpt>
      <trkpt lat="43.22065" lon="6.60587">
        <ele>242.1</ele>
        <time>1970-01-01T00:41:59.000Z</time>
      </trkpt>
      <trkpt lat="43.22075" lon="6.60588">
        <ele>242.2</ele>
        <time>1970-01-01T00:42:00.000Z</time>
      </trkpt>
      <trkpt lat="43.22084" lon="6.60587">
        <ele>243.4</ele>
        <time>1970-01-01T00:42:01.000Z</time>
      </trkpt>
      <trkpt lat="43.22089" lon="6.60588">
        <ele>242.3</ele>
        <time>1970-01-01T00:42:02.000Z</time>
      </trkpt>
      <trkpt lat="43.22092" lon="6.60593">
        <ele>241.1</ele>
        <time>1970-01-01T00:42:03.000Z</time>
      </trkpt>
      <trkpt lat="43.22094" lon="6.60598">
        <ele>240</ele>
        <time>1970-01-01T00:42:04.000Z</time>
      </trkpt>
      <trkpt lat="43.22097" lon="6.60601">
        <ele>238.8</ele>
        <time>1970-01-01T00:42:05.000Z</time>
      </trkpt>
      <trkpt lat="43.22102" lon="6.60605">
        <ele>237.6</ele>
        <time>1970-01-01T00:42:06.000Z</time>
      </trkpt>
      <trkpt lat="43.22107" lon="6.60612">
        <ele>236.5</ele>
        <time>1970-01-01T00:42:07.000Z</time>
      </trkpt>
      <trkpt lat="43.22113" lon="6.60618">
        <ele>234.3</ele>
        <time>1970-01-01T00:42:08.000Z</time>
      </trkpt>
      <trkpt lat="43.22119" lon="6.60622">
        <ele>233.2</ele>
        <time>1970-01-01T00:42:09.000Z</time>
      </trkpt>
      <trkpt lat="43.22123" lon="6.60628">
        <ele>232.1</ele>
        <time>1970-01-01T00:42:10.000Z</time>
      </trkpt>
      <trkpt lat="43.2213" lon="6.60629">
        <ele>232.2</ele>
        <time>1970-01-01T00:42:11.000Z</time>
      </trkpt>
      <trkpt lat="43.22138" lon="6.60629">
        <ele>232.4</ele>
        <time>1970-01-01T00:42:12.000Z</time>
      </trkpt>
      <trkpt lat="43.22148" lon="6.60631">
        <ele>231.6</ele>
        <time>1970-01-01T00:42:13.000Z</time>
      </trkpt>
      <trkpt lat="43.22156" lon="6.60631">
        <ele>231.9</ele>
        <time>1970-01-01T00:42:14.000Z</time>
      </trkpt>
      <trkpt lat="43.22163" lon="6.60632">
        <ele>232.5</ele>
        <time>1970-01-01T00:42:15.000Z</time>
      </trkpt>
      <trkpt lat="43.2217" lon="6.60637">
        <ele>231.9</ele>
        <time>1970-01-01T00:42:16.000Z</time>
      </trkpt>
      <trkpt lat="43.22178" lon="6.60638">
        <ele>232.4</ele>
        <time>1970-01-01T00:42:17.000Z</time>
      </trkpt>
      <trkpt lat="43.22187" lon="6.6064">
        <ele>232</ele>
        <time>1970-01-01T00:42:18.000Z</time>
      </trkpt>
      <trkpt lat="43.22195" lon="6.60636">
        <ele>233.7</ele>
        <time>1970-01-01T00:42:19.000Z</time>
      </trkpt>
      <trkpt lat="43.222" lon="6.60635">
        <ele>233.9</ele>
        <time>1970-01-01T00:42:20.000Z</time>
      </trkpt>
      <trkpt lat="43.22206" lon="6.60639">
        <ele>233.5</ele>
        <time>1970-01-01T00:42:21.000Z</time>
      </trkpt>
      <trkpt lat="43.22212" lon="6.60635">
        <ele>234.8</ele>
        <time>1970-01-01T00:42:22.000Z</time>
      </trkpt>
      <trkpt lat="43.22213" lon="6.60637">
        <ele>235</ele>
        <time>1970-01-01T00:42:23.000Z</time>
      </trkpt>
      <trkpt lat="43.22212" lon="6.60641">
        <ele>234.1</ele>
        <time>1970-01-01T00:42:24.000Z</time>
      </trkpt>
      <trkpt lat="43.22207" lon="6.60647">
        <ele>232.3</ele>
        <time>1970-01-01T00:42:25.000Z</time>
      </trkpt>
      <trkpt lat="43.22202" lon="6.60652">
        <ele>231.9</ele>
        <time>1970-01-01T00:42:26.000Z</time>
      </trkpt>
      <trkpt lat="43.22198" lon="6.60655">
        <ele>230.9</ele>
        <time>1970-01-01T00:42:27.000Z</time>
      </trkpt>
      <trkpt lat="43.22196" lon="6.60662">
        <ele>229.1</ele>
        <time>1970-01-01T00:42:28.000Z</time>
      </trkpt>
      <trkpt lat="43.22201" lon="6.60673">
        <ele>228.3</ele>
        <time>1970-01-01T00:42:29.000Z</time>
      </trkpt>
      <trkpt lat="43.22205" lon="6.6068">
        <ele>227</ele>
        <time>1970-01-01T00:42:30.000Z</time>
      </trkpt>
      <trkpt lat="43.22206" lon="6.60687">
        <ele>225.3</ele>
        <time>1970-01-01T00:42:31.000Z</time>
      </trkpt>
      <trkpt lat="43.22208" lon="6.60693">
        <ele>224.8</ele>
        <time>1970-01-01T00:42:32.000Z</time>
      </trkpt>
      <trkpt lat="43.22211" lon="6.60699">
        <ele>224.4</ele>
        <time>1970-01-01T00:42:33.000Z</time>
      </trkpt>
      <trkpt lat="43.22213" lon="6.60704">
        <ele>223.1</ele>
        <time>1970-01-01T00:42:34.000Z</time>
      </trkpt>
      <trkpt lat="43.22218" lon="6.60708">
        <ele>222.7</ele>
        <time>1970-01-01T00:42:35.000Z</time>
      </trkpt>
      <trkpt lat="43.22222" lon="6.60713">
        <ele>222.3</ele>
        <time>1970-01-01T00:42:36.000Z</time>
      </trkpt>
      <trkpt lat="43.22225" lon="6.60717">
        <ele>222.1</ele>
        <time>1970-01-01T00:42:37.000Z</time>
      </trkpt>
      <trkpt lat="43.22227" lon="6.60722">
        <ele>221.3</ele>
        <time>1970-01-01T00:42:38.000Z</time>
      </trkpt>
      <trkpt lat="43.22228" lon="6.60726">
        <ele>220.5</ele>
        <time>1970-01-01T00:42:39.000Z</time>
      </trkpt>
      <trkpt lat="43.22229" lon="6.60732">
        <ele>220</ele>
        <time>1970-01-01T00:42:40.000Z</time>
      </trkpt>
      <trkpt lat="43.22227" lon="6.60739">
        <ele>218.2</ele>
        <time>1970-01-01T00:42:41.000Z</time>
      </trkpt>
      <trkpt lat="43.22224" lon="6.60746">
        <ele>216.5</ele>
        <time>1970-01-01T00:42:42.000Z</time>
      </trkpt>
      <trkpt lat="43.22223" lon="6.60753">
        <ele>215.8</ele>
        <time>1970-01-01T00:42:43.000Z</time>
      </trkpt>
      <trkpt lat="43.22222" lon="6.60759">
        <ele>214</ele>
        <time>1970-01-01T00:42:44.000Z</time>
      </trkpt>
      <trkpt lat="43.22222" lon="6.60766">
        <ele>213.3</ele>
        <time>1970-01-01T00:42:45.000Z</time>
      </trkpt>
      <trkpt lat="43.22222" lon="6.60773">
        <ele>211.8</ele>
        <time>1970-01-01T00:42:46.000Z</time>
      </trkpt>
      <trkpt lat="43.22222" lon="6.60778">
        <ele>211</ele>
        <time>1970-01-01T00:42:47.000Z</time>
      </trkpt>
      <trkpt lat="43.22222" lon="6.60785">
        <ele>209.4</ele>
        <time>1970-01-01T00:42:48.000Z</time>
      </trkpt>
      <trkpt lat="43.22223" lon="6.60793">
        <ele>209</ele>
        <time>1970-01-01T00:42:49.000Z</time>
      </trkpt>
      <trkpt lat="43.22223" lon="6.608">
        <ele>207.6</ele>
        <time>1970-01-01T00:42:50.000Z</time>
      </trkpt>
      <trkpt lat="43.22223" lon="6.60809">
        <ele>206.1</ele>
        <time>1970-01-01T00:42:51.000Z</time>
      </trkpt>
      <trkpt lat="43.22228" lon="6.60821">
        <ele>203.9</ele>
        <time>1970-01-01T00:42:52.000Z</time>
      </trkpt>
      <trkpt lat="43.22235" lon="6.60829">
        <ele>202.7</ele>
        <time>1970-01-01T00:42:53.000Z</time>
      </trkpt>
      <trkpt lat="43.2224" lon="6.60838">
        <ele>201.4</ele>
        <time>1970-01-01T00:42:54.000Z</time>
      </trkpt>
      <trkpt lat="43.22245" lon="6.60846">
        <ele>199.8</ele>
        <time>1970-01-01T00:42:55.000Z</time>
      </trkpt>
      <trkpt lat="43.2225" lon="6.60852">
        <ele>198.8</ele>
        <time>1970-01-01T00:42:56.000Z</time>
      </trkpt>
      <trkpt lat="43.22255" lon="6.60851">
        <ele>198.7</ele>
        <time>1970-01-01T00:42:57.000Z</time>
      </trkpt>
      <trkpt lat="43.22263" lon="6.6085">
        <ele>198.4</ele>
        <time>1970-01-01T00:42:58.000Z</time>
      </trkpt>
      <trkpt lat="43.22271" lon="6.6085">
        <ele>197.8</ele>
        <time>1970-01-01T00:42:59.000Z</time>
      </trkpt>
      <trkpt lat="43.22277" lon="6.60848">
        <ele>198.3</ele>
        <time>1970-01-01T00:43:00.000Z</time>
      </trkpt>
      <trkpt lat="43.22282" lon="6.60842">
        <ele>198.6</ele>
        <time>1970-01-01T00:43:01.000Z</time>
      </trkpt>
      <trkpt lat="43.22287" lon="6.60838">
        <ele>199.2</ele>
        <time>1970-01-01T00:43:02.000Z</time>
      </trkpt>
      <trkpt lat="43.22292" lon="6.60835">
        <ele>199.3</ele>
        <time>1970-01-01T00:43:03.000Z</time>
      </trkpt>
      <trkpt lat="43.22299" lon="6.60838">
        <ele>197.6</ele>
        <time>1970-01-01T00:43:04.000Z</time>
      </trkpt>
      <trkpt lat="43.22306" lon="6.60841">
        <ele>195.8</ele>
        <time>1970-01-01T00:43:05.000Z</time>
      </trkpt>
      <trkpt lat="43.22314" lon="6.60837">
        <ele>195.1</ele>
        <time>1970-01-01T00:43:06.000Z</time>
      </trkpt>
      <trkpt lat="43.22318" lon="6.60833">
        <ele>195.5</ele>
        <time>1970-01-01T00:43:07.000Z</time>
      </trkpt>
      <trkpt lat="43.22321" lon="6.60837">
        <ele>194.2</ele>
        <time>1970-01-01T00:43:08.000Z</time>
      </trkpt>
      <trkpt lat="43.22322" lon="6.60839">
        <ele>194.2</ele>
        <time>1970-01-01T00:43:09.000Z</time>
      </trkpt>
      <trkpt lat="43.22328" lon="6.60838">
        <ele>193.1</ele>
        <time>1970-01-01T00:43:10.000Z</time>
      </trkpt>
      <trkpt lat="43.22334" lon="6.60838">
        <ele>191.8</ele>
        <time>1970-01-01T00:43:11.000Z</time>
      </trkpt>
      <trkpt lat="43.22338" lon="6.60841">
        <ele>189.7</ele>
        <time>1970-01-01T00:43:12.000Z</time>
      </trkpt>
      <trkpt lat="43.22345" lon="6.60837">
        <ele>189.5</ele>
        <time>1970-01-01T00:43:13.000Z</time>
      </trkpt>
      <trkpt lat="43.22352" lon="6.60837">
        <ele>188.4</ele>
        <time>1970-01-01T00:43:14.000Z</time>
      </trkpt>
      <trkpt lat="43.22358" lon="6.60839">
        <ele>187.3</ele>
        <time>1970-01-01T00:43:15.000Z</time>
      </trkpt>
      <trkpt lat="43.22359" lon="6.60844">
        <ele>186.5</ele>
        <time>1970-01-01T00:43:16.000Z</time>
      </trkpt>
      <trkpt lat="43.22359" lon="6.60847">
        <ele>185.6</ele>
        <time>1970-01-01T00:43:17.000Z</time>
      </trkpt>
      <trkpt lat="43.2236" lon="6.60855">
        <ele>183.3</ele>
        <time>1970-01-01T00:43:18.000Z</time>
      </trkpt>
      <trkpt lat="43.22361" lon="6.60862">
        <ele>182.3</ele>
        <time>1970-01-01T00:43:19.000Z</time>
      </trkpt>
      <trkpt lat="43.22362" lon="6.60866">
        <ele>181.3</ele>
        <time>1970-01-01T00:43:20.000Z</time>
      </trkpt>
      <trkpt lat="43.22358" lon="6.60867">
        <ele>180.8</ele>
        <time>1970-01-01T00:43:21.000Z</time>
      </trkpt>
      <trkpt lat="43.22356" lon="6.60867">
        <ele>181.3</ele>
        <time>1970-01-01T00:43:22.000Z</time>
      </trkpt>
      <trkpt lat="43.22354" lon="6.60869">
        <ele>181.4</ele>
        <time>1970-01-01T00:43:23.000Z</time>
      </trkpt>
      <trkpt lat="43.22357" lon="6.60871">
        <ele>179.9</ele>
        <time>1970-01-01T00:43:24.000Z</time>
      </trkpt>
      <trkpt lat="43.22359" lon="6.60872">
        <ele>179.9</ele>
        <time>1970-01-01T00:43:25.000Z</time>
      </trkpt>
      <trkpt lat="43.2236" lon="6.60878">
        <ele>178.5</ele>
        <time>1970-01-01T00:43:26.000Z</time>
      </trkpt>
      <trkpt lat="43.2236" lon="6.60882">
        <ele>178</ele>
        <time>1970-01-01T00:43:27.000Z</time>
      </trkpt>
      <trkpt lat="43.22365" lon="6.60883">
        <ele>177.2</ele>
        <time>1970-01-01T00:43:28.000Z</time>
      </trkpt>
      <trkpt lat="43.22371" lon="6.60887">
        <ele>175.6</ele>
        <time>1970-01-01T00:43:29.000Z</time>
      </trkpt>
      <trkpt lat="43.22373" lon="6.60891">
        <ele>174.4</ele>
        <time>1970-01-01T00:43:30.000Z</time>
      </trkpt>
      <trkpt lat="43.22368" lon="6.60897">
        <ele>173</ele>
        <time>1970-01-01T00:43:31.000Z</time>
      </trkpt>
      <trkpt lat="43.22362" lon="6.609">
        <ele>173.7</ele>
        <time>1970-01-01T00:43:32.000Z</time>
      </trkpt>
      <trkpt lat="43.22356" lon="6.60903">
        <ele>173.5</ele>
        <time>1970-01-01T00:43:33.000Z</time>
      </trkpt>
      <trkpt lat="43.22351" lon="6.60911">
        <ele>171.6</ele>
        <time>1970-01-01T00:43:34.000Z</time>
      </trkpt>
      <trkpt lat="43.22345" lon="6.60915">
        <ele>171.3</ele>
        <time>1970-01-01T00:43:35.000Z</time>
      </trkpt>
      <trkpt lat="43.22343" lon="6.60919">
        <ele>170.5</ele>
        <time>1970-01-01T00:43:36.000Z</time>
      </trkpt>
      <trkpt lat="43.22348" lon="6.60928">
        <ele>167.5</ele>
        <time>1970-01-01T00:43:37.000Z</time>
      </trkpt>
      <trkpt lat="43.22356" lon="6.60933">
        <ele>165.9</ele>
        <time>1970-01-01T00:43:38.000Z</time>
      </trkpt>
      <trkpt lat="43.22361" lon="6.60941">
        <ele>163.4</ele>
        <time>1970-01-01T00:43:39.000Z</time>
      </trkpt>
      <trkpt lat="43.22366" lon="6.60944">
        <ele>162.2</ele>
        <time>1970-01-01T00:43:40.000Z</time>
      </trkpt>
      <trkpt lat="43.22369" lon="6.60948">
        <ele>162.1</ele>
        <time>1970-01-01T00:43:41.000Z</time>
      </trkpt>
      <trkpt lat="43.22366" lon="6.60954">
        <ele>160.1</ele>
        <time>1970-01-01T00:43:42.000Z</time>
      </trkpt>
      <trkpt lat="43.22362" lon="6.60956">
        <ele>159.6</ele>
        <time>1970-01-01T00:43:43.000Z</time>
      </trkpt>
      <trkpt lat="43.22358" lon="6.60961">
        <ele>158.9</ele>
        <time>1970-01-01T00:43:44.000Z</time>
      </trkpt>
      <trkpt lat="43.22358" lon="6.60967">
        <ele>158</ele>
        <time>1970-01-01T00:43:45.000Z</time>
      </trkpt>
      <trkpt lat="43.22362" lon="6.6097">
        <ele>156.9</ele>
        <time>1970-01-01T00:43:46.000Z</time>
      </trkpt>
      <trkpt lat="43.22367" lon="6.60969">
        <ele>157.5</ele>
        <time>1970-01-01T00:43:47.000Z</time>
      </trkpt>
      <trkpt lat="43.22368" lon="6.60973">
        <ele>156.7</ele>
        <time>1970-01-01T00:43:48.000Z</time>
      </trkpt>
      <trkpt lat="43.22367" lon="6.60975">
        <ele>155.9</ele>
        <time>1970-01-01T00:43:49.000Z</time>
      </trkpt>
      <trkpt lat="43.22364" lon="6.60981">
        <ele>155.2</ele>
        <time>1970-01-01T00:43:50.000Z</time>
      </trkpt>
      <trkpt lat="43.2236" lon="6.60988">
        <ele>153.6</ele>
        <time>1970-01-01T00:43:51.000Z</time>
      </trkpt>
      <trkpt lat="43.22362" lon="6.60995">
        <ele>151.9</ele>
        <time>1970-01-01T00:43:52.000Z</time>
      </trkpt>
      <trkpt lat="43.22364" lon="6.61">
        <ele>151</ele>
        <time>1970-01-01T00:43:53.000Z</time>
      </trkpt>
      <trkpt lat="43.22367" lon="6.61004">
        <ele>150.3</ele>
        <time>1970-01-01T00:43:54.000Z</time>
      </trkpt>
      <trkpt lat="43.22368" lon="6.6101">
        <ele>149.6</ele>
        <time>1970-01-01T00:43:55.000Z</time>
      </trkpt>
      <trkpt lat="43.22373" lon="6.61013">
        <ele>149.2</ele>
        <time>1970-01-01T00:43:56.000Z</time>
      </trkpt>
      <trkpt lat="43.22379" lon="6.61013">
        <ele>149.4</ele>
        <time>1970-01-01T00:43:57.000Z</time>
      </trkpt>
      <trkpt lat="43.22383" lon="6.6101">
        <ele>150.2</ele>
        <time>1970-01-01T00:43:58.000Z</time>
      </trkpt>
      <trkpt lat="43.22385" lon="6.61009">
        <ele>150.4</ele>
        <time>1970-01-01T00:43:59.000Z</time>
      </trkpt>
      <trkpt lat="43.22386" lon="6.61009">
        <ele>150.4</ele>
        <time>1970-01-01T00:44:00.000Z</time>
      </trkpt>
      <trkpt lat="43.22388" lon="6.61009">
        <ele>150.5</ele>
        <time>1970-01-01T00:44:01.000Z</time>
      </trkpt>
      <trkpt lat="43.22388" lon="6.61009">
        <ele>150.6</ele>
        <time>1970-01-01T00:44:02.000Z</time>
      </trkpt>
      <trkpt lat="43.22389" lon="6.61011">
        <ele>150.7</ele>
        <time>1970-01-01T00:44:03.000Z</time>
      </trkpt>
      <trkpt lat="43.22389" lon="6.61013">
        <ele>150.1</ele>
        <time>1970-01-01T00:44:04.000Z</time>
      </trkpt>
      <trkpt lat="43.22388" lon="6.61014">
        <ele>150.2</ele>
        <time>1970-01-01T00:44:05.000Z</time>
      </trkpt>
      <trkpt lat="43.22388" lon="6.61015">
        <ele>150.1</ele>
        <time>1970-01-01T00:44:06.000Z</time>
      </trkpt>
      <trkpt lat="43.22388" lon="6.6102">
        <ele>149.5</ele>
        <time>1970-01-01T00:44:07.000Z</time>
      </trkpt>
      <trkpt lat="43.22388" lon="6.61021">
        <ele>149.2</ele>
        <time>1970-01-01T00:44:08.000Z</time>
      </trkpt>
      <trkpt lat="43.2239" lon="6.61023">
        <ele>149.2</ele>
        <time>1970-01-01T00:44:09.000Z</time>
      </trkpt>
      <trkpt lat="43.22391" lon="6.61025">
        <ele>149.3</ele>
        <time>1970-01-01T00:44:10.000Z</time>
      </trkpt>
      <trkpt lat="43.22393" lon="6.61028">
        <ele>148.9</ele>
        <time>1970-01-01T00:44:11.000Z</time>
      </trkpt>
      <trkpt lat="43.22395" lon="6.6103">
        <ele>148.6</ele>
        <time>1970-01-01T00:44:12.000Z</time>
      </trkpt>
      <trkpt lat="43.22397" lon="6.61032">
        <ele>148.7</ele>
        <time>1970-01-01T00:44:13.000Z</time>
      </trkpt>
      <trkpt lat="43.224" lon="6.61034">
        <ele>148.4</ele>
        <time>1970-01-01T00:44:14.000Z</time>
      </trkpt>
      <trkpt lat="43.224" lon="6.61035">
        <ele>148.4</ele>
        <time>1970-01-01T00:44:15.000Z</time>
      </trkpt>
      <trkpt lat="43.22401" lon="6.61036">
        <ele>148.7</ele>
        <time>1970-01-01T00:44:16.000Z</time>
      </trkpt>
      <trkpt lat="43.22403" lon="6.61037">
        <ele>148.8</ele>
        <time>1970-01-01T00:44:17.000Z</time>
      </trkpt>
      <trkpt lat="43.22407" lon="6.61036">
        <ele>149.1</ele>
        <time>1970-01-01T00:44:18.000Z</time>
      </trkpt>
      <trkpt lat="43.22408" lon="6.61036">
        <ele>149.4</ele>
        <time>1970-01-01T00:44:19.000Z</time>
      </trkpt>
      <trkpt lat="43.2241" lon="6.61034">
        <ele>149.7</ele>
        <time>1970-01-01T00:44:20.000Z</time>
      </trkpt>
      <trkpt lat="43.22413" lon="6.61034">
        <ele>150.2</ele>
        <time>1970-01-01T00:44:21.000Z</time>
      </trkpt>
      <trkpt lat="43.22414" lon="6.61032">
        <ele>149.9</ele>
        <time>1970-01-01T00:44:22.000Z</time>
      </trkpt>
      <trkpt lat="43.22414" lon="6.61033">
        <ele>149.8</ele>
        <time>1970-01-01T00:44:23.000Z</time>
      </trkpt>
      <trkpt lat="43.22415" lon="6.61032">
        <ele>149.7</ele>
        <time>1970-01-01T00:44:24.000Z</time>
      </trkpt>
      <trkpt lat="43.22415" lon="6.61033">
        <ele>149.7</ele>
        <time>1970-01-01T00:44:25.000Z</time>
      </trkpt>
      <trkpt lat="43.22415" lon="6.61033">
        <ele>149.6</ele>
        <time>1970-01-01T00:44:26.000Z</time>
      </trkpt>
      <trkpt lat="43.22415" lon="6.61033">
        <ele>149.6</ele>
        <time>1970-01-01T00:44:27.000Z</time>
      </trkpt>
      <trkpt lat="43.22416" lon="6.61034">
        <ele>149.6</ele>
        <time>1970-01-01T00:44:28.000Z</time>
      </trkpt>
      <trkpt lat="43.22416" lon="6.61033">
        <ele>149.6</ele>
        <time>1970-01-01T00:44:29.000Z</time>
      </trkpt>
      <trkpt lat="43.22416" lon="6.61032">
        <ele>149.5</ele>
        <time>1970-01-01T00:44:30.000Z</time>
      </trkpt>
      <trkpt lat="43.22416" lon="6.61032">
        <ele>149.4</ele>
        <time>1970-01-01T00:44:31.000Z</time>
      </trkpt>
      <trkpt lat="43.22417" lon="6.61031">
        <ele>149.2</ele>
        <time>1970-01-01T00:44:35.000Z</time>
      </trkpt>
      <trkpt lat="43.22418" lon="6.61031">
        <ele>149.1</ele>
        <time>1970-01-01T00:44:36.000Z</time>
      </trkpt>
      <trkpt lat="43.2242" lon="6.61033">
        <ele>148.8</ele>
        <time>1970-01-01T00:44:37.000Z</time>
      </trkpt>
      <trkpt lat="43.2242" lon="6.61033">
        <ele>148.7</ele>
        <time>1970-01-01T00:44:38.000Z</time>
      </trkpt>
      <trkpt lat="43.2242" lon="6.61034">
        <ele>148.6</ele>
        <time>1970-01-01T00:44:39.000Z</time>
      </trkpt>
      <trkpt lat="43.2242" lon="6.61036">
        <ele>148.5</ele>
        <time>1970-01-01T00:44:40.000Z</time>
      </trkpt>
      <trkpt lat="43.22419" lon="6.61037">
        <ele>148.3</ele>
        <time>1970-01-01T00:44:41.000Z</time>
      </trkpt>
      <trkpt lat="43.22418" lon="6.61039">
        <ele>148.1</ele>
        <time>1970-01-01T00:44:42.000Z</time>
      </trkpt>
      <trkpt lat="43.22418" lon="6.6104">
        <ele>148</ele>
        <time>1970-01-01T00:44:43.000Z</time>
      </trkpt>
      <trkpt lat="43.22418" lon="6.61041">
        <ele>147.9</ele>
        <time>1970-01-01T00:44:44.000Z</time>
      </trkpt>
      <trkpt lat="43.22417" lon="6.61042">
        <ele>147.8</ele>
        <time>1970-01-01T00:44:45.000Z</time>
      </trkpt>
      <trkpt lat="43.22415" lon="6.61045">
        <ele>147.5</ele>
        <time>1970-01-01T00:44:46.000Z</time>
      </trkpt>
      <trkpt lat="43.22412" lon="6.61048">
        <ele>147</ele>
        <time>1970-01-01T00:44:47.000Z</time>
      </trkpt>
      <trkpt lat="43.22409" lon="6.61052">
        <ele>146.5</ele>
        <time>1970-01-01T00:44:48.000Z</time>
      </trkpt>
      <trkpt lat="43.22405" lon="6.61057">
        <ele>145.9</ele>
        <time>1970-01-01T00:44:49.000Z</time>
      </trkpt>
      <trkpt lat="43.22401" lon="6.61061">
        <ele>145.2</ele>
        <time>1970-01-01T00:44:50.000Z</time>
      </trkpt>
      <trkpt lat="43.22397" lon="6.61066">
        <ele>144.6</ele>
        <time>1970-01-01T00:44:51.000Z</time>
      </trkpt>
      <trkpt lat="43.22392" lon="6.61072">
        <ele>143.9</ele>
        <time>1970-01-01T00:44:52.000Z</time>
      </trkpt>
      <trkpt lat="43.22388" lon="6.6108">
        <ele>143.1</ele>
        <time>1970-01-01T00:44:53.000Z</time>
      </trkpt>
      <trkpt lat="43.22383" lon="6.61088">
        <ele>142.4</ele>
        <time>1970-01-01T00:44:54.000Z</time>
      </trkpt>
      <trkpt lat="43.22379" lon="6.61097">
        <ele>141.8</ele>
        <time>1970-01-01T00:44:55.000Z</time>
      </trkpt>
      <trkpt lat="43.22375" lon="6.61106">
        <ele>141.1</ele>
        <time>1970-01-01T00:44:56.000Z</time>
      </trkpt>
      <trkpt lat="43.22372" lon="6.61117">
        <ele>140.5</ele>
        <time>1970-01-01T00:44:57.000Z</time>
      </trkpt>
      <trkpt lat="43.22371" lon="6.61129">
        <ele>139.9</ele>
        <time>1970-01-01T00:44:58.000Z</time>
      </trkpt>
      <trkpt lat="43.22372" lon="6.61141">
        <ele>139.3</ele>
        <time>1970-01-01T00:44:59.000Z</time>
      </trkpt>
      <trkpt lat="43.22374" lon="6.61153">
        <ele>138.7</ele>
        <time>1970-01-01T00:45:00.000Z</time>
      </trkpt>
      <trkpt lat="43.22381" lon="6.6116">
        <ele>138.1</ele>
        <time>1970-01-01T00:45:01.000Z</time>
      </trkpt>
      <trkpt lat="43.2239" lon="6.61164">
        <ele>137.3</ele>
        <time>1970-01-01T00:45:02.000Z</time>
      </trkpt>
      <trkpt lat="43.22399" lon="6.6117">
        <ele>136.2</ele>
        <time>1970-01-01T00:45:03.000Z</time>
      </trkpt>
      <trkpt lat="43.22407" lon="6.61178">
        <ele>135.2</ele>
        <time>1970-01-01T00:45:04.000Z</time>
      </trkpt>
      <trkpt lat="43.22412" lon="6.61187">
        <ele>134.3</ele>
        <time>1970-01-01T00:45:05.000Z</time>
      </trkpt>
      <trkpt lat="43.22417" lon="6.612">
        <ele>133.3</ele>
        <time>1970-01-01T00:45:06.000Z</time>
      </trkpt>
      <trkpt lat="43.22419" lon="6.61215">
        <ele>131.9</ele>
        <time>1970-01-01T00:45:07.000Z</time>
      </trkpt>
      <trkpt lat="43.22421" lon="6.61228">
        <ele>130.7</ele>
        <time>1970-01-01T00:45:08.000Z</time>
      </trkpt>
      <trkpt lat="43.2242" lon="6.61239">
        <ele>129.8</ele>
        <time>1970-01-01T00:45:09.000Z</time>
      </trkpt>
      <trkpt lat="43.22416" lon="6.61248">
        <ele>129</ele>
        <time>1970-01-01T00:45:10.000Z</time>
      </trkpt>
      <trkpt lat="43.22408" lon="6.61253">
        <ele>128.1</ele>
        <time>1970-01-01T00:45:11.000Z</time>
      </trkpt>
      <trkpt lat="43.22405" lon="6.61259">
        <ele>127.6</ele>
        <time>1970-01-01T00:45:12.000Z</time>
      </trkpt>
      <trkpt lat="43.22404" lon="6.61264">
        <ele>126.3</ele>
        <time>1970-01-01T00:45:13.000Z</time>
      </trkpt>
      <trkpt lat="43.22402" lon="6.61267">
        <ele>125</ele>
        <time>1970-01-01T00:45:14.000Z</time>
      </trkpt>
      <trkpt lat="43.22401" lon="6.61272">
        <ele>123.7</ele>
        <time>1970-01-01T00:45:15.000Z</time>
      </trkpt>
      <trkpt lat="43.22401" lon="6.61274">
        <ele>122.8</ele>
        <time>1970-01-01T00:45:16.000Z</time>
      </trkpt>
      <trkpt lat="43.224" lon="6.61277">
        <ele>121.5</ele>
        <time>1970-01-01T00:45:17.000Z</time>
      </trkpt>
      <trkpt lat="43.224" lon="6.61279">
        <ele>120.3</ele>
        <time>1970-01-01T00:45:18.000Z</time>
      </trkpt>
      <trkpt lat="43.224" lon="6.61282">
        <ele>119.4</ele>
        <time>1970-01-01T00:45:19.000Z</time>
      </trkpt>
      <trkpt lat="43.22401" lon="6.61287">
        <ele>117.9</ele>
        <time>1970-01-01T00:45:20.000Z</time>
      </trkpt>
      <trkpt lat="43.22401" lon="6.61289">
        <ele>117.9</ele>
        <time>1970-01-01T00:45:21.000Z</time>
      </trkpt>
      <trkpt lat="43.22403" lon="6.61289">
        <ele>117.9</ele>
        <time>1970-01-01T00:45:22.000Z</time>
      </trkpt>
      <trkpt lat="43.22402" lon="6.61288">
        <ele>117.9</ele>
        <time>1970-01-01T00:45:23.000Z</time>
      </trkpt>
      <trkpt lat="43.22402" lon="6.61288">
        <ele>117.9</ele>
        <time>1970-01-01T00:45:24.000Z</time>
      </trkpt>
      <trkpt lat="43.22402" lon="6.61289">
        <ele>117.9</ele>
        <time>1970-01-01T00:45:25.000Z</time>
      </trkpt>
      <trkpt lat="43.22402" lon="6.61289">
        <ele>118</ele>
        <time>1970-01-01T00:45:26.000Z</time>
      </trkpt>
      <trkpt lat="43.22402" lon="6.6129">
        <ele>118</ele>
        <time>1970-01-01T00:45:27.000Z</time>
      </trkpt>
      <trkpt lat="43.22404" lon="6.6129">
        <ele>118</ele>
        <time>1970-01-01T00:45:28.000Z</time>
      </trkpt>
      <trkpt lat="43.22405" lon="6.61289">
        <ele>118</ele>
        <time>1970-01-01T00:45:29.000Z</time>
      </trkpt>
      <trkpt lat="43.22405" lon="6.61289">
        <ele>118</ele>
        <time>1970-01-01T00:45:30.000Z</time>
      </trkpt>
      <trkpt lat="43.22405" lon="6.61288">
        <ele>118</ele>
        <time>1970-01-01T00:45:31.000Z</time>
      </trkpt>
      <trkpt lat="43.22405" lon="6.61288">
        <ele>118</ele>
        <time>1970-01-01T00:45:32.000Z</time>
      </trkpt>
      <trkpt lat="43.22406" lon="6.61288">
        <ele>118</ele>
        <time>1970-01-01T00:45:33.000Z</time>
      </trkpt>
      <trkpt lat="43.22406" lon="6.61288">
        <ele>118</ele>
        <time>1970-01-01T00:45:34.000Z</time>
      </trkpt>
      <trkpt lat="43.22406" lon="6.61287">
        <ele>118</ele>
        <time>1970-01-01T00:45:35.000Z</time>
      </trkpt>
      <trkpt lat="43.22407" lon="6.61287">
        <ele>118</ele>
        <time>1970-01-01T00:45:36.000Z</time>
      </trkpt>
      <trkpt lat="43.22407" lon="6.61287">
        <ele>118</ele>
        <time>1970-01-01T00:45:37.000Z</time>
      </trkpt>
      <trkpt lat="43.22407" lon="6.61287">
        <ele>118</ele>
        <time>1970-01-01T00:45:38.000Z</time>
      </trkpt>
      <trkpt lat="43.22409" lon="6.61283">
        <ele>118</ele>
        <time>1970-01-01T00:46:05.000Z</time>
      </trkpt>
      <trkpt lat="43.22409" lon="6.61283">
        <ele>118.1</ele>
        <time>1970-01-01T00:46:06.000Z</time>
      </trkpt>
      <trkpt lat="43.22409" lon="6.61283">
        <ele>118.1</ele>
        <time>1970-01-01T00:46:07.000Z</time>
      </trkpt>
      <trkpt lat="43.2241" lon="6.61283">
        <ele>118.1</ele>
        <time>1970-01-01T00:46:08.000Z</time>
      </trkpt>
      <trkpt lat="43.2241" lon="6.61282">
        <ele>118.1</ele>
        <time>1970-01-01T00:46:09.000Z</time>
      </trkpt>
      <trkpt lat="43.2241" lon="6.61282">
        <ele>118.1</ele>
        <time>1970-01-01T00:46:10.000Z</time>
      </trkpt>
      <trkpt lat="43.2241" lon="6.61282">
        <ele>118.1</ele>
        <time>1970-01-01T00:46:11.000Z</time>
      </trkpt>
      <trkpt lat="43.2241" lon="6.61282">
        <ele>118.1</ele>
        <time>1970-01-01T00:46:12.000Z</time>
      </trkpt>
      <trkpt lat="43.22409" lon="6.61283">
        <ele>118.1</ele>
        <time>1970-01-01T00:46:13.000Z</time>
      </trkpt>
      <trkpt lat="43.22409" lon="6.61283">
        <ele>118.1</ele>
        <time>1970-01-01T00:46:14.000Z</time>
      </trkpt>
      <trkpt lat="43.22407" lon="6.61276">
        <ele>118.1</ele>
        <time>1970-01-01T00:46:27.000Z</time>
      </trkpt>
      <trkpt lat="43.22404" lon="6.61272">
        <ele>118.2</ele>
        <time>1970-01-01T00:46:28.000Z</time>
      </trkpt>
      <trkpt lat="43.224" lon="6.61269">
        <ele>118.2</ele>
        <time>1970-01-01T00:46:29.000Z</time>
      </trkpt>
      <trkpt lat="43.22395" lon="6.61267">
        <ele>118.4</ele>
        <time>1970-01-01T00:46:30.000Z</time>
      </trkpt>
      <trkpt lat="43.22389" lon="6.61264">
        <ele>118.5</ele>
        <time>1970-01-01T00:46:31.000Z</time>
      </trkpt>
      <trkpt lat="43.22383" lon="6.6126">
        <ele>118.6</ele>
        <time>1970-01-01T00:46:32.000Z</time>
      </trkpt>
      <trkpt lat="43.22376" lon="6.61257">
        <ele>118.7</ele>
        <time>1970-01-01T00:46:33.000Z</time>
      </trkpt>
      <trkpt lat="43.2237" lon="6.61253">
        <ele>118.8</ele>
        <time>1970-01-01T00:46:34.000Z</time>
      </trkpt>
      <trkpt lat="43.22363" lon="6.6125">
        <ele>118.7</ele>
        <time>1970-01-01T00:46:35.000Z</time>
      </trkpt>
      <trkpt lat="43.22355" lon="6.61248">
        <ele>118.5</ele>
        <time>1970-01-01T00:46:36.000Z</time>
      </trkpt>
      <trkpt lat="43.22346" lon="6.61246">
        <ele>118.1</ele>
        <time>1970-01-01T00:46:37.000Z</time>
      </trkpt>
      <trkpt lat="43.22338" lon="6.61245">
        <ele>117.7</ele>
        <time>1970-01-01T00:46:38.000Z</time>
      </trkpt>
      <trkpt lat="43.22328" lon="6.61245">
        <ele>117.2</ele>
        <time>1970-01-01T00:46:39.000Z</time>
      </trkpt>
      <trkpt lat="43.22319" lon="6.61244">
        <ele>116.6</ele>
        <time>1970-01-01T00:46:40.000Z</time>
      </trkpt>
      <trkpt lat="43.22309" lon="6.61242">
        <ele>116</ele>
        <time>1970-01-01T00:46:41.000Z</time>
      </trkpt>
      <trkpt lat="43.223" lon="6.61239">
        <ele>115.3</ele>
        <time>1970-01-01T00:46:42.000Z</time>
      </trkpt>
      <trkpt lat="43.22291" lon="6.61231">
        <ele>114.4</ele>
        <time>1970-01-01T00:46:43.000Z</time>
      </trkpt>
      <trkpt lat="43.22283" lon="6.61223">
        <ele>113.6</ele>
        <time>1970-01-01T00:46:44.000Z</time>
      </trkpt>
      <trkpt lat="43.22273" lon="6.61213">
        <ele>112.6</ele>
        <time>1970-01-01T00:46:45.000Z</time>
      </trkpt>
      <trkpt lat="43.22264" lon="6.61204">
        <ele>111.8</ele>
        <time>1970-01-01T00:46:46.000Z</time>
      </trkpt>
      <trkpt lat="43.22253" lon="6.61197">
        <ele>111</ele>
        <time>1970-01-01T00:46:47.000Z</time>
      </trkpt>
      <trkpt lat="43.22242" lon="6.61193">
        <ele>110.3</ele>
        <time>1970-01-01T00:46:48.000Z</time>
      </trkpt>
      <trkpt lat="43.22229" lon="6.61191">
        <ele>109.6</ele>
        <time>1970-01-01T00:46:49.000Z</time>
      </trkpt>
      <trkpt lat="43.22216" lon="6.61193">
        <ele>109.1</ele>
        <time>1970-01-01T00:46:50.000Z</time>
      </trkpt>
      <trkpt lat="43.22205" lon="6.61199">
        <ele>108.7</ele>
        <time>1970-01-01T00:46:51.000Z</time>
      </trkpt>
      <trkpt lat="43.22194" lon="6.61206">
        <ele>108.5</ele>
        <time>1970-01-01T00:46:52.000Z</time>
      </trkpt>
      <trkpt lat="43.22182" lon="6.61208">
        <ele>108.4</ele>
        <time>1970-01-01T00:46:53.000Z</time>
      </trkpt>
      <trkpt lat="43.22171" lon="6.61214">
        <ele>108.3</ele>
        <time>1970-01-01T00:46:54.000Z</time>
      </trkpt>
      <trkpt lat="43.22161" lon="6.61219">
        <ele>108.3</ele>
        <time>1970-01-01T00:46:55.000Z</time>
      </trkpt>
      <trkpt lat="43.22151" lon="6.61224">
        <ele>108.3</ele>
        <time>1970-01-01T00:46:56.000Z</time>
      </trkpt>
      <trkpt lat="43.22142" lon="6.61228">
        <ele>108.5</ele>
        <time>1970-01-01T00:46:57.000Z</time>
      </trkpt>
      <trkpt lat="43.22134" lon="6.61236">
        <ele>108.8</ele>
        <time>1970-01-01T00:46:58.000Z</time>
      </trkpt>
      <trkpt lat="43.22127" lon="6.61248">
        <ele>109.2</ele>
        <time>1970-01-01T00:46:59.000Z</time>
      </trkpt>
      <trkpt lat="43.22121" lon="6.61259">
        <ele>109.6</ele>
        <time>1970-01-01T00:47:00.000Z</time>
      </trkpt>
      <trkpt lat="43.22115" lon="6.61273">
        <ele>110.1</ele>
        <time>1970-01-01T00:47:01.000Z</time>
      </trkpt>
      <trkpt lat="43.2211" lon="6.61289">
        <ele>110.6</ele>
        <time>1970-01-01T00:47:02.000Z</time>
      </trkpt>
      <trkpt lat="43.22105" lon="6.61303">
        <ele>111.2</ele>
        <time>1970-01-01T00:47:03.000Z</time>
      </trkpt>
      <trkpt lat="43.22099" lon="6.61317">
        <ele>111.7</ele>
        <time>1970-01-01T00:47:04.000Z</time>
      </trkpt>
      <trkpt lat="43.22092" lon="6.61329">
        <ele>112.2</ele>
        <time>1970-01-01T00:47:05.000Z</time>
      </trkpt>
      <trkpt lat="43.22084" lon="6.6134">
        <ele>112.7</ele>
        <time>1970-01-01T00:47:06.000Z</time>
      </trkpt>
      <trkpt lat="43.22075" lon="6.61349">
        <ele>113.2</ele>
        <time>1970-01-01T00:47:07.000Z</time>
      </trkpt>
      <trkpt lat="43.22065" lon="6.61355">
        <ele>113.6</ele>
        <time>1970-01-01T00:47:08.000Z</time>
      </trkpt>
      <trkpt lat="43.22055" lon="6.61358">
        <ele>113.9</ele>
        <time>1970-01-01T00:47:09.000Z</time>
      </trkpt>
      <trkpt lat="43.22047" lon="6.61356">
        <ele>114.2</ele>
        <time>1970-01-01T00:47:10.000Z</time>
      </trkpt>
      <trkpt lat="43.22036" lon="6.61353">
        <ele>114.5</ele>
        <time>1970-01-01T00:47:11.000Z</time>
      </trkpt>
      <trkpt lat="43.22025" lon="6.61347">
        <ele>114.8</ele>
        <time>1970-01-01T00:47:12.000Z</time>
      </trkpt>
      <trkpt lat="43.22014" lon="6.61341">
        <ele>115.1</ele>
        <time>1970-01-01T00:47:13.000Z</time>
      </trkpt>
      <trkpt lat="43.22002" lon="6.61337">
        <ele>115.5</ele>
        <time>1970-01-01T00:47:14.000Z</time>
      </trkpt>
      <trkpt lat="43.21991" lon="6.61338">
        <ele>115.8</ele>
        <time>1970-01-01T00:47:15.000Z</time>
      </trkpt>
      <trkpt lat="43.2198" lon="6.6134">
        <ele>116.2</ele>
        <time>1970-01-01T00:47:16.000Z</time>
      </trkpt>
      <trkpt lat="43.21971" lon="6.61338">
        <ele>116.5</ele>
        <time>1970-01-01T00:47:17.000Z</time>
      </trkpt>
      <trkpt lat="43.21962" lon="6.61334">
        <ele>116.9</ele>
        <time>1970-01-01T00:47:18.000Z</time>
      </trkpt>
      <trkpt lat="43.21952" lon="6.61328">
        <ele>117.3</ele>
        <time>1970-01-01T00:47:19.000Z</time>
      </trkpt>
      <trkpt lat="43.21944" lon="6.61321">
        <ele>117.6</ele>
        <time>1970-01-01T00:47:20.000Z</time>
      </trkpt>
      <trkpt lat="43.21939" lon="6.61307">
        <ele>118.1</ele>
        <time>1970-01-01T00:47:21.000Z</time>
      </trkpt>
      <trkpt lat="43.21933" lon="6.61294">
        <ele>118.6</ele>
        <time>1970-01-01T00:47:22.000Z</time>
      </trkpt>
      <trkpt lat="43.21927" lon="6.61285">
        <ele>119.2</ele>
        <time>1970-01-01T00:47:23.000Z</time>
      </trkpt>
      <trkpt lat="43.21921" lon="6.61275">
        <ele>119.8</ele>
        <time>1970-01-01T00:47:24.000Z</time>
      </trkpt>
      <trkpt lat="43.21915" lon="6.61267">
        <ele>120.2</ele>
        <time>1970-01-01T00:47:25.000Z</time>
      </trkpt>
      <trkpt lat="43.21909" lon="6.61261">
        <ele>120.4</ele>
        <time>1970-01-01T00:47:26.000Z</time>
      </trkpt>
      <trkpt lat="43.21904" lon="6.61257">
        <ele>120.6</ele>
        <time>1970-01-01T00:47:27.000Z</time>
      </trkpt>
      <trkpt lat="43.21897" lon="6.61252">
        <ele>120.9</ele>
        <time>1970-01-01T00:47:28.000Z</time>
      </trkpt>
      <trkpt lat="43.2189" lon="6.61251">
        <ele>121.2</ele>
        <time>1970-01-01T00:47:29.000Z</time>
      </trkpt>
      <trkpt lat="43.21883" lon="6.61255">
        <ele>121.6</ele>
        <time>1970-01-01T00:47:30.000Z</time>
      </trkpt>
      <trkpt lat="43.21874" lon="6.6126">
        <ele>121.9</ele>
        <time>1970-01-01T00:47:31.000Z</time>
      </trkpt>
      <trkpt lat="43.21869" lon="6.61269">
        <ele>122.2</ele>
        <time>1970-01-01T00:47:32.000Z</time>
      </trkpt>
      <trkpt lat="43.21863" lon="6.61275">
        <ele>122.3</ele>
        <time>1970-01-01T00:47:33.000Z</time>
      </trkpt>
      <trkpt lat="43.21856" lon="6.6128">
        <ele>122.5</ele>
        <time>1970-01-01T00:47:34.000Z</time>
      </trkpt>
      <trkpt lat="43.21849" lon="6.61284">
        <ele>122.6</ele>
        <time>1970-01-01T00:47:35.000Z</time>
      </trkpt>
      <trkpt lat="43.21842" lon="6.61284">
        <ele>122.8</ele>
        <time>1970-01-01T00:47:36.000Z</time>
      </trkpt>
      <trkpt lat="43.21832" lon="6.61281">
        <ele>123.1</ele>
        <time>1970-01-01T00:47:37.000Z</time>
      </trkpt>
      <trkpt lat="43.21822" lon="6.61277">
        <ele>123.5</ele>
        <time>1970-01-01T00:47:38.000Z</time>
      </trkpt>
      <trkpt lat="43.21814" lon="6.6127">
        <ele>123.9</ele>
        <time>1970-01-01T00:47:39.000Z</time>
      </trkpt>
      <trkpt lat="43.21806" lon="6.6126">
        <ele>124.4</ele>
        <time>1970-01-01T00:47:40.000Z</time>
      </trkpt>
      <trkpt lat="43.21799" lon="6.61247">
        <ele>124.9</ele>
        <time>1970-01-01T00:47:41.000Z</time>
      </trkpt>
      <trkpt lat="43.21793" lon="6.61232">
        <ele>125.4</ele>
        <time>1970-01-01T00:47:42.000Z</time>
      </trkpt>
      <trkpt lat="43.2179" lon="6.61217">
        <ele>126</ele>
        <time>1970-01-01T00:47:43.000Z</time>
      </trkpt>
      <trkpt lat="43.21785" lon="6.61204">
        <ele>126.7</ele>
        <time>1970-01-01T00:47:44.000Z</time>
      </trkpt>
      <trkpt lat="43.21779" lon="6.61192">
        <ele>127.3</ele>
        <time>1970-01-01T00:47:45.000Z</time>
      </trkpt>
      <trkpt lat="43.21773" lon="6.61178">
        <ele>128.1</ele>
        <time>1970-01-01T00:47:46.000Z</time>
      </trkpt>
      <trkpt lat="43.21767" lon="6.61165">
        <ele>128.8</ele>
        <time>1970-01-01T00:47:47.000Z</time>
      </trkpt>
      <trkpt lat="43.21761" lon="6.61151">
        <ele>129.5</ele>
        <time>1970-01-01T00:47:48.000Z</time>
      </trkpt>
      <trkpt lat="43.21756" lon="6.6114">
        <ele>130.1</ele>
        <time>1970-01-01T00:47:49.000Z</time>
      </trkpt>
      <trkpt lat="43.21753" lon="6.61131">
        <ele>130.5</ele>
        <time>1970-01-01T00:47:50.000Z</time>
      </trkpt>
      <trkpt lat="43.2175" lon="6.61124">
        <ele>130.7</ele>
        <time>1970-01-01T00:47:51.000Z</time>
      </trkpt>
      <trkpt lat="43.21747" lon="6.61115">
        <ele>131.1</ele>
        <time>1970-01-01T00:47:52.000Z</time>
      </trkpt>
      <trkpt lat="43.21745" lon="6.61107">
        <ele>131.6</ele>
        <time>1970-01-01T00:47:53.000Z</time>
      </trkpt>
      <trkpt lat="43.21743" lon="6.61095">
        <ele>132.3</ele>
        <time>1970-01-01T00:47:54.000Z</time>
      </trkpt>
      <trkpt lat="43.21741" lon="6.61084">
        <ele>133</ele>
        <time>1970-01-01T00:47:55.000Z</time>
      </trkpt>
      <trkpt lat="43.21737" lon="6.61074">
        <ele>133.2</ele>
        <time>1970-01-01T00:47:56.000Z</time>
      </trkpt>
      <trkpt lat="43.21734" lon="6.61063">
        <ele>134.2</ele>
        <time>1970-01-01T00:47:57.000Z</time>
      </trkpt>
      <trkpt lat="43.21733" lon="6.6105">
        <ele>135.4</ele>
        <time>1970-01-01T00:47:58.000Z</time>
      </trkpt>
      <trkpt lat="43.21735" lon="6.61038">
        <ele>136.7</ele>
        <time>1970-01-01T00:47:59.000Z</time>
      </trkpt>
      <trkpt lat="43.21737" lon="6.61025">
        <ele>137.9</ele>
        <time>1970-01-01T00:48:00.000Z</time>
      </trkpt>
      <trkpt lat="43.21737" lon="6.61014">
        <ele>139</ele>
        <time>1970-01-01T00:48:01.000Z</time>
      </trkpt>
      <trkpt lat="43.21737" lon="6.61004">
        <ele>139.9</ele>
        <time>1970-01-01T00:48:02.000Z</time>
      </trkpt>
      <trkpt lat="43.21735" lon="6.60995">
        <ele>140.3</ele>
        <time>1970-01-01T00:48:03.000Z</time>
      </trkpt>
      <trkpt lat="43.21732" lon="6.60987">
        <ele>140.8</ele>
        <time>1970-01-01T00:48:04.000Z</time>
      </trkpt>
      <trkpt lat="43.21724" lon="6.60985">
        <ele>141.2</ele>
        <time>1970-01-01T00:48:05.000Z</time>
      </trkpt>
      <trkpt lat="43.21716" lon="6.60985">
        <ele>141.7</ele>
        <time>1970-01-01T00:48:06.000Z</time>
      </trkpt>
      <trkpt lat="43.21709" lon="6.60992">
        <ele>142.2</ele>
        <time>1970-01-01T00:48:07.000Z</time>
      </trkpt>
      <trkpt lat="43.21705" lon="6.61001">
        <ele>142.6</ele>
        <time>1970-01-01T00:48:08.000Z</time>
      </trkpt>
      <trkpt lat="43.21704" lon="6.61016">
        <ele>143.1</ele>
        <time>1970-01-01T00:48:09.000Z</time>
      </trkpt>
      <trkpt lat="43.21702" lon="6.61029">
        <ele>143.6</ele>
        <time>1970-01-01T00:48:10.000Z</time>
      </trkpt>
      <trkpt lat="43.21699" lon="6.61041">
        <ele>144</ele>
        <time>1970-01-01T00:48:11.000Z</time>
      </trkpt>
      <trkpt lat="43.21697" lon="6.61054">
        <ele>144.3</ele>
        <time>1970-01-01T00:48:12.000Z</time>
      </trkpt>
      <trkpt lat="43.21693" lon="6.61066">
        <ele>144.7</ele>
        <time>1970-01-01T00:48:13.000Z</time>
      </trkpt>
      <trkpt lat="43.21687" lon="6.61077">
        <ele>145</ele>
        <time>1970-01-01T00:48:14.000Z</time>
      </trkpt>
      <trkpt lat="43.21682" lon="6.61086">
        <ele>145.3</ele>
        <time>1970-01-01T00:48:15.000Z</time>
      </trkpt>
      <trkpt lat="43.21673" lon="6.61094">
        <ele>145.4</ele>
        <time>1970-01-01T00:48:16.000Z</time>
      </trkpt>
      <trkpt lat="43.21664" lon="6.61096">
        <ele>145.6</ele>
        <time>1970-01-01T00:48:17.000Z</time>
      </trkpt>
      <trkpt lat="43.21654" lon="6.61099">
        <ele>145.7</ele>
        <time>1970-01-01T00:48:18.000Z</time>
      </trkpt>
      <trkpt lat="43.21644" lon="6.61099">
        <ele>145.7</ele>
        <time>1970-01-01T00:48:19.000Z</time>
      </trkpt>
      <trkpt lat="43.21634" lon="6.61101">
        <ele>145.8</ele>
        <time>1970-01-01T00:48:20.000Z</time>
      </trkpt>
      <trkpt lat="43.21622" lon="6.61102">
        <ele>145.8</ele>
        <time>1970-01-01T00:48:21.000Z</time>
      </trkpt>
      <trkpt lat="43.2161" lon="6.61102">
        <ele>145.8</ele>
        <time>1970-01-01T00:48:22.000Z</time>
      </trkpt>
      <trkpt lat="43.21599" lon="6.61103">
        <ele>145.8</ele>
        <time>1970-01-01T00:48:23.000Z</time>
      </trkpt>
      <trkpt lat="43.21587" lon="6.61103">
        <ele>145.7</ele>
        <time>1970-01-01T00:48:24.000Z</time>
      </trkpt>
      <trkpt lat="43.21576" lon="6.61104">
        <ele>145.5</ele>
        <time>1970-01-01T00:48:25.000Z</time>
      </trkpt>
      <trkpt lat="43.21565" lon="6.61104">
        <ele>145.4</ele>
        <time>1970-01-01T00:48:26.000Z</time>
      </trkpt>
      <trkpt lat="43.21553" lon="6.61104">
        <ele>145.2</ele>
        <time>1970-01-01T00:48:27.000Z</time>
      </trkpt>
      <trkpt lat="43.21541" lon="6.61105">
        <ele>145.1</ele>
        <time>1970-01-01T00:48:28.000Z</time>
      </trkpt>
      <trkpt lat="43.21531" lon="6.61105">
        <ele>145</ele>
        <time>1970-01-01T00:48:29.000Z</time>
      </trkpt>
      <trkpt lat="43.21519" lon="6.61105">
        <ele>145</ele>
        <time>1970-01-01T00:48:30.000Z</time>
      </trkpt>
      <trkpt lat="43.21509" lon="6.61107">
        <ele>145.1</ele>
        <time>1970-01-01T00:48:31.000Z</time>
      </trkpt>
      <trkpt lat="43.215" lon="6.61108">
        <ele>145.2</ele>
        <time>1970-01-01T00:48:32.000Z</time>
      </trkpt>
      <trkpt lat="43.21491" lon="6.61109">
        <ele>145.3</ele>
        <time>1970-01-01T00:48:33.000Z</time>
      </trkpt>
      <trkpt lat="43.21482" lon="6.6111">
        <ele>145.6</ele>
        <time>1970-01-01T00:48:34.000Z</time>
      </trkpt>
      <trkpt lat="43.21474" lon="6.61113">
        <ele>146.7</ele>
        <time>1970-01-01T00:48:35.000Z</time>
      </trkpt>
      <trkpt lat="43.21474" lon="6.61112">
        <ele>146.8</ele>
        <time>1970-01-01T00:48:36.000Z</time>
      </trkpt>
      <trkpt lat="43.21473" lon="6.6111">
        <ele>147</ele>
        <time>1970-01-01T00:48:37.000Z</time>
      </trkpt>
      <trkpt lat="43.21473" lon="6.61108">
        <ele>147.2</ele>
        <time>1970-01-01T00:48:38.000Z</time>
      </trkpt>
      <trkpt lat="43.21472" lon="6.61106">
        <ele>147.4</ele>
        <time>1970-01-01T00:48:39.000Z</time>
      </trkpt>
      <trkpt lat="43.2147" lon="6.611">
        <ele>148.1</ele>
        <time>1970-01-01T00:48:40.000Z</time>
      </trkpt>
      <trkpt lat="43.21469" lon="6.61094">
        <ele>148.7</ele>
        <time>1970-01-01T00:48:41.000Z</time>
      </trkpt>
      <trkpt lat="43.21468" lon="6.61087">
        <ele>149.3</ele>
        <time>1970-01-01T00:48:42.000Z</time>
      </trkpt>
      <trkpt lat="43.21465" lon="6.61079">
        <ele>150.1</ele>
        <time>1970-01-01T00:48:43.000Z</time>
      </trkpt>
      <trkpt lat="43.21462" lon="6.61072">
        <ele>151</ele>
        <time>1970-01-01T00:48:44.000Z</time>
      </trkpt>
      <trkpt lat="43.21459" lon="6.61065">
        <ele>151.8</ele>
        <time>1970-01-01T00:48:45.000Z</time>
      </trkpt>
      <trkpt lat="43.21458" lon="6.61059">
        <ele>152.4</ele>
        <time>1970-01-01T00:48:46.000Z</time>
      </trkpt>
      <trkpt lat="43.2146" lon="6.6105">
        <ele>153.3</ele>
        <time>1970-01-01T00:48:47.000Z</time>
      </trkpt>
      <trkpt lat="43.21462" lon="6.61041">
        <ele>154.2</ele>
        <time>1970-01-01T00:48:48.000Z</time>
      </trkpt>
      <trkpt lat="43.21463" lon="6.61032">
        <ele>155.1</ele>
        <time>1970-01-01T00:48:49.000Z</time>
      </trkpt>
      <trkpt lat="43.21465" lon="6.61023">
        <ele>156.1</ele>
        <time>1970-01-01T00:48:50.000Z</time>
      </trkpt>
      <trkpt lat="43.21464" lon="6.61014">
        <ele>157</ele>
        <time>1970-01-01T00:48:51.000Z</time>
      </trkpt>
      <trkpt lat="43.21463" lon="6.61007">
        <ele>157.6</ele>
        <time>1970-01-01T00:48:52.000Z</time>
      </trkpt>
      <trkpt lat="43.21458" lon="6.61001">
        <ele>158.3</ele>
        <time>1970-01-01T00:48:53.000Z</time>
      </trkpt>
      <trkpt lat="43.21455" lon="6.60999">
        <ele>158.8</ele>
        <time>1970-01-01T00:48:54.000Z</time>
      </trkpt>
      <trkpt lat="43.21446" lon="6.60997">
        <ele>159.8</ele>
        <time>1970-01-01T00:48:55.000Z</time>
      </trkpt>
      <trkpt lat="43.21441" lon="6.60998">
        <ele>160.5</ele>
        <time>1970-01-01T00:48:56.000Z</time>
      </trkpt>
      <trkpt lat="43.21434" lon="6.61001">
        <ele>161.3</ele>
        <time>1970-01-01T00:48:57.000Z</time>
      </trkpt>
      <trkpt lat="43.21427" lon="6.61004">
        <ele>162.1</ele>
        <time>1970-01-01T00:48:58.000Z</time>
      </trkpt>
      <trkpt lat="43.21422" lon="6.61012">
        <ele>163</ele>
        <time>1970-01-01T00:48:59.000Z</time>
      </trkpt>
      <trkpt lat="43.21415" lon="6.61015">
        <ele>164</ele>
        <time>1970-01-01T00:49:00.000Z</time>
      </trkpt>
      <trkpt lat="43.21408" lon="6.61018">
        <ele>164.9</ele>
        <time>1970-01-01T00:49:01.000Z</time>
      </trkpt>
      <trkpt lat="43.214" lon="6.61018">
        <ele>166</ele>
        <time>1970-01-01T00:49:02.000Z</time>
      </trkpt>
      <trkpt lat="43.21394" lon="6.61015">
        <ele>167</ele>
        <time>1970-01-01T00:49:03.000Z</time>
      </trkpt>
      <trkpt lat="43.21389" lon="6.61013">
        <ele>167.8</ele>
        <time>1970-01-01T00:49:04.000Z</time>
      </trkpt>
      <trkpt lat="43.21386" lon="6.61009">
        <ele>168.3</ele>
        <time>1970-01-01T00:49:05.000Z</time>
      </trkpt>
      <trkpt lat="43.21381" lon="6.61003">
        <ele>169.1</ele>
        <time>1970-01-01T00:49:06.000Z</time>
      </trkpt>
      <trkpt lat="43.21375" lon="6.61002">
        <ele>169.8</ele>
        <time>1970-01-01T00:49:07.000Z</time>
      </trkpt>
      <trkpt lat="43.21369" lon="6.61001">
        <ele>170.3</ele>
        <time>1970-01-01T00:49:08.000Z</time>
      </trkpt>
      <trkpt lat="43.21365" lon="6.61003">
        <ele>170.6</ele>
        <time>1970-01-01T00:49:09.000Z</time>
      </trkpt>
      <trkpt lat="43.21357" lon="6.61005">
        <ele>171.2</ele>
        <time>1970-01-01T00:49:10.000Z</time>
      </trkpt>
      <trkpt lat="43.21348" lon="6.61008">
        <ele>171.9</ele>
        <time>1970-01-01T00:49:11.000Z</time>
      </trkpt>
      <trkpt lat="43.21339" lon="6.61015">
        <ele>172.6</ele>
        <time>1970-01-01T00:49:12.000Z</time>
      </trkpt>
      <trkpt lat="43.21332" lon="6.61021">
        <ele>173.2</ele>
        <time>1970-01-01T00:49:13.000Z</time>
      </trkpt>
      <trkpt lat="43.21325" lon="6.61024">
        <ele>173.6</ele>
        <time>1970-01-01T00:49:14.000Z</time>
      </trkpt>
      <trkpt lat="43.21318" lon="6.61031">
        <ele>174.2</ele>
        <time>1970-01-01T00:49:15.000Z</time>
      </trkpt>
      <trkpt lat="43.21311" lon="6.61032">
        <ele>174.7</ele>
        <time>1970-01-01T00:49:16.000Z</time>
      </trkpt>
      <trkpt lat="43.21305" lon="6.61031">
        <ele>175.1</ele>
        <time>1970-01-01T00:49:17.000Z</time>
      </trkpt>
      <trkpt lat="43.21298" lon="6.6103">
        <ele>175.5</ele>
        <time>1970-01-01T00:49:18.000Z</time>
      </trkpt>
      <trkpt lat="43.21291" lon="6.61026">
        <ele>176</ele>
        <time>1970-01-01T00:49:19.000Z</time>
      </trkpt>
      <trkpt lat="43.21285" lon="6.61024">
        <ele>176.5</ele>
        <time>1970-01-01T00:49:20.000Z</time>
      </trkpt>
      <trkpt lat="43.21278" lon="6.61017">
        <ele>177.2</ele>
        <time>1970-01-01T00:49:21.000Z</time>
      </trkpt>
      <trkpt lat="43.2127" lon="6.61011">
        <ele>177.8</ele>
        <time>1970-01-01T00:49:22.000Z</time>
      </trkpt>
      <trkpt lat="43.21261" lon="6.61009">
        <ele>178.5</ele>
        <time>1970-01-01T00:49:23.000Z</time>
      </trkpt>
      <trkpt lat="43.21252" lon="6.61007">
        <ele>179.1</ele>
        <time>1970-01-01T00:49:24.000Z</time>
      </trkpt>
      <trkpt lat="43.21244" lon="6.61009">
        <ele>179.7</ele>
        <time>1970-01-01T00:49:25.000Z</time>
      </trkpt>
      <trkpt lat="43.21234" lon="6.61012">
        <ele>180.4</ele>
        <time>1970-01-01T00:49:26.000Z</time>
      </trkpt>
      <trkpt lat="43.21223" lon="6.61015">
        <ele>181.2</ele>
        <time>1970-01-01T00:49:27.000Z</time>
      </trkpt>
      <trkpt lat="43.21215" lon="6.61017">
        <ele>181.8</ele>
        <time>1970-01-01T00:49:28.000Z</time>
      </trkpt>
      <trkpt lat="43.21206" lon="6.61019">
        <ele>182.6</ele>
        <time>1970-01-01T00:49:29.000Z</time>
      </trkpt>
      <trkpt lat="43.21196" lon="6.61022">
        <ele>183.4</ele>
        <time>1970-01-01T00:49:30.000Z</time>
      </trkpt>
      <trkpt lat="43.21184" lon="6.61025">
        <ele>184.4</ele>
        <time>1970-01-01T00:49:31.000Z</time>
      </trkpt>
      <trkpt lat="43.21175" lon="6.61026">
        <ele>185.3</ele>
        <time>1970-01-01T00:49:32.000Z</time>
      </trkpt>
      <trkpt lat="43.21166" lon="6.61028">
        <ele>186.2</ele>
        <time>1970-01-01T00:49:33.000Z</time>
      </trkpt>
      <trkpt lat="43.21157" lon="6.61032">
        <ele>187.1</ele>
        <time>1970-01-01T00:49:34.000Z</time>
      </trkpt>
      <trkpt lat="43.21149" lon="6.61035">
        <ele>187.9</ele>
        <time>1970-01-01T00:49:35.000Z</time>
      </trkpt>
      <trkpt lat="43.21142" lon="6.61035">
        <ele>188.7</ele>
        <time>1970-01-01T00:49:36.000Z</time>
      </trkpt>
      <trkpt lat="43.21133" lon="6.61032">
        <ele>189.6</ele>
        <time>1970-01-01T00:49:37.000Z</time>
      </trkpt>
      <trkpt lat="43.21125" lon="6.61026">
        <ele>190.4</ele>
        <time>1970-01-01T00:49:38.000Z</time>
      </trkpt>
      <trkpt lat="43.21122" lon="6.61016">
        <ele>191.1</ele>
        <time>1970-01-01T00:49:39.000Z</time>
      </trkpt>
      <trkpt lat="43.21121" lon="6.61005">
        <ele>191.9</ele>
        <time>1970-01-01T00:49:40.000Z</time>
      </trkpt>
      <trkpt lat="43.21119" lon="6.60994">
        <ele>192.6</ele>
        <time>1970-01-01T00:49:41.000Z</time>
      </trkpt>
      <trkpt lat="43.21123" lon="6.60981">
        <ele>193.5</ele>
        <time>1970-01-01T00:49:42.000Z</time>
      </trkpt>
      <trkpt lat="43.21122" lon="6.60968">
        <ele>194.3</ele>
        <time>1970-01-01T00:49:43.000Z</time>
      </trkpt>
      <trkpt lat="43.2112" lon="6.60956">
        <ele>195.2</ele>
        <time>1970-01-01T00:49:44.000Z</time>
      </trkpt>
      <trkpt lat="43.21119" lon="6.60942">
        <ele>196.1</ele>
        <time>1970-01-01T00:49:45.000Z</time>
      </trkpt>
      <trkpt lat="43.21117" lon="6.60928">
        <ele>197</ele>
        <time>1970-01-01T00:49:46.000Z</time>
      </trkpt>
      <trkpt lat="43.21115" lon="6.60914">
        <ele>198</ele>
        <time>1970-01-01T00:49:47.000Z</time>
      </trkpt>
      <trkpt lat="43.21114" lon="6.60901">
        <ele>199</ele>
        <time>1970-01-01T00:49:48.000Z</time>
      </trkpt>
      <trkpt lat="43.21114" lon="6.60888">
        <ele>199.9</ele>
        <time>1970-01-01T00:49:49.000Z</time>
      </trkpt>
      <trkpt lat="43.21113" lon="6.60877">
        <ele>200.6</ele>
        <time>1970-01-01T00:49:50.000Z</time>
      </trkpt>
      <trkpt lat="43.21113" lon="6.60869">
        <ele>201.2</ele>
        <time>1970-01-01T00:49:51.000Z</time>
      </trkpt>
      <trkpt lat="43.21109" lon="6.60861">
        <ele>201.8</ele>
        <time>1970-01-01T00:49:52.000Z</time>
      </trkpt>
      <trkpt lat="43.21099" lon="6.60859">
        <ele>202.7</ele>
        <time>1970-01-01T00:49:53.000Z</time>
      </trkpt>
      <trkpt lat="43.21088" lon="6.6086">
        <ele>203.7</ele>
        <time>1970-01-01T00:49:54.000Z</time>
      </trkpt>
      <trkpt lat="43.21081" lon="6.60859">
        <ele>204.2</ele>
        <time>1970-01-01T00:49:55.000Z</time>
      </trkpt>
      <trkpt lat="43.21072" lon="6.60858">
        <ele>204.9</ele>
        <time>1970-01-01T00:49:56.000Z</time>
      </trkpt>
      <trkpt lat="43.21066" lon="6.6086">
        <ele>205.4</ele>
        <time>1970-01-01T00:49:57.000Z</time>
      </trkpt>
      <trkpt lat="43.21062" lon="6.60865">
        <ele>205.7</ele>
        <time>1970-01-01T00:49:58.000Z</time>
      </trkpt>
      <trkpt lat="43.21058" lon="6.60877">
        <ele>206.4</ele>
        <time>1970-01-01T00:49:59.000Z</time>
      </trkpt>
      <trkpt lat="43.21053" lon="6.60884">
        <ele>206.9</ele>
        <time>1970-01-01T00:50:00.000Z</time>
      </trkpt>
      <trkpt lat="43.21046" lon="6.60894">
        <ele>207.6</ele>
        <time>1970-01-01T00:50:01.000Z</time>
      </trkpt>
      <trkpt lat="43.21038" lon="6.60897">
        <ele>208.1</ele>
        <time>1970-01-01T00:50:02.000Z</time>
      </trkpt>
      <trkpt lat="43.21029" lon="6.60895">
        <ele>208.7</ele>
        <time>1970-01-01T00:50:03.000Z</time>
      </trkpt>
      <trkpt lat="43.21022" lon="6.6089">
        <ele>209.2</ele>
        <time>1970-01-01T00:50:04.000Z</time>
      </trkpt>
      <trkpt lat="43.21014" lon="6.6089">
        <ele>209.7</ele>
        <time>1970-01-01T00:50:05.000Z</time>
      </trkpt>
      <trkpt lat="43.21004" lon="6.60891">
        <ele>210.4</ele>
        <time>1970-01-01T00:50:06.000Z</time>
      </trkpt>
      <trkpt lat="43.20995" lon="6.60893">
        <ele>211</ele>
        <time>1970-01-01T00:50:07.000Z</time>
      </trkpt>
      <trkpt lat="43.20986" lon="6.60895">
        <ele>211.6</ele>
        <time>1970-01-01T00:50:08.000Z</time>
      </trkpt>
      <trkpt lat="43.20974" lon="6.60898">
        <ele>212.6</ele>
        <time>1970-01-01T00:50:09.000Z</time>
      </trkpt>
      <trkpt lat="43.20962" lon="6.60898">
        <ele>213.5</ele>
        <time>1970-01-01T00:50:10.000Z</time>
      </trkpt>
      <trkpt lat="43.20951" lon="6.60896">
        <ele>214.6</ele>
        <time>1970-01-01T00:50:11.000Z</time>
      </trkpt>
      <trkpt lat="43.20943" lon="6.60894">
        <ele>215.5</ele>
        <time>1970-01-01T00:50:12.000Z</time>
      </trkpt>
      <trkpt lat="43.20936" lon="6.60889">
        <ele>216.4</ele>
        <time>1970-01-01T00:50:13.000Z</time>
      </trkpt>
      <trkpt lat="43.2093" lon="6.60883">
        <ele>217</ele>
        <time>1970-01-01T00:50:14.000Z</time>
      </trkpt>
      <trkpt lat="43.20924" lon="6.60872">
        <ele>217.6</ele>
        <time>1970-01-01T00:50:15.000Z</time>
      </trkpt>
      <trkpt lat="43.20918" lon="6.6086">
        <ele>218.4</ele>
        <time>1970-01-01T00:50:16.000Z</time>
      </trkpt>
      <trkpt lat="43.20912" lon="6.6085">
        <ele>219.2</ele>
        <time>1970-01-01T00:50:17.000Z</time>
      </trkpt>
      <trkpt lat="43.20907" lon="6.60842">
        <ele>219.8</ele>
        <time>1970-01-01T00:50:18.000Z</time>
      </trkpt>
      <trkpt lat="43.20899" lon="6.6083">
        <ele>220.8</ele>
        <time>1970-01-01T00:50:19.000Z</time>
      </trkpt>
      <trkpt lat="43.2089" lon="6.60825">
        <ele>221.6</ele>
        <time>1970-01-01T00:50:20.000Z</time>
      </trkpt>
      <trkpt lat="43.20884" lon="6.60821">
        <ele>222.2</ele>
        <time>1970-01-01T00:50:21.000Z</time>
      </trkpt>
      <trkpt lat="43.20879" lon="6.60813">
        <ele>222.8</ele>
        <time>1970-01-01T00:50:22.000Z</time>
      </trkpt>
      <trkpt lat="43.20876" lon="6.60805">
        <ele>223.3</ele>
        <time>1970-01-01T00:50:23.000Z</time>
      </trkpt>
      <trkpt lat="43.20875" lon="6.60794">
        <ele>223.9</ele>
        <time>1970-01-01T00:50:24.000Z</time>
      </trkpt>
      <trkpt lat="43.20877" lon="6.60782">
        <ele>224.6</ele>
        <time>1970-01-01T00:50:25.000Z</time>
      </trkpt>
      <trkpt lat="43.20881" lon="6.60769">
        <ele>225.4</ele>
        <time>1970-01-01T00:50:26.000Z</time>
      </trkpt>
      <trkpt lat="43.20887" lon="6.60759">
        <ele>226.1</ele>
        <time>1970-01-01T00:50:27.000Z</time>
      </trkpt>
      <trkpt lat="43.20896" lon="6.60749">
        <ele>227</ele>
        <time>1970-01-01T00:50:28.000Z</time>
      </trkpt>
      <trkpt lat="43.209" lon="6.60737">
        <ele>227.8</ele>
        <time>1970-01-01T00:50:29.000Z</time>
      </trkpt>
      <trkpt lat="43.20904" lon="6.60724">
        <ele>228.6</ele>
        <time>1970-01-01T00:50:30.000Z</time>
      </trkpt>
      <trkpt lat="43.20907" lon="6.60712">
        <ele>229.4</ele>
        <time>1970-01-01T00:50:31.000Z</time>
      </trkpt>
      <trkpt lat="43.2091" lon="6.60698">
        <ele>230.4</ele>
        <time>1970-01-01T00:50:32.000Z</time>
      </trkpt>
      <trkpt lat="43.20912" lon="6.60687">
        <ele>231.3</ele>
        <time>1970-01-01T00:50:33.000Z</time>
      </trkpt>
      <trkpt lat="43.20917" lon="6.60677">
        <ele>232.1</ele>
        <time>1970-01-01T00:50:34.000Z</time>
      </trkpt>
      <trkpt lat="43.20922" lon="6.60668">
        <ele>232.9</ele>
        <time>1970-01-01T00:50:35.000Z</time>
      </trkpt>
      <trkpt lat="43.20931" lon="6.60665">
        <ele>233.9</ele>
        <time>1970-01-01T00:50:36.000Z</time>
      </trkpt>
      <trkpt lat="43.2094" lon="6.6066">
        <ele>234.8</ele>
        <time>1970-01-01T00:50:37.000Z</time>
      </trkpt>
      <trkpt lat="43.20947" lon="6.60655">
        <ele>235.6</ele>
        <time>1970-01-01T00:50:38.000Z</time>
      </trkpt>
      <trkpt lat="43.20955" lon="6.6065">
        <ele>236.4</ele>
        <time>1970-01-01T00:50:39.000Z</time>
      </trkpt>
      <trkpt lat="43.20964" lon="6.60643">
        <ele>237.4</ele>
        <time>1970-01-01T00:50:40.000Z</time>
      </trkpt>
      <trkpt lat="43.20973" lon="6.60637">
        <ele>238.3</ele>
        <time>1970-01-01T00:50:41.000Z</time>
      </trkpt>
      <trkpt lat="43.20982" lon="6.60629">
        <ele>239.2</ele>
        <time>1970-01-01T00:50:42.000Z</time>
      </trkpt>
      <trkpt lat="43.20991" lon="6.60622">
        <ele>240.1</ele>
        <time>1970-01-01T00:50:43.000Z</time>
      </trkpt>
      <trkpt lat="43.21" lon="6.60613">
        <ele>241.1</ele>
        <time>1970-01-01T00:50:44.000Z</time>
      </trkpt>
      <trkpt lat="43.21008" lon="6.60605">
        <ele>242</ele>
        <time>1970-01-01T00:50:45.000Z</time>
      </trkpt>
      <trkpt lat="43.21016" lon="6.60598">
        <ele>242.7</ele>
        <time>1970-01-01T00:50:46.000Z</time>
      </trkpt>
      <trkpt lat="43.21023" lon="6.60591">
        <ele>243.5</ele>
        <time>1970-01-01T00:50:47.000Z</time>
      </trkpt>
      <trkpt lat="43.21031" lon="6.60583">
        <ele>244.3</ele>
        <time>1970-01-01T00:50:48.000Z</time>
      </trkpt>
      <trkpt lat="43.2104" lon="6.60576">
        <ele>245.1</ele>
        <time>1970-01-01T00:50:49.000Z</time>
      </trkpt>
      <trkpt lat="43.21048" lon="6.60569">
        <ele>245.9</ele>
        <time>1970-01-01T00:50:50.000Z</time>
      </trkpt>
      <trkpt lat="43.21056" lon="6.60561">
        <ele>246.6</ele>
        <time>1970-01-01T00:50:51.000Z</time>
      </trkpt>
      <trkpt lat="43.21062" lon="6.60555">
        <ele>247.2</ele>
        <time>1970-01-01T00:50:52.000Z</time>
      </trkpt>
      <trkpt lat="43.21069" lon="6.60549">
        <ele>247.7</ele>
        <time>1970-01-01T00:50:53.000Z</time>
      </trkpt>
      <trkpt lat="43.21075" lon="6.60548">
        <ele>248.1</ele>
        <time>1970-01-01T00:50:54.000Z</time>
      </trkpt>
      <trkpt lat="43.21082" lon="6.6055">
        <ele>248.5</ele>
        <time>1970-01-01T00:50:55.000Z</time>
      </trkpt>
      <trkpt lat="43.2109" lon="6.60553">
        <ele>248.9</ele>
        <time>1970-01-01T00:50:56.000Z</time>
      </trkpt>
      <trkpt lat="43.21096" lon="6.60561">
        <ele>249.1</ele>
        <time>1970-01-01T00:50:57.000Z</time>
      </trkpt>
      <trkpt lat="43.21099" lon="6.6057">
        <ele>249.2</ele>
        <time>1970-01-01T00:50:58.000Z</time>
      </trkpt>
      <trkpt lat="43.21105" lon="6.6058">
        <ele>249.2</ele>
        <time>1970-01-01T00:50:59.000Z</time>
      </trkpt>
      <trkpt lat="43.21107" lon="6.60596">
        <ele>249.1</ele>
        <time>1970-01-01T00:51:00.000Z</time>
      </trkpt>
      <trkpt lat="43.21114" lon="6.60607">
        <ele>248.8</ele>
        <time>1970-01-01T00:51:01.000Z</time>
      </trkpt>
      <trkpt lat="43.21122" lon="6.60617">
        <ele>248.6</ele>
        <time>1970-01-01T00:51:02.000Z</time>
      </trkpt>
      <trkpt lat="43.21129" lon="6.60627">
        <ele>248.2</ele>
        <time>1970-01-01T00:51:03.000Z</time>
      </trkpt>
      <trkpt lat="43.21137" lon="6.60637">
        <ele>247.9</ele>
        <time>1970-01-01T00:51:04.000Z</time>
      </trkpt>
      <trkpt lat="43.21145" lon="6.60647">
        <ele>247.5</ele>
        <time>1970-01-01T00:51:05.000Z</time>
      </trkpt>
      <trkpt lat="43.21152" lon="6.60653">
        <ele>247.2</ele>
        <time>1970-01-01T00:51:06.000Z</time>
      </trkpt>
      <trkpt lat="43.21159" lon="6.60655">
        <ele>247.1</ele>
        <time>1970-01-01T00:51:07.000Z</time>
      </trkpt>
      <trkpt lat="43.2117" lon="6.60651">
        <ele>246.9</ele>
        <time>1970-01-01T00:51:08.000Z</time>
      </trkpt>
      <trkpt lat="43.21179" lon="6.60645">
        <ele>246.9</ele>
        <time>1970-01-01T00:51:09.000Z</time>
      </trkpt>
      <trkpt lat="43.21189" lon="6.60639">
        <ele>246.8</ele>
        <time>1970-01-01T00:51:10.000Z</time>
      </trkpt>
      <trkpt lat="43.21198" lon="6.60636">
        <ele>247.2</ele>
        <time>1970-01-01T00:51:11.000Z</time>
      </trkpt>
      <trkpt lat="43.21206" lon="6.60634">
        <ele>247.4</ele>
        <time>1970-01-01T00:51:12.000Z</time>
      </trkpt>
      <trkpt lat="43.21216" lon="6.60626">
        <ele>247.8</ele>
        <time>1970-01-01T00:51:13.000Z</time>
      </trkpt>
      <trkpt lat="43.21222" lon="6.60615">
        <ele>248.1</ele>
        <time>1970-01-01T00:51:14.000Z</time>
      </trkpt>
      <trkpt lat="43.21226" lon="6.60602">
        <ele>248.6</ele>
        <time>1970-01-01T00:51:15.000Z</time>
      </trkpt>
      <trkpt lat="43.21227" lon="6.60586">
        <ele>249.5</ele>
        <time>1970-01-01T00:51:16.000Z</time>
      </trkpt>
      <trkpt lat="43.21236" lon="6.60572">
        <ele>250.7</ele>
        <time>1970-01-01T00:51:17.000Z</time>
      </trkpt>
      <trkpt lat="43.21238" lon="6.60561">
        <ele>251.5</ele>
        <time>1970-01-01T00:51:18.000Z</time>
      </trkpt>
      <trkpt lat="43.2124" lon="6.60551">
        <ele>252.1</ele>
        <time>1970-01-01T00:51:19.000Z</time>
      </trkpt>
      <trkpt lat="43.21244" lon="6.60542">
        <ele>252.8</ele>
        <time>1970-01-01T00:51:20.000Z</time>
      </trkpt>
      <trkpt lat="43.21247" lon="6.60535">
        <ele>253.3</ele>
        <time>1970-01-01T00:51:21.000Z</time>
      </trkpt>
      <trkpt lat="43.21254" lon="6.60532">
        <ele>254</ele>
        <time>1970-01-01T00:51:22.000Z</time>
      </trkpt>
      <trkpt lat="43.21263" lon="6.60535">
        <ele>254.6</ele>
        <time>1970-01-01T00:51:23.000Z</time>
      </trkpt>
      <trkpt lat="43.21271" lon="6.60533">
        <ele>255.2</ele>
        <time>1970-01-01T00:51:24.000Z</time>
      </trkpt>
      <trkpt lat="43.21278" lon="6.60538">
        <ele>255.8</ele>
        <time>1970-01-01T00:51:25.000Z</time>
      </trkpt>
      <trkpt lat="43.21286" lon="6.60541">
        <ele>256.4</ele>
        <time>1970-01-01T00:51:26.000Z</time>
      </trkpt>
      <trkpt lat="43.21294" lon="6.60545">
        <ele>257.1</ele>
        <time>1970-01-01T00:51:27.000Z</time>
      </trkpt>
      <trkpt lat="43.21303" lon="6.60548">
        <ele>257.5</ele>
        <time>1970-01-01T00:51:28.000Z</time>
      </trkpt>
      <trkpt lat="43.21314" lon="6.6055">
        <ele>258.2</ele>
        <time>1970-01-01T00:51:29.000Z</time>
      </trkpt>
      <trkpt lat="43.21324" lon="6.60551">
        <ele>259</ele>
        <time>1970-01-01T00:51:30.000Z</time>
      </trkpt>
      <trkpt lat="43.21334" lon="6.60551">
        <ele>259.8</ele>
        <time>1970-01-01T00:51:31.000Z</time>
      </trkpt>
      <trkpt lat="43.2134" lon="6.60546">
        <ele>260.4</ele>
        <time>1970-01-01T00:51:32.000Z</time>
      </trkpt>
      <trkpt lat="43.2135" lon="6.60541">
        <ele>261.3</ele>
        <time>1970-01-01T00:51:33.000Z</time>
      </trkpt>
      <trkpt lat="43.21356" lon="6.60534">
        <ele>262</ele>
        <time>1970-01-01T00:51:34.000Z</time>
      </trkpt>
      <trkpt lat="43.21359" lon="6.6053">
        <ele>262.5</ele>
        <time>1970-01-01T00:51:35.000Z</time>
      </trkpt>
      <trkpt lat="43.21363" lon="6.60531">
        <ele>263.7</ele>
        <time>1970-01-01T00:51:36.000Z</time>
      </trkpt>
      <trkpt lat="43.21365" lon="6.60536">
        <ele>263.9</ele>
        <time>1970-01-01T00:51:37.000Z</time>
      </trkpt>
      <trkpt lat="43.21366" lon="6.60539">
        <ele>264.1</ele>
        <time>1970-01-01T00:51:38.000Z</time>
      </trkpt>
      <trkpt lat="43.21369" lon="6.60545">
        <ele>264.4</ele>
        <time>1970-01-01T00:51:39.000Z</time>
      </trkpt>
      <trkpt lat="43.21371" lon="6.6055">
        <ele>264.6</ele>
        <time>1970-01-01T00:51:40.000Z</time>
      </trkpt>
      <trkpt lat="43.21375" lon="6.60553">
        <ele>264.8</ele>
        <time>1970-01-01T00:51:41.000Z</time>
      </trkpt>
      <trkpt lat="43.2138" lon="6.60553">
        <ele>264.9</ele>
        <time>1970-01-01T00:51:42.000Z</time>
      </trkpt>
      <trkpt lat="43.21387" lon="6.60552">
        <ele>265</ele>
        <time>1970-01-01T00:51:43.000Z</time>
      </trkpt>
      <trkpt lat="43.21395" lon="6.6055">
        <ele>265</ele>
        <time>1970-01-01T00:51:44.000Z</time>
      </trkpt>
      <trkpt lat="43.21402" lon="6.60547">
        <ele>265</ele>
        <time>1970-01-01T00:51:45.000Z</time>
      </trkpt>
      <trkpt lat="43.21408" lon="6.60545">
        <ele>265</ele>
        <time>1970-01-01T00:51:46.000Z</time>
      </trkpt>
      <trkpt lat="43.21416" lon="6.60542">
        <ele>265.1</ele>
        <time>1970-01-01T00:51:47.000Z</time>
      </trkpt>
      <trkpt lat="43.21429" lon="6.60544">
        <ele>265.3</ele>
        <time>1970-01-01T00:51:48.000Z</time>
      </trkpt>
      <trkpt lat="43.21437" lon="6.6054">
        <ele>265.6</ele>
        <time>1970-01-01T00:51:49.000Z</time>
      </trkpt>
      <trkpt lat="43.21445" lon="6.60536">
        <ele>265.9</ele>
        <time>1970-01-01T00:51:50.000Z</time>
      </trkpt>
      <trkpt lat="43.21452" lon="6.60531">
        <ele>266.4</ele>
        <time>1970-01-01T00:51:51.000Z</time>
      </trkpt>
      <trkpt lat="43.2146" lon="6.60526">
        <ele>267</ele>
        <time>1970-01-01T00:51:52.000Z</time>
      </trkpt>
      <trkpt lat="43.21467" lon="6.6052">
        <ele>267.7</ele>
        <time>1970-01-01T00:51:53.000Z</time>
      </trkpt>
      <trkpt lat="43.21474" lon="6.60514">
        <ele>268.6</ele>
        <time>1970-01-01T00:51:54.000Z</time>
      </trkpt>
      <trkpt lat="43.21481" lon="6.60509">
        <ele>269.5</ele>
        <time>1970-01-01T00:51:55.000Z</time>
      </trkpt>
      <trkpt lat="43.21487" lon="6.60505">
        <ele>270.4</ele>
        <time>1970-01-01T00:51:56.000Z</time>
      </trkpt>
      <trkpt lat="43.21494" lon="6.60502">
        <ele>271.5</ele>
        <time>1970-01-01T00:51:57.000Z</time>
      </trkpt>
      <trkpt lat="43.215" lon="6.605">
        <ele>272.4</ele>
        <time>1970-01-01T00:51:58.000Z</time>
      </trkpt>
      <trkpt lat="43.21503" lon="6.60498">
        <ele>272.9</ele>
        <time>1970-01-01T00:51:59.000Z</time>
      </trkpt>
      <trkpt lat="43.21506" lon="6.60501">
        <ele>273.5</ele>
        <time>1970-01-01T00:52:00.000Z</time>
      </trkpt>
      <trkpt lat="43.21511" lon="6.60505">
        <ele>274.2</ele>
        <time>1970-01-01T00:52:01.000Z</time>
      </trkpt>
      <trkpt lat="43.21516" lon="6.60509">
        <ele>275</ele>
        <time>1970-01-01T00:52:02.000Z</time>
      </trkpt>
      <trkpt lat="43.21522" lon="6.60511">
        <ele>275.9</ele>
        <time>1970-01-01T00:52:03.000Z</time>
      </trkpt>
      <trkpt lat="43.21531" lon="6.60513">
        <ele>276.9</ele>
        <time>1970-01-01T00:52:04.000Z</time>
      </trkpt>
      <trkpt lat="43.21538" lon="6.60514">
        <ele>277.8</ele>
        <time>1970-01-01T00:52:05.000Z</time>
      </trkpt>
      <trkpt lat="43.21544" lon="6.60515">
        <ele>278.4</ele>
        <time>1970-01-01T00:52:06.000Z</time>
      </trkpt>
      <trkpt lat="43.21551" lon="6.60512">
        <ele>279.2</ele>
        <time>1970-01-01T00:52:07.000Z</time>
      </trkpt>
      <trkpt lat="43.21559" lon="6.60507">
        <ele>280</ele>
        <time>1970-01-01T00:52:08.000Z</time>
      </trkpt>
      <trkpt lat="43.21565" lon="6.60498">
        <ele>280.8</ele>
        <time>1970-01-01T00:52:09.000Z</time>
      </trkpt>
      <trkpt lat="43.21572" lon="6.6049">
        <ele>281.8</ele>
        <time>1970-01-01T00:52:10.000Z</time>
      </trkpt>
      <trkpt lat="43.2158" lon="6.60482">
        <ele>282.8</ele>
        <time>1970-01-01T00:52:11.000Z</time>
      </trkpt>
      <trkpt lat="43.21586" lon="6.60474">
        <ele>283.5</ele>
        <time>1970-01-01T00:52:12.000Z</time>
      </trkpt>
      <trkpt lat="43.21594" lon="6.60468">
        <ele>284.3</ele>
        <time>1970-01-01T00:52:13.000Z</time>
      </trkpt>
      <trkpt lat="43.216" lon="6.6046">
        <ele>284.9</ele>
        <time>1970-01-01T00:52:14.000Z</time>
      </trkpt>
      <trkpt lat="43.21606" lon="6.60453">
        <ele>285.5</ele>
        <time>1970-01-01T00:52:15.000Z</time>
      </trkpt>
      <trkpt lat="43.21611" lon="6.60445">
        <ele>285.9</ele>
        <time>1970-01-01T00:52:16.000Z</time>
      </trkpt>
      <trkpt lat="43.21618" lon="6.60436">
        <ele>286.4</ele>
        <time>1970-01-01T00:52:17.000Z</time>
      </trkpt>
      <trkpt lat="43.21626" lon="6.6043">
        <ele>286.8</ele>
        <time>1970-01-01T00:52:18.000Z</time>
      </trkpt>
      <trkpt lat="43.21634" lon="6.60424">
        <ele>287</ele>
        <time>1970-01-01T00:52:19.000Z</time>
      </trkpt>
      <trkpt lat="43.21641" lon="6.60418">
        <ele>287.3</ele>
        <time>1970-01-01T00:52:20.000Z</time>
      </trkpt>
      <trkpt lat="43.21649" lon="6.6041">
        <ele>287.4</ele>
        <time>1970-01-01T00:52:21.000Z</time>
      </trkpt>
      <trkpt lat="43.21657" lon="6.60406">
        <ele>287.5</ele>
        <time>1970-01-01T00:52:22.000Z</time>
      </trkpt>
      <trkpt lat="43.21664" lon="6.60401">
        <ele>287.6</ele>
        <time>1970-01-01T00:52:23.000Z</time>
      </trkpt>
      <trkpt lat="43.21672" lon="6.60397">
        <ele>287.7</ele>
        <time>1970-01-01T00:52:24.000Z</time>
      </trkpt>
      <trkpt lat="43.2168" lon="6.60392">
        <ele>287.9</ele>
        <time>1970-01-01T00:52:25.000Z</time>
      </trkpt>
      <trkpt lat="43.2169" lon="6.60388">
        <ele>288.3</ele>
        <time>1970-01-01T00:52:26.000Z</time>
      </trkpt>
      <trkpt lat="43.21697" lon="6.60383">
        <ele>288.9</ele>
        <time>1970-01-01T00:52:27.000Z</time>
      </trkpt>
      <trkpt lat="43.21704" lon="6.60378">
        <ele>289.8</ele>
        <time>1970-01-01T00:52:28.000Z</time>
      </trkpt>
      <trkpt lat="43.21711" lon="6.60373">
        <ele>290.9</ele>
        <time>1970-01-01T00:52:29.000Z</time>
      </trkpt>
      <trkpt lat="43.21717" lon="6.60368">
        <ele>291.9</ele>
        <time>1970-01-01T00:52:30.000Z</time>
      </trkpt>
      <trkpt lat="43.21724" lon="6.60361">
        <ele>293.4</ele>
        <time>1970-01-01T00:52:31.000Z</time>
      </trkpt>
      <trkpt lat="43.21732" lon="6.60357">
        <ele>294.5</ele>
        <time>1970-01-01T00:52:32.000Z</time>
      </trkpt>
      <trkpt lat="43.21739" lon="6.60354">
        <ele>295.4</ele>
        <time>1970-01-01T00:52:33.000Z</time>
      </trkpt>
      <trkpt lat="43.2175" lon="6.60349">
        <ele>296.5</ele>
        <time>1970-01-01T00:52:34.000Z</time>
      </trkpt>
      <trkpt lat="43.21757" lon="6.60345">
        <ele>297.1</ele>
        <time>1970-01-01T00:52:36.000Z</time>
      </trkpt>
      <trkpt lat="43.21763" lon="6.60341">
        <ele>297.4</ele>
        <time>1970-01-01T00:52:37.000Z</time>
      </trkpt>
      <trkpt lat="43.2177" lon="6.60336">
        <ele>297.7</ele>
        <time>1970-01-01T00:52:38.000Z</time>
      </trkpt>
      <trkpt lat="43.21778" lon="6.60332">
        <ele>298</ele>
        <time>1970-01-01T00:52:39.000Z</time>
      </trkpt>
      <trkpt lat="43.21787" lon="6.60328">
        <ele>298.2</ele>
        <time>1970-01-01T00:52:40.000Z</time>
      </trkpt>
      <trkpt lat="43.21796" lon="6.60324">
        <ele>298.5</ele>
        <time>1970-01-01T00:52:41.000Z</time>
      </trkpt>
      <trkpt lat="43.21805" lon="6.60319">
        <ele>298.8</ele>
        <time>1970-01-01T00:52:42.000Z</time>
      </trkpt>
      <trkpt lat="43.21816" lon="6.60317">
        <ele>299.3</ele>
        <time>1970-01-01T00:52:43.000Z</time>
      </trkpt>
      <trkpt lat="43.21836" lon="6.60312">
        <ele>300.6</ele>
        <time>1970-01-01T00:52:44.000Z</time>
      </trkpt>
      <trkpt lat="43.21846" lon="6.60311">
        <ele>301.1</ele>
        <time>1970-01-01T00:52:46.000Z</time>
      </trkpt>
      <trkpt lat="43.21855" lon="6.6031">
        <ele>301.3</ele>
        <time>1970-01-01T00:52:47.000Z</time>
      </trkpt>
      <trkpt lat="43.21864" lon="6.60307">
        <ele>301.7</ele>
        <time>1970-01-01T00:52:48.000Z</time>
      </trkpt>
      <trkpt lat="43.21872" lon="6.60302">
        <ele>302</ele>
        <time>1970-01-01T00:52:49.000Z</time>
      </trkpt>
      <trkpt lat="43.21883" lon="6.60298">
        <ele>302.2</ele>
        <time>1970-01-01T00:52:50.000Z</time>
      </trkpt>
      <trkpt lat="43.21895" lon="6.60294">
        <ele>302.4</ele>
        <time>1970-01-01T00:52:51.000Z</time>
      </trkpt>
      <trkpt lat="43.21905" lon="6.6029">
        <ele>302.6</ele>
        <time>1970-01-01T00:52:52.000Z</time>
      </trkpt>
      <trkpt lat="43.21916" lon="6.60285">
        <ele>303</ele>
        <time>1970-01-01T00:52:53.000Z</time>
      </trkpt>
      <trkpt lat="43.21925" lon="6.6028">
        <ele>303.5</ele>
        <time>1970-01-01T00:52:54.000Z</time>
      </trkpt>
      <trkpt lat="43.21933" lon="6.60276">
        <ele>304.1</ele>
        <time>1970-01-01T00:52:55.000Z</time>
      </trkpt>
      <trkpt lat="43.21942" lon="6.60272">
        <ele>305</ele>
        <time>1970-01-01T00:52:56.000Z</time>
      </trkpt>
      <trkpt lat="43.21948" lon="6.60267">
        <ele>305.9</ele>
        <time>1970-01-01T00:52:57.000Z</time>
      </trkpt>
      <trkpt lat="43.21957" lon="6.60261">
        <ele>307.1</ele>
        <time>1970-01-01T00:52:58.000Z</time>
      </trkpt>
      <trkpt lat="43.21965" lon="6.60256">
        <ele>308.1</ele>
        <time>1970-01-01T00:52:59.000Z</time>
      </trkpt>
      <trkpt lat="43.21972" lon="6.6025">
        <ele>309.1</ele>
        <time>1970-01-01T00:53:00.000Z</time>
      </trkpt>
      <trkpt lat="43.21978" lon="6.60244">
        <ele>309.9</ele>
        <time>1970-01-01T00:53:01.000Z</time>
      </trkpt>
      <trkpt lat="43.21982" lon="6.60239">
        <ele>310.5</ele>
        <time>1970-01-01T00:53:02.000Z</time>
      </trkpt>
      <trkpt lat="43.21985" lon="6.60236">
        <ele>310.9</ele>
        <time>1970-01-01T00:53:03.000Z</time>
      </trkpt>
      <trkpt lat="43.2199" lon="6.60234">
        <ele>311.3</ele>
        <time>1970-01-01T00:53:04.000Z</time>
      </trkpt>
      <trkpt lat="43.21994" lon="6.60233">
        <ele>311.6</ele>
        <time>1970-01-01T00:53:05.000Z</time>
      </trkpt>
      <trkpt lat="43.21997" lon="6.60235">
        <ele>311.9</ele>
        <time>1970-01-01T00:53:06.000Z</time>
      </trkpt>
      <trkpt lat="43.22" lon="6.60233">
        <ele>311.9</ele>
        <time>1970-01-01T00:53:07.000Z</time>
      </trkpt>
      <trkpt lat="43.22002" lon="6.60232">
        <ele>311.9</ele>
        <time>1970-01-01T00:53:08.000Z</time>
      </trkpt>
      <trkpt lat="43.22001" lon="6.60226">
        <ele>311.9</ele>
        <time>1970-01-01T00:53:09.000Z</time>
      </trkpt>
      <trkpt lat="43.22001" lon="6.60224">
        <ele>311.9</ele>
        <time>1970-01-01T00:53:10.000Z</time>
      </trkpt>
      <trkpt lat="43.21999" lon="6.60223">
        <ele>311.9</ele>
        <time>1970-01-01T00:53:11.000Z</time>
      </trkpt>
      <trkpt lat="43.21999" lon="6.60223">
        <ele>311.9</ele>
        <time>1970-01-01T00:53:12.000Z</time>
      </trkpt>
      <trkpt lat="43.21998" lon="6.60222">
        <ele>311.9</ele>
        <time>1970-01-01T00:53:13.000Z</time>
      </trkpt>
      <trkpt lat="43.21998" lon="6.60224">
        <ele>311.9</ele>
        <time>1970-01-01T00:53:14.000Z</time>
      </trkpt>
      <trkpt lat="43.21998" lon="6.60225">
        <ele>311.9</ele>
        <time>1970-01-01T00:53:15.000Z</time>
      </trkpt>
      <trkpt lat="43.21998" lon="6.60225">
        <ele>311.9</ele>
        <time>1970-01-01T00:53:16.000Z</time>
      </trkpt>
      <trkpt lat="43.21998" lon="6.60226">
        <ele>311.9</ele>
        <time>1970-01-01T00:53:17.000Z</time>
      </trkpt>
      <trkpt lat="43.21998" lon="6.60226">
        <ele>311.9</ele>
        <time>1970-01-01T00:53:18.000Z</time>
      </trkpt>
      <trkpt lat="43.21998" lon="6.60227">
        <ele>311.9</ele>
        <time>1970-01-01T00:53:19.000Z</time>
      </trkpt>
      <trkpt lat="43.21998" lon="6.60227">
        <ele>311.9</ele>
        <time>1970-01-01T00:53:20.000Z</time>
      </trkpt>
      <trkpt lat="43.21998" lon="6.60228">
        <ele>311.9</ele>
        <time>1970-01-01T00:53:21.000Z</time>
      </trkpt>
      <trkpt lat="43.21999" lon="6.6023">
        <ele>311.9</ele>
        <time>1970-01-01T00:53:22.000Z</time>
      </trkpt>
      <trkpt lat="43.21999" lon="6.60232">
        <ele>311.9</ele>
        <time>1970-01-01T00:53:23.000Z</time>
      </trkpt>
      <trkpt lat="43.21998" lon="6.60234">
        <ele>311.9</ele>
        <time>1970-01-01T00:53:24.000Z</time>
      </trkpt>
      <trkpt lat="43.21996" lon="6.60235">
        <ele>311.9</ele>
        <time>1970-01-01T00:53:25.000Z</time>
      </trkpt>
      <trkpt lat="43.21996" lon="6.60234">
        <ele>311.9</ele>
        <time>1970-01-01T00:53:26.000Z</time>
      </trkpt>
      <trkpt lat="43.21996" lon="6.60235">
        <ele>311.9</ele>
        <time>1970-01-01T00:53:27.000Z</time>
      </trkpt>
      <trkpt lat="43.21996" lon="6.60235">
        <ele>312.9</ele>
        <time>1970-01-01T00:53:28.000Z</time>
      </trkpt>
      <trkpt lat="43.21996" lon="6.60236">
        <ele>312.9</ele>
        <time>1970-01-01T00:53:29.000Z</time>
      </trkpt>
      <trkpt lat="43.21996" lon="6.60236">
        <ele>312.9</ele>
        <time>1970-01-01T00:53:30.000Z</time>
      </trkpt>
      <trkpt lat="43.21996" lon="6.60237">
        <ele>312.9</ele>
        <time>1970-01-01T00:53:31.000Z</time>
      </trkpt>
      <trkpt lat="43.21995" lon="6.60237">
        <ele>312.9</ele>
        <time>1970-01-01T00:53:32.000Z</time>
      </trkpt>
      <trkpt lat="43.21995" lon="6.60238">
        <ele>312.9</ele>
        <time>1970-01-01T00:53:33.000Z</time>
      </trkpt>
      <trkpt lat="43.21995" lon="6.60238">
        <ele>312.9</ele>
        <time>1970-01-01T00:53:34.000Z</time>
      </trkpt>
      <trkpt lat="43.21995" lon="6.60239">
        <ele>312.9</ele>
        <time>1970-01-01T00:53:35.000Z</time>
      </trkpt>
      <trkpt lat="43.21995" lon="6.60239">
        <ele>312.9</ele>
        <time>1970-01-01T00:53:36.000Z</time>
      </trkpt>
      <trkpt lat="43.21994" lon="6.6024">
        <ele>312.8</ele>
        <time>1970-01-01T00:53:37.000Z</time>
      </trkpt>
      <trkpt lat="43.21994" lon="6.6024">
        <ele>312.8</ele>
        <time>1970-01-01T00:53:38.000Z</time>
      </trkpt>
      <trkpt lat="43.21994" lon="6.60241">
        <ele>312.8</ele>
        <time>1970-01-01T00:53:39.000Z</time>
      </trkpt>
      <trkpt lat="43.21994" lon="6.60241">
        <ele>312.8</ele>
        <time>1970-01-01T00:54:08.000Z</time>
      </trkpt>
      <trkpt lat="43.21994" lon="6.60242">
        <ele>312.5</ele>
        <time>1970-01-01T00:54:09.000Z</time>
      </trkpt>
      <trkpt lat="43.21994" lon="6.60242">
        <ele>312.4</ele>
        <time>1970-01-01T00:54:10.000Z</time>
      </trkpt>
      <trkpt lat="43.21993" lon="6.60243">
        <ele>312.4</ele>
        <time>1970-01-01T00:54:11.000Z</time>
      </trkpt>
      <trkpt lat="43.21991" lon="6.60244">
        <ele>312.1</ele>
        <time>1970-01-01T00:54:12.000Z</time>
      </trkpt>
      <trkpt lat="43.2199" lon="6.60245">
        <ele>311.9</ele>
        <time>1970-01-01T00:54:13.000Z</time>
      </trkpt>
      <trkpt lat="43.21989" lon="6.60246">
        <ele>311.7</ele>
        <time>1970-01-01T00:54:14.000Z</time>
      </trkpt>
      <trkpt lat="43.21989" lon="6.60245">
        <ele>311.7</ele>
        <time>1970-01-01T00:54:15.000Z</time>
      </trkpt>
      <trkpt lat="43.2199" lon="6.60247">
        <ele>311.5</ele>
        <time>1970-01-01T00:54:16.000Z</time>
      </trkpt>
      <trkpt lat="43.2199" lon="6.60248">
        <ele>311.4</ele>
        <time>1970-01-01T00:54:17.000Z</time>
      </trkpt>
      <trkpt lat="43.21989" lon="6.60249">
        <ele>311.3</ele>
        <time>1970-01-01T00:54:18.000Z</time>
      </trkpt>
      <trkpt lat="43.21989" lon="6.60249">
        <ele>311.2</ele>
        <time>1970-01-01T00:54:19.000Z</time>
      </trkpt>
      <trkpt lat="43.21989" lon="6.6025">
        <ele>311.2</ele>
        <time>1970-01-01T00:54:20.000Z</time>
      </trkpt>
      <trkpt lat="43.2199" lon="6.6025">
        <ele>311.1</ele>
        <time>1970-01-01T00:54:21.000Z</time>
      </trkpt>
      <trkpt lat="43.2199" lon="6.6025">
        <ele>311.1</ele>
        <time>1970-01-01T00:54:22.000Z</time>
      </trkpt>
      <trkpt lat="43.2199" lon="6.6025">
        <ele>311.1</ele>
        <time>1970-01-01T00:54:23.000Z</time>
      </trkpt>
      <trkpt lat="43.21989" lon="6.60251">
        <ele>310.9</ele>
        <time>1970-01-01T00:54:25.000Z</time>
      </trkpt>
      <trkpt lat="43.21989" lon="6.60253">
        <ele>310.7</ele>
        <time>1970-01-01T00:54:26.000Z</time>
      </trkpt>
      <trkpt lat="43.21988" lon="6.60254">
        <ele>310.5</ele>
        <time>1970-01-01T00:54:27.000Z</time>
      </trkpt>
      <trkpt lat="43.21987" lon="6.60256">
        <ele>310.3</ele>
        <time>1970-01-01T00:54:28.000Z</time>
      </trkpt>
      <trkpt lat="43.21986" lon="6.60257">
        <ele>310.1</ele>
        <time>1970-01-01T00:54:29.000Z</time>
      </trkpt>
      <trkpt lat="43.21985" lon="6.60259">
        <ele>309.9</ele>
        <time>1970-01-01T00:54:30.000Z</time>
      </trkpt>
      <trkpt lat="43.21984" lon="6.6026">
        <ele>309.7</ele>
        <time>1970-01-01T00:54:31.000Z</time>
      </trkpt>
      <trkpt lat="43.21983" lon="6.60262">
        <ele>309.5</ele>
        <time>1970-01-01T00:54:32.000Z</time>
      </trkpt>
      <trkpt lat="43.21982" lon="6.60263">
        <ele>309.3</ele>
        <time>1970-01-01T00:54:33.000Z</time>
      </trkpt>
      <trkpt lat="43.21981" lon="6.60264">
        <ele>309.1</ele>
        <time>1970-01-01T00:54:34.000Z</time>
      </trkpt>
      <trkpt lat="43.2198" lon="6.60266">
        <ele>308.9</ele>
        <time>1970-01-01T00:54:44.000Z</time>
      </trkpt>
      <trkpt lat="43.21979" lon="6.60267">
        <ele>308.7</ele>
        <time>1970-01-01T00:54:45.000Z</time>
      </trkpt>
      <trkpt lat="43.21972" lon="6.60272">
        <ele>307.6</ele>
        <time>1970-01-01T00:54:46.000Z</time>
      </trkpt>
      <trkpt lat="43.21965" lon="6.60274">
        <ele>306.6</ele>
        <time>1970-01-01T00:54:47.000Z</time>
      </trkpt>
      <trkpt lat="43.21955" lon="6.60275">
        <ele>305.4</ele>
        <time>1970-01-01T00:54:48.000Z</time>
      </trkpt>
      <trkpt lat="43.21947" lon="6.6028">
        <ele>304.5</ele>
        <time>1970-01-01T00:54:49.000Z</time>
      </trkpt>
      <trkpt lat="43.21937" lon="6.6028">
        <ele>303.4</ele>
        <time>1970-01-01T00:54:50.000Z</time>
      </trkpt>
      <trkpt lat="43.21928" lon="6.6028">
        <ele>302.9</ele>
        <time>1970-01-01T00:54:51.000Z</time>
      </trkpt>
      <trkpt lat="43.21919" lon="6.60285">
        <ele>302.4</ele>
        <time>1970-01-01T00:54:52.000Z</time>
      </trkpt>
      <trkpt lat="43.2191" lon="6.6029">
        <ele>301.9</ele>
        <time>1970-01-01T00:54:53.000Z</time>
      </trkpt>
      <trkpt lat="43.219" lon="6.60295">
        <ele>301.4</ele>
        <time>1970-01-01T00:54:54.000Z</time>
      </trkpt>
      <trkpt lat="43.21892" lon="6.60299">
        <ele>301.1</ele>
        <time>1970-01-01T00:54:55.000Z</time>
      </trkpt>
      <trkpt lat="43.21883" lon="6.60302">
        <ele>301</ele>
        <time>1970-01-01T00:54:56.000Z</time>
      </trkpt>
      <trkpt lat="43.21874" lon="6.60307">
        <ele>301</ele>
        <time>1970-01-01T00:54:57.000Z</time>
      </trkpt>
      <trkpt lat="43.21868" lon="6.60313">
        <ele>301</ele>
        <time>1970-01-01T00:54:58.000Z</time>
      </trkpt>
      <trkpt lat="43.21862" lon="6.60317">
        <ele>301</ele>
        <time>1970-01-01T00:54:59.000Z</time>
      </trkpt>
      <trkpt lat="43.21855" lon="6.6032">
        <ele>300.9</ele>
        <time>1970-01-01T00:55:00.000Z</time>
      </trkpt>
      <trkpt lat="43.21847" lon="6.60321">
        <ele>300.8</ele>
        <time>1970-01-01T00:55:01.000Z</time>
      </trkpt>
      <trkpt lat="43.21839" lon="6.60323">
        <ele>300.4</ele>
        <time>1970-01-01T00:55:02.000Z</time>
      </trkpt>
      <trkpt lat="43.21831" lon="6.60326">
        <ele>299.9</ele>
        <time>1970-01-01T00:55:03.000Z</time>
      </trkpt>
      <trkpt lat="43.21824" lon="6.60325">
        <ele>299.6</ele>
        <time>1970-01-01T00:55:04.000Z</time>
      </trkpt>
      <trkpt lat="43.21815" lon="6.60325">
        <ele>299.1</ele>
        <time>1970-01-01T00:55:05.000Z</time>
      </trkpt>
      <trkpt lat="43.21806" lon="6.60326">
        <ele>298.7</ele>
        <time>1970-01-01T00:55:06.000Z</time>
      </trkpt>
      <trkpt lat="43.21796" lon="6.60327">
        <ele>298.4</ele>
        <time>1970-01-01T00:55:07.000Z</time>
      </trkpt>
      <trkpt lat="43.21787" lon="6.60333">
        <ele>298.2</ele>
        <time>1970-01-01T00:55:08.000Z</time>
      </trkpt>
      <trkpt lat="43.2178" lon="6.60339">
        <ele>298.1</ele>
        <time>1970-01-01T00:55:09.000Z</time>
      </trkpt>
      <trkpt lat="43.21775" lon="6.60338">
        <ele>298</ele>
        <time>1970-01-01T00:55:11.000Z</time>
      </trkpt>
      <trkpt lat="43.2177" lon="6.60337">
        <ele>297.8</ele>
        <time>1970-01-01T00:55:12.000Z</time>
      </trkpt>
      <trkpt lat="43.21764" lon="6.60342">
        <ele>297.5</ele>
        <time>1970-01-01T00:55:13.000Z</time>
      </trkpt>
      <trkpt lat="43.21758" lon="6.60346">
        <ele>297.1</ele>
        <time>1970-01-01T00:55:14.000Z</time>
      </trkpt>
      <trkpt lat="43.21749" lon="6.60349">
        <ele>296.6</ele>
        <time>1970-01-01T00:55:15.000Z</time>
      </trkpt>
      <trkpt lat="43.21741" lon="6.60351">
        <ele>296.2</ele>
        <time>1970-01-01T00:55:16.000Z</time>
      </trkpt>
      <trkpt lat="43.21733" lon="6.60356">
        <ele>295.7</ele>
        <time>1970-01-01T00:55:17.000Z</time>
      </trkpt>
      <trkpt lat="43.21725" lon="6.60361">
        <ele>295</ele>
        <time>1970-01-01T00:55:18.000Z</time>
      </trkpt>
      <trkpt lat="43.21718" lon="6.60367">
        <ele>294.3</ele>
        <time>1970-01-01T00:55:19.000Z</time>
      </trkpt>
      <trkpt lat="43.21713" lon="6.60373">
        <ele>293.5</ele>
        <time>1970-01-01T00:55:20.000Z</time>
      </trkpt>
      <trkpt lat="43.21706" lon="6.60374">
        <ele>292.7</ele>
        <time>1970-01-01T00:55:21.000Z</time>
      </trkpt>
      <trkpt lat="43.21701" lon="6.60379">
        <ele>291.9</ele>
        <time>1970-01-01T00:55:22.000Z</time>
      </trkpt>
      <trkpt lat="43.21694" lon="6.60386">
        <ele>290.9</ele>
        <time>1970-01-01T00:55:23.000Z</time>
      </trkpt>
      <trkpt lat="43.21685" lon="6.60392">
        <ele>289.8</ele>
        <time>1970-01-01T00:55:24.000Z</time>
      </trkpt>
      <trkpt lat="43.21674" lon="6.60394">
        <ele>288.8</ele>
        <time>1970-01-01T00:55:25.000Z</time>
      </trkpt>
      <trkpt lat="43.21664" lon="6.60398">
        <ele>288</ele>
        <time>1970-01-01T00:55:26.000Z</time>
      </trkpt>
      <trkpt lat="43.21655" lon="6.60408">
        <ele>287.3</ele>
        <time>1970-01-01T00:55:27.000Z</time>
      </trkpt>
      <trkpt lat="43.21647" lon="6.60416">
        <ele>286.8</ele>
        <time>1970-01-01T00:55:28.000Z</time>
      </trkpt>
      <trkpt lat="43.21639" lon="6.60421">
        <ele>286.4</ele>
        <time>1970-01-01T00:55:29.000Z</time>
      </trkpt>
      <trkpt lat="43.21632" lon="6.60428">
        <ele>285.9</ele>
        <time>1970-01-01T00:55:30.000Z</time>
      </trkpt>
      <trkpt lat="43.21626" lon="6.60432">
        <ele>285.4</ele>
        <time>1970-01-01T00:55:31.000Z</time>
      </trkpt>
      <trkpt lat="43.21623" lon="6.60433">
        <ele>284.9</ele>
        <time>1970-01-01T00:55:32.000Z</time>
      </trkpt>
      <trkpt lat="43.21623" lon="6.6044">
        <ele>284</ele>
        <time>1970-01-01T00:55:33.000Z</time>
      </trkpt>
      <trkpt lat="43.21627" lon="6.60446">
        <ele>282.9</ele>
        <time>1970-01-01T00:55:34.000Z</time>
      </trkpt>
      <trkpt lat="43.21631" lon="6.60447">
        <ele>282.1</ele>
        <time>1970-01-01T00:55:35.000Z</time>
      </trkpt>
      <trkpt lat="43.21629" lon="6.60451">
        <ele>281.3</ele>
        <time>1970-01-01T00:55:36.000Z</time>
      </trkpt>
      <trkpt lat="43.21631" lon="6.60456">
        <ele>280.5</ele>
        <time>1970-01-01T00:55:37.000Z</time>
      </trkpt>
      <trkpt lat="43.21638" lon="6.60456">
        <ele>279</ele>
        <time>1970-01-01T00:55:38.000Z</time>
      </trkpt>
      <trkpt lat="43.21642" lon="6.60457">
        <ele>277.9</ele>
        <time>1970-01-01T00:55:39.000Z</time>
      </trkpt>
      <trkpt lat="43.21646" lon="6.60459">
        <ele>277</ele>
        <time>1970-01-01T00:55:40.000Z</time>
      </trkpt>
      <trkpt lat="43.21644" lon="6.60464">
        <ele>276</ele>
        <time>1970-01-01T00:55:41.000Z</time>
      </trkpt>
      <trkpt lat="43.2164" lon="6.60468">
        <ele>274.8</ele>
        <time>1970-01-01T00:55:42.000Z</time>
      </trkpt>
      <trkpt lat="43.21642" lon="6.60473">
        <ele>273.8</ele>
        <time>1970-01-01T00:55:43.000Z</time>
      </trkpt>
      <trkpt lat="43.21649" lon="6.60475">
        <ele>272.3</ele>
        <time>1970-01-01T00:55:44.000Z</time>
      </trkpt>
      <trkpt lat="43.21651" lon="6.60477">
        <ele>271.6</ele>
        <time>1970-01-01T00:55:45.000Z</time>
      </trkpt>
      <trkpt lat="43.2165" lon="6.60483">
        <ele>270.7</ele>
        <time>1970-01-01T00:55:46.000Z</time>
      </trkpt>
      <trkpt lat="43.21647" lon="6.60486">
        <ele>269.7</ele>
        <time>1970-01-01T00:55:47.000Z</time>
      </trkpt>
      <trkpt lat="43.21642" lon="6.60489">
        <ele>262.3</ele>
        <time>1970-01-01T00:55:48.000Z</time>
      </trkpt>
      <trkpt lat="43.21642" lon="6.60495">
        <ele>260.7</ele>
        <time>1970-01-01T00:55:49.000Z</time>
      </trkpt>
      <trkpt lat="43.21647" lon="6.60503">
        <ele>257.1</ele>
        <time>1970-01-01T00:55:50.000Z</time>
      </trkpt>
      <trkpt lat="43.21651" lon="6.60514">
        <ele>254.4</ele>
        <time>1970-01-01T00:55:51.000Z</time>
      </trkpt>
      <trkpt lat="43.21656" lon="6.60527">
        <ele>251.6</ele>
        <time>1970-01-01T00:55:52.000Z</time>
      </trkpt>
      <trkpt lat="43.21661" lon="6.60541">
        <ele>248.7</ele>
        <time>1970-01-01T00:55:53.000Z</time>
      </trkpt>
      <trkpt lat="43.21663" lon="6.60554">
        <ele>246.8</ele>
        <time>1970-01-01T00:55:54.000Z</time>
      </trkpt>
      <trkpt lat="43.21667" lon="6.60565">
        <ele>245.3</ele>
        <time>1970-01-01T00:55:55.000Z</time>
      </trkpt>
      <trkpt lat="43.2167" lon="6.60578">
        <ele>243.9</ele>
        <time>1970-01-01T00:55:56.000Z</time>
      </trkpt>
      <trkpt lat="43.21672" lon="6.60588">
        <ele>242.9</ele>
        <time>1970-01-01T00:55:57.000Z</time>
      </trkpt>
      <trkpt lat="43.21672" lon="6.60602">
        <ele>241.7</ele>
        <time>1970-01-01T00:55:58.000Z</time>
      </trkpt>
      <trkpt lat="43.21677" lon="6.60609">
        <ele>240.8</ele>
        <time>1970-01-01T00:55:59.000Z</time>
      </trkpt>
      <trkpt lat="43.21681" lon="6.60617">
        <ele>240</ele>
        <time>1970-01-01T00:56:00.000Z</time>
      </trkpt>
      <trkpt lat="43.21685" lon="6.60628">
        <ele>238.9</ele>
        <time>1970-01-01T00:56:01.000Z</time>
      </trkpt>
      <trkpt lat="43.21685" lon="6.60641">
        <ele>237.4</ele>
        <time>1970-01-01T00:56:02.000Z</time>
      </trkpt>
      <trkpt lat="43.21687" lon="6.60652">
        <ele>235.5</ele>
        <time>1970-01-01T00:56:03.000Z</time>
      </trkpt>
      <trkpt lat="43.21687" lon="6.60657">
        <ele>234.7</ele>
        <time>1970-01-01T00:56:04.000Z</time>
      </trkpt>
      <trkpt lat="43.21686" lon="6.60657">
        <ele>234.5</ele>
        <time>1970-01-01T00:56:05.000Z</time>
      </trkpt>
      <trkpt lat="43.21684" lon="6.60657">
        <ele>233.9</ele>
        <time>1970-01-01T00:56:06.000Z</time>
      </trkpt>
      <trkpt lat="43.21682" lon="6.60657">
        <ele>233.2</ele>
        <time>1970-01-01T00:56:07.000Z</time>
      </trkpt>
      <trkpt lat="43.21679" lon="6.60661">
        <ele>231.9</ele>
        <time>1970-01-01T00:56:08.000Z</time>
      </trkpt>
      <trkpt lat="43.2168" lon="6.60668">
        <ele>229.9</ele>
        <time>1970-01-01T00:56:09.000Z</time>
      </trkpt>
      <trkpt lat="43.21684" lon="6.60672">
        <ele>227.8</ele>
        <time>1970-01-01T00:56:10.000Z</time>
      </trkpt>
      <trkpt lat="43.21687" lon="6.60678">
        <ele>225.7</ele>
        <time>1970-01-01T00:56:11.000Z</time>
      </trkpt>
      <trkpt lat="43.21688" lon="6.60684">
        <ele>224.1</ele>
        <time>1970-01-01T00:56:12.000Z</time>
      </trkpt>
      <trkpt lat="43.21686" lon="6.60685">
        <ele>223.1</ele>
        <time>1970-01-01T00:56:13.000Z</time>
      </trkpt>
      <trkpt lat="43.21683" lon="6.60685">
        <ele>222.1</ele>
        <time>1970-01-01T00:56:14.000Z</time>
      </trkpt>
      <trkpt lat="43.21678" lon="6.60684">
        <ele>220.2</ele>
        <time>1970-01-01T00:56:15.000Z</time>
      </trkpt>
      <trkpt lat="43.21673" lon="6.60686">
        <ele>218.4</ele>
        <time>1970-01-01T00:56:16.000Z</time>
      </trkpt>
      <trkpt lat="43.21671" lon="6.60693">
        <ele>216.4</ele>
        <time>1970-01-01T00:56:17.000Z</time>
      </trkpt>
      <trkpt lat="43.21669" lon="6.60704">
        <ele>213.6</ele>
        <time>1970-01-01T00:56:18.000Z</time>
      </trkpt>
      <trkpt lat="43.21667" lon="6.60716">
        <ele>211.7</ele>
        <time>1970-01-01T00:56:19.000Z</time>
      </trkpt>
      <trkpt lat="43.21668" lon="6.60725">
        <ele>210.4</ele>
        <time>1970-01-01T00:56:20.000Z</time>
      </trkpt>
      <trkpt lat="43.21672" lon="6.60737">
        <ele>208.9</ele>
        <time>1970-01-01T00:56:21.000Z</time>
      </trkpt>
      <trkpt lat="43.2167" lon="6.60746">
        <ele>207.9</ele>
        <time>1970-01-01T00:56:22.000Z</time>
      </trkpt>
      <trkpt lat="43.21666" lon="6.60756">
        <ele>206.7</ele>
        <time>1970-01-01T00:56:23.000Z</time>
      </trkpt>
      <trkpt lat="43.21663" lon="6.60762">
        <ele>205.7</ele>
        <time>1970-01-01T00:56:24.000Z</time>
      </trkpt>
      <trkpt lat="43.21662" lon="6.60765">
        <ele>205.6</ele>
        <time>1970-01-01T00:56:25.000Z</time>
      </trkpt>
      <trkpt lat="43.21664" lon="6.60768">
        <ele>205.1</ele>
        <time>1970-01-01T00:56:26.000Z</time>
      </trkpt>
      <trkpt lat="43.21668" lon="6.60773">
        <ele>204</ele>
        <time>1970-01-01T00:56:27.000Z</time>
      </trkpt>
      <trkpt lat="43.21674" lon="6.60779">
        <ele>202.3</ele>
        <time>1970-01-01T00:56:28.000Z</time>
      </trkpt>
      <trkpt lat="43.21676" lon="6.60782">
        <ele>201.6</ele>
        <time>1970-01-01T00:56:29.000Z</time>
      </trkpt>
      <trkpt lat="43.21674" lon="6.60789">
        <ele>200.1</ele>
        <time>1970-01-01T00:56:30.000Z</time>
      </trkpt>
      <trkpt lat="43.21674" lon="6.60792">
        <ele>199.4</ele>
        <time>1970-01-01T00:56:31.000Z</time>
      </trkpt>
      <trkpt lat="43.21669" lon="6.60794">
        <ele>197.9</ele>
        <time>1970-01-01T00:56:32.000Z</time>
      </trkpt>
      <trkpt lat="43.21667" lon="6.608">
        <ele>196.4</ele>
        <time>1970-01-01T00:56:33.000Z</time>
      </trkpt>
      <trkpt lat="43.21669" lon="6.60804">
        <ele>195.2</ele>
        <time>1970-01-01T00:56:34.000Z</time>
      </trkpt>
      <trkpt lat="43.21665" lon="6.60807">
        <ele>193.7</ele>
        <time>1970-01-01T00:56:35.000Z</time>
      </trkpt>
      <trkpt lat="43.21662" lon="6.60808">
        <ele>192.9</ele>
        <time>1970-01-01T00:56:36.000Z</time>
      </trkpt>
      <trkpt lat="43.21661" lon="6.60814">
        <ele>191.3</ele>
        <time>1970-01-01T00:56:37.000Z</time>
      </trkpt>
      <trkpt lat="43.2166" lon="6.60818">
        <ele>190.4</ele>
        <time>1970-01-01T00:56:38.000Z</time>
      </trkpt>
      <trkpt lat="43.21659" lon="6.60819">
        <ele>190</ele>
        <time>1970-01-01T00:56:39.000Z</time>
      </trkpt>
      <trkpt lat="43.21655" lon="6.6082">
        <ele>188.6</ele>
        <time>1970-01-01T00:56:40.000Z</time>
      </trkpt>
      <trkpt lat="43.21651" lon="6.60826">
        <ele>186.9</ele>
        <time>1970-01-01T00:56:41.000Z</time>
      </trkpt>
      <trkpt lat="43.21648" lon="6.6083">
        <ele>185.8</ele>
        <time>1970-01-01T00:56:42.000Z</time>
      </trkpt>
      <trkpt lat="43.21646" lon="6.60834">
        <ele>184.8</ele>
        <time>1970-01-01T00:56:43.000Z</time>
      </trkpt>
      <trkpt lat="43.21652" lon="6.60846">
        <ele>181.9</ele>
        <time>1970-01-01T00:56:44.000Z</time>
      </trkpt>
      <trkpt lat="43.21656" lon="6.60854">
        <ele>180.4</ele>
        <time>1970-01-01T00:56:45.000Z</time>
      </trkpt>
      <trkpt lat="43.21664" lon="6.60878">
        <ele>175</ele>
        <time>1970-01-01T00:56:46.000Z</time>
      </trkpt>
      <trkpt lat="43.21661" lon="6.60891">
        <ele>173.3</ele>
        <time>1970-01-01T00:56:47.000Z</time>
      </trkpt>
      <trkpt lat="43.21659" lon="6.60898">
        <ele>172.2</ele>
        <time>1970-01-01T00:56:48.000Z</time>
      </trkpt>
      <trkpt lat="43.21664" lon="6.60902">
        <ele>171</ele>
        <time>1970-01-01T00:56:49.000Z</time>
      </trkpt>
      <trkpt lat="43.21672" lon="6.609">
        <ele>169.2</ele>
        <time>1970-01-01T00:56:50.000Z</time>
      </trkpt>
      <trkpt lat="43.21676" lon="6.609">
        <ele>168.2</ele>
        <time>1970-01-01T00:56:51.000Z</time>
      </trkpt>
      <trkpt lat="43.21677" lon="6.60906">
        <ele>167.3</ele>
        <time>1970-01-01T00:56:52.000Z</time>
      </trkpt>
      <trkpt lat="43.21677" lon="6.60918">
        <ele>165.5</ele>
        <time>1970-01-01T00:56:53.000Z</time>
      </trkpt>
      <trkpt lat="43.21683" lon="6.60929">
        <ele>163.7</ele>
        <time>1970-01-01T00:56:54.000Z</time>
      </trkpt>
      <trkpt lat="43.21691" lon="6.60937">
        <ele>161.9</ele>
        <time>1970-01-01T00:56:55.000Z</time>
      </trkpt>
      <trkpt lat="43.21698" lon="6.60942">
        <ele>160.3</ele>
        <time>1970-01-01T00:56:56.000Z</time>
      </trkpt>
      <trkpt lat="43.21701" lon="6.60947">
        <ele>159.1</ele>
        <time>1970-01-01T00:56:57.000Z</time>
      </trkpt>
      <trkpt lat="43.21699" lon="6.60953">
        <ele>158</ele>
        <time>1970-01-01T00:56:58.000Z</time>
      </trkpt>
      <trkpt lat="43.21693" lon="6.60956">
        <ele>156.4</ele>
        <time>1970-01-01T00:56:59.000Z</time>
      </trkpt>
      <trkpt lat="43.21691" lon="6.60964">
        <ele>154.6</ele>
        <time>1970-01-01T00:57:00.000Z</time>
      </trkpt>
      <trkpt lat="43.21693" lon="6.60969">
        <ele>153.3</ele>
        <time>1970-01-01T00:57:01.000Z</time>
      </trkpt>
      <trkpt lat="43.21696" lon="6.60969">
        <ele>152.4</ele>
        <time>1970-01-01T00:57:02.000Z</time>
      </trkpt>
      <trkpt lat="43.21699" lon="6.60968">
        <ele>151.6</ele>
        <time>1970-01-01T00:57:03.000Z</time>
      </trkpt>
      <trkpt lat="43.21703" lon="6.60968">
        <ele>150.5</ele>
        <time>1970-01-01T00:57:04.000Z</time>
      </trkpt>
      <trkpt lat="43.21707" lon="6.60969">
        <ele>149.4</ele>
        <time>1970-01-01T00:57:05.000Z</time>
      </trkpt>
      <trkpt lat="43.2171" lon="6.60972">
        <ele>148.6</ele>
        <time>1970-01-01T00:57:06.000Z</time>
      </trkpt>
      <trkpt lat="43.21714" lon="6.60975">
        <ele>147.6</ele>
        <time>1970-01-01T00:57:07.000Z</time>
      </trkpt>
      <trkpt lat="43.21718" lon="6.60975">
        <ele>146.8</ele>
        <time>1970-01-01T00:57:08.000Z</time>
      </trkpt>
      <trkpt lat="43.21722" lon="6.60975">
        <ele>146</ele>
        <time>1970-01-01T00:57:09.000Z</time>
      </trkpt>
      <trkpt lat="43.21726" lon="6.60978">
        <ele>145.3</ele>
        <time>1970-01-01T00:57:10.000Z</time>
      </trkpt>
      <trkpt lat="43.21724" lon="6.60984">
        <ele>143.6</ele>
        <time>1970-01-01T00:57:11.000Z</time>
      </trkpt>
      <trkpt lat="43.2172" lon="6.60989">
        <ele>142.6</ele>
        <time>1970-01-01T00:57:12.000Z</time>
      </trkpt>
      <trkpt lat="43.21716" lon="6.60992">
        <ele>142.1</ele>
        <time>1970-01-01T00:57:13.000Z</time>
      </trkpt>
      <trkpt lat="43.21715" lon="6.60994">
        <ele>142.1</ele>
        <time>1970-01-01T00:57:14.000Z</time>
      </trkpt>
      <trkpt lat="43.21713" lon="6.60997">
        <ele>142.3</ele>
        <time>1970-01-01T00:57:16.000Z</time>
      </trkpt>
      <trkpt lat="43.21712" lon="6.60998">
        <ele>142.4</ele>
        <time>1970-01-01T00:57:17.000Z</time>
      </trkpt>
      <trkpt lat="43.21711" lon="6.61002">
        <ele>142.5</ele>
        <time>1970-01-01T00:57:18.000Z</time>
      </trkpt>
      <trkpt lat="43.2171" lon="6.61003">
        <ele>142.6</ele>
        <time>1970-01-01T00:57:19.000Z</time>
      </trkpt>
      <trkpt lat="43.2171" lon="6.61005">
        <ele>142.7</ele>
        <time>1970-01-01T00:57:20.000Z</time>
      </trkpt>
      <trkpt lat="43.2171" lon="6.61005">
        <ele>142.7</ele>
        <time>1970-01-01T00:57:21.000Z</time>
      </trkpt>
      <trkpt lat="43.21709" lon="6.61005">
        <ele>142.7</ele>
        <time>1970-01-01T00:57:22.000Z</time>
      </trkpt>
      <trkpt lat="43.21709" lon="6.61005">
        <ele>142.7</ele>
        <time>1970-01-01T00:57:23.000Z</time>
      </trkpt>
      <trkpt lat="43.21709" lon="6.61005">
        <ele>142.7</ele>
        <time>1970-01-01T00:57:24.000Z</time>
      </trkpt>
      <trkpt lat="43.21709" lon="6.61005">
        <ele>142.7</ele>
        <time>1970-01-01T00:57:25.000Z</time>
      </trkpt>
      <trkpt lat="43.21709" lon="6.61005">
        <ele>142.7</ele>
        <time>1970-01-01T00:57:26.000Z</time>
      </trkpt>
      <trkpt lat="43.21709" lon="6.61005">
        <ele>142.7</ele>
        <time>1970-01-01T00:57:27.000Z</time>
      </trkpt>
      <trkpt lat="43.21709" lon="6.61005">
        <ele>142.7</ele>
        <time>1970-01-01T00:57:28.000Z</time>
      </trkpt>
      <trkpt lat="43.21709" lon="6.61005">
        <ele>142.7</ele>
        <time>1970-01-01T00:57:29.000Z</time>
      </trkpt>
      <trkpt lat="43.21709" lon="6.61005">
        <ele>142.7</ele>
        <time>1970-01-01T00:57:30.000Z</time>
      </trkpt>
      <trkpt lat="43.21709" lon="6.61006">
        <ele>142.7</ele>
        <time>1970-01-01T00:57:31.000Z</time>
      </trkpt>
      <trkpt lat="43.21709" lon="6.61006">
        <ele>142.7</ele>
        <time>1970-01-01T01:00:14.000Z</time>
      </trkpt>
      <trkpt lat="43.21709" lon="6.61006">
        <ele>142.7</ele>
        <time>1970-01-01T01:00:15.000Z</time>
      </trkpt>
      <trkpt lat="43.21709" lon="6.61006">
        <ele>142.7</ele>
        <time>1970-01-01T01:00:16.000Z</time>
      </trkpt>
      <trkpt lat="43.21709" lon="6.61006">
        <ele>142.7</ele>
        <time>1970-01-01T01:00:17.000Z</time>
      </trkpt>
      <trkpt lat="43.21709" lon="6.61006">
        <ele>142.7</ele>
        <time>1970-01-01T01:00:18.000Z</time>
      </trkpt>
      <trkpt lat="43.21708" lon="6.61006">
        <ele>142.7</ele>
        <time>1970-01-01T01:00:19.000Z</time>
      </trkpt>
      <trkpt lat="43.21708" lon="6.61006">
        <ele>142.7</ele>
        <time>1970-01-01T01:00:20.000Z</time>
      </trkpt>
      <trkpt lat="43.21708" lon="6.61006">
        <ele>142.7</ele>
        <time>1970-01-01T01:00:21.000Z</time>
      </trkpt>
      <trkpt lat="43.21708" lon="6.61006">
        <ele>142.8</ele>
        <time>1970-01-01T01:00:22.000Z</time>
      </trkpt>
      <trkpt lat="43.21708" lon="6.61006">
        <ele>142.8</ele>
        <time>1970-01-01T01:00:23.000Z</time>
      </trkpt>
      <trkpt lat="43.21708" lon="6.61006">
        <ele>142.8</ele>
        <time>1970-01-01T01:00:24.000Z</time>
      </trkpt>
      <trkpt lat="43.21708" lon="6.61006">
        <ele>142.8</ele>
        <time>1970-01-01T01:00:57.000Z</time>
      </trkpt>
      <trkpt lat="43.21708" lon="6.61007">
        <ele>142.8</ele>
        <time>1970-01-01T01:00:58.000Z</time>
      </trkpt>
      <trkpt lat="43.21708" lon="6.61007">
        <ele>142.8</ele>
        <time>1970-01-01T01:00:59.000Z</time>
      </trkpt>
      <trkpt lat="43.21708" lon="6.61007">
        <ele>142.8</ele>
        <time>1970-01-01T01:01:00.000Z</time>
      </trkpt>
      <trkpt lat="43.21708" lon="6.61007">
        <ele>142.8</ele>
        <time>1970-01-01T01:01:01.000Z</time>
      </trkpt>
      <trkpt lat="43.21708" lon="6.61007">
        <ele>142.8</ele>
        <time>1970-01-01T01:01:02.000Z</time>
      </trkpt>
      <trkpt lat="43.21708" lon="6.61007">
        <ele>142.8</ele>
        <time>1970-01-01T01:01:03.000Z</time>
      </trkpt>
      <trkpt lat="43.21708" lon="6.61007">
        <ele>142.8</ele>
        <time>1970-01-01T01:01:04.000Z</time>
      </trkpt>
      <trkpt lat="43.21708" lon="6.61007">
        <ele>142.8</ele>
        <time>1970-01-01T01:01:05.000Z</time>
      </trkpt>
      <trkpt lat="43.21707" lon="6.61007">
        <ele>142.8</ele>
        <time>1970-01-01T01:01:06.000Z</time>
      </trkpt>
      <trkpt lat="43.21707" lon="6.61007">
        <ele>142.8</ele>
        <time>1970-01-01T01:01:07.000Z</time>
      </trkpt>
      <trkpt lat="43.21707" lon="6.61007">
        <ele>142.8</ele>
        <time>1970-01-01T01:01:28.000Z</time>
      </trkpt>
      <trkpt lat="43.21707" lon="6.61007">
        <ele>142.8</ele>
        <time>1970-01-01T01:01:29.000Z</time>
      </trkpt>
      <trkpt lat="43.21707" lon="6.61007">
        <ele>142.8</ele>
        <time>1970-01-01T01:01:30.000Z</time>
      </trkpt>
      <trkpt lat="43.21707" lon="6.61007">
        <ele>142.8</ele>
        <time>1970-01-01T01:01:31.000Z</time>
      </trkpt>
      <trkpt lat="43.21707" lon="6.61008">
        <ele>142.8</ele>
        <time>1970-01-01T01:01:32.000Z</time>
      </trkpt>
      <trkpt lat="43.21707" lon="6.61008">
        <ele>142.8</ele>
        <time>1970-01-01T01:01:33.000Z</time>
      </trkpt>
      <trkpt lat="43.21707" lon="6.61008">
        <ele>142.9</ele>
        <time>1970-01-01T01:01:34.000Z</time>
      </trkpt>
      <trkpt lat="43.21707" lon="6.61008">
        <ele>142.9</ele>
        <time>1970-01-01T01:01:35.000Z</time>
      </trkpt>
      <trkpt lat="43.21707" lon="6.61008">
        <ele>142.9</ele>
        <time>1970-01-01T01:01:36.000Z</time>
      </trkpt>
      <trkpt lat="43.21707" lon="6.61008">
        <ele>142.9</ele>
        <time>1970-01-01T01:01:37.000Z</time>
      </trkpt>
      <trkpt lat="43.21707" lon="6.61008">
        <ele>142.9</ele>
        <time>1970-01-01T01:01:39.000Z</time>
      </trkpt>
      <trkpt lat="43.21707" lon="6.61008">
        <ele>142.9</ele>
        <time>1970-01-01T01:01:40.000Z</time>
      </trkpt>
      <trkpt lat="43.21707" lon="6.61008">
        <ele>142.9</ele>
        <time>1970-01-01T01:01:41.000Z</time>
      </trkpt>
      <trkpt lat="43.21706" lon="6.61008">
        <ele>142.9</ele>
        <time>1970-01-01T01:01:42.000Z</time>
      </trkpt>
      <trkpt lat="43.21706" lon="6.61008">
        <ele>142.9</ele>
        <time>1970-01-01T01:01:43.000Z</time>
      </trkpt>
      <trkpt lat="43.21706" lon="6.61008">
        <ele>142.9</ele>
        <time>1970-01-01T01:01:44.000Z</time>
      </trkpt>
      <trkpt lat="43.21705" lon="6.61014">
        <ele>143.1</ele>
        <time>1970-01-01T01:01:45.000Z</time>
      </trkpt>
      <trkpt lat="43.21705" lon="6.61016">
        <ele>143.2</ele>
        <time>1970-01-01T01:01:46.000Z</time>
      </trkpt>
      <trkpt lat="43.21703" lon="6.61021">
        <ele>143.3</ele>
        <time>1970-01-01T01:01:47.000Z</time>
      </trkpt>
      <trkpt lat="43.21702" lon="6.61027">
        <ele>143.5</ele>
        <time>1970-01-01T01:01:48.000Z</time>
      </trkpt>
      <trkpt lat="43.21702" lon="6.61035">
        <ele>143.8</ele>
        <time>1970-01-01T01:01:49.000Z</time>
      </trkpt>
      <trkpt lat="43.21699" lon="6.61043">
        <ele>144</ele>
        <time>1970-01-01T01:01:50.000Z</time>
      </trkpt>
      <trkpt lat="43.21698" lon="6.61051">
        <ele>144.3</ele>
        <time>1970-01-01T01:01:51.000Z</time>
      </trkpt>
      <trkpt lat="43.21696" lon="6.61059">
        <ele>144.5</ele>
        <time>1970-01-01T01:01:52.000Z</time>
      </trkpt>
      <trkpt lat="43.21694" lon="6.61068">
        <ele>144.7</ele>
        <time>1970-01-01T01:01:53.000Z</time>
      </trkpt>
      <trkpt lat="43.21691" lon="6.61076">
        <ele>145</ele>
        <time>1970-01-01T01:01:54.000Z</time>
      </trkpt>
      <trkpt lat="43.21687" lon="6.61081">
        <ele>145.1</ele>
        <time>1970-01-01T01:01:55.000Z</time>
      </trkpt>
      <trkpt lat="43.21682" lon="6.61086">
        <ele>145.3</ele>
        <time>1970-01-01T01:01:56.000Z</time>
      </trkpt>
      <trkpt lat="43.21676" lon="6.61091">
        <ele>145.4</ele>
        <time>1970-01-01T01:01:57.000Z</time>
      </trkpt>
      <trkpt lat="43.21669" lon="6.61094">
        <ele>145.5</ele>
        <time>1970-01-01T01:01:58.000Z</time>
      </trkpt>
      <trkpt lat="43.21661" lon="6.61096">
        <ele>145.6</ele>
        <time>1970-01-01T01:01:59.000Z</time>
      </trkpt>
      <trkpt lat="43.21654" lon="6.61098">
        <ele>145.7</ele>
        <time>1970-01-01T01:02:00.000Z</time>
      </trkpt>
      <trkpt lat="43.21648" lon="6.61098">
        <ele>145.7</ele>
        <time>1970-01-01T01:02:01.000Z</time>
      </trkpt>
      <trkpt lat="43.21641" lon="6.611">
        <ele>145.8</ele>
        <time>1970-01-01T01:02:02.000Z</time>
      </trkpt>
      <trkpt lat="43.21633" lon="6.61101">
        <ele>145.8</ele>
        <time>1970-01-01T01:02:03.000Z</time>
      </trkpt>
      <trkpt lat="43.21625" lon="6.61102">
        <ele>145.8</ele>
        <time>1970-01-01T01:02:04.000Z</time>
      </trkpt>
      <trkpt lat="43.21617" lon="6.61102">
        <ele>145.8</ele>
        <time>1970-01-01T01:02:05.000Z</time>
      </trkpt>
      <trkpt lat="43.2161" lon="6.61103">
        <ele>145.8</ele>
        <time>1970-01-01T01:02:06.000Z</time>
      </trkpt>
      <trkpt lat="43.21602" lon="6.61103">
        <ele>145.8</ele>
        <time>1970-01-01T01:02:07.000Z</time>
      </trkpt>
      <trkpt lat="43.21595" lon="6.61103">
        <ele>145.8</ele>
        <time>1970-01-01T01:02:08.000Z</time>
      </trkpt>
      <trkpt lat="43.21586" lon="6.61103">
        <ele>145.7</ele>
        <time>1970-01-01T01:02:09.000Z</time>
      </trkpt>
      <trkpt lat="43.21578" lon="6.61104">
        <ele>145.6</ele>
        <time>1970-01-01T01:02:10.000Z</time>
      </trkpt>
      <trkpt lat="43.21567" lon="6.61104">
        <ele>145.4</ele>
        <time>1970-01-01T01:02:11.000Z</time>
      </trkpt>
      <trkpt lat="43.21556" lon="6.61104">
        <ele>145.3</ele>
        <time>1970-01-01T01:02:12.000Z</time>
      </trkpt>
      <trkpt lat="43.21543" lon="6.61106">
        <ele>145.1</ele>
        <time>1970-01-01T01:02:13.000Z</time>
      </trkpt>
      <trkpt lat="43.21534" lon="6.61107">
        <ele>145</ele>
        <time>1970-01-01T01:02:14.000Z</time>
      </trkpt>
      <trkpt lat="43.21525" lon="6.61108">
        <ele>145</ele>
        <time>1970-01-01T01:02:15.000Z</time>
      </trkpt>
      <trkpt lat="43.21516" lon="6.61108">
        <ele>145</ele>
        <time>1970-01-01T01:02:16.000Z</time>
      </trkpt>
      <trkpt lat="43.21508" lon="6.61108">
        <ele>145.1</ele>
        <time>1970-01-01T01:02:17.000Z</time>
      </trkpt>
      <trkpt lat="43.215" lon="6.61107">
        <ele>145.2</ele>
        <time>1970-01-01T01:02:18.000Z</time>
      </trkpt>
      <trkpt lat="43.21491" lon="6.61107">
        <ele>145.3</ele>
        <time>1970-01-01T01:02:19.000Z</time>
      </trkpt>
      <trkpt lat="43.21484" lon="6.61107">
        <ele>145.9</ele>
        <time>1970-01-01T01:02:20.000Z</time>
      </trkpt>
      <trkpt lat="43.2148" lon="6.61115">
        <ele>146.7</ele>
        <time>1970-01-01T01:02:21.000Z</time>
      </trkpt>
      <trkpt lat="43.2148" lon="6.6111">
        <ele>147.1</ele>
        <time>1970-01-01T01:02:22.000Z</time>
      </trkpt>
      <trkpt lat="43.2148" lon="6.61106">
        <ele>147.4</ele>
        <time>1970-01-01T01:02:23.000Z</time>
      </trkpt>
      <trkpt lat="43.21476" lon="6.611">
        <ele>148</ele>
        <time>1970-01-01T01:02:24.000Z</time>
      </trkpt>
      <trkpt lat="43.21475" lon="6.61094">
        <ele>148.5</ele>
        <time>1970-01-01T01:02:25.000Z</time>
      </trkpt>
      <trkpt lat="43.21474" lon="6.61087">
        <ele>149.1</ele>
        <time>1970-01-01T01:02:26.000Z</time>
      </trkpt>
      <trkpt lat="43.21471" lon="6.61081">
        <ele>149.7</ele>
        <time>1970-01-01T01:02:27.000Z</time>
      </trkpt>
      <trkpt lat="43.21469" lon="6.61076">
        <ele>150.1</ele>
        <time>1970-01-01T01:02:28.000Z</time>
      </trkpt>
      <trkpt lat="43.21467" lon="6.61071">
        <ele>150.7</ele>
        <time>1970-01-01T01:02:29.000Z</time>
      </trkpt>
      <trkpt lat="43.21464" lon="6.61066">
        <ele>151.3</ele>
        <time>1970-01-01T01:02:30.000Z</time>
      </trkpt>
      <trkpt lat="43.21465" lon="6.61059">
        <ele>151.9</ele>
        <time>1970-01-01T01:02:31.000Z</time>
      </trkpt>
      <trkpt lat="43.21466" lon="6.61052">
        <ele>152.6</ele>
        <time>1970-01-01T01:02:32.000Z</time>
      </trkpt>
      <trkpt lat="43.21469" lon="6.61042">
        <ele>153.6</ele>
        <time>1970-01-01T01:02:33.000Z</time>
      </trkpt>
      <trkpt lat="43.2147" lon="6.61033">
        <ele>154.5</ele>
        <time>1970-01-01T01:02:34.000Z</time>
      </trkpt>
      <trkpt lat="43.21471" lon="6.61023">
        <ele>155.5</ele>
        <time>1970-01-01T01:02:35.000Z</time>
      </trkpt>
      <trkpt lat="43.21471" lon="6.61014">
        <ele>156.4</ele>
        <time>1970-01-01T01:02:36.000Z</time>
      </trkpt>
      <trkpt lat="43.21469" lon="6.61007">
        <ele>157</ele>
        <time>1970-01-01T01:02:37.000Z</time>
      </trkpt>
      <trkpt lat="43.21466" lon="6.61006">
        <ele>157.5</ele>
        <time>1970-01-01T01:02:38.000Z</time>
      </trkpt>
      <trkpt lat="43.2146" lon="6.61003">
        <ele>158.2</ele>
        <time>1970-01-01T01:02:39.000Z</time>
      </trkpt>
      <trkpt lat="43.2145" lon="6.61">
        <ele>159.3</ele>
        <time>1970-01-01T01:02:40.000Z</time>
      </trkpt>
      <trkpt lat="43.21443" lon="6.61">
        <ele>160.1</ele>
        <time>1970-01-01T01:02:41.000Z</time>
      </trkpt>
      <trkpt lat="43.21436" lon="6.61004">
        <ele>160.9</ele>
        <time>1970-01-01T01:02:42.000Z</time>
      </trkpt>
      <trkpt lat="43.2143" lon="6.61008">
        <ele>161.6</ele>
        <time>1970-01-01T01:02:43.000Z</time>
      </trkpt>
      <trkpt lat="43.21425" lon="6.61012">
        <ele>162.3</ele>
        <time>1970-01-01T01:02:44.000Z</time>
      </trkpt>
      <trkpt lat="43.21418" lon="6.61015">
        <ele>163.1</ele>
        <time>1970-01-01T01:02:45.000Z</time>
      </trkpt>
      <trkpt lat="43.21411" lon="6.61017">
        <ele>164</ele>
        <time>1970-01-01T01:02:46.000Z</time>
      </trkpt>
      <trkpt lat="43.21405" lon="6.61018">
        <ele>164.8</ele>
        <time>1970-01-01T01:02:47.000Z</time>
      </trkpt>
      <trkpt lat="43.21398" lon="6.61018">
        <ele>165.7</ele>
        <time>1970-01-01T01:02:48.000Z</time>
      </trkpt>
      <trkpt lat="43.2139" lon="6.61016">
        <ele>166.8</ele>
        <time>1970-01-01T01:02:49.000Z</time>
      </trkpt>
      <trkpt lat="43.21384" lon="6.61008">
        <ele>167.9</ele>
        <time>1970-01-01T01:02:50.000Z</time>
      </trkpt>
      <trkpt lat="43.2138" lon="6.61001">
        <ele>168.8</ele>
        <time>1970-01-01T01:02:51.000Z</time>
      </trkpt>
      <trkpt lat="43.21375" lon="6.60998">
        <ele>169.4</ele>
        <time>1970-01-01T01:02:52.000Z</time>
      </trkpt>
      <trkpt lat="43.21368" lon="6.60995">
        <ele>170</ele>
        <time>1970-01-01T01:02:53.000Z</time>
      </trkpt>
      <trkpt lat="43.21361" lon="6.60999">
        <ele>170.6</ele>
        <time>1970-01-01T01:02:54.000Z</time>
      </trkpt>
      <trkpt lat="43.21356" lon="6.61005">
        <ele>171.1</ele>
        <time>1970-01-01T01:02:55.000Z</time>
      </trkpt>
      <trkpt lat="43.21348" lon="6.61011">
        <ele>171.7</ele>
        <time>1970-01-01T01:02:56.000Z</time>
      </trkpt>
      <trkpt lat="43.2134" lon="6.61016">
        <ele>172.3</ele>
        <time>1970-01-01T01:02:57.000Z</time>
      </trkpt>
      <trkpt lat="43.21334" lon="6.61023">
        <ele>172.9</ele>
        <time>1970-01-01T01:02:58.000Z</time>
      </trkpt>
      <trkpt lat="43.21325" lon="6.61032">
        <ele>173.6</ele>
        <time>1970-01-01T01:02:59.000Z</time>
      </trkpt>
      <trkpt lat="43.21317" lon="6.61039">
        <ele>174.2</ele>
        <time>1970-01-01T01:03:00.000Z</time>
      </trkpt>
      <trkpt lat="43.21309" lon="6.61041">
        <ele>174.7</ele>
        <time>1970-01-01T01:03:01.000Z</time>
      </trkpt>
      <trkpt lat="43.21302" lon="6.6104">
        <ele>175.2</ele>
        <time>1970-01-01T01:03:02.000Z</time>
      </trkpt>
      <trkpt lat="43.21294" lon="6.61035">
        <ele>175.7</ele>
        <time>1970-01-01T01:03:03.000Z</time>
      </trkpt>
      <trkpt lat="43.21287" lon="6.61027">
        <ele>176.3</ele>
        <time>1970-01-01T01:03:04.000Z</time>
      </trkpt>
      <trkpt lat="43.21281" lon="6.61021">
        <ele>176.9</ele>
        <time>1970-01-01T01:03:05.000Z</time>
      </trkpt>
      <trkpt lat="43.21274" lon="6.61014">
        <ele>177.5</ele>
        <time>1970-01-01T01:03:06.000Z</time>
      </trkpt>
      <trkpt lat="43.21266" lon="6.61009">
        <ele>178.2</ele>
        <time>1970-01-01T01:03:07.000Z</time>
      </trkpt>
      <trkpt lat="43.21255" lon="6.61006">
        <ele>179</ele>
        <time>1970-01-01T01:03:08.000Z</time>
      </trkpt>
      <trkpt lat="43.21244" lon="6.61004">
        <ele>179.8</ele>
        <time>1970-01-01T01:03:09.000Z</time>
      </trkpt>
      <trkpt lat="43.21234" lon="6.61003">
        <ele>180.5</ele>
        <time>1970-01-01T01:03:10.000Z</time>
      </trkpt>
      <trkpt lat="43.21228" lon="6.61013">
        <ele>181.1</ele>
        <time>1970-01-01T01:03:11.000Z</time>
      </trkpt>
      <trkpt lat="43.21222" lon="6.61015">
        <ele>181.6</ele>
        <time>1970-01-01T01:03:12.000Z</time>
      </trkpt>
      <trkpt lat="43.21217" lon="6.61016">
        <ele>182</ele>
        <time>1970-01-01T01:03:13.000Z</time>
      </trkpt>
      <trkpt lat="43.21214" lon="6.61017">
        <ele>182.3</ele>
        <time>1970-01-01T01:03:14.000Z</time>
      </trkpt>
      <trkpt lat="43.21209" lon="6.61018">
        <ele>182.6</ele>
        <time>1970-01-01T01:03:15.000Z</time>
      </trkpt>
      <trkpt lat="43.21204" lon="6.6102">
        <ele>183.1</ele>
        <time>1970-01-01T01:03:16.000Z</time>
      </trkpt>
      <trkpt lat="43.21197" lon="6.61021">
        <ele>183.6</ele>
        <time>1970-01-01T01:03:17.000Z</time>
      </trkpt>
      <trkpt lat="43.21189" lon="6.61023">
        <ele>184.3</ele>
        <time>1970-01-01T01:03:18.000Z</time>
      </trkpt>
      <trkpt lat="43.21182" lon="6.61025">
        <ele>185</ele>
        <time>1970-01-01T01:03:19.000Z</time>
      </trkpt>
      <trkpt lat="43.21175" lon="6.61027">
        <ele>185.6</ele>
        <time>1970-01-01T01:03:20.000Z</time>
      </trkpt>
      <trkpt lat="43.21168" lon="6.61029">
        <ele>186.4</ele>
        <time>1970-01-01T01:03:21.000Z</time>
      </trkpt>
      <trkpt lat="43.21162" lon="6.61032">
        <ele>187.1</ele>
        <time>1970-01-01T01:03:22.000Z</time>
      </trkpt>
      <trkpt lat="43.21154" lon="6.61035">
        <ele>187.8</ele>
        <time>1970-01-01T01:03:23.000Z</time>
      </trkpt>
      <trkpt lat="43.21147" lon="6.61036">
        <ele>188.6</ele>
        <time>1970-01-01T01:03:24.000Z</time>
      </trkpt>
      <trkpt lat="43.2114" lon="6.61033">
        <ele>189.3</ele>
        <time>1970-01-01T01:03:25.000Z</time>
      </trkpt>
      <trkpt lat="43.21134" lon="6.61027">
        <ele>190</ele>
        <time>1970-01-01T01:03:26.000Z</time>
      </trkpt>
      <trkpt lat="43.21128" lon="6.61021">
        <ele>190.7</ele>
        <time>1970-01-01T01:03:27.000Z</time>
      </trkpt>
      <trkpt lat="43.21124" lon="6.61012">
        <ele>191.4</ele>
        <time>1970-01-01T01:03:28.000Z</time>
      </trkpt>
      <trkpt lat="43.21122" lon="6.61003">
        <ele>192.1</ele>
        <time>1970-01-01T01:03:29.000Z</time>
      </trkpt>
      <trkpt lat="43.21125" lon="6.60992">
        <ele>192.8</ele>
        <time>1970-01-01T01:03:30.000Z</time>
      </trkpt>
      <trkpt lat="43.21124" lon="6.60982">
        <ele>193.4</ele>
        <time>1970-01-01T01:03:31.000Z</time>
      </trkpt>
      <trkpt lat="43.21123" lon="6.60971">
        <ele>194.2</ele>
        <time>1970-01-01T01:03:32.000Z</time>
      </trkpt>
      <trkpt lat="43.21122" lon="6.60961">
        <ele>194.8</ele>
        <time>1970-01-01T01:03:33.000Z</time>
      </trkpt>
      <trkpt lat="43.2112" lon="6.60949">
        <ele>195.6</ele>
        <time>1970-01-01T01:03:34.000Z</time>
      </trkpt>
      <trkpt lat="43.21119" lon="6.60938">
        <ele>196.4</ele>
        <time>1970-01-01T01:03:35.000Z</time>
      </trkpt>
      <trkpt lat="43.21117" lon="6.60925">
        <ele>197.3</ele>
        <time>1970-01-01T01:03:36.000Z</time>
      </trkpt>
      <trkpt lat="43.21115" lon="6.60914">
        <ele>198.1</ele>
        <time>1970-01-01T01:03:37.000Z</time>
      </trkpt>
      <trkpt lat="43.21114" lon="6.60903">
        <ele>198.9</ele>
        <time>1970-01-01T01:03:38.000Z</time>
      </trkpt>
      <trkpt lat="43.21113" lon="6.60893">
        <ele>199.6</ele>
        <time>1970-01-01T01:03:39.000Z</time>
      </trkpt>
      <trkpt lat="43.21112" lon="6.60885">
        <ele>200.2</ele>
        <time>1970-01-01T01:03:40.000Z</time>
      </trkpt>
      <trkpt lat="43.21111" lon="6.60878">
        <ele>200.7</ele>
        <time>1970-01-01T01:03:41.000Z</time>
      </trkpt>
      <trkpt lat="43.21112" lon="6.6087">
        <ele>201.2</ele>
        <time>1970-01-01T01:03:42.000Z</time>
      </trkpt>
      <trkpt lat="43.21111" lon="6.60862">
        <ele>201.8</ele>
        <time>1970-01-01T01:03:43.000Z</time>
      </trkpt>
      <trkpt lat="43.21105" lon="6.6086">
        <ele>202.3</ele>
        <time>1970-01-01T01:03:44.000Z</time>
      </trkpt>
      <trkpt lat="43.211" lon="6.6086">
        <ele>202.8</ele>
        <time>1970-01-01T01:03:45.000Z</time>
      </trkpt>
      <trkpt lat="43.2109" lon="6.6086">
        <ele>203.6</ele>
        <time>1970-01-01T01:03:46.000Z</time>
      </trkpt>
      <trkpt lat="43.21081" lon="6.6086">
        <ele>204.3</ele>
        <time>1970-01-01T01:03:47.000Z</time>
      </trkpt>
      <trkpt lat="43.21067" lon="6.60856">
        <ele>205.4</ele>
        <time>1970-01-01T01:03:48.000Z</time>
      </trkpt>
      <trkpt lat="43.2106" lon="6.60865">
        <ele>206.1</ele>
        <time>1970-01-01T01:03:49.000Z</time>
      </trkpt>
      <trkpt lat="43.21052" lon="6.60873">
        <ele>206.8</ele>
        <time>1970-01-01T01:03:50.000Z</time>
      </trkpt>
      <trkpt lat="43.21045" lon="6.60877">
        <ele>207.2</ele>
        <time>1970-01-01T01:03:51.000Z</time>
      </trkpt>
      <trkpt lat="43.2104" lon="6.60886">
        <ele>207.8</ele>
        <time>1970-01-01T01:03:52.000Z</time>
      </trkpt>
      <trkpt lat="43.21034" lon="6.60891">
        <ele>208.3</ele>
        <time>1970-01-01T01:03:53.000Z</time>
      </trkpt>
      <trkpt lat="43.21025" lon="6.60894">
        <ele>208.9</ele>
        <time>1970-01-01T01:03:54.000Z</time>
      </trkpt>
      <trkpt lat="43.21017" lon="6.60896">
        <ele>209.4</ele>
        <time>1970-01-01T01:03:55.000Z</time>
      </trkpt>
      <trkpt lat="43.2101" lon="6.60891">
        <ele>209.9</ele>
        <time>1970-01-01T01:03:56.000Z</time>
      </trkpt>
      <trkpt lat="43.20999" lon="6.60892">
        <ele>210.7</ele>
        <time>1970-01-01T01:03:57.000Z</time>
      </trkpt>
      <trkpt lat="43.20988" lon="6.60893">
        <ele>211.4</ele>
        <time>1970-01-01T01:03:58.000Z</time>
      </trkpt>
      <trkpt lat="43.20977" lon="6.60896">
        <ele>212.2</ele>
        <time>1970-01-01T01:03:59.000Z</time>
      </trkpt>
      <trkpt lat="43.20962" lon="6.60899">
        <ele>213.5</ele>
        <time>1970-01-01T01:04:00.000Z</time>
      </trkpt>
      <trkpt lat="43.20953" lon="6.60899">
        <ele>214.4</ele>
        <time>1970-01-01T01:04:01.000Z</time>
      </trkpt>
      <trkpt lat="43.20943" lon="6.60896">
        <ele>215.4</ele>
        <time>1970-01-01T01:04:02.000Z</time>
      </trkpt>
      <trkpt lat="43.20936" lon="6.60893">
        <ele>216.3</ele>
        <time>1970-01-01T01:04:03.000Z</time>
      </trkpt>
      <trkpt lat="43.20929" lon="6.60888">
        <ele>216.8</ele>
        <time>1970-01-01T01:04:04.000Z</time>
      </trkpt>
      <trkpt lat="43.20925" lon="6.60878">
        <ele>217.4</ele>
        <time>1970-01-01T01:04:05.000Z</time>
      </trkpt>
      <trkpt lat="43.20922" lon="6.60868">
        <ele>217.9</ele>
        <time>1970-01-01T01:04:06.000Z</time>
      </trkpt>
      <trkpt lat="43.20916" lon="6.60857">
        <ele>218.6</ele>
        <time>1970-01-01T01:04:07.000Z</time>
      </trkpt>
      <trkpt lat="43.20911" lon="6.60847">
        <ele>219.4</ele>
        <time>1970-01-01T01:04:08.000Z</time>
      </trkpt>
      <trkpt lat="43.20905" lon="6.60837">
        <ele>220.2</ele>
        <time>1970-01-01T01:04:09.000Z</time>
      </trkpt>
      <trkpt lat="43.20899" lon="6.60829">
        <ele>221</ele>
        <time>1970-01-01T01:04:10.000Z</time>
      </trkpt>
      <trkpt lat="43.20893" lon="6.60824">
        <ele>221.6</ele>
        <time>1970-01-01T01:04:11.000Z</time>
      </trkpt>
      <trkpt lat="43.20888" lon="6.60818">
        <ele>222.2</ele>
        <time>1970-01-01T01:04:12.000Z</time>
      </trkpt>
      <trkpt lat="43.20885" lon="6.60813">
        <ele>222.6</ele>
        <time>1970-01-01T01:04:13.000Z</time>
      </trkpt>
      <trkpt lat="43.20882" lon="6.60805">
        <ele>223.2</ele>
        <time>1970-01-01T01:04:14.000Z</time>
      </trkpt>
      <trkpt lat="43.2088" lon="6.60792">
        <ele>223.9</ele>
        <time>1970-01-01T01:04:15.000Z</time>
      </trkpt>
      <trkpt lat="43.20882" lon="6.6078">
        <ele>224.7</ele>
        <time>1970-01-01T01:04:16.000Z</time>
      </trkpt>
      <trkpt lat="43.20886" lon="6.60768">
        <ele>225.4</ele>
        <time>1970-01-01T01:04:17.000Z</time>
      </trkpt>
      <trkpt lat="43.2089" lon="6.60755">
        <ele>226.3</ele>
        <time>1970-01-01T01:04:18.000Z</time>
      </trkpt>
      <trkpt lat="43.20898" lon="6.60746">
        <ele>227.1</ele>
        <time>1970-01-01T01:04:19.000Z</time>
      </trkpt>
      <trkpt lat="43.20902" lon="6.60733">
        <ele>228</ele>
        <time>1970-01-01T01:04:20.000Z</time>
      </trkpt>
      <trkpt lat="43.20905" lon="6.60719">
        <ele>228.9</ele>
        <time>1970-01-01T01:04:21.000Z</time>
      </trkpt>
      <trkpt lat="43.20907" lon="6.60705">
        <ele>229.8</ele>
        <time>1970-01-01T01:04:22.000Z</time>
      </trkpt>
      <trkpt lat="43.2091" lon="6.60693">
        <ele>230.7</ele>
        <time>1970-01-01T01:04:23.000Z</time>
      </trkpt>
      <trkpt lat="43.20912" lon="6.6068">
        <ele>231.7</ele>
        <time>1970-01-01T01:04:24.000Z</time>
      </trkpt>
      <trkpt lat="43.20916" lon="6.60669">
        <ele>232.6</ele>
        <time>1970-01-01T01:04:25.000Z</time>
      </trkpt>
      <trkpt lat="43.20924" lon="6.60661">
        <ele>233.5</ele>
        <time>1970-01-01T01:04:26.000Z</time>
      </trkpt>
      <trkpt lat="43.20932" lon="6.6066">
        <ele>234.3</ele>
        <time>1970-01-01T01:04:27.000Z</time>
      </trkpt>
      <trkpt lat="43.2094" lon="6.60657">
        <ele>235.1</ele>
        <time>1970-01-01T01:04:28.000Z</time>
      </trkpt>
      <trkpt lat="43.20948" lon="6.60652">
        <ele>235.9</ele>
        <time>1970-01-01T01:04:29.000Z</time>
      </trkpt>
      <trkpt lat="43.20956" lon="6.60646">
        <ele>236.8</ele>
        <time>1970-01-01T01:04:30.000Z</time>
      </trkpt>
      <trkpt lat="43.20972" lon="6.60653">
        <ele>238.2</ele>
        <time>1970-01-01T01:04:31.000Z</time>
      </trkpt>
      <trkpt lat="43.20982" lon="6.60646">
        <ele>239.2</ele>
        <time>1970-01-01T01:04:32.000Z</time>
      </trkpt>
      <trkpt lat="43.20992" lon="6.60638">
        <ele>240.2</ele>
        <time>1970-01-01T01:04:33.000Z</time>
      </trkpt>
      <trkpt lat="43.21001" lon="6.60631">
        <ele>241.1</ele>
        <time>1970-01-01T01:04:34.000Z</time>
      </trkpt>
      <trkpt lat="43.2101" lon="6.60623">
        <ele>242</ele>
        <time>1970-01-01T01:04:35.000Z</time>
      </trkpt>
      <trkpt lat="43.21019" lon="6.60615">
        <ele>242.9</ele>
        <time>1970-01-01T01:04:36.000Z</time>
      </trkpt>
      <trkpt lat="43.21028" lon="6.60606">
        <ele>243.8</ele>
        <time>1970-01-01T01:04:37.000Z</time>
      </trkpt>
      <trkpt lat="43.21036" lon="6.60597">
        <ele>244.6</ele>
        <time>1970-01-01T01:04:38.000Z</time>
      </trkpt>
      <trkpt lat="43.21045" lon="6.60588">
        <ele>245.5</ele>
        <time>1970-01-01T01:04:39.000Z</time>
      </trkpt>
      <trkpt lat="43.21054" lon="6.60579">
        <ele>246.3</ele>
        <time>1970-01-01T01:04:40.000Z</time>
      </trkpt>
      <trkpt lat="43.21062" lon="6.60572">
        <ele>247</ele>
        <time>1970-01-01T01:04:41.000Z</time>
      </trkpt>
      <trkpt lat="43.21069" lon="6.60565">
        <ele>247.6</ele>
        <time>1970-01-01T01:04:42.000Z</time>
      </trkpt>
      <trkpt lat="43.21075" lon="6.60559">
        <ele>248.1</ele>
        <time>1970-01-01T01:04:43.000Z</time>
      </trkpt>
      <trkpt lat="43.21082" lon="6.60555">
        <ele>248.5</ele>
        <time>1970-01-01T01:04:44.000Z</time>
      </trkpt>
      <trkpt lat="43.21088" lon="6.60554">
        <ele>248.7</ele>
        <time>1970-01-01T01:04:45.000Z</time>
      </trkpt>
      <trkpt lat="43.21094" lon="6.60555">
        <ele>249</ele>
        <time>1970-01-01T01:04:46.000Z</time>
      </trkpt>
      <trkpt lat="43.21102" lon="6.60564">
        <ele>249.2</ele>
        <time>1970-01-01T01:04:47.000Z</time>
      </trkpt>
      <trkpt lat="43.21106" lon="6.60573">
        <ele>249.2</ele>
        <time>1970-01-01T01:04:48.000Z</time>
      </trkpt>
      <trkpt lat="43.21103" lon="6.6059">
        <ele>249.1</ele>
        <time>1970-01-01T01:04:49.000Z</time>
      </trkpt>
      <trkpt lat="43.21109" lon="6.606">
        <ele>248.9</ele>
        <time>1970-01-01T01:04:50.000Z</time>
      </trkpt>
      <trkpt lat="43.21117" lon="6.60611">
        <ele>248.7</ele>
        <time>1970-01-01T01:04:51.000Z</time>
      </trkpt>
      <trkpt lat="43.21126" lon="6.60621">
        <ele>248.3</ele>
        <time>1970-01-01T01:04:52.000Z</time>
      </trkpt>
      <trkpt lat="43.21133" lon="6.6063">
        <ele>248</ele>
        <time>1970-01-01T01:04:53.000Z</time>
      </trkpt>
      <trkpt lat="43.2114" lon="6.60639">
        <ele>247.7</ele>
        <time>1970-01-01T01:04:54.000Z</time>
      </trkpt>
      <trkpt lat="43.21146" lon="6.60648">
        <ele>247.4</ele>
        <time>1970-01-01T01:04:55.000Z</time>
      </trkpt>
      <trkpt lat="43.21152" lon="6.60651">
        <ele>247.2</ele>
        <time>1970-01-01T01:04:56.000Z</time>
      </trkpt>
      <trkpt lat="43.21161" lon="6.60652">
        <ele>247</ele>
        <time>1970-01-01T01:04:57.000Z</time>
      </trkpt>
      <trkpt lat="43.21172" lon="6.60649">
        <ele>246.9</ele>
        <time>1970-01-01T01:04:58.000Z</time>
      </trkpt>
      <trkpt lat="43.21183" lon="6.60643">
        <ele>246.8</ele>
        <time>1970-01-01T01:04:59.000Z</time>
      </trkpt>
      <trkpt lat="43.21187" lon="6.60635">
        <ele>246.8</ele>
        <time>1970-01-01T01:05:00.000Z</time>
      </trkpt>
      <trkpt lat="43.21199" lon="6.60631">
        <ele>247.2</ele>
        <time>1970-01-01T01:05:01.000Z</time>
      </trkpt>
      <trkpt lat="43.21209" lon="6.60629">
        <ele>247.6</ele>
        <time>1970-01-01T01:05:02.000Z</time>
      </trkpt>
      <trkpt lat="43.21217" lon="6.60622">
        <ele>247.9</ele>
        <time>1970-01-01T01:05:03.000Z</time>
      </trkpt>
      <trkpt lat="43.21223" lon="6.60613">
        <ele>248.2</ele>
        <time>1970-01-01T01:05:04.000Z</time>
      </trkpt>
      <trkpt lat="43.21229" lon="6.60602">
        <ele>248.6</ele>
        <time>1970-01-01T01:05:05.000Z</time>
      </trkpt>
      <trkpt lat="43.21226" lon="6.60589">
        <ele>249.3</ele>
        <time>1970-01-01T01:05:06.000Z</time>
      </trkpt>
      <trkpt lat="43.21224" lon="6.60574">
        <ele>250</ele>
        <time>1970-01-01T01:05:07.000Z</time>
      </trkpt>
      <trkpt lat="43.21228" lon="6.6056">
        <ele>250.9</ele>
        <time>1970-01-01T01:05:08.000Z</time>
      </trkpt>
      <trkpt lat="43.21231" lon="6.60547">
        <ele>251.7</ele>
        <time>1970-01-01T01:05:09.000Z</time>
      </trkpt>
      <trkpt lat="43.21233" lon="6.60533">
        <ele>252.6</ele>
        <time>1970-01-01T01:05:10.000Z</time>
      </trkpt>
      <trkpt lat="43.21239" lon="6.60528">
        <ele>253.1</ele>
        <time>1970-01-01T01:05:11.000Z</time>
      </trkpt>
      <trkpt lat="43.21248" lon="6.60524">
        <ele>253.8</ele>
        <time>1970-01-01T01:05:12.000Z</time>
      </trkpt>
      <trkpt lat="43.21256" lon="6.60524">
        <ele>254.3</ele>
        <time>1970-01-01T01:05:13.000Z</time>
      </trkpt>
      <trkpt lat="43.21266" lon="6.60526">
        <ele>255</ele>
        <time>1970-01-01T01:05:14.000Z</time>
      </trkpt>
      <trkpt lat="43.21275" lon="6.6053">
        <ele>255.6</ele>
        <time>1970-01-01T01:05:15.000Z</time>
      </trkpt>
      <trkpt lat="43.21283" lon="6.60539">
        <ele>256.3</ele>
        <time>1970-01-01T01:05:16.000Z</time>
      </trkpt>
      <trkpt lat="43.21293" lon="6.60542">
        <ele>257</ele>
        <time>1970-01-01T01:05:17.000Z</time>
      </trkpt>
      <trkpt lat="43.21302" lon="6.60545">
        <ele>257.5</ele>
        <time>1970-01-01T01:05:18.000Z</time>
      </trkpt>
      <trkpt lat="43.21312" lon="6.60548">
        <ele>258.1</ele>
        <time>1970-01-01T01:05:19.000Z</time>
      </trkpt>
      <trkpt lat="43.21321" lon="6.60549">
        <ele>258.8</ele>
        <time>1970-01-01T01:05:20.000Z</time>
      </trkpt>
      <trkpt lat="43.21333" lon="6.60547">
        <ele>259.7</ele>
        <time>1970-01-01T01:05:21.000Z</time>
      </trkpt>
      <trkpt lat="43.21343" lon="6.60544">
        <ele>260.6</ele>
        <time>1970-01-01T01:05:22.000Z</time>
      </trkpt>
      <trkpt lat="43.21352" lon="6.60541">
        <ele>261.5</ele>
        <time>1970-01-01T01:05:23.000Z</time>
      </trkpt>
      <trkpt lat="43.2136" lon="6.60537">
        <ele>262.3</ele>
        <time>1970-01-01T01:05:24.000Z</time>
      </trkpt>
      <trkpt lat="43.21366" lon="6.60534">
        <ele>262.6</ele>
        <time>1970-01-01T01:05:25.000Z</time>
      </trkpt>
      <trkpt lat="43.21368" lon="6.60534">
        <ele>264</ele>
        <time>1970-01-01T01:05:26.000Z</time>
      </trkpt>
      <trkpt lat="43.21369" lon="6.60536">
        <ele>264</ele>
        <time>1970-01-01T01:05:27.000Z</time>
      </trkpt>
      <trkpt lat="43.21371" lon="6.60545">
        <ele>264.1</ele>
        <time>1970-01-01T01:05:28.000Z</time>
      </trkpt>
      <trkpt lat="43.21372" lon="6.6055">
        <ele>264.6</ele>
        <time>1970-01-01T01:05:29.000Z</time>
      </trkpt>
      <trkpt lat="43.21375" lon="6.60553">
        <ele>264.6</ele>
        <time>1970-01-01T01:05:30.000Z</time>
      </trkpt>
      <trkpt lat="43.21377" lon="6.60558">
        <ele>264.6</ele>
        <time>1970-01-01T01:05:31.000Z</time>
      </trkpt>
      <trkpt lat="43.21381" lon="6.60561">
        <ele>264.6</ele>
        <time>1970-01-01T01:05:32.000Z</time>
      </trkpt>
      <trkpt lat="43.21379" lon="6.60559">
        <ele>264.6</ele>
        <time>1970-01-01T01:05:33.000Z</time>
      </trkpt>
      <trkpt lat="43.21378" lon="6.60557">
        <ele>264.5</ele>
        <time>1970-01-01T01:05:34.000Z</time>
      </trkpt>
      <trkpt lat="43.21376" lon="6.60555">
        <ele>264.5</ele>
        <time>1970-01-01T01:05:35.000Z</time>
      </trkpt>
      <trkpt lat="43.21375" lon="6.60554">
        <ele>264.5</ele>
        <time>1970-01-01T01:05:36.000Z</time>
      </trkpt>
      <trkpt lat="43.21374" lon="6.60553">
        <ele>264.5</ele>
        <time>1970-01-01T01:05:37.000Z</time>
      </trkpt>
      <trkpt lat="43.21372" lon="6.60552">
        <ele>264.4</ele>
        <time>1970-01-01T01:05:38.000Z</time>
      </trkpt>
      <trkpt lat="43.21371" lon="6.60551">
        <ele>264.4</ele>
        <time>1970-01-01T01:05:39.000Z</time>
      </trkpt>
      <trkpt lat="43.21368" lon="6.60548">
        <ele>264.3</ele>
        <time>1970-01-01T01:05:40.000Z</time>
      </trkpt>
      <trkpt lat="43.21366" lon="6.60543">
        <ele>264.3</ele>
        <time>1970-01-01T01:05:41.000Z</time>
      </trkpt>
      <trkpt lat="43.21364" lon="6.60542">
        <ele>264.2</ele>
        <time>1970-01-01T01:05:42.000Z</time>
      </trkpt>
      <trkpt lat="43.21364" lon="6.60537">
        <ele>264.1</ele>
        <time>1970-01-01T01:05:43.000Z</time>
      </trkpt>
      <trkpt lat="43.21362" lon="6.60531">
        <ele>264</ele>
        <time>1970-01-01T01:05:44.000Z</time>
      </trkpt>
      <trkpt lat="43.21363" lon="6.60529">
        <ele>263.9</ele>
        <time>1970-01-01T01:05:45.000Z</time>
      </trkpt>
      <trkpt lat="43.21362" lon="6.60527">
        <ele>263.9</ele>
        <time>1970-01-01T01:05:46.000Z</time>
      </trkpt>
      <trkpt lat="43.21361" lon="6.60526">
        <ele>263.9</ele>
        <time>1970-01-01T01:05:47.000Z</time>
      </trkpt>
      <trkpt lat="43.21359" lon="6.60524">
        <ele>263.8</ele>
        <time>1970-01-01T01:05:48.000Z</time>
      </trkpt>
      <trkpt lat="43.21359" lon="6.60522">
        <ele>263.8</ele>
        <time>1970-01-01T01:05:49.000Z</time>
      </trkpt>
      <trkpt lat="43.21359" lon="6.60521">
        <ele>263.7</ele>
        <time>1970-01-01T01:05:50.000Z</time>
      </trkpt>
      <trkpt lat="43.2136" lon="6.60521">
        <ele>263.7</ele>
        <time>1970-01-01T01:05:51.000Z</time>
      </trkpt>
      <trkpt lat="43.2136" lon="6.6052">
        <ele>263.7</ele>
        <time>1970-01-01T01:05:52.000Z</time>
      </trkpt>
      <trkpt lat="43.21361" lon="6.60519">
        <ele>263.7</ele>
        <time>1970-01-01T01:05:53.000Z</time>
      </trkpt>
      <trkpt lat="43.21362" lon="6.60519">
        <ele>263.7</ele>
        <time>1970-01-01T01:05:54.000Z</time>
      </trkpt>
      <trkpt lat="43.21362" lon="6.60518">
        <ele>263.6</ele>
        <time>1970-01-01T01:05:55.000Z</time>
      </trkpt>
      <trkpt lat="43.21361" lon="6.60515">
        <ele>263.6</ele>
        <time>1970-01-01T01:05:56.000Z</time>
      </trkpt>
      <trkpt lat="43.2136" lon="6.60514">
        <ele>263.6</ele>
        <time>1970-01-01T01:05:57.000Z</time>
      </trkpt>
      <trkpt lat="43.21358" lon="6.60511">
        <ele>263.5</ele>
        <time>1970-01-01T01:05:58.000Z</time>
      </trkpt>
      <trkpt lat="43.21357" lon="6.60511">
        <ele>263.5</ele>
        <time>1970-01-01T01:05:59.000Z</time>
      </trkpt>
      <trkpt lat="43.21354" lon="6.60515">
        <ele>263.4</ele>
        <time>1970-01-01T01:06:00.000Z</time>
      </trkpt>
      <trkpt lat="43.21353" lon="6.60516">
        <ele>263.3</ele>
        <time>1970-01-01T01:06:01.000Z</time>
      </trkpt>
      <trkpt lat="43.21354" lon="6.60516">
        <ele>263.3</ele>
        <time>1970-01-01T01:06:02.000Z</time>
      </trkpt>
      <trkpt lat="43.21356" lon="6.60515">
        <ele>263.2</ele>
        <time>1970-01-01T01:06:03.000Z</time>
      </trkpt>
      <trkpt lat="43.21357" lon="6.60514">
        <ele>263.2</ele>
        <time>1970-01-01T01:06:04.000Z</time>
      </trkpt>
      <trkpt lat="43.21359" lon="6.60514">
        <ele>263.2</ele>
        <time>1970-01-01T01:06:05.000Z</time>
      </trkpt>
      <trkpt lat="43.2136" lon="6.60513">
        <ele>263.1</ele>
        <time>1970-01-01T01:06:06.000Z</time>
      </trkpt>
      <trkpt lat="43.21362" lon="6.60513">
        <ele>263.1</ele>
        <time>1970-01-01T01:06:07.000Z</time>
      </trkpt>
      <trkpt lat="43.21362" lon="6.60513">
        <ele>263.1</ele>
        <time>1970-01-01T01:06:08.000Z</time>
      </trkpt>
      <trkpt lat="43.21362" lon="6.60513">
        <ele>263.1</ele>
        <time>1970-01-01T01:06:09.000Z</time>
      </trkpt>
      <trkpt lat="43.21362" lon="6.60513">
        <ele>263.1</ele>
        <time>1970-01-01T01:06:10.000Z</time>
      </trkpt>
      <trkpt lat="43.21362" lon="6.60514">
        <ele>263.1</ele>
        <time>1970-01-01T01:06:11.000Z</time>
      </trkpt>
      <trkpt lat="43.21362" lon="6.60514">
        <ele>263.1</ele>
        <time>1970-01-01T01:06:12.000Z</time>
      </trkpt>
      <trkpt lat="43.21362" lon="6.60514">
        <ele>263.1</ele>
        <time>1970-01-01T01:06:13.000Z</time>
      </trkpt>
      <trkpt lat="43.21361" lon="6.60514">
        <ele>263.1</ele>
        <time>1970-01-01T01:06:14.000Z</time>
      </trkpt>
      <trkpt lat="43.21361" lon="6.60514">
        <ele>263.1</ele>
        <time>1970-01-01T01:06:15.000Z</time>
      </trkpt>
      <trkpt lat="43.21361" lon="6.60514">
        <ele>263.1</ele>
        <time>1970-01-01T01:06:16.000Z</time>
      </trkpt>
      <trkpt lat="43.21361" lon="6.60514">
        <ele>263.1</ele>
        <time>1970-01-01T01:06:17.000Z</time>
      </trkpt>
      <trkpt lat="43.21361" lon="6.60514">
        <ele>263</ele>
        <time>1970-01-01T01:06:18.000Z</time>
      </trkpt>
      <trkpt lat="43.21361" lon="6.60514">
        <ele>263</ele>
        <time>1970-01-01T01:06:19.000Z</time>
      </trkpt>
      <trkpt lat="43.21361" lon="6.60515">
        <ele>263</ele>
        <time>1970-01-01T01:06:20.000Z</time>
      </trkpt>
      <trkpt lat="43.21361" lon="6.60515">
        <ele>263</ele>
        <time>1970-01-01T01:06:21.000Z</time>
      </trkpt>
      <trkpt lat="43.21361" lon="6.60515">
        <ele>263</ele>
        <time>1970-01-01T01:06:22.000Z</time>
      </trkpt>
      <trkpt lat="43.21361" lon="6.60515">
        <ele>263</ele>
        <time>1970-01-01T01:07:08.000Z</time>
      </trkpt>
      <trkpt lat="43.21361" lon="6.60515">
        <ele>263</ele>
        <time>1970-01-01T01:07:09.000Z</time>
      </trkpt>
      <trkpt lat="43.21361" lon="6.60515">
        <ele>263</ele>
        <time>1970-01-01T01:07:10.000Z</time>
      </trkpt>
      <trkpt lat="43.21361" lon="6.60515">
        <ele>263</ele>
        <time>1970-01-01T01:07:11.000Z</time>
      </trkpt>
      <trkpt lat="43.2136" lon="6.60515">
        <ele>263</ele>
        <time>1970-01-01T01:07:12.000Z</time>
      </trkpt>
      <trkpt lat="43.2136" lon="6.60515">
        <ele>263</ele>
        <time>1970-01-01T01:07:13.000Z</time>
      </trkpt>
      <trkpt lat="43.2136" lon="6.60516">
        <ele>263</ele>
        <time>1970-01-01T01:07:14.000Z</time>
      </trkpt>
      <trkpt lat="43.2136" lon="6.60516">
        <ele>263</ele>
        <time>1970-01-01T01:07:15.000Z</time>
      </trkpt>
      <trkpt lat="43.2136" lon="6.60516">
        <ele>263</ele>
        <time>1970-01-01T01:07:16.000Z</time>
      </trkpt>
      <trkpt lat="43.2136" lon="6.60516">
        <ele>263</ele>
        <time>1970-01-01T01:07:17.000Z</time>
      </trkpt>
      <trkpt lat="43.2136" lon="6.60516">
        <ele>263</ele>
        <time>1970-01-01T01:07:18.000Z</time>
      </trkpt>
      <trkpt lat="43.2136" lon="6.60516">
        <ele>263</ele>
        <time>1970-01-01T01:07:19.000Z</time>
      </trkpt>
      <trkpt lat="43.2136" lon="6.60516">
        <ele>263</ele>
        <time>1970-01-01T01:08:14.000Z</time>
      </trkpt>
      <trkpt lat="43.2136" lon="6.60516">
        <ele>263</ele>
        <time>1970-01-01T01:08:15.000Z</time>
      </trkpt>
      <trkpt lat="43.2136" lon="6.60516">
        <ele>263</ele>
        <time>1970-01-01T01:08:16.000Z</time>
      </trkpt>
      <trkpt lat="43.21361" lon="6.6052">
        <ele>262.9</ele>
        <time>1970-01-01T01:08:17.000Z</time>
      </trkpt>
      <trkpt lat="43.21362" lon="6.60524">
        <ele>263.2</ele>
        <time>1970-01-01T01:08:18.000Z</time>
      </trkpt>
      <trkpt lat="43.21363" lon="6.60528">
        <ele>263.5</ele>
        <time>1970-01-01T01:08:19.000Z</time>
      </trkpt>
      <trkpt lat="43.21366" lon="6.60533">
        <ele>263.9</ele>
        <time>1970-01-01T01:08:20.000Z</time>
      </trkpt>
      <trkpt lat="43.21368" lon="6.60538">
        <ele>264.2</ele>
        <time>1970-01-01T01:08:21.000Z</time>
      </trkpt>
      <trkpt lat="43.21371" lon="6.60541">
        <ele>264.5</ele>
        <time>1970-01-01T01:08:22.000Z</time>
      </trkpt>
      <trkpt lat="43.21376" lon="6.60544">
        <ele>264.7</ele>
        <time>1970-01-01T01:08:23.000Z</time>
      </trkpt>
      <trkpt lat="43.21381" lon="6.60546">
        <ele>264.9</ele>
        <time>1970-01-01T01:08:24.000Z</time>
      </trkpt>
      <trkpt lat="43.21386" lon="6.60546">
        <ele>265</ele>
        <time>1970-01-01T01:08:25.000Z</time>
      </trkpt>
      <trkpt lat="43.2139" lon="6.60547">
        <ele>265</ele>
        <time>1970-01-01T01:08:26.000Z</time>
      </trkpt>
      <trkpt lat="43.21395" lon="6.60546">
        <ele>265</ele>
        <time>1970-01-01T01:08:27.000Z</time>
      </trkpt>
      <trkpt lat="43.21399" lon="6.60546">
        <ele>265</ele>
        <time>1970-01-01T01:08:28.000Z</time>
      </trkpt>
      <trkpt lat="43.21404" lon="6.60546">
        <ele>265</ele>
        <time>1970-01-01T01:08:29.000Z</time>
      </trkpt>
      <trkpt lat="43.2141" lon="6.60546">
        <ele>265</ele>
        <time>1970-01-01T01:08:30.000Z</time>
      </trkpt>
      <trkpt lat="43.21415" lon="6.60546">
        <ele>265.1</ele>
        <time>1970-01-01T01:08:31.000Z</time>
      </trkpt>
      <trkpt lat="43.2142" lon="6.60546">
        <ele>265.1</ele>
        <time>1970-01-01T01:08:32.000Z</time>
      </trkpt>
      <trkpt lat="43.21425" lon="6.60545">
        <ele>265.2</ele>
        <time>1970-01-01T01:08:33.000Z</time>
      </trkpt>
      <trkpt lat="43.21429" lon="6.60542">
        <ele>265.3</ele>
        <time>1970-01-01T01:08:34.000Z</time>
      </trkpt>
      <trkpt lat="43.21435" lon="6.60538">
        <ele>265.5</ele>
        <time>1970-01-01T01:08:35.000Z</time>
      </trkpt>
      <trkpt lat="43.2144" lon="6.60536">
        <ele>265.7</ele>
        <time>1970-01-01T01:08:36.000Z</time>
      </trkpt>
      <trkpt lat="43.21444" lon="6.60533">
        <ele>265.9</ele>
        <time>1970-01-01T01:08:37.000Z</time>
      </trkpt>
      <trkpt lat="43.21446" lon="6.60531">
        <ele>266</ele>
        <time>1970-01-01T01:08:38.000Z</time>
      </trkpt>
      <trkpt lat="43.21449" lon="6.60527">
        <ele>266.2</ele>
        <time>1970-01-01T01:08:39.000Z</time>
      </trkpt>
      <trkpt lat="43.21453" lon="6.60524">
        <ele>266.5</ele>
        <time>1970-01-01T01:08:40.000Z</time>
      </trkpt>
      <trkpt lat="43.21456" lon="6.60523">
        <ele>266.8</ele>
        <time>1970-01-01T01:08:41.000Z</time>
      </trkpt>
      <trkpt lat="43.21459" lon="6.60522">
        <ele>267</ele>
        <time>1970-01-01T01:08:42.000Z</time>
      </trkpt>
      <trkpt lat="43.21462" lon="6.6052">
        <ele>267.3</ele>
        <time>1970-01-01T01:08:43.000Z</time>
      </trkpt>
      <trkpt lat="43.21465" lon="6.6052">
        <ele>267.6</ele>
        <time>1970-01-01T01:08:44.000Z</time>
      </trkpt>
      <trkpt lat="43.21468" lon="6.60519">
        <ele>267.8</ele>
        <time>1970-01-01T01:08:45.000Z</time>
      </trkpt>
      <trkpt lat="43.21471" lon="6.60517">
        <ele>268.2</ele>
        <time>1970-01-01T01:08:46.000Z</time>
      </trkpt>
      <trkpt lat="43.21474" lon="6.60514">
        <ele>268.5</ele>
        <time>1970-01-01T01:08:47.000Z</time>
      </trkpt>
      <trkpt lat="43.21477" lon="6.60514">
        <ele>269.1</ele>
        <time>1970-01-01T01:08:48.000Z</time>
      </trkpt>
      <trkpt lat="43.21478" lon="6.60514">
        <ele>269.2</ele>
        <time>1970-01-01T01:08:49.000Z</time>
      </trkpt>
      <trkpt lat="43.21482" lon="6.60515">
        <ele>269.4</ele>
        <time>1970-01-01T01:08:50.000Z</time>
      </trkpt>
      <trkpt lat="43.21483" lon="6.60516">
        <ele>269.5</ele>
        <time>1970-01-01T01:08:51.000Z</time>
      </trkpt>
      <trkpt lat="43.21486" lon="6.60517">
        <ele>269.3</ele>
        <time>1970-01-01T01:08:52.000Z</time>
      </trkpt>
      <trkpt lat="43.21489" lon="6.6052">
        <ele>269.1</ele>
        <time>1970-01-01T01:08:53.000Z</time>
      </trkpt>
      <trkpt lat="43.21492" lon="6.60524">
        <ele>268.7</ele>
        <time>1970-01-01T01:08:54.000Z</time>
      </trkpt>
      <trkpt lat="43.21496" lon="6.60529">
        <ele>268.2</ele>
        <time>1970-01-01T01:08:55.000Z</time>
      </trkpt>
      <trkpt lat="43.21502" lon="6.60537">
        <ele>267.1</ele>
        <time>1970-01-01T01:08:56.000Z</time>
      </trkpt>
      <trkpt lat="43.21506" lon="6.60545">
        <ele>266.1</ele>
        <time>1970-01-01T01:08:57.000Z</time>
      </trkpt>
      <trkpt lat="43.21511" lon="6.60552">
        <ele>265.2</ele>
        <time>1970-01-01T01:08:58.000Z</time>
      </trkpt>
      <trkpt lat="43.21514" lon="6.60561">
        <ele>264.4</ele>
        <time>1970-01-01T01:08:59.000Z</time>
      </trkpt>
      <trkpt lat="43.21519" lon="6.60569">
        <ele>263.6</ele>
        <time>1970-01-01T01:09:00.000Z</time>
      </trkpt>
      <trkpt lat="43.21523" lon="6.60579">
        <ele>262.9</ele>
        <time>1970-01-01T01:09:01.000Z</time>
      </trkpt>
      <trkpt lat="43.21528" lon="6.60588">
        <ele>262.2</ele>
        <time>1970-01-01T01:09:02.000Z</time>
      </trkpt>
      <trkpt lat="43.21533" lon="6.60597">
        <ele>261.5</ele>
        <time>1970-01-01T01:09:03.000Z</time>
      </trkpt>
      <trkpt lat="43.21538" lon="6.60607">
        <ele>260.9</ele>
        <time>1970-01-01T01:09:04.000Z</time>
      </trkpt>
      <trkpt lat="43.21544" lon="6.60615">
        <ele>260.2</ele>
        <time>1970-01-01T01:09:05.000Z</time>
      </trkpt>
      <trkpt lat="43.21551" lon="6.60624">
        <ele>259.4</ele>
        <time>1970-01-01T01:09:06.000Z</time>
      </trkpt>
      <trkpt lat="43.21559" lon="6.60626">
        <ele>258.7</ele>
        <time>1970-01-01T01:09:07.000Z</time>
      </trkpt>
      <trkpt lat="43.21566" lon="6.60619">
        <ele>257.9</ele>
        <time>1970-01-01T01:09:08.000Z</time>
      </trkpt>
      <trkpt lat="43.21573" lon="6.60612">
        <ele>257.2</ele>
        <time>1970-01-01T01:09:09.000Z</time>
      </trkpt>
      <trkpt lat="43.21579" lon="6.60603">
        <ele>256.5</ele>
        <time>1970-01-01T01:09:10.000Z</time>
      </trkpt>
      <trkpt lat="43.21583" lon="6.60593">
        <ele>256</ele>
        <time>1970-01-01T01:09:11.000Z</time>
      </trkpt>
      <trkpt lat="43.21588" lon="6.60582">
        <ele>255.5</ele>
        <time>1970-01-01T01:09:12.000Z</time>
      </trkpt>
      <trkpt lat="43.21591" lon="6.60571">
        <ele>255.3</ele>
        <time>1970-01-01T01:09:13.000Z</time>
      </trkpt>
      <trkpt lat="43.21598" lon="6.60564">
        <ele>255.2</ele>
        <time>1970-01-01T01:09:14.000Z</time>
      </trkpt>
      <trkpt lat="43.21605" lon="6.6056">
        <ele>255.2</ele>
        <time>1970-01-01T01:09:15.000Z</time>
      </trkpt>
      <trkpt lat="43.2161" lon="6.60555">
        <ele>255.3</ele>
        <time>1970-01-01T01:09:16.000Z</time>
      </trkpt>
      <trkpt lat="43.21616" lon="6.60549">
        <ele>255.4</ele>
        <time>1970-01-01T01:09:17.000Z</time>
      </trkpt>
      <trkpt lat="43.21621" lon="6.60544">
        <ele>255.6</ele>
        <time>1970-01-01T01:09:18.000Z</time>
      </trkpt>
      <trkpt lat="43.21625" lon="6.60538">
        <ele>255.8</ele>
        <time>1970-01-01T01:09:19.000Z</time>
      </trkpt>
      <trkpt lat="43.21628" lon="6.60534">
        <ele>256</ele>
        <time>1970-01-01T01:09:20.000Z</time>
      </trkpt>
      <trkpt lat="43.21631" lon="6.6053">
        <ele>256.1</ele>
        <time>1970-01-01T01:09:21.000Z</time>
      </trkpt>
      <trkpt lat="43.21637" lon="6.60522">
        <ele>256.5</ele>
        <time>1970-01-01T01:09:22.000Z</time>
      </trkpt>
      <trkpt lat="43.21641" lon="6.60518">
        <ele>256.8</ele>
        <time>1970-01-01T01:09:23.000Z</time>
      </trkpt>
      <trkpt lat="43.21645" lon="6.60516">
        <ele>257.1</ele>
        <time>1970-01-01T01:09:24.000Z</time>
      </trkpt>
      <trkpt lat="43.21652" lon="6.60512">
        <ele>255</ele>
        <time>1970-01-01T01:09:25.000Z</time>
      </trkpt>
      <trkpt lat="43.21658" lon="6.60512">
        <ele>253.6</ele>
        <time>1970-01-01T01:09:26.000Z</time>
      </trkpt>
      <trkpt lat="43.21664" lon="6.60516">
        <ele>252.2</ele>
        <time>1970-01-01T01:09:27.000Z</time>
      </trkpt>
      <trkpt lat="43.21669" lon="6.60519">
        <ele>251.2</ele>
        <time>1970-01-01T01:09:28.000Z</time>
      </trkpt>
      <trkpt lat="43.21674" lon="6.60521">
        <ele>250.1</ele>
        <time>1970-01-01T01:09:29.000Z</time>
      </trkpt>
      <trkpt lat="43.21677" lon="6.60523">
        <ele>249.5</ele>
        <time>1970-01-01T01:09:30.000Z</time>
      </trkpt>
      <trkpt lat="43.21679" lon="6.60525">
        <ele>249.2</ele>
        <time>1970-01-01T01:09:31.000Z</time>
      </trkpt>
      <trkpt lat="43.21678" lon="6.60523">
        <ele>249</ele>
        <time>1970-01-01T01:09:32.000Z</time>
      </trkpt>
      <trkpt lat="43.21677" lon="6.60523">
        <ele>248.9</ele>
        <time>1970-01-01T01:09:33.000Z</time>
      </trkpt>
      <trkpt lat="43.21678" lon="6.60523">
        <ele>248.7</ele>
        <time>1970-01-01T01:09:34.000Z</time>
      </trkpt>
      <trkpt lat="43.21678" lon="6.6052">
        <ele>248.4</ele>
        <time>1970-01-01T01:09:35.000Z</time>
      </trkpt>
      <trkpt lat="43.21678" lon="6.60519">
        <ele>248.2</ele>
        <time>1970-01-01T01:09:36.000Z</time>
      </trkpt>
      <trkpt lat="43.21676" lon="6.60515">
        <ele>247.7</ele>
        <time>1970-01-01T01:09:37.000Z</time>
      </trkpt>
      <trkpt lat="43.21676" lon="6.60513">
        <ele>247.5</ele>
        <time>1970-01-01T01:09:38.000Z</time>
      </trkpt>
      <trkpt lat="43.21673" lon="6.60508">
        <ele>247</ele>
        <time>1970-01-01T01:09:39.000Z</time>
      </trkpt>
      <trkpt lat="43.21673" lon="6.60507">
        <ele>246.8</ele>
        <time>1970-01-01T01:09:40.000Z</time>
      </trkpt>
      <trkpt lat="43.21669" lon="6.60505">
        <ele>246.3</ele>
        <time>1970-01-01T01:09:41.000Z</time>
      </trkpt>
      <trkpt lat="43.21668" lon="6.60504">
        <ele>246.2</ele>
        <time>1970-01-01T01:09:42.000Z</time>
      </trkpt>
      <trkpt lat="43.21664" lon="6.60504">
        <ele>245.7</ele>
        <time>1970-01-01T01:09:43.000Z</time>
      </trkpt>
      <trkpt lat="43.21663" lon="6.60504">
        <ele>245.5</ele>
        <time>1970-01-01T01:09:44.000Z</time>
      </trkpt>
      <trkpt lat="43.21661" lon="6.60508">
        <ele>245.2</ele>
        <time>1970-01-01T01:09:45.000Z</time>
      </trkpt>
      <trkpt lat="43.21661" lon="6.6051">
        <ele>245</ele>
        <time>1970-01-01T01:09:46.000Z</time>
      </trkpt>
      <trkpt lat="43.21663" lon="6.60516">
        <ele>244.5</ele>
        <time>1970-01-01T01:09:47.000Z</time>
      </trkpt>
      <trkpt lat="43.21666" lon="6.60528">
        <ele>243.6</ele>
        <time>1970-01-01T01:09:48.000Z</time>
      </trkpt>
      <trkpt lat="43.21669" lon="6.60538">
        <ele>242.8</ele>
        <time>1970-01-01T01:09:49.000Z</time>
      </trkpt>
      <trkpt lat="43.2167" lon="6.60549">
        <ele>242.1</ele>
        <time>1970-01-01T01:09:50.000Z</time>
      </trkpt>
      <trkpt lat="43.21673" lon="6.6056">
        <ele>241.4</ele>
        <time>1970-01-01T01:09:51.000Z</time>
      </trkpt>
      <trkpt lat="43.21677" lon="6.60571">
        <ele>240.6</ele>
        <time>1970-01-01T01:09:52.000Z</time>
      </trkpt>
      <trkpt lat="43.21679" lon="6.60582">
        <ele>240</ele>
        <time>1970-01-01T01:09:53.000Z</time>
      </trkpt>
    </trkseg>
  </trk>
</gpx>